<?xml version="1.0" encoding="UTF-8" standalone="no" ?>
<gpx xmlns="http://www.topografix.com/GPX/1/1" xmlns:xsi="http://www.w3.org/2001/XMLSchema-instance" xsi:schemaLocation="http://www.topografix.com/GPX/1/1 http://www.topografix.com/GPX/1/1/gpx.xsd" version="1.1" creator="VisuGPX - https://www.visugpx.com">
  <metadata>
    <name>enduroc 2013</name>
    <desc><![CDATA[enduroc 2013]]></desc>
  </metadata>
  <trk>
    <name><![CDATA[10/10/2013 Roc Azur]]></name>
    <desc><![CDATA[]]></desc>
    <trkseg>
      <trkpt lat="43.40331" lon="6.62928">
        <ele>366.3</ele>
        <time>2013-10-10T10:10:43.746Z</time>
      </trkpt>
      <trkpt lat="43.40334" lon="6.62936">
        <ele>373.8</ele>
        <time>2013-10-10T10:10:47.126Z</time>
      </trkpt>
      <trkpt lat="43.40336" lon="6.62941">
        <ele>374.2</ele>
        <time>2013-10-10T10:10:48.082Z</time>
      </trkpt>
      <trkpt lat="43.40337" lon="6.62943">
        <ele>380</ele>
        <time>2013-10-10T10:10:53.130Z</time>
      </trkpt>
      <trkpt lat="43.40336" lon="6.62942">
        <ele>375.7</ele>
        <time>2013-10-10T10:10:54.292Z</time>
      </trkpt>
      <trkpt lat="43.40336" lon="6.62941">
        <ele>374.7</ele>
        <time>2013-10-10T10:11:11.201Z</time>
      </trkpt>
      <trkpt lat="43.40336" lon="6.62944">
        <ele>374.7</ele>
        <time>2013-10-10T10:11:12.204Z</time>
      </trkpt>
      <trkpt lat="43.40341" lon="6.62943">
        <ele>374.6</ele>
        <time>2013-10-10T10:11:23.204Z</time>
      </trkpt>
      <trkpt lat="43.40341" lon="6.62943">
        <ele>374.6</ele>
        <time>2013-10-10T10:11:24.207Z</time>
      </trkpt>
      <trkpt lat="43.40341" lon="6.62943">
        <ele>374.7</ele>
        <time>2013-10-10T10:11:29.173Z</time>
      </trkpt>
      <trkpt lat="43.40341" lon="6.62943">
        <ele>374.7</ele>
        <time>2013-10-10T10:11:30.149Z</time>
      </trkpt>
      <trkpt lat="43.40341" lon="6.62942">
        <ele>374.7</ele>
        <time>2013-10-10T10:11:32.138Z</time>
      </trkpt>
      <trkpt lat="43.40342" lon="6.62942">
        <ele>374.8</ele>
        <time>2013-10-10T10:11:33.136Z</time>
      </trkpt>
      <trkpt lat="43.40342" lon="6.62942">
        <ele>374.8</ele>
        <time>2013-10-10T10:11:34.148Z</time>
      </trkpt>
      <trkpt lat="43.40342" lon="6.62942">
        <ele>374.8</ele>
        <time>2013-10-10T10:11:35.143Z</time>
      </trkpt>
      <trkpt lat="43.40343" lon="6.62942">
        <ele>374.8</ele>
        <time>2013-10-10T10:11:38.172Z</time>
      </trkpt>
      <trkpt lat="43.40343" lon="6.62942">
        <ele>374.8</ele>
        <time>2013-10-10T10:11:39.096Z</time>
      </trkpt>
      <trkpt lat="43.40342" lon="6.62942">
        <ele>374.8</ele>
        <time>2013-10-10T10:11:40.224Z</time>
      </trkpt>
      <trkpt lat="43.40342" lon="6.62942">
        <ele>374.8</ele>
        <time>2013-10-10T10:11:41.152Z</time>
      </trkpt>
      <trkpt lat="43.40341" lon="6.62942">
        <ele>374.8</ele>
        <time>2013-10-10T10:11:45.189Z</time>
      </trkpt>
      <trkpt lat="43.40341" lon="6.62942">
        <ele>374.8</ele>
        <time>2013-10-10T10:11:46.190Z</time>
      </trkpt>
      <trkpt lat="43.40342" lon="6.62942">
        <ele>374.8</ele>
        <time>2013-10-10T10:11:52.135Z</time>
      </trkpt>
      <trkpt lat="43.40342" lon="6.62941">
        <ele>374.8</ele>
        <time>2013-10-10T10:11:53.152Z</time>
      </trkpt>
      <trkpt lat="43.40343" lon="6.62943">
        <ele>374.7</ele>
        <time>2013-10-10T10:12:06.107Z</time>
      </trkpt>
      <trkpt lat="43.40342" lon="6.62943">
        <ele>374.8</ele>
        <time>2013-10-10T10:12:07.150Z</time>
      </trkpt>
      <trkpt lat="43.40343" lon="6.62942">
        <ele>374.8</ele>
        <time>2013-10-10T10:12:15.140Z</time>
      </trkpt>
      <trkpt lat="43.40343" lon="6.62943">
        <ele>374.9</ele>
        <time>2013-10-10T10:12:16.173Z</time>
      </trkpt>
      <trkpt lat="43.4034" lon="6.62953">
        <ele>375.5</ele>
        <time>2013-10-10T10:12:21.078Z</time>
      </trkpt>
      <trkpt lat="43.40339" lon="6.62956">
        <ele>375.6</ele>
        <time>2013-10-10T10:12:22.088Z</time>
      </trkpt>
      <trkpt lat="43.40333" lon="6.62965">
        <ele>375.8</ele>
        <time>2013-10-10T10:12:26.133Z</time>
      </trkpt>
      <trkpt lat="43.40331" lon="6.62968">
        <ele>375.9</ele>
        <time>2013-10-10T10:12:27.176Z</time>
      </trkpt>
      <trkpt lat="43.40327" lon="6.62975">
        <ele>375.9</ele>
        <time>2013-10-10T10:12:29.137Z</time>
      </trkpt>
      <trkpt lat="43.40325" lon="6.62978">
        <ele>375.9</ele>
        <time>2013-10-10T10:12:30.136Z</time>
      </trkpt>
      <trkpt lat="43.40319" lon="6.62986">
        <ele>375.9</ele>
        <time>2013-10-10T10:12:33.130Z</time>
      </trkpt>
      <trkpt lat="43.40317" lon="6.6299">
        <ele>376</ele>
        <time>2013-10-10T10:12:34.167Z</time>
      </trkpt>
      <trkpt lat="43.40313" lon="6.62996">
        <ele>376</ele>
        <time>2013-10-10T10:12:36.203Z</time>
      </trkpt>
      <trkpt lat="43.40311" lon="6.62999">
        <ele>376</ele>
        <time>2013-10-10T10:12:37.200Z</time>
      </trkpt>
      <trkpt lat="43.40306" lon="6.63008">
        <ele>376.2</ele>
        <time>2013-10-10T10:12:40.196Z</time>
      </trkpt>
      <trkpt lat="43.40305" lon="6.6301">
        <ele>376.3</ele>
        <time>2013-10-10T10:12:41.200Z</time>
      </trkpt>
      <trkpt lat="43.40299" lon="6.63018">
        <ele>376.6</ele>
        <time>2013-10-10T10:12:44.213Z</time>
      </trkpt>
      <trkpt lat="43.40296" lon="6.63022">
        <ele>376.7</ele>
        <time>2013-10-10T10:12:45.215Z</time>
      </trkpt>
      <trkpt lat="43.40292" lon="6.63027">
        <ele>376.9</ele>
        <time>2013-10-10T10:12:47.158Z</time>
      </trkpt>
      <trkpt lat="43.4029" lon="6.6303">
        <ele>376.9</ele>
        <time>2013-10-10T10:12:48.166Z</time>
      </trkpt>
      <trkpt lat="43.40285" lon="6.63035">
        <ele>376.9</ele>
        <time>2013-10-10T10:12:50.155Z</time>
      </trkpt>
      <trkpt lat="43.40282" lon="6.63037">
        <ele>376.9</ele>
        <time>2013-10-10T10:12:51.154Z</time>
      </trkpt>
      <trkpt lat="43.40277" lon="6.63043">
        <ele>376.9</ele>
        <time>2013-10-10T10:12:53.156Z</time>
      </trkpt>
      <trkpt lat="43.40274" lon="6.63046">
        <ele>376.9</ele>
        <time>2013-10-10T10:12:54.149Z</time>
      </trkpt>
      <trkpt lat="43.40267" lon="6.63053">
        <ele>377.1</ele>
        <time>2013-10-10T10:12:57.156Z</time>
      </trkpt>
      <trkpt lat="43.40265" lon="6.63055">
        <ele>377.2</ele>
        <time>2013-10-10T10:12:58.171Z</time>
      </trkpt>
      <trkpt lat="43.40257" lon="6.6306">
        <ele>377.3</ele>
        <time>2013-10-10T10:13:01.110Z</time>
      </trkpt>
      <trkpt lat="43.40254" lon="6.63062">
        <ele>377.4</ele>
        <time>2013-10-10T10:13:02.126Z</time>
      </trkpt>
      <trkpt lat="43.40245" lon="6.63065">
        <ele>377.6</ele>
        <time>2013-10-10T10:13:05.142Z</time>
      </trkpt>
      <trkpt lat="43.40243" lon="6.63066">
        <ele>377.7</ele>
        <time>2013-10-10T10:13:06.142Z</time>
      </trkpt>
      <trkpt lat="43.40235" lon="6.63068">
        <ele>378</ele>
        <time>2013-10-10T10:13:09.139Z</time>
      </trkpt>
      <trkpt lat="43.40232" lon="6.63068">
        <ele>378.1</ele>
        <time>2013-10-10T10:13:10.142Z</time>
      </trkpt>
      <trkpt lat="43.40224" lon="6.6307">
        <ele>378.3</ele>
        <time>2013-10-10T10:13:13.142Z</time>
      </trkpt>
      <trkpt lat="43.40223" lon="6.63071">
        <ele>378.3</ele>
        <time>2013-10-10T10:13:14.138Z</time>
      </trkpt>
      <trkpt lat="43.40216" lon="6.63076">
        <ele>378.6</ele>
        <time>2013-10-10T10:13:19.139Z</time>
      </trkpt>
      <trkpt lat="43.40214" lon="6.63077">
        <ele>378.7</ele>
        <time>2013-10-10T10:13:20.151Z</time>
      </trkpt>
      <trkpt lat="43.40206" lon="6.63076">
        <ele>379.2</ele>
        <time>2013-10-10T10:13:24.140Z</time>
      </trkpt>
      <trkpt lat="43.40202" lon="6.63077">
        <ele>379.3</ele>
        <time>2013-10-10T10:13:25.140Z</time>
      </trkpt>
      <trkpt lat="43.40194" lon="6.6308">
        <ele>379.6</ele>
        <time>2013-10-10T10:13:28.155Z</time>
      </trkpt>
      <trkpt lat="43.40192" lon="6.63083">
        <ele>379.7</ele>
        <time>2013-10-10T10:13:29.142Z</time>
      </trkpt>
      <trkpt lat="43.40186" lon="6.6309">
        <ele>379.8</ele>
        <time>2013-10-10T10:13:32.136Z</time>
      </trkpt>
      <trkpt lat="43.40184" lon="6.63093">
        <ele>379.8</ele>
        <time>2013-10-10T10:13:33.143Z</time>
      </trkpt>
      <trkpt lat="43.4018" lon="6.63102">
        <ele>380.1</ele>
        <time>2013-10-10T10:13:36.140Z</time>
      </trkpt>
      <trkpt lat="43.40178" lon="6.63105">
        <ele>380.2</ele>
        <time>2013-10-10T10:13:37.138Z</time>
      </trkpt>
      <trkpt lat="43.40175" lon="6.63115">
        <ele>380.4</ele>
        <time>2013-10-10T10:13:40.140Z</time>
      </trkpt>
      <trkpt lat="43.40173" lon="6.63118">
        <ele>380.4</ele>
        <time>2013-10-10T10:13:41.135Z</time>
      </trkpt>
      <trkpt lat="43.40171" lon="6.63126">
        <ele>380.6</ele>
        <time>2013-10-10T10:13:43.101Z</time>
      </trkpt>
      <trkpt lat="43.4017" lon="6.6313">
        <ele>380.7</ele>
        <time>2013-10-10T10:13:44.147Z</time>
      </trkpt>
      <trkpt lat="43.40169" lon="6.63141">
        <ele>380.9</ele>
        <time>2013-10-10T10:13:47.144Z</time>
      </trkpt>
      <trkpt lat="43.40169" lon="6.63144">
        <ele>381</ele>
        <time>2013-10-10T10:13:48.114Z</time>
      </trkpt>
      <trkpt lat="43.40163" lon="6.63137">
        <ele>381.9</ele>
        <time>2013-10-10T10:13:56.165Z</time>
      </trkpt>
      <trkpt lat="43.40162" lon="6.63134">
        <ele>382.1</ele>
        <time>2013-10-10T10:13:57.129Z</time>
      </trkpt>
      <trkpt lat="43.40158" lon="6.63123">
        <ele>382.9</ele>
        <time>2013-10-10T10:14:01.085Z</time>
      </trkpt>
      <trkpt lat="43.40158" lon="6.63121">
        <ele>383.2</ele>
        <time>2013-10-10T10:14:02.128Z</time>
      </trkpt>
      <trkpt lat="43.40159" lon="6.63109">
        <ele>384.1</ele>
        <time>2013-10-10T10:14:07.133Z</time>
      </trkpt>
      <trkpt lat="43.40159" lon="6.63106">
        <ele>384.2</ele>
        <time>2013-10-10T10:14:08.149Z</time>
      </trkpt>
      <trkpt lat="43.40159" lon="6.63095">
        <ele>384.8</ele>
        <time>2013-10-10T10:14:13.136Z</time>
      </trkpt>
      <trkpt lat="43.40159" lon="6.63093">
        <ele>384.9</ele>
        <time>2013-10-10T10:14:14.137Z</time>
      </trkpt>
      <trkpt lat="43.4016" lon="6.63082">
        <ele>385.5</ele>
        <time>2013-10-10T10:14:18.150Z</time>
      </trkpt>
      <trkpt lat="43.4016" lon="6.63079">
        <ele>385.6</ele>
        <time>2013-10-10T10:14:19.187Z</time>
      </trkpt>
      <trkpt lat="43.4016" lon="6.63069">
        <ele>386.1</ele>
        <time>2013-10-10T10:14:23.132Z</time>
      </trkpt>
      <trkpt lat="43.4016" lon="6.63067">
        <ele>386.2</ele>
        <time>2013-10-10T10:14:24.137Z</time>
      </trkpt>
      <trkpt lat="43.40161" lon="6.63057">
        <ele>386.8</ele>
        <time>2013-10-10T10:14:29.142Z</time>
      </trkpt>
      <trkpt lat="43.40162" lon="6.63055">
        <ele>386.9</ele>
        <time>2013-10-10T10:14:30.141Z</time>
      </trkpt>
      <trkpt lat="43.40169" lon="6.63049">
        <ele>387.8</ele>
        <time>2013-10-10T10:14:34.137Z</time>
      </trkpt>
      <trkpt lat="43.40171" lon="6.63047">
        <ele>388.1</ele>
        <time>2013-10-10T10:14:35.132Z</time>
      </trkpt>
      <trkpt lat="43.40177" lon="6.6304">
        <ele>389.9</ele>
        <time>2013-10-10T10:14:41.153Z</time>
      </trkpt>
      <trkpt lat="43.40178" lon="6.63039">
        <ele>390.1</ele>
        <time>2013-10-10T10:14:42.109Z</time>
      </trkpt>
      <trkpt lat="43.40184" lon="6.63032">
        <ele>391.3</ele>
        <time>2013-10-10T10:14:48.111Z</time>
      </trkpt>
      <trkpt lat="43.40185" lon="6.63031">
        <ele>391.5</ele>
        <time>2013-10-10T10:14:49.134Z</time>
      </trkpt>
      <trkpt lat="43.40192" lon="6.63024">
        <ele>392.3</ele>
        <time>2013-10-10T10:14:54.139Z</time>
      </trkpt>
      <trkpt lat="43.40193" lon="6.63023">
        <ele>392.6</ele>
        <time>2013-10-10T10:14:55.155Z</time>
      </trkpt>
      <trkpt lat="43.40199" lon="6.63016">
        <ele>394</ele>
        <time>2013-10-10T10:15:01.096Z</time>
      </trkpt>
      <trkpt lat="43.40201" lon="6.63014">
        <ele>394.1</ele>
        <time>2013-10-10T10:15:02.107Z</time>
      </trkpt>
      <trkpt lat="43.40207" lon="6.63005">
        <ele>396.1</ele>
        <time>2013-10-10T10:15:13.140Z</time>
      </trkpt>
      <trkpt lat="43.40208" lon="6.63004">
        <ele>396.3</ele>
        <time>2013-10-10T10:15:14.137Z</time>
      </trkpt>
      <trkpt lat="43.40215" lon="6.62996">
        <ele>397.9</ele>
        <time>2013-10-10T10:15:22.142Z</time>
      </trkpt>
      <trkpt lat="43.40215" lon="6.62995">
        <ele>398.1</ele>
        <time>2013-10-10T10:15:23.181Z</time>
      </trkpt>
      <trkpt lat="43.40218" lon="6.62993">
        <ele>398.2</ele>
        <time>2013-10-10T10:15:32.139Z</time>
      </trkpt>
      <trkpt lat="43.40218" lon="6.62993">
        <ele>398.2</ele>
        <time>2013-10-10T10:15:33.142Z</time>
      </trkpt>
      <trkpt lat="43.40218" lon="6.62993">
        <ele>398.6</ele>
        <time>2013-10-10T10:15:36.178Z</time>
      </trkpt>
      <trkpt lat="43.40219" lon="6.62993">
        <ele>398.8</ele>
        <time>2013-10-10T10:15:37.169Z</time>
      </trkpt>
      <trkpt lat="43.40221" lon="6.62981">
        <ele>402.7</ele>
        <time>2013-10-10T10:15:54.151Z</time>
      </trkpt>
      <trkpt lat="43.40222" lon="6.62981">
        <ele>403</ele>
        <time>2013-10-10T10:15:55.153Z</time>
      </trkpt>
      <trkpt lat="43.40229" lon="6.62974">
        <ele>406.5</ele>
        <time>2013-10-10T10:16:15.125Z</time>
      </trkpt>
      <trkpt lat="43.4023" lon="6.62973">
        <ele>406.8</ele>
        <time>2013-10-10T10:16:16.147Z</time>
      </trkpt>
      <trkpt lat="43.40235" lon="6.62964">
        <ele>410.5</ele>
        <time>2013-10-10T10:16:27.222Z</time>
      </trkpt>
      <trkpt lat="43.40235" lon="6.62963">
        <ele>410.8</ele>
        <time>2013-10-10T10:16:28.150Z</time>
      </trkpt>
      <trkpt lat="43.4024" lon="6.62952">
        <ele>413.3</ele>
        <time>2013-10-10T10:16:43.726Z</time>
      </trkpt>
      <trkpt lat="43.4024" lon="6.62951">
        <ele>413.4</ele>
        <time>2013-10-10T10:16:44.751Z</time>
      </trkpt>
      <trkpt lat="43.40239" lon="6.62947">
        <ele>414.1</ele>
        <time>2013-10-10T10:16:51.741Z</time>
      </trkpt>
      <trkpt lat="43.40239" lon="6.62947">
        <ele>414.2</ele>
        <time>2013-10-10T10:16:52.765Z</time>
      </trkpt>
      <trkpt lat="43.4024" lon="6.62946">
        <ele>414.5</ele>
        <time>2013-10-10T10:16:58.781Z</time>
      </trkpt>
      <trkpt lat="43.4024" lon="6.62946">
        <ele>414.7</ele>
        <time>2013-10-10T10:16:59.781Z</time>
      </trkpt>
      <trkpt lat="43.40239" lon="6.62934">
        <ele>416</ele>
        <time>2013-10-10T10:17:11.758Z</time>
      </trkpt>
      <trkpt lat="43.40239" lon="6.62933">
        <ele>416.1</ele>
        <time>2013-10-10T10:17:12.776Z</time>
      </trkpt>
      <trkpt lat="43.40237" lon="6.62921">
        <ele>417.8</ele>
        <time>2013-10-10T10:17:25.848Z</time>
      </trkpt>
      <trkpt lat="43.40237" lon="6.6292">
        <ele>418.1</ele>
        <time>2013-10-10T10:17:26.839Z</time>
      </trkpt>
      <trkpt lat="43.40236" lon="6.62908">
        <ele>421.1</ele>
        <time>2013-10-10T10:17:40.963Z</time>
      </trkpt>
      <trkpt lat="43.40236" lon="6.62907">
        <ele>421.3</ele>
        <time>2013-10-10T10:17:41.833Z</time>
      </trkpt>
      <trkpt lat="43.40236" lon="6.62896">
        <ele>424.1</ele>
        <time>2013-10-10T10:17:54.846Z</time>
      </trkpt>
      <trkpt lat="43.40236" lon="6.62895">
        <ele>424.2</ele>
        <time>2013-10-10T10:17:55.799Z</time>
      </trkpt>
      <trkpt lat="43.40235" lon="6.62883">
        <ele>426.4</ele>
        <time>2013-10-10T10:18:07.834Z</time>
      </trkpt>
      <trkpt lat="43.40235" lon="6.62882">
        <ele>426.6</ele>
        <time>2013-10-10T10:18:08.835Z</time>
      </trkpt>
      <trkpt lat="43.40235" lon="6.6287">
        <ele>429</ele>
        <time>2013-10-10T10:18:19.808Z</time>
      </trkpt>
      <trkpt lat="43.40235" lon="6.62869">
        <ele>429.3</ele>
        <time>2013-10-10T10:18:20.847Z</time>
      </trkpt>
      <trkpt lat="43.40235" lon="6.62856">
        <ele>431.9</ele>
        <time>2013-10-10T10:18:33.844Z</time>
      </trkpt>
      <trkpt lat="43.40235" lon="6.62855">
        <ele>432</ele>
        <time>2013-10-10T10:18:34.837Z</time>
      </trkpt>
      <trkpt lat="43.40235" lon="6.62843">
        <ele>434.1</ele>
        <time>2013-10-10T10:18:48.854Z</time>
      </trkpt>
      <trkpt lat="43.40235" lon="6.62842">
        <ele>434.4</ele>
        <time>2013-10-10T10:18:49.848Z</time>
      </trkpt>
      <trkpt lat="43.40231" lon="6.62832">
        <ele>436.7</ele>
        <time>2013-10-10T10:19:00.811Z</time>
      </trkpt>
      <trkpt lat="43.40231" lon="6.62831">
        <ele>436.8</ele>
        <time>2013-10-10T10:19:01.844Z</time>
      </trkpt>
      <trkpt lat="43.40228" lon="6.6282">
        <ele>438.7</ele>
        <time>2013-10-10T10:19:14.819Z</time>
      </trkpt>
      <trkpt lat="43.40228" lon="6.62819">
        <ele>438.7</ele>
        <time>2013-10-10T10:19:15.840Z</time>
      </trkpt>
      <trkpt lat="43.40226" lon="6.62806">
        <ele>441.1</ele>
        <time>2013-10-10T10:19:30.547Z</time>
      </trkpt>
      <trkpt lat="43.40227" lon="6.62805">
        <ele>441.3</ele>
        <time>2013-10-10T10:19:31.572Z</time>
      </trkpt>
      <trkpt lat="43.40231" lon="6.62795">
        <ele>442.2</ele>
        <time>2013-10-10T10:19:39.577Z</time>
      </trkpt>
      <trkpt lat="43.40231" lon="6.62794">
        <ele>442.3</ele>
        <time>2013-10-10T10:19:40.679Z</time>
      </trkpt>
      <trkpt lat="43.40235" lon="6.62784">
        <ele>443.4</ele>
        <time>2013-10-10T10:19:50.608Z</time>
      </trkpt>
      <trkpt lat="43.40235" lon="6.62783">
        <ele>443.4</ele>
        <time>2013-10-10T10:19:51.605Z</time>
      </trkpt>
      <trkpt lat="43.40237" lon="6.62771">
        <ele>443.6</ele>
        <time>2013-10-10T10:20:02.584Z</time>
      </trkpt>
      <trkpt lat="43.40237" lon="6.6277">
        <ele>443.6</ele>
        <time>2013-10-10T10:20:03.594Z</time>
      </trkpt>
      <trkpt lat="43.40239" lon="6.62759">
        <ele>443.9</ele>
        <time>2013-10-10T10:20:09.604Z</time>
      </trkpt>
      <trkpt lat="43.4024" lon="6.62756">
        <ele>443.9</ele>
        <time>2013-10-10T10:20:10.596Z</time>
      </trkpt>
      <trkpt lat="43.40242" lon="6.62746">
        <ele>444.2</ele>
        <time>2013-10-10T10:20:14.586Z</time>
      </trkpt>
      <trkpt lat="43.40242" lon="6.62744">
        <ele>444.4</ele>
        <time>2013-10-10T10:20:15.586Z</time>
      </trkpt>
      <trkpt lat="43.40246" lon="6.62734">
        <ele>445.4</ele>
        <time>2013-10-10T10:20:21.692Z</time>
      </trkpt>
      <trkpt lat="43.40247" lon="6.62732">
        <ele>445.6</ele>
        <time>2013-10-10T10:20:22.794Z</time>
      </trkpt>
      <trkpt lat="43.40252" lon="6.62724">
        <ele>446.6</ele>
        <time>2013-10-10T10:20:27.708Z</time>
      </trkpt>
      <trkpt lat="43.40254" lon="6.62722">
        <ele>446.8</ele>
        <time>2013-10-10T10:20:28.705Z</time>
      </trkpt>
      <trkpt lat="43.4026" lon="6.62716">
        <ele>447.8</ele>
        <time>2013-10-10T10:20:35.717Z</time>
      </trkpt>
      <trkpt lat="43.40261" lon="6.62715">
        <ele>447.9</ele>
        <time>2013-10-10T10:20:36.704Z</time>
      </trkpt>
      <trkpt lat="43.40268" lon="6.62709">
        <ele>448.5</ele>
        <time>2013-10-10T10:20:43.707Z</time>
      </trkpt>
      <trkpt lat="43.40269" lon="6.62708">
        <ele>448.6</ele>
        <time>2013-10-10T10:20:44.710Z</time>
      </trkpt>
      <trkpt lat="43.40276" lon="6.62702">
        <ele>451.6</ele>
        <time>2013-10-10T10:20:58.720Z</time>
      </trkpt>
      <trkpt lat="43.40277" lon="6.62701">
        <ele>451.9</ele>
        <time>2013-10-10T10:20:59.719Z</time>
      </trkpt>
      <trkpt lat="43.40284" lon="6.62694">
        <ele>458.3</ele>
        <time>2013-10-10T10:21:16.718Z</time>
      </trkpt>
      <trkpt lat="43.40285" lon="6.62694">
        <ele>458.5</ele>
        <time>2013-10-10T10:21:17.723Z</time>
      </trkpt>
      <trkpt lat="43.40294" lon="6.62692">
        <ele>460.2</ele>
        <time>2013-10-10T10:21:28.719Z</time>
      </trkpt>
      <trkpt lat="43.40294" lon="6.62691">
        <ele>460.4</ele>
        <time>2013-10-10T10:21:29.715Z</time>
      </trkpt>
      <trkpt lat="43.40302" lon="6.62686">
        <ele>462</ele>
        <time>2013-10-10T10:21:42.719Z</time>
      </trkpt>
      <trkpt lat="43.40303" lon="6.62686">
        <ele>462.2</ele>
        <time>2013-10-10T10:21:43.716Z</time>
      </trkpt>
      <trkpt lat="43.4031" lon="6.62679">
        <ele>464.4</ele>
        <time>2013-10-10T10:21:54.801Z</time>
      </trkpt>
      <trkpt lat="43.4031" lon="6.62678">
        <ele>464.7</ele>
        <time>2013-10-10T10:21:55.713Z</time>
      </trkpt>
      <trkpt lat="43.40315" lon="6.62668">
        <ele>466.8</ele>
        <time>2013-10-10T10:22:06.734Z</time>
      </trkpt>
      <trkpt lat="43.40316" lon="6.62667">
        <ele>466.8</ele>
        <time>2013-10-10T10:22:07.713Z</time>
      </trkpt>
      <trkpt lat="43.4032" lon="6.62657">
        <ele>468.9</ele>
        <time>2013-10-10T10:22:22.716Z</time>
      </trkpt>
      <trkpt lat="43.4032" lon="6.62656">
        <ele>469.2</ele>
        <time>2013-10-10T10:22:23.716Z</time>
      </trkpt>
      <trkpt lat="43.40323" lon="6.62645">
        <ele>471.9</ele>
        <time>2013-10-10T10:22:37.718Z</time>
      </trkpt>
      <trkpt lat="43.40324" lon="6.62644">
        <ele>472.1</ele>
        <time>2013-10-10T10:22:38.715Z</time>
      </trkpt>
      <trkpt lat="43.40324" lon="6.62643">
        <ele>472.3</ele>
        <time>2013-10-10T10:22:40.821Z</time>
      </trkpt>
      <trkpt lat="43.40324" lon="6.62643">
        <ele>472.3</ele>
        <time>2013-10-10T10:22:41.714Z</time>
      </trkpt>
      <trkpt lat="43.40324" lon="6.62643">
        <ele>472.4</ele>
        <time>2013-10-10T10:22:43.723Z</time>
      </trkpt>
      <trkpt lat="43.40324" lon="6.62643">
        <ele>472.6</ele>
        <time>2013-10-10T10:22:44.719Z</time>
      </trkpt>
      <trkpt lat="43.40327" lon="6.62631">
        <ele>474.8</ele>
        <time>2013-10-10T10:22:57.717Z</time>
      </trkpt>
      <trkpt lat="43.40327" lon="6.62631">
        <ele>475</ele>
        <time>2013-10-10T10:22:58.716Z</time>
      </trkpt>
      <trkpt lat="43.40327" lon="6.62619">
        <ele>477.7</ele>
        <time>2013-10-10T10:23:13.681Z</time>
      </trkpt>
      <trkpt lat="43.40327" lon="6.62618">
        <ele>477.8</ele>
        <time>2013-10-10T10:23:14.773Z</time>
      </trkpt>
      <trkpt lat="43.40327" lon="6.62607">
        <ele>479.1</ele>
        <time>2013-10-10T10:23:25.712Z</time>
      </trkpt>
      <trkpt lat="43.40327" lon="6.62605">
        <ele>479.3</ele>
        <time>2013-10-10T10:23:26.712Z</time>
      </trkpt>
      <trkpt lat="43.4033" lon="6.62595">
        <ele>480.9</ele>
        <time>2013-10-10T10:23:35.712Z</time>
      </trkpt>
      <trkpt lat="43.40331" lon="6.62593">
        <ele>481.1</ele>
        <time>2013-10-10T10:23:36.717Z</time>
      </trkpt>
      <trkpt lat="43.40337" lon="6.62584">
        <ele>481.8</ele>
        <time>2013-10-10T10:23:41.713Z</time>
      </trkpt>
      <trkpt lat="43.40338" lon="6.62582">
        <ele>481.9</ele>
        <time>2013-10-10T10:23:42.727Z</time>
      </trkpt>
      <trkpt lat="43.40345" lon="6.62576">
        <ele>482.3</ele>
        <time>2013-10-10T10:23:47.715Z</time>
      </trkpt>
      <trkpt lat="43.40346" lon="6.62575">
        <ele>482.4</ele>
        <time>2013-10-10T10:23:48.714Z</time>
      </trkpt>
      <trkpt lat="43.40353" lon="6.62567">
        <ele>483.2</ele>
        <time>2013-10-10T10:23:56.721Z</time>
      </trkpt>
      <trkpt lat="43.40354" lon="6.62566">
        <ele>483.2</ele>
        <time>2013-10-10T10:23:57.736Z</time>
      </trkpt>
      <trkpt lat="43.40362" lon="6.62561">
        <ele>483.8</ele>
        <time>2013-10-10T10:24:03.719Z</time>
      </trkpt>
      <trkpt lat="43.40363" lon="6.6256">
        <ele>483.9</ele>
        <time>2013-10-10T10:24:04.714Z</time>
      </trkpt>
      <trkpt lat="43.40371" lon="6.62555">
        <ele>484.8</ele>
        <time>2013-10-10T10:24:12.714Z</time>
      </trkpt>
      <trkpt lat="43.40372" lon="6.62554">
        <ele>484.9</ele>
        <time>2013-10-10T10:24:13.729Z</time>
      </trkpt>
      <trkpt lat="43.40379" lon="6.62549">
        <ele>485.9</ele>
        <time>2013-10-10T10:24:20.730Z</time>
      </trkpt>
      <trkpt lat="43.4038" lon="6.62548">
        <ele>486</ele>
        <time>2013-10-10T10:24:21.717Z</time>
      </trkpt>
      <trkpt lat="43.40383" lon="6.62547">
        <ele>486.8</ele>
        <time>2013-10-10T10:24:27.725Z</time>
      </trkpt>
      <trkpt lat="43.40383" lon="6.62546">
        <ele>487</ele>
        <time>2013-10-10T10:24:28.714Z</time>
      </trkpt>
      <trkpt lat="43.40383" lon="6.62546">
        <ele>487.1</ele>
        <time>2013-10-10T10:24:29.713Z</time>
      </trkpt>
      <trkpt lat="43.40389" lon="6.62538">
        <ele>488.8</ele>
        <time>2013-10-10T10:24:40.820Z</time>
      </trkpt>
      <trkpt lat="43.4039" lon="6.62537">
        <ele>488.9</ele>
        <time>2013-10-10T10:24:41.724Z</time>
      </trkpt>
      <trkpt lat="43.40397" lon="6.62531">
        <ele>490.7</ele>
        <time>2013-10-10T10:24:54.717Z</time>
      </trkpt>
      <trkpt lat="43.40398" lon="6.62531">
        <ele>490.7</ele>
        <time>2013-10-10T10:24:55.713Z</time>
      </trkpt>
      <trkpt lat="43.40406" lon="6.62527">
        <ele>493</ele>
        <time>2013-10-10T10:25:13.715Z</time>
      </trkpt>
      <trkpt lat="43.40407" lon="6.62527">
        <ele>493.2</ele>
        <time>2013-10-10T10:25:14.714Z</time>
      </trkpt>
      <trkpt lat="43.40415" lon="6.62521">
        <ele>495.1</ele>
        <time>2013-10-10T10:25:28.713Z</time>
      </trkpt>
      <trkpt lat="43.40415" lon="6.62521">
        <ele>495.2</ele>
        <time>2013-10-10T10:25:29.684Z</time>
      </trkpt>
      <trkpt lat="43.4042" lon="6.62519">
        <ele>495.9</ele>
        <time>2013-10-10T10:25:38.715Z</time>
      </trkpt>
      <trkpt lat="43.4042" lon="6.62519">
        <ele>495.9</ele>
        <time>2013-10-10T10:25:39.716Z</time>
      </trkpt>
      <trkpt lat="43.4042" lon="6.62519">
        <ele>496</ele>
        <time>2013-10-10T10:25:41.795Z</time>
      </trkpt>
      <trkpt lat="43.4042" lon="6.62519">
        <ele>496.1</ele>
        <time>2013-10-10T10:25:42.714Z</time>
      </trkpt>
      <trkpt lat="43.40428" lon="6.62514">
        <ele>498.3</ele>
        <time>2013-10-10T10:25:58.716Z</time>
      </trkpt>
      <trkpt lat="43.40429" lon="6.62513">
        <ele>498.4</ele>
        <time>2013-10-10T10:25:59.741Z</time>
      </trkpt>
      <trkpt lat="43.40437" lon="6.62509">
        <ele>500</ele>
        <time>2013-10-10T10:26:15.715Z</time>
      </trkpt>
      <trkpt lat="43.40437" lon="6.62509">
        <ele>500.1</ele>
        <time>2013-10-10T10:26:16.716Z</time>
      </trkpt>
      <trkpt lat="43.40438" lon="6.62509">
        <ele>500.2</ele>
        <time>2013-10-10T10:26:17.718Z</time>
      </trkpt>
      <trkpt lat="43.40446" lon="6.62505">
        <ele>501.7</ele>
        <time>2013-10-10T10:26:30.729Z</time>
      </trkpt>
      <trkpt lat="43.40446" lon="6.62505">
        <ele>501.8</ele>
        <time>2013-10-10T10:26:31.713Z</time>
      </trkpt>
      <trkpt lat="43.40454" lon="6.62499">
        <ele>504.6</ele>
        <time>2013-10-10T10:26:52.760Z</time>
      </trkpt>
      <trkpt lat="43.40454" lon="6.62498">
        <ele>504.8</ele>
        <time>2013-10-10T10:26:53.704Z</time>
      </trkpt>
      <trkpt lat="43.40455" lon="6.62498">
        <ele>505</ele>
        <time>2013-10-10T10:26:56.703Z</time>
      </trkpt>
      <trkpt lat="43.40455" lon="6.62498">
        <ele>505</ele>
        <time>2013-10-10T10:26:57.715Z</time>
      </trkpt>
      <trkpt lat="43.40456" lon="6.62498">
        <ele>505.2</ele>
        <time>2013-10-10T10:27:03.732Z</time>
      </trkpt>
      <trkpt lat="43.40456" lon="6.62498">
        <ele>505.3</ele>
        <time>2013-10-10T10:27:04.764Z</time>
      </trkpt>
      <trkpt lat="43.40457" lon="6.62496">
        <ele>506.1</ele>
        <time>2013-10-10T10:27:09.688Z</time>
      </trkpt>
      <trkpt lat="43.40457" lon="6.62496">
        <ele>506.1</ele>
        <time>2013-10-10T10:27:10.748Z</time>
      </trkpt>
      <trkpt lat="43.40456" lon="6.62496">
        <ele>506.1</ele>
        <time>2013-10-10T10:27:11.719Z</time>
      </trkpt>
      <trkpt lat="43.40455" lon="6.62497">
        <ele>506.2</ele>
        <time>2013-10-10T10:27:16.716Z</time>
      </trkpt>
      <trkpt lat="43.40455" lon="6.62497">
        <ele>506.2</ele>
        <time>2013-10-10T10:27:17.729Z</time>
      </trkpt>
      <trkpt lat="43.40455" lon="6.62497">
        <ele>507.3</ele>
        <time>2013-10-10T10:27:32.719Z</time>
      </trkpt>
      <trkpt lat="43.40455" lon="6.62497">
        <ele>507.4</ele>
        <time>2013-10-10T10:27:33.732Z</time>
      </trkpt>
      <trkpt lat="43.40456" lon="6.62496">
        <ele>507.7</ele>
        <time>2013-10-10T10:27:36.688Z</time>
      </trkpt>
      <trkpt lat="43.40456" lon="6.62496">
        <ele>507.7</ele>
        <time>2013-10-10T10:27:37.738Z</time>
      </trkpt>
      <trkpt lat="43.40456" lon="6.62496">
        <ele>508.3</ele>
        <time>2013-10-10T10:27:42.711Z</time>
      </trkpt>
      <trkpt lat="43.40456" lon="6.62496">
        <ele>508.5</ele>
        <time>2013-10-10T10:27:43.728Z</time>
      </trkpt>
      <trkpt lat="43.40458" lon="6.62494">
        <ele>510</ele>
        <time>2013-10-10T10:27:51.719Z</time>
      </trkpt>
      <trkpt lat="43.40458" lon="6.62494">
        <ele>510</ele>
        <time>2013-10-10T10:27:52.721Z</time>
      </trkpt>
      <trkpt lat="43.40458" lon="6.62494">
        <ele>510.3</ele>
        <time>2013-10-10T10:27:58.727Z</time>
      </trkpt>
      <trkpt lat="43.40459" lon="6.62493">
        <ele>510.5</ele>
        <time>2013-10-10T10:27:59.719Z</time>
      </trkpt>
      <trkpt lat="43.40468" lon="6.62494">
        <ele>511.7</ele>
        <time>2013-10-10T10:28:07.717Z</time>
      </trkpt>
      <trkpt lat="43.40468" lon="6.62494">
        <ele>511.9</ele>
        <time>2013-10-10T10:28:08.725Z</time>
      </trkpt>
      <trkpt lat="43.40468" lon="6.62493">
        <ele>511.9</ele>
        <time>2013-10-10T10:28:09.727Z</time>
      </trkpt>
      <trkpt lat="43.40468" lon="6.62493">
        <ele>511.9</ele>
        <time>2013-10-10T10:28:10.729Z</time>
      </trkpt>
      <trkpt lat="43.40467" lon="6.62497">
        <ele>512.4</ele>
        <time>2013-10-10T10:28:45.720Z</time>
      </trkpt>
      <trkpt lat="43.40467" lon="6.62497">
        <ele>512.4</ele>
        <time>2013-10-10T10:28:46.721Z</time>
      </trkpt>
      <trkpt lat="43.40467" lon="6.62498">
        <ele>512.4</ele>
        <time>2013-10-10T10:28:48.724Z</time>
      </trkpt>
      <trkpt lat="43.40467" lon="6.62498">
        <ele>512.4</ele>
        <time>2013-10-10T10:28:49.728Z</time>
      </trkpt>
      <trkpt lat="43.40467" lon="6.62496">
        <ele>512.5</ele>
        <time>2013-10-10T10:28:55.734Z</time>
      </trkpt>
      <trkpt lat="43.40467" lon="6.62496">
        <ele>512.5</ele>
        <time>2013-10-10T10:28:56.713Z</time>
      </trkpt>
      <trkpt lat="43.40467" lon="6.62495">
        <ele>512.6</ele>
        <time>2013-10-10T10:29:00.801Z</time>
      </trkpt>
      <trkpt lat="43.40467" lon="6.62494">
        <ele>512.7</ele>
        <time>2013-10-10T10:29:01.802Z</time>
      </trkpt>
      <trkpt lat="43.40467" lon="6.62494">
        <ele>512.9</ele>
        <time>2013-10-10T10:29:05.732Z</time>
      </trkpt>
      <trkpt lat="43.40466" lon="6.62495">
        <ele>512.9</ele>
        <time>2013-10-10T10:29:06.730Z</time>
      </trkpt>
      <trkpt lat="43.40465" lon="6.62495">
        <ele>513</ele>
        <time>2013-10-10T10:29:12.714Z</time>
      </trkpt>
      <trkpt lat="43.40464" lon="6.62495">
        <ele>513</ele>
        <time>2013-10-10T10:29:13.705Z</time>
      </trkpt>
      <trkpt lat="43.40464" lon="6.62494">
        <ele>513.1</ele>
        <time>2013-10-10T10:29:16.824Z</time>
      </trkpt>
      <trkpt lat="43.40464" lon="6.62494">
        <ele>513.3</ele>
        <time>2013-10-10T10:29:17.753Z</time>
      </trkpt>
      <trkpt lat="43.40464" lon="6.62494">
        <ele>513.3</ele>
        <time>2013-10-10T10:29:18.766Z</time>
      </trkpt>
      <trkpt lat="43.40465" lon="6.62494">
        <ele>513.4</ele>
        <time>2013-10-10T10:29:20.730Z</time>
      </trkpt>
      <trkpt lat="43.40465" lon="6.62494">
        <ele>513.6</ele>
        <time>2013-10-10T10:29:21.721Z</time>
      </trkpt>
      <trkpt lat="43.40467" lon="6.62494">
        <ele>513.7</ele>
        <time>2013-10-10T10:29:29.721Z</time>
      </trkpt>
      <trkpt lat="43.40467" lon="6.62495">
        <ele>513.8</ele>
        <time>2013-10-10T10:29:30.745Z</time>
      </trkpt>
      <trkpt lat="43.40465" lon="6.62496">
        <ele>514.6</ele>
        <time>2013-10-10T10:30:16.737Z</time>
      </trkpt>
      <trkpt lat="43.40466" lon="6.62496">
        <ele>514.6</ele>
        <time>2013-10-10T10:30:17.817Z</time>
      </trkpt>
      <trkpt lat="43.40466" lon="6.62496">
        <ele>514.7</ele>
        <time>2013-10-10T10:30:18.703Z</time>
      </trkpt>
      <trkpt lat="43.40466" lon="6.62497">
        <ele>514.9</ele>
        <time>2013-10-10T10:30:19.716Z</time>
      </trkpt>
      <trkpt lat="43.40467" lon="6.62497">
        <ele>515.1</ele>
        <time>2013-10-10T10:30:28.724Z</time>
      </trkpt>
      <trkpt lat="43.40468" lon="6.62497">
        <ele>515.1</ele>
        <time>2013-10-10T10:30:29.716Z</time>
      </trkpt>
      <trkpt lat="43.40468" lon="6.62496">
        <ele>516.1</ele>
        <time>2013-10-10T10:31:08.772Z</time>
      </trkpt>
      <trkpt lat="43.40468" lon="6.62497">
        <ele>516.3</ele>
        <time>2013-10-10T10:31:09.750Z</time>
      </trkpt>
      <trkpt lat="43.40468" lon="6.62499">
        <ele>516.6</ele>
        <time>2013-10-10T10:31:15.753Z</time>
      </trkpt>
      <trkpt lat="43.40468" lon="6.62499">
        <ele>516.6</ele>
        <time>2013-10-10T10:31:16.683Z</time>
      </trkpt>
      <trkpt lat="43.40468" lon="6.62498">
        <ele>516.6</ele>
        <time>2013-10-10T10:31:18.729Z</time>
      </trkpt>
      <trkpt lat="43.40468" lon="6.62498">
        <ele>516.6</ele>
        <time>2013-10-10T10:31:19.729Z</time>
      </trkpt>
      <trkpt lat="43.40468" lon="6.62497">
        <ele>516.6</ele>
        <time>2013-10-10T10:31:20.731Z</time>
      </trkpt>
      <trkpt lat="43.40468" lon="6.62497">
        <ele>516.6</ele>
        <time>2013-10-10T10:31:21.765Z</time>
      </trkpt>
      <trkpt lat="43.40468" lon="6.62498">
        <ele>516.8</ele>
        <time>2013-10-10T10:31:28.720Z</time>
      </trkpt>
      <trkpt lat="43.40467" lon="6.62498">
        <ele>516.8</ele>
        <time>2013-10-10T10:31:29.713Z</time>
      </trkpt>
      <trkpt lat="43.40467" lon="6.62497">
        <ele>516.8</ele>
        <time>2013-10-10T10:31:30.734Z</time>
      </trkpt>
      <trkpt lat="43.40468" lon="6.62496">
        <ele>516.9</ele>
        <time>2013-10-10T10:31:35.766Z</time>
      </trkpt>
      <trkpt lat="43.40468" lon="6.62496">
        <ele>516.9</ele>
        <time>2013-10-10T10:31:36.749Z</time>
      </trkpt>
      <trkpt lat="43.40468" lon="6.62495">
        <ele>516.9</ele>
        <time>2013-10-10T10:31:38.736Z</time>
      </trkpt>
      <trkpt lat="43.40468" lon="6.62495">
        <ele>516.9</ele>
        <time>2013-10-10T10:31:39.719Z</time>
      </trkpt>
      <trkpt lat="43.40467" lon="6.62496">
        <ele>517</ele>
        <time>2013-10-10T10:32:08.700Z</time>
      </trkpt>
      <trkpt lat="43.40467" lon="6.62496">
        <ele>517</ele>
        <time>2013-10-10T10:32:09.700Z</time>
      </trkpt>
      <trkpt lat="43.40469" lon="6.62495">
        <ele>517.1</ele>
        <time>2013-10-10T10:32:15.691Z</time>
      </trkpt>
      <trkpt lat="43.40469" lon="6.62496">
        <ele>517.1</ele>
        <time>2013-10-10T10:32:16.712Z</time>
      </trkpt>
      <trkpt lat="43.40469" lon="6.62496">
        <ele>517</ele>
        <time>2013-10-10T10:32:22.697Z</time>
      </trkpt>
      <trkpt lat="43.4047" lon="6.62496">
        <ele>517</ele>
        <time>2013-10-10T10:32:23.719Z</time>
      </trkpt>
      <trkpt lat="43.40471" lon="6.62496">
        <ele>517.1</ele>
        <time>2013-10-10T10:32:29.679Z</time>
      </trkpt>
      <trkpt lat="43.40471" lon="6.62496">
        <ele>517.1</ele>
        <time>2013-10-10T10:32:30.720Z</time>
      </trkpt>
      <trkpt lat="43.40471" lon="6.62497">
        <ele>517</ele>
        <time>2013-10-10T10:32:34.763Z</time>
      </trkpt>
      <trkpt lat="43.4047" lon="6.62497">
        <ele>517</ele>
        <time>2013-10-10T10:32:35.750Z</time>
      </trkpt>
      <trkpt lat="43.40468" lon="6.62497">
        <ele>517</ele>
        <time>2013-10-10T10:32:44.734Z</time>
      </trkpt>
      <trkpt lat="43.40468" lon="6.62497">
        <ele>517</ele>
        <time>2013-10-10T10:32:45.729Z</time>
      </trkpt>
      <trkpt lat="43.40468" lon="6.62497">
        <ele>516.9</ele>
        <time>2013-10-10T10:32:59.720Z</time>
      </trkpt>
      <trkpt lat="43.40467" lon="6.62496">
        <ele>516.9</ele>
        <time>2013-10-10T10:33:00.685Z</time>
      </trkpt>
      <trkpt lat="43.40467" lon="6.62496">
        <ele>516.9</ele>
        <time>2013-10-10T10:33:01.686Z</time>
      </trkpt>
      <trkpt lat="43.40467" lon="6.62497">
        <ele>516.9</ele>
        <time>2013-10-10T10:33:25.739Z</time>
      </trkpt>
      <trkpt lat="43.40467" lon="6.62497">
        <ele>516.9</ele>
        <time>2013-10-10T10:33:26.740Z</time>
      </trkpt>
      <trkpt lat="43.40468" lon="6.62496">
        <ele>516.9</ele>
        <time>2013-10-10T10:33:27.744Z</time>
      </trkpt>
      <trkpt lat="43.40468" lon="6.62496">
        <ele>516.9</ele>
        <time>2013-10-10T10:33:28.740Z</time>
      </trkpt>
      <trkpt lat="43.40469" lon="6.62498">
        <ele>517.1</ele>
        <time>2013-10-10T10:34:18.691Z</time>
      </trkpt>
      <trkpt lat="43.40469" lon="6.62498">
        <ele>517.2</ele>
        <time>2013-10-10T10:34:19.690Z</time>
      </trkpt>
      <trkpt lat="43.40469" lon="6.62496">
        <ele>517.2</ele>
        <time>2013-10-10T10:34:23.690Z</time>
      </trkpt>
      <trkpt lat="43.40469" lon="6.62496">
        <ele>517.2</ele>
        <time>2013-10-10T10:34:24.690Z</time>
      </trkpt>
      <trkpt lat="43.4047" lon="6.62496">
        <ele>517.2</ele>
        <time>2013-10-10T10:34:28.689Z</time>
      </trkpt>
      <trkpt lat="43.4047" lon="6.62496">
        <ele>517.2</ele>
        <time>2013-10-10T10:34:29.690Z</time>
      </trkpt>
      <trkpt lat="43.40472" lon="6.62495">
        <ele>517.2</ele>
        <time>2013-10-10T10:34:35.690Z</time>
      </trkpt>
      <trkpt lat="43.40472" lon="6.62495">
        <ele>517.2</ele>
        <time>2013-10-10T10:34:36.692Z</time>
      </trkpt>
      <trkpt lat="43.40472" lon="6.62495">
        <ele>517.1</ele>
        <time>2013-10-10T10:34:40.696Z</time>
      </trkpt>
      <trkpt lat="43.40472" lon="6.62494">
        <ele>517.1</ele>
        <time>2013-10-10T10:34:41.727Z</time>
      </trkpt>
      <trkpt lat="43.40472" lon="6.62494">
        <ele>517.1</ele>
        <time>2013-10-10T10:34:42.734Z</time>
      </trkpt>
      <trkpt lat="43.40472" lon="6.62495">
        <ele>517.1</ele>
        <time>2013-10-10T10:34:46.709Z</time>
      </trkpt>
      <trkpt lat="43.40472" lon="6.62495">
        <ele>517.1</ele>
        <time>2013-10-10T10:34:47.736Z</time>
      </trkpt>
      <trkpt lat="43.40472" lon="6.62496">
        <ele>517.3</ele>
        <time>2013-10-10T10:34:50.737Z</time>
      </trkpt>
      <trkpt lat="43.40472" lon="6.62496">
        <ele>517.3</ele>
        <time>2013-10-10T10:34:51.725Z</time>
      </trkpt>
      <trkpt lat="43.40472" lon="6.62495">
        <ele>517.3</ele>
        <time>2013-10-10T10:35:01.764Z</time>
      </trkpt>
      <trkpt lat="43.40471" lon="6.62495">
        <ele>517.3</ele>
        <time>2013-10-10T10:35:02.731Z</time>
      </trkpt>
      <trkpt lat="43.40471" lon="6.62495">
        <ele>517.3</ele>
        <time>2013-10-10T10:35:04.737Z</time>
      </trkpt>
      <trkpt lat="43.40471" lon="6.62495">
        <ele>517.3</ele>
        <time>2013-10-10T10:35:05.699Z</time>
      </trkpt>
      <trkpt lat="43.40471" lon="6.62495">
        <ele>517.5</ele>
        <time>2013-10-10T10:35:15.774Z</time>
      </trkpt>
      <trkpt lat="43.40472" lon="6.62495">
        <ele>517.6</ele>
        <time>2013-10-10T10:35:16.698Z</time>
      </trkpt>
      <trkpt lat="43.40472" lon="6.62494">
        <ele>517.7</ele>
        <time>2013-10-10T10:35:18.725Z</time>
      </trkpt>
      <trkpt lat="43.40472" lon="6.62494">
        <ele>517.7</ele>
        <time>2013-10-10T10:35:19.700Z</time>
      </trkpt>
      <trkpt lat="43.40472" lon="6.62494">
        <ele>517.7</ele>
        <time>2013-10-10T10:35:29.764Z</time>
      </trkpt>
      <trkpt lat="43.40472" lon="6.62495">
        <ele>517.7</ele>
        <time>2013-10-10T10:35:30.719Z</time>
      </trkpt>
      <trkpt lat="43.40468" lon="6.62496">
        <ele>517.8</ele>
        <time>2013-10-10T10:35:43.739Z</time>
      </trkpt>
      <trkpt lat="43.40469" lon="6.62497">
        <ele>517.8</ele>
        <time>2013-10-10T10:35:44.752Z</time>
      </trkpt>
      <trkpt lat="43.40468" lon="6.62498">
        <ele>517.9</ele>
        <time>2013-10-10T10:36:03.728Z</time>
      </trkpt>
      <trkpt lat="43.40468" lon="6.62498">
        <ele>517.9</ele>
        <time>2013-10-10T10:36:04.729Z</time>
      </trkpt>
      <trkpt lat="43.40468" lon="6.62499">
        <ele>517.9</ele>
        <time>2013-10-10T10:36:05.727Z</time>
      </trkpt>
      <trkpt lat="43.40469" lon="6.62499">
        <ele>517.8</ele>
        <time>2013-10-10T10:36:15.719Z</time>
      </trkpt>
      <trkpt lat="43.40469" lon="6.62498">
        <ele>517.8</ele>
        <time>2013-10-10T10:36:16.700Z</time>
      </trkpt>
      <trkpt lat="43.4047" lon="6.62497">
        <ele>517.9</ele>
        <time>2013-10-10T10:36:23.701Z</time>
      </trkpt>
      <trkpt lat="43.4047" lon="6.62496">
        <ele>517.9</ele>
        <time>2013-10-10T10:36:24.700Z</time>
      </trkpt>
      <trkpt lat="43.4047" lon="6.62496">
        <ele>517.8</ele>
        <time>2013-10-10T10:36:36.710Z</time>
      </trkpt>
      <trkpt lat="43.4047" lon="6.62497">
        <ele>517.8</ele>
        <time>2013-10-10T10:36:37.706Z</time>
      </trkpt>
      <trkpt lat="43.40469" lon="6.62497">
        <ele>517.8</ele>
        <time>2013-10-10T10:36:40.854Z</time>
      </trkpt>
      <trkpt lat="43.40469" lon="6.62497">
        <ele>517.8</ele>
        <time>2013-10-10T10:36:41.741Z</time>
      </trkpt>
      <trkpt lat="43.40469" lon="6.62498">
        <ele>517.6</ele>
        <time>2013-10-10T10:37:08.682Z</time>
      </trkpt>
      <trkpt lat="43.40469" lon="6.62498">
        <ele>517.6</ele>
        <time>2013-10-10T10:37:09.686Z</time>
      </trkpt>
      <trkpt lat="43.40468" lon="6.62499">
        <ele>517.6</ele>
        <time>2013-10-10T10:37:12.681Z</time>
      </trkpt>
      <trkpt lat="43.40468" lon="6.62499">
        <ele>517.6</ele>
        <time>2013-10-10T10:37:13.685Z</time>
      </trkpt>
      <trkpt lat="43.40469" lon="6.62498">
        <ele>517.6</ele>
        <time>2013-10-10T10:37:16.681Z</time>
      </trkpt>
      <trkpt lat="43.40469" lon="6.62498">
        <ele>517.6</ele>
        <time>2013-10-10T10:37:17.682Z</time>
      </trkpt>
      <trkpt lat="43.4047" lon="6.62495">
        <ele>517.4</ele>
        <time>2013-10-10T10:37:31.682Z</time>
      </trkpt>
      <trkpt lat="43.4047" lon="6.62495">
        <ele>517.4</ele>
        <time>2013-10-10T10:37:32.682Z</time>
      </trkpt>
      <trkpt lat="43.40471" lon="6.62495">
        <ele>517</ele>
        <time>2013-10-10T10:38:00.650Z</time>
      </trkpt>
      <trkpt lat="43.40471" lon="6.62495">
        <ele>517</ele>
        <time>2013-10-10T10:38:01.685Z</time>
      </trkpt>
      <trkpt lat="43.40471" lon="6.62496">
        <ele>517</ele>
        <time>2013-10-10T10:38:03.685Z</time>
      </trkpt>
      <trkpt lat="43.40471" lon="6.62496">
        <ele>517</ele>
        <time>2013-10-10T10:38:04.694Z</time>
      </trkpt>
      <trkpt lat="43.40471" lon="6.62497">
        <ele>516.9</ele>
        <time>2013-10-10T10:38:16.686Z</time>
      </trkpt>
      <trkpt lat="43.4047" lon="6.62497">
        <ele>516.9</ele>
        <time>2013-10-10T10:38:17.694Z</time>
      </trkpt>
      <trkpt lat="43.4047" lon="6.62497">
        <ele>516.9</ele>
        <time>2013-10-10T10:38:18.685Z</time>
      </trkpt>
      <trkpt lat="43.4047" lon="6.62497">
        <ele>516.9</ele>
        <time>2013-10-10T10:38:19.686Z</time>
      </trkpt>
      <trkpt lat="43.40471" lon="6.62498">
        <ele>516.8</ele>
        <time>2013-10-10T10:38:40.698Z</time>
      </trkpt>
      <trkpt lat="43.40471" lon="6.62497">
        <ele>516.7</ele>
        <time>2013-10-10T10:38:41.692Z</time>
      </trkpt>
      <trkpt lat="43.40471" lon="6.62495">
        <ele>516.8</ele>
        <time>2013-10-10T10:38:46.715Z</time>
      </trkpt>
      <trkpt lat="43.40471" lon="6.62495">
        <ele>516.8</ele>
        <time>2013-10-10T10:38:47.707Z</time>
      </trkpt>
      <trkpt lat="43.40471" lon="6.62495">
        <ele>516.8</ele>
        <time>2013-10-10T10:38:48.703Z</time>
      </trkpt>
      <trkpt lat="43.4047" lon="6.62496">
        <ele>516.8</ele>
        <time>2013-10-10T10:38:51.709Z</time>
      </trkpt>
      <trkpt lat="43.4047" lon="6.62496">
        <ele>516.8</ele>
        <time>2013-10-10T10:38:52.733Z</time>
      </trkpt>
      <trkpt lat="43.40471" lon="6.62496">
        <ele>516.8</ele>
        <time>2013-10-10T10:38:57.718Z</time>
      </trkpt>
      <trkpt lat="43.40471" lon="6.62496">
        <ele>516.8</ele>
        <time>2013-10-10T10:38:58.725Z</time>
      </trkpt>
      <trkpt lat="43.40472" lon="6.62498">
        <ele>516.9</ele>
        <time>2013-10-10T10:39:02.717Z</time>
      </trkpt>
      <trkpt lat="43.40472" lon="6.62498">
        <ele>516.9</ele>
        <time>2013-10-10T10:39:03.740Z</time>
      </trkpt>
      <trkpt lat="43.40472" lon="6.62498">
        <ele>517.5</ele>
        <time>2013-10-10T10:39:30.780Z</time>
      </trkpt>
      <trkpt lat="43.40472" lon="6.62498">
        <ele>517.6</ele>
        <time>2013-10-10T10:39:31.700Z</time>
      </trkpt>
      <trkpt lat="43.40472" lon="6.62498">
        <ele>517.6</ele>
        <time>2013-10-10T10:39:32.727Z</time>
      </trkpt>
      <trkpt lat="43.40472" lon="6.62498">
        <ele>517.7</ele>
        <time>2013-10-10T10:39:33.710Z</time>
      </trkpt>
      <trkpt lat="43.40472" lon="6.62497">
        <ele>517.8</ele>
        <time>2013-10-10T10:39:34.723Z</time>
      </trkpt>
      <trkpt lat="43.40473" lon="6.62496">
        <ele>517.8</ele>
        <time>2013-10-10T10:39:36.673Z</time>
      </trkpt>
      <trkpt lat="43.40472" lon="6.62496">
        <ele>517.8</ele>
        <time>2013-10-10T10:39:37.697Z</time>
      </trkpt>
      <trkpt lat="43.40472" lon="6.62495">
        <ele>517.7</ele>
        <time>2013-10-10T10:39:40.808Z</time>
      </trkpt>
      <trkpt lat="43.40472" lon="6.62496">
        <ele>517.8</ele>
        <time>2013-10-10T10:39:41.713Z</time>
      </trkpt>
      <trkpt lat="43.40474" lon="6.62496">
        <ele>517.8</ele>
        <time>2013-10-10T10:40:07.732Z</time>
      </trkpt>
      <trkpt lat="43.40474" lon="6.62496">
        <ele>517.8</ele>
        <time>2013-10-10T10:40:08.762Z</time>
      </trkpt>
      <trkpt lat="43.40473" lon="6.62497">
        <ele>517.8</ele>
        <time>2013-10-10T10:40:11.728Z</time>
      </trkpt>
      <trkpt lat="43.40473" lon="6.62497">
        <ele>517.8</ele>
        <time>2013-10-10T10:40:12.732Z</time>
      </trkpt>
      <trkpt lat="43.40472" lon="6.62498">
        <ele>517.8</ele>
        <time>2013-10-10T10:40:16.715Z</time>
      </trkpt>
      <trkpt lat="43.40472" lon="6.62498">
        <ele>517.8</ele>
        <time>2013-10-10T10:40:17.718Z</time>
      </trkpt>
      <trkpt lat="43.40473" lon="6.62499">
        <ele>517.8</ele>
        <time>2013-10-10T10:40:22.719Z</time>
      </trkpt>
      <trkpt lat="43.40473" lon="6.62499">
        <ele>517.8</ele>
        <time>2013-10-10T10:40:23.713Z</time>
      </trkpt>
      <trkpt lat="43.40473" lon="6.625">
        <ele>517.8</ele>
        <time>2013-10-10T10:40:25.697Z</time>
      </trkpt>
      <trkpt lat="43.40473" lon="6.625">
        <ele>517.8</ele>
        <time>2013-10-10T10:40:26.697Z</time>
      </trkpt>
      <trkpt lat="43.40474" lon="6.62499">
        <ele>517.8</ele>
        <time>2013-10-10T10:40:30.718Z</time>
      </trkpt>
      <trkpt lat="43.40474" lon="6.62499">
        <ele>517.8</ele>
        <time>2013-10-10T10:40:31.699Z</time>
      </trkpt>
      <trkpt lat="43.40475" lon="6.62496">
        <ele>517.8</ele>
        <time>2013-10-10T10:40:39.811Z</time>
      </trkpt>
      <trkpt lat="43.40475" lon="6.62496">
        <ele>517.8</ele>
        <time>2013-10-10T10:40:40.711Z</time>
      </trkpt>
      <trkpt lat="43.40475" lon="6.62497">
        <ele>517.8</ele>
        <time>2013-10-10T10:40:47.701Z</time>
      </trkpt>
      <trkpt lat="43.40475" lon="6.62497">
        <ele>517.8</ele>
        <time>2013-10-10T10:40:48.701Z</time>
      </trkpt>
      <trkpt lat="43.40475" lon="6.62498">
        <ele>517.8</ele>
        <time>2013-10-10T10:40:52.699Z</time>
      </trkpt>
      <trkpt lat="43.40475" lon="6.62498">
        <ele>517.8</ele>
        <time>2013-10-10T10:40:53.700Z</time>
      </trkpt>
      <trkpt lat="43.40475" lon="6.62498">
        <ele>517.8</ele>
        <time>2013-10-10T10:40:58.700Z</time>
      </trkpt>
      <trkpt lat="43.40475" lon="6.62497">
        <ele>517.9</ele>
        <time>2013-10-10T10:40:59.708Z</time>
      </trkpt>
      <trkpt lat="43.40474" lon="6.62494">
        <ele>518</ele>
        <time>2013-10-10T10:41:08.726Z</time>
      </trkpt>
      <trkpt lat="43.40474" lon="6.62494">
        <ele>518</ele>
        <time>2013-10-10T10:41:09.707Z</time>
      </trkpt>
      <trkpt lat="43.40474" lon="6.62493">
        <ele>518.1</ele>
        <time>2013-10-10T10:41:22.716Z</time>
      </trkpt>
      <trkpt lat="43.40474" lon="6.62493">
        <ele>518.2</ele>
        <time>2013-10-10T10:41:23.708Z</time>
      </trkpt>
      <trkpt lat="43.40478" lon="6.62496">
        <ele>518.6</ele>
        <time>2013-10-10T10:41:36.723Z</time>
      </trkpt>
      <trkpt lat="43.40478" lon="6.62496">
        <ele>518.6</ele>
        <time>2013-10-10T10:41:37.733Z</time>
      </trkpt>
      <trkpt lat="43.40479" lon="6.62495">
        <ele>518.5</ele>
        <time>2013-10-10T10:41:48.723Z</time>
      </trkpt>
      <trkpt lat="43.40479" lon="6.62496">
        <ele>518.5</ele>
        <time>2013-10-10T10:41:49.715Z</time>
      </trkpt>
      <trkpt lat="43.4048" lon="6.62497">
        <ele>518.6</ele>
        <time>2013-10-10T10:41:53.734Z</time>
      </trkpt>
      <trkpt lat="43.4048" lon="6.62497">
        <ele>518.5</ele>
        <time>2013-10-10T10:41:54.753Z</time>
      </trkpt>
      <trkpt lat="43.4048" lon="6.62496">
        <ele>518.5</ele>
        <time>2013-10-10T10:41:56.709Z</time>
      </trkpt>
      <trkpt lat="43.40481" lon="6.62496">
        <ele>518.5</ele>
        <time>2013-10-10T10:41:57.727Z</time>
      </trkpt>
      <trkpt lat="43.40481" lon="6.62495">
        <ele>518.5</ele>
        <time>2013-10-10T10:41:59.708Z</time>
      </trkpt>
      <trkpt lat="43.40481" lon="6.62496">
        <ele>518.5</ele>
        <time>2013-10-10T10:42:00.671Z</time>
      </trkpt>
      <trkpt lat="43.4048" lon="6.62496">
        <ele>518.5</ele>
        <time>2013-10-10T10:42:04.729Z</time>
      </trkpt>
      <trkpt lat="43.4048" lon="6.62496">
        <ele>518.4</ele>
        <time>2013-10-10T10:42:05.753Z</time>
      </trkpt>
      <trkpt lat="43.40478" lon="6.62496">
        <ele>518.3</ele>
        <time>2013-10-10T10:42:09.716Z</time>
      </trkpt>
      <trkpt lat="43.40478" lon="6.62496">
        <ele>518.3</ele>
        <time>2013-10-10T10:42:10.738Z</time>
      </trkpt>
      <trkpt lat="43.40478" lon="6.62495">
        <ele>518.2</ele>
        <time>2013-10-10T10:42:19.764Z</time>
      </trkpt>
      <trkpt lat="43.40479" lon="6.62495">
        <ele>518.2</ele>
        <time>2013-10-10T10:42:20.701Z</time>
      </trkpt>
      <trkpt lat="43.40479" lon="6.62494">
        <ele>518.2</ele>
        <time>2013-10-10T10:42:23.699Z</time>
      </trkpt>
      <trkpt lat="43.40479" lon="6.62494">
        <ele>518.2</ele>
        <time>2013-10-10T10:42:24.718Z</time>
      </trkpt>
      <trkpt lat="43.40479" lon="6.62495">
        <ele>518.1</ele>
        <time>2013-10-10T10:42:29.838Z</time>
      </trkpt>
      <trkpt lat="43.40478" lon="6.62495">
        <ele>518.2</ele>
        <time>2013-10-10T10:42:30.788Z</time>
      </trkpt>
      <trkpt lat="43.40477" lon="6.62495">
        <ele>518.2</ele>
        <time>2013-10-10T10:42:34.732Z</time>
      </trkpt>
      <trkpt lat="43.40477" lon="6.62494">
        <ele>518.2</ele>
        <time>2013-10-10T10:42:35.690Z</time>
      </trkpt>
      <trkpt lat="43.40477" lon="6.62494">
        <ele>518.1</ele>
        <time>2013-10-10T10:42:43.765Z</time>
      </trkpt>
      <trkpt lat="43.40476" lon="6.62494">
        <ele>518.1</ele>
        <time>2013-10-10T10:42:44.691Z</time>
      </trkpt>
      <trkpt lat="43.40475" lon="6.62494">
        <ele>518.1</ele>
        <time>2013-10-10T10:42:47.690Z</time>
      </trkpt>
      <trkpt lat="43.40475" lon="6.62494">
        <ele>518.1</ele>
        <time>2013-10-10T10:42:48.720Z</time>
      </trkpt>
      <trkpt lat="43.40476" lon="6.62493">
        <ele>518</ele>
        <time>2013-10-10T10:42:51.718Z</time>
      </trkpt>
      <trkpt lat="43.40476" lon="6.62494">
        <ele>518</ele>
        <time>2013-10-10T10:42:52.718Z</time>
      </trkpt>
      <trkpt lat="43.40476" lon="6.62494">
        <ele>518</ele>
        <time>2013-10-10T10:42:55.722Z</time>
      </trkpt>
      <trkpt lat="43.40476" lon="6.62494">
        <ele>517.9</ele>
        <time>2013-10-10T10:42:56.780Z</time>
      </trkpt>
      <trkpt lat="43.40476" lon="6.62494">
        <ele>517.9</ele>
        <time>2013-10-10T10:42:58.721Z</time>
      </trkpt>
      <trkpt lat="43.40477" lon="6.62493">
        <ele>517.9</ele>
        <time>2013-10-10T10:42:59.725Z</time>
      </trkpt>
      <trkpt lat="43.40476" lon="6.62491">
        <ele>517.8</ele>
        <time>2013-10-10T10:43:04.733Z</time>
      </trkpt>
      <trkpt lat="43.40476" lon="6.62491">
        <ele>517.8</ele>
        <time>2013-10-10T10:43:05.863Z</time>
      </trkpt>
      <trkpt lat="43.40476" lon="6.62492">
        <ele>517.7</ele>
        <time>2013-10-10T10:43:07.766Z</time>
      </trkpt>
      <trkpt lat="43.40476" lon="6.62493">
        <ele>517.7</ele>
        <time>2013-10-10T10:43:08.692Z</time>
      </trkpt>
      <trkpt lat="43.40474" lon="6.62492">
        <ele>517.4</ele>
        <time>2013-10-10T10:43:14.725Z</time>
      </trkpt>
      <trkpt lat="43.40474" lon="6.62492">
        <ele>517.4</ele>
        <time>2013-10-10T10:43:15.719Z</time>
      </trkpt>
      <trkpt lat="43.40473" lon="6.62492">
        <ele>517.4</ele>
        <time>2013-10-10T10:43:16.778Z</time>
      </trkpt>
      <trkpt lat="43.40468" lon="6.62494">
        <ele>517.5</ele>
        <time>2013-10-10T10:43:22.690Z</time>
      </trkpt>
      <trkpt lat="43.40464" lon="6.62494">
        <ele>517.6</ele>
        <time>2013-10-10T10:43:23.721Z</time>
      </trkpt>
      <trkpt lat="43.40457" lon="6.62492">
        <ele>517.5</ele>
        <time>2013-10-10T10:43:24.728Z</time>
      </trkpt>
      <trkpt lat="43.40451" lon="6.62492">
        <ele>517.5</ele>
        <time>2013-10-10T10:43:25.699Z</time>
      </trkpt>
      <trkpt lat="43.40446" lon="6.62492">
        <ele>516.7</ele>
        <time>2013-10-10T10:43:26.720Z</time>
      </trkpt>
      <trkpt lat="43.40442" lon="6.62493">
        <ele>515.4</ele>
        <time>2013-10-10T10:43:27.708Z</time>
      </trkpt>
      <trkpt lat="43.40433" lon="6.62497">
        <ele>513.2</ele>
        <time>2013-10-10T10:43:29.703Z</time>
      </trkpt>
      <trkpt lat="43.40429" lon="6.62501">
        <ele>512.2</ele>
        <time>2013-10-10T10:43:30.803Z</time>
      </trkpt>
      <trkpt lat="43.40425" lon="6.62506">
        <ele>511.5</ele>
        <time>2013-10-10T10:43:31.711Z</time>
      </trkpt>
      <trkpt lat="43.4042" lon="6.6251">
        <ele>510.5</ele>
        <time>2013-10-10T10:43:32.710Z</time>
      </trkpt>
      <trkpt lat="43.40412" lon="6.62512">
        <ele>508.5</ele>
        <time>2013-10-10T10:43:34.710Z</time>
      </trkpt>
      <trkpt lat="43.40406" lon="6.62512">
        <ele>507.6</ele>
        <time>2013-10-10T10:43:35.714Z</time>
      </trkpt>
      <trkpt lat="43.404" lon="6.62512">
        <ele>506.3</ele>
        <time>2013-10-10T10:43:36.710Z</time>
      </trkpt>
      <trkpt lat="43.40395" lon="6.62512">
        <ele>504.8</ele>
        <time>2013-10-10T10:43:37.717Z</time>
      </trkpt>
      <trkpt lat="43.40387" lon="6.62515">
        <ele>501.4</ele>
        <time>2013-10-10T10:43:39.714Z</time>
      </trkpt>
      <trkpt lat="43.40384" lon="6.6252">
        <ele>500</ele>
        <time>2013-10-10T10:43:40.728Z</time>
      </trkpt>
      <trkpt lat="43.40382" lon="6.62526">
        <ele>498.6</ele>
        <time>2013-10-10T10:43:41.715Z</time>
      </trkpt>
      <trkpt lat="43.40379" lon="6.62532">
        <ele>497.7</ele>
        <time>2013-10-10T10:43:42.722Z</time>
      </trkpt>
      <trkpt lat="43.40371" lon="6.62538">
        <ele>495.7</ele>
        <time>2013-10-10T10:43:44.711Z</time>
      </trkpt>
      <trkpt lat="43.40367" lon="6.6254">
        <ele>495</ele>
        <time>2013-10-10T10:43:45.711Z</time>
      </trkpt>
      <trkpt lat="43.40362" lon="6.62544">
        <ele>494.2</ele>
        <time>2013-10-10T10:43:46.714Z</time>
      </trkpt>
      <trkpt lat="43.40357" lon="6.62547">
        <ele>493.3</ele>
        <time>2013-10-10T10:43:47.715Z</time>
      </trkpt>
      <trkpt lat="43.40352" lon="6.6255">
        <ele>492.4</ele>
        <time>2013-10-10T10:43:48.720Z</time>
      </trkpt>
      <trkpt lat="43.40346" lon="6.62551">
        <ele>491.1</ele>
        <time>2013-10-10T10:43:49.724Z</time>
      </trkpt>
      <trkpt lat="43.40338" lon="6.62553">
        <ele>489.5</ele>
        <time>2013-10-10T10:43:51.718Z</time>
      </trkpt>
      <trkpt lat="43.40335" lon="6.62555">
        <ele>488.1</ele>
        <time>2013-10-10T10:43:52.718Z</time>
      </trkpt>
      <trkpt lat="43.40329" lon="6.62564">
        <ele>485.8</ele>
        <time>2013-10-10T10:43:54.715Z</time>
      </trkpt>
      <trkpt lat="43.40327" lon="6.62571">
        <ele>485.1</ele>
        <time>2013-10-10T10:43:55.725Z</time>
      </trkpt>
      <trkpt lat="43.40324" lon="6.62577">
        <ele>484.5</ele>
        <time>2013-10-10T10:43:56.722Z</time>
      </trkpt>
      <trkpt lat="43.40321" lon="6.62584">
        <ele>484.1</ele>
        <time>2013-10-10T10:43:57.722Z</time>
      </trkpt>
      <trkpt lat="43.40319" lon="6.6259">
        <ele>484.1</ele>
        <time>2013-10-10T10:43:58.726Z</time>
      </trkpt>
      <trkpt lat="43.40317" lon="6.62596">
        <ele>484</ele>
        <time>2013-10-10T10:43:59.716Z</time>
      </trkpt>
      <trkpt lat="43.40315" lon="6.62605">
        <ele>484</ele>
        <time>2013-10-10T10:44:01.722Z</time>
      </trkpt>
      <trkpt lat="43.40314" lon="6.62609">
        <ele>484</ele>
        <time>2013-10-10T10:44:02.722Z</time>
      </trkpt>
      <trkpt lat="43.40307" lon="6.62613">
        <ele>483.9</ele>
        <time>2013-10-10T10:44:05.894Z</time>
      </trkpt>
      <trkpt lat="43.40304" lon="6.62612">
        <ele>483.8</ele>
        <time>2013-10-10T10:44:06.722Z</time>
      </trkpt>
      <trkpt lat="43.403" lon="6.62611">
        <ele>483.7</ele>
        <time>2013-10-10T10:44:07.723Z</time>
      </trkpt>
      <trkpt lat="43.40295" lon="6.62608">
        <ele>483.7</ele>
        <time>2013-10-10T10:44:08.721Z</time>
      </trkpt>
      <trkpt lat="43.4029" lon="6.62608">
        <ele>482.9</ele>
        <time>2013-10-10T10:44:09.720Z</time>
      </trkpt>
      <trkpt lat="43.40285" lon="6.62608">
        <ele>482.1</ele>
        <time>2013-10-10T10:44:10.693Z</time>
      </trkpt>
      <trkpt lat="43.40277" lon="6.62609">
        <ele>482</ele>
        <time>2013-10-10T10:44:12.723Z</time>
      </trkpt>
      <trkpt lat="43.40276" lon="6.62609">
        <ele>482</ele>
        <time>2013-10-10T10:44:13.724Z</time>
      </trkpt>
      <trkpt lat="43.40269" lon="6.62612">
        <ele>481.7</ele>
        <time>2013-10-10T10:44:16.721Z</time>
      </trkpt>
      <trkpt lat="43.40265" lon="6.62614">
        <ele>480.4</ele>
        <time>2013-10-10T10:44:17.722Z</time>
      </trkpt>
      <trkpt lat="43.4026" lon="6.62615">
        <ele>479.3</ele>
        <time>2013-10-10T10:44:18.708Z</time>
      </trkpt>
      <trkpt lat="43.40254" lon="6.62616">
        <ele>478.4</ele>
        <time>2013-10-10T10:44:19.693Z</time>
      </trkpt>
      <trkpt lat="43.40248" lon="6.62619">
        <ele>477.7</ele>
        <time>2013-10-10T10:44:20.688Z</time>
      </trkpt>
      <trkpt lat="43.40243" lon="6.62621">
        <ele>477</ele>
        <time>2013-10-10T10:44:21.725Z</time>
      </trkpt>
      <trkpt lat="43.40235" lon="6.62625">
        <ele>476.3</ele>
        <time>2013-10-10T10:44:23.728Z</time>
      </trkpt>
      <trkpt lat="43.40231" lon="6.62629">
        <ele>475.8</ele>
        <time>2013-10-10T10:44:24.802Z</time>
      </trkpt>
      <trkpt lat="43.40226" lon="6.62632">
        <ele>474.9</ele>
        <time>2013-10-10T10:44:25.796Z</time>
      </trkpt>
      <trkpt lat="43.40221" lon="6.62634">
        <ele>473.9</ele>
        <time>2013-10-10T10:44:26.721Z</time>
      </trkpt>
      <trkpt lat="43.40213" lon="6.62638">
        <ele>473.4</ele>
        <time>2013-10-10T10:44:27.722Z</time>
      </trkpt>
      <trkpt lat="43.40205" lon="6.62642">
        <ele>472.7</ele>
        <time>2013-10-10T10:44:28.725Z</time>
      </trkpt>
      <trkpt lat="43.40198" lon="6.62646">
        <ele>472</ele>
        <time>2013-10-10T10:44:29.721Z</time>
      </trkpt>
      <trkpt lat="43.40191" lon="6.6265">
        <ele>471.6</ele>
        <time>2013-10-10T10:44:30.735Z</time>
      </trkpt>
      <trkpt lat="43.40185" lon="6.62655">
        <ele>471</ele>
        <time>2013-10-10T10:44:31.720Z</time>
      </trkpt>
      <trkpt lat="43.40178" lon="6.6266">
        <ele>470.7</ele>
        <time>2013-10-10T10:44:32.722Z</time>
      </trkpt>
      <trkpt lat="43.40171" lon="6.62665">
        <ele>470.4</ele>
        <time>2013-10-10T10:44:33.729Z</time>
      </trkpt>
      <trkpt lat="43.40165" lon="6.62669">
        <ele>470.2</ele>
        <time>2013-10-10T10:44:34.716Z</time>
      </trkpt>
      <trkpt lat="43.40159" lon="6.62672">
        <ele>470</ele>
        <time>2013-10-10T10:44:35.714Z</time>
      </trkpt>
      <trkpt lat="43.40153" lon="6.62673">
        <ele>469.6</ele>
        <time>2013-10-10T10:44:36.709Z</time>
      </trkpt>
      <trkpt lat="43.40146" lon="6.62678">
        <ele>469.7</ele>
        <time>2013-10-10T10:44:38.711Z</time>
      </trkpt>
      <trkpt lat="43.40144" lon="6.62682">
        <ele>470.1</ele>
        <time>2013-10-10T10:44:39.809Z</time>
      </trkpt>
      <trkpt lat="43.40142" lon="6.62686">
        <ele>470.4</ele>
        <time>2013-10-10T10:44:40.729Z</time>
      </trkpt>
      <trkpt lat="43.40138" lon="6.62692">
        <ele>470.7</ele>
        <time>2013-10-10T10:44:41.724Z</time>
      </trkpt>
      <trkpt lat="43.40134" lon="6.62698">
        <ele>470.7</ele>
        <time>2013-10-10T10:44:42.672Z</time>
      </trkpt>
      <trkpt lat="43.4013" lon="6.62706">
        <ele>470.3</ele>
        <time>2013-10-10T10:44:43.711Z</time>
      </trkpt>
      <trkpt lat="43.40126" lon="6.62712">
        <ele>470</ele>
        <time>2013-10-10T10:44:44.711Z</time>
      </trkpt>
      <trkpt lat="43.40124" lon="6.62716">
        <ele>470</ele>
        <time>2013-10-10T10:44:45.710Z</time>
      </trkpt>
      <trkpt lat="43.40116" lon="6.62716">
        <ele>468.6</ele>
        <time>2013-10-10T10:44:48.714Z</time>
      </trkpt>
      <trkpt lat="43.40111" lon="6.6272">
        <ele>468.4</ele>
        <time>2013-10-10T10:44:49.971Z</time>
      </trkpt>
      <trkpt lat="43.40109" lon="6.62724">
        <ele>468.1</ele>
        <time>2013-10-10T10:44:50.679Z</time>
      </trkpt>
      <trkpt lat="43.40107" lon="6.62731">
        <ele>467.9</ele>
        <time>2013-10-10T10:44:51.718Z</time>
      </trkpt>
      <trkpt lat="43.40103" lon="6.62742">
        <ele>467.9</ele>
        <time>2013-10-10T10:44:53.715Z</time>
      </trkpt>
      <trkpt lat="43.40102" lon="6.62746">
        <ele>467.8</ele>
        <time>2013-10-10T10:44:54.715Z</time>
      </trkpt>
      <trkpt lat="43.401" lon="6.62756">
        <ele>467.7</ele>
        <time>2013-10-10T10:44:57.709Z</time>
      </trkpt>
      <trkpt lat="43.401" lon="6.62759">
        <ele>467.7</ele>
        <time>2013-10-10T10:44:58.709Z</time>
      </trkpt>
      <trkpt lat="43.40095" lon="6.62764">
        <ele>467.5</ele>
        <time>2013-10-10T10:45:01.709Z</time>
      </trkpt>
      <trkpt lat="43.40092" lon="6.62766">
        <ele>467.4</ele>
        <time>2013-10-10T10:45:02.709Z</time>
      </trkpt>
      <trkpt lat="43.40091" lon="6.62778">
        <ele>467.3</ele>
        <time>2013-10-10T10:45:05.718Z</time>
      </trkpt>
      <trkpt lat="43.40092" lon="6.6278">
        <ele>467.4</ele>
        <time>2013-10-10T10:45:06.706Z</time>
      </trkpt>
      <trkpt lat="43.40087" lon="6.62787">
        <ele>467.6</ele>
        <time>2013-10-10T10:45:10.714Z</time>
      </trkpt>
      <trkpt lat="43.40084" lon="6.62788">
        <ele>467.6</ele>
        <time>2013-10-10T10:45:11.703Z</time>
      </trkpt>
      <trkpt lat="43.40079" lon="6.62793">
        <ele>467.7</ele>
        <time>2013-10-10T10:45:13.708Z</time>
      </trkpt>
      <trkpt lat="43.40077" lon="6.62797">
        <ele>467.8</ele>
        <time>2013-10-10T10:45:14.709Z</time>
      </trkpt>
      <trkpt lat="43.40074" lon="6.62804">
        <ele>467.9</ele>
        <time>2013-10-10T10:45:16.671Z</time>
      </trkpt>
      <trkpt lat="43.40072" lon="6.62809">
        <ele>468</ele>
        <time>2013-10-10T10:45:17.709Z</time>
      </trkpt>
      <trkpt lat="43.40068" lon="6.62817">
        <ele>467.8</ele>
        <time>2013-10-10T10:45:19.677Z</time>
      </trkpt>
      <trkpt lat="43.40066" lon="6.62822">
        <ele>467.8</ele>
        <time>2013-10-10T10:45:20.682Z</time>
      </trkpt>
      <trkpt lat="43.4006" lon="6.6283">
        <ele>467.9</ele>
        <time>2013-10-10T10:45:22.685Z</time>
      </trkpt>
      <trkpt lat="43.40058" lon="6.62834">
        <ele>468</ele>
        <time>2013-10-10T10:45:23.677Z</time>
      </trkpt>
      <trkpt lat="43.40056" lon="6.62842">
        <ele>467.9</ele>
        <time>2013-10-10T10:45:25.685Z</time>
      </trkpt>
      <trkpt lat="43.40055" lon="6.62847">
        <ele>467.9</ele>
        <time>2013-10-10T10:45:26.699Z</time>
      </trkpt>
      <trkpt lat="43.40053" lon="6.62857">
        <ele>467.9</ele>
        <time>2013-10-10T10:45:28.697Z</time>
      </trkpt>
      <trkpt lat="43.40052" lon="6.62861">
        <ele>467.9</ele>
        <time>2013-10-10T10:45:29.712Z</time>
      </trkpt>
      <trkpt lat="43.40048" lon="6.6287">
        <ele>468</ele>
        <time>2013-10-10T10:45:31.678Z</time>
      </trkpt>
      <trkpt lat="43.40046" lon="6.62874">
        <ele>468</ele>
        <time>2013-10-10T10:45:32.698Z</time>
      </trkpt>
      <trkpt lat="43.40043" lon="6.62881">
        <ele>468</ele>
        <time>2013-10-10T10:45:34.697Z</time>
      </trkpt>
      <trkpt lat="43.40042" lon="6.62885">
        <ele>468</ele>
        <time>2013-10-10T10:45:35.708Z</time>
      </trkpt>
      <trkpt lat="43.40039" lon="6.62896">
        <ele>468.2</ele>
        <time>2013-10-10T10:45:38.697Z</time>
      </trkpt>
      <trkpt lat="43.40038" lon="6.629">
        <ele>468.2</ele>
        <time>2013-10-10T10:45:39.697Z</time>
      </trkpt>
      <trkpt lat="43.40035" lon="6.62908">
        <ele>468.3</ele>
        <time>2013-10-10T10:45:41.742Z</time>
      </trkpt>
      <trkpt lat="43.40034" lon="6.62911">
        <ele>468.4</ele>
        <time>2013-10-10T10:45:42.681Z</time>
      </trkpt>
      <trkpt lat="43.40032" lon="6.62923">
        <ele>468.7</ele>
        <time>2013-10-10T10:45:45.697Z</time>
      </trkpt>
      <trkpt lat="43.40031" lon="6.62928">
        <ele>468.8</ele>
        <time>2013-10-10T10:45:46.698Z</time>
      </trkpt>
      <trkpt lat="43.40027" lon="6.62938">
        <ele>469.1</ele>
        <time>2013-10-10T10:45:48.698Z</time>
      </trkpt>
      <trkpt lat="43.40025" lon="6.62943">
        <ele>470.3</ele>
        <time>2013-10-10T10:45:49.697Z</time>
      </trkpt>
      <trkpt lat="43.40021" lon="6.62953">
        <ele>471.8</ele>
        <time>2013-10-10T10:45:51.708Z</time>
      </trkpt>
      <trkpt lat="43.4002" lon="6.62958">
        <ele>471.8</ele>
        <time>2013-10-10T10:45:52.681Z</time>
      </trkpt>
      <trkpt lat="43.40019" lon="6.62965">
        <ele>472.3</ele>
        <time>2013-10-10T10:45:53.731Z</time>
      </trkpt>
      <trkpt lat="43.40018" lon="6.62971">
        <ele>472.2</ele>
        <time>2013-10-10T10:45:54.734Z</time>
      </trkpt>
      <trkpt lat="43.40016" lon="6.62977">
        <ele>471.9</ele>
        <time>2013-10-10T10:45:55.733Z</time>
      </trkpt>
      <trkpt lat="43.40012" lon="6.62981">
        <ele>471.4</ele>
        <time>2013-10-10T10:45:56.733Z</time>
      </trkpt>
      <trkpt lat="43.40005" lon="6.62988">
        <ele>471.3</ele>
        <time>2013-10-10T10:45:58.729Z</time>
      </trkpt>
      <trkpt lat="43.40004" lon="6.62991">
        <ele>471.3</ele>
        <time>2013-10-10T10:45:59.731Z</time>
      </trkpt>
      <trkpt lat="43.40001" lon="6.63001">
        <ele>469.5</ele>
        <time>2013-10-10T10:46:01.705Z</time>
      </trkpt>
      <trkpt lat="43.39999" lon="6.63009">
        <ele>468.4</ele>
        <time>2013-10-10T10:46:02.769Z</time>
      </trkpt>
      <trkpt lat="43.39997" lon="6.63016">
        <ele>467.4</ele>
        <time>2013-10-10T10:46:03.711Z</time>
      </trkpt>
      <trkpt lat="43.39995" lon="6.63024">
        <ele>466.6</ele>
        <time>2013-10-10T10:46:04.733Z</time>
      </trkpt>
      <trkpt lat="43.39993" lon="6.63035">
        <ele>466.4</ele>
        <time>2013-10-10T10:46:06.727Z</time>
      </trkpt>
      <trkpt lat="43.39991" lon="6.63039">
        <ele>466.3</ele>
        <time>2013-10-10T10:46:07.735Z</time>
      </trkpt>
      <trkpt lat="43.39988" lon="6.63048">
        <ele>464</ele>
        <time>2013-10-10T10:46:09.741Z</time>
      </trkpt>
      <trkpt lat="43.39985" lon="6.63052">
        <ele>463.3</ele>
        <time>2013-10-10T10:46:10.750Z</time>
      </trkpt>
      <trkpt lat="43.39981" lon="6.63058">
        <ele>462.9</ele>
        <time>2013-10-10T10:46:11.695Z</time>
      </trkpt>
      <trkpt lat="43.39977" lon="6.63064">
        <ele>462.3</ele>
        <time>2013-10-10T10:46:12.883Z</time>
      </trkpt>
      <trkpt lat="43.39973" lon="6.63067">
        <ele>461.9</ele>
        <time>2013-10-10T10:46:13.708Z</time>
      </trkpt>
      <trkpt lat="43.39966" lon="6.63071">
        <ele>461.1</ele>
        <time>2013-10-10T10:46:15.015Z</time>
      </trkpt>
      <trkpt lat="43.39962" lon="6.63073">
        <ele>460.6</ele>
        <time>2013-10-10T10:46:15.815Z</time>
      </trkpt>
      <trkpt lat="43.39958" lon="6.63076">
        <ele>460.6</ele>
        <time>2013-10-10T10:46:16.733Z</time>
      </trkpt>
      <trkpt lat="43.39955" lon="6.6308">
        <ele>460.3</ele>
        <time>2013-10-10T10:46:17.699Z</time>
      </trkpt>
      <trkpt lat="43.39952" lon="6.63085">
        <ele>460.3</ele>
        <time>2013-10-10T10:46:18.726Z</time>
      </trkpt>
      <trkpt lat="43.3995" lon="6.63096">
        <ele>460.4</ele>
        <time>2013-10-10T10:46:21.744Z</time>
      </trkpt>
      <trkpt lat="43.3995" lon="6.63099">
        <ele>460.5</ele>
        <time>2013-10-10T10:46:22.726Z</time>
      </trkpt>
      <trkpt lat="43.39946" lon="6.63109">
        <ele>460.5</ele>
        <time>2013-10-10T10:46:27.725Z</time>
      </trkpt>
      <trkpt lat="43.39944" lon="6.63112">
        <ele>460.6</ele>
        <time>2013-10-10T10:46:28.733Z</time>
      </trkpt>
      <trkpt lat="43.39938" lon="6.63118">
        <ele>460.6</ele>
        <time>2013-10-10T10:46:30.736Z</time>
      </trkpt>
      <trkpt lat="43.39934" lon="6.63121">
        <ele>460.7</ele>
        <time>2013-10-10T10:46:31.727Z</time>
      </trkpt>
      <trkpt lat="43.3993" lon="6.63122">
        <ele>460.8</ele>
        <time>2013-10-10T10:46:32.746Z</time>
      </trkpt>
      <trkpt lat="43.39925" lon="6.63122">
        <ele>461.2</ele>
        <time>2013-10-10T10:46:33.690Z</time>
      </trkpt>
      <trkpt lat="43.39917" lon="6.63126">
        <ele>461.2</ele>
        <time>2013-10-10T10:46:35.683Z</time>
      </trkpt>
      <trkpt lat="43.39914" lon="6.6313">
        <ele>461.4</ele>
        <time>2013-10-10T10:46:36.682Z</time>
      </trkpt>
      <trkpt lat="43.39912" lon="6.63136">
        <ele>461.7</ele>
        <time>2013-10-10T10:46:37.683Z</time>
      </trkpt>
      <trkpt lat="43.3991" lon="6.63142">
        <ele>462.1</ele>
        <time>2013-10-10T10:46:38.681Z</time>
      </trkpt>
      <trkpt lat="43.39908" lon="6.63149">
        <ele>462.6</ele>
        <time>2013-10-10T10:46:39.726Z</time>
      </trkpt>
      <trkpt lat="43.39907" lon="6.63156">
        <ele>462.8</ele>
        <time>2013-10-10T10:46:40.734Z</time>
      </trkpt>
      <trkpt lat="43.39906" lon="6.63162">
        <ele>462.9</ele>
        <time>2013-10-10T10:46:41.699Z</time>
      </trkpt>
      <trkpt lat="43.39904" lon="6.63168">
        <ele>463.5</ele>
        <time>2013-10-10T10:46:42.727Z</time>
      </trkpt>
      <trkpt lat="43.39902" lon="6.63174">
        <ele>463.8</ele>
        <time>2013-10-10T10:46:43.727Z</time>
      </trkpt>
      <trkpt lat="43.399" lon="6.63181">
        <ele>463.3</ele>
        <time>2013-10-10T10:46:44.685Z</time>
      </trkpt>
      <trkpt lat="43.39898" lon="6.63188">
        <ele>462.7</ele>
        <time>2013-10-10T10:46:45.729Z</time>
      </trkpt>
      <trkpt lat="43.39896" lon="6.63194">
        <ele>462.3</ele>
        <time>2013-10-10T10:46:46.731Z</time>
      </trkpt>
      <trkpt lat="43.39893" lon="6.63203">
        <ele>462.1</ele>
        <time>2013-10-10T10:46:49.727Z</time>
      </trkpt>
      <trkpt lat="43.39891" lon="6.63205">
        <ele>462</ele>
        <time>2013-10-10T10:46:50.736Z</time>
      </trkpt>
      <trkpt lat="43.39884" lon="6.63203">
        <ele>461.6</ele>
        <time>2013-10-10T10:46:53.800Z</time>
      </trkpt>
      <trkpt lat="43.39881" lon="6.63202">
        <ele>461.4</ele>
        <time>2013-10-10T10:46:54.771Z</time>
      </trkpt>
      <trkpt lat="43.39874" lon="6.63197">
        <ele>457.6</ele>
        <time>2013-10-10T10:46:56.786Z</time>
      </trkpt>
      <trkpt lat="43.39871" lon="6.63193">
        <ele>457.4</ele>
        <time>2013-10-10T10:46:57.680Z</time>
      </trkpt>
      <trkpt lat="43.39862" lon="6.6319">
        <ele>456.1</ele>
        <time>2013-10-10T10:47:02.608Z</time>
      </trkpt>
      <trkpt lat="43.3986" lon="6.63195">
        <ele>455.7</ele>
        <time>2013-10-10T10:47:03.568Z</time>
      </trkpt>
      <trkpt lat="43.39857" lon="6.63205">
        <ele>452.4</ele>
        <time>2013-10-10T10:47:05.561Z</time>
      </trkpt>
      <trkpt lat="43.39855" lon="6.6321">
        <ele>452.2</ele>
        <time>2013-10-10T10:47:06.559Z</time>
      </trkpt>
      <trkpt lat="43.39853" lon="6.63216">
        <ele>449.7</ele>
        <time>2013-10-10T10:47:07.562Z</time>
      </trkpt>
      <trkpt lat="43.39851" lon="6.63222">
        <ele>447.6</ele>
        <time>2013-10-10T10:47:08.583Z</time>
      </trkpt>
      <trkpt lat="43.3985" lon="6.63234">
        <ele>445.4</ele>
        <time>2013-10-10T10:47:10.561Z</time>
      </trkpt>
      <trkpt lat="43.39849" lon="6.63238">
        <ele>445.2</ele>
        <time>2013-10-10T10:47:11.627Z</time>
      </trkpt>
      <trkpt lat="43.39844" lon="6.63244">
        <ele>442.1</ele>
        <time>2013-10-10T10:47:13.564Z</time>
      </trkpt>
      <trkpt lat="43.39839" lon="6.63247">
        <ele>440.9</ele>
        <time>2013-10-10T10:47:14.562Z</time>
      </trkpt>
      <trkpt lat="43.3983" lon="6.63248">
        <ele>437.6</ele>
        <time>2013-10-10T10:47:16.608Z</time>
      </trkpt>
      <trkpt lat="43.39827" lon="6.63248">
        <ele>435.8</ele>
        <time>2013-10-10T10:47:17.612Z</time>
      </trkpt>
      <trkpt lat="43.39818" lon="6.63247">
        <ele>435.2</ele>
        <time>2013-10-10T10:47:20.680Z</time>
      </trkpt>
      <trkpt lat="43.39815" lon="6.63248">
        <ele>432.9</ele>
        <time>2013-10-10T10:47:21.608Z</time>
      </trkpt>
      <trkpt lat="43.39808" lon="6.63253">
        <ele>430.6</ele>
        <time>2013-10-10T10:47:23.610Z</time>
      </trkpt>
      <trkpt lat="43.39807" lon="6.63258">
        <ele>428.7</ele>
        <time>2013-10-10T10:47:24.606Z</time>
      </trkpt>
      <trkpt lat="43.39804" lon="6.6327">
        <ele>426.1</ele>
        <time>2013-10-10T10:47:26.606Z</time>
      </trkpt>
      <trkpt lat="43.39802" lon="6.63276">
        <ele>424.8</ele>
        <time>2013-10-10T10:47:27.606Z</time>
      </trkpt>
      <trkpt lat="43.39799" lon="6.63282">
        <ele>423.5</ele>
        <time>2013-10-10T10:47:28.607Z</time>
      </trkpt>
      <trkpt lat="43.39796" lon="6.63289">
        <ele>422.1</ele>
        <time>2013-10-10T10:47:29.613Z</time>
      </trkpt>
      <trkpt lat="43.39792" lon="6.63296">
        <ele>421</ele>
        <time>2013-10-10T10:47:30.597Z</time>
      </trkpt>
      <trkpt lat="43.39788" lon="6.63305">
        <ele>420.2</ele>
        <time>2013-10-10T10:47:31.608Z</time>
      </trkpt>
      <trkpt lat="43.39784" lon="6.63312">
        <ele>419.4</ele>
        <time>2013-10-10T10:47:32.606Z</time>
      </trkpt>
      <trkpt lat="43.39781" lon="6.63318">
        <ele>418.6</ele>
        <time>2013-10-10T10:47:33.605Z</time>
      </trkpt>
      <trkpt lat="43.39776" lon="6.63324">
        <ele>417.3</ele>
        <time>2013-10-10T10:47:34.603Z</time>
      </trkpt>
      <trkpt lat="43.39771" lon="6.63331">
        <ele>416.5</ele>
        <time>2013-10-10T10:47:35.604Z</time>
      </trkpt>
      <trkpt lat="43.39765" lon="6.6334">
        <ele>415.6</ele>
        <time>2013-10-10T10:47:36.607Z</time>
      </trkpt>
      <trkpt lat="43.39758" lon="6.63349">
        <ele>414.7</ele>
        <time>2013-10-10T10:47:37.605Z</time>
      </trkpt>
      <trkpt lat="43.39751" lon="6.63358">
        <ele>413.4</ele>
        <time>2013-10-10T10:47:38.611Z</time>
      </trkpt>
      <trkpt lat="43.39745" lon="6.63366">
        <ele>411.8</ele>
        <time>2013-10-10T10:47:39.611Z</time>
      </trkpt>
      <trkpt lat="43.39739" lon="6.63375">
        <ele>410</ele>
        <time>2013-10-10T10:47:40.617Z</time>
      </trkpt>
      <trkpt lat="43.39734" lon="6.63381">
        <ele>408.2</ele>
        <time>2013-10-10T10:47:41.590Z</time>
      </trkpt>
      <trkpt lat="43.39729" lon="6.63387">
        <ele>406.7</ele>
        <time>2013-10-10T10:47:42.574Z</time>
      </trkpt>
      <trkpt lat="43.39724" lon="6.63392">
        <ele>405.2</ele>
        <time>2013-10-10T10:47:43.607Z</time>
      </trkpt>
      <trkpt lat="43.39719" lon="6.63396">
        <ele>403.6</ele>
        <time>2013-10-10T10:47:44.608Z</time>
      </trkpt>
      <trkpt lat="43.39711" lon="6.63401">
        <ele>401.8</ele>
        <time>2013-10-10T10:47:45.607Z</time>
      </trkpt>
      <trkpt lat="43.39703" lon="6.63408">
        <ele>400.1</ele>
        <time>2013-10-10T10:47:46.608Z</time>
      </trkpt>
      <trkpt lat="43.39694" lon="6.63415">
        <ele>398.5</ele>
        <time>2013-10-10T10:47:47.610Z</time>
      </trkpt>
      <trkpt lat="43.39687" lon="6.63421">
        <ele>397.3</ele>
        <time>2013-10-10T10:47:48.613Z</time>
      </trkpt>
      <trkpt lat="43.39682" lon="6.63428">
        <ele>396</ele>
        <time>2013-10-10T10:47:49.624Z</time>
      </trkpt>
      <trkpt lat="43.39678" lon="6.63434">
        <ele>394.8</ele>
        <time>2013-10-10T10:47:50.620Z</time>
      </trkpt>
      <trkpt lat="43.39674" lon="6.6344">
        <ele>393.7</ele>
        <time>2013-10-10T10:47:51.608Z</time>
      </trkpt>
      <trkpt lat="43.3967" lon="6.63445">
        <ele>393.3</ele>
        <time>2013-10-10T10:47:52.588Z</time>
      </trkpt>
      <trkpt lat="43.39666" lon="6.6345">
        <ele>392.8</ele>
        <time>2013-10-10T10:47:53.610Z</time>
      </trkpt>
      <trkpt lat="43.39661" lon="6.63455">
        <ele>392.3</ele>
        <time>2013-10-10T10:47:54.573Z</time>
      </trkpt>
      <trkpt lat="43.39658" lon="6.63458">
        <ele>391.7</ele>
        <time>2013-10-10T10:47:55.482Z</time>
      </trkpt>
      <trkpt lat="43.39653" lon="6.6346">
        <ele>391</ele>
        <time>2013-10-10T10:47:56.472Z</time>
      </trkpt>
      <trkpt lat="43.39648" lon="6.63463">
        <ele>390.3</ele>
        <time>2013-10-10T10:47:57.660Z</time>
      </trkpt>
      <trkpt lat="43.39643" lon="6.63467">
        <ele>389.8</ele>
        <time>2013-10-10T10:47:58.631Z</time>
      </trkpt>
      <trkpt lat="43.39637" lon="6.63472">
        <ele>389.2</ele>
        <time>2013-10-10T10:47:59.473Z</time>
      </trkpt>
      <trkpt lat="43.39631" lon="6.63478">
        <ele>388.4</ele>
        <time>2013-10-10T10:48:00.475Z</time>
      </trkpt>
      <trkpt lat="43.39625" lon="6.63485">
        <ele>387.4</ele>
        <time>2013-10-10T10:48:01.476Z</time>
      </trkpt>
      <trkpt lat="43.3962" lon="6.63492">
        <ele>386.8</ele>
        <time>2013-10-10T10:48:02.494Z</time>
      </trkpt>
      <trkpt lat="43.39614" lon="6.63497">
        <ele>385.6</ele>
        <time>2013-10-10T10:48:03.487Z</time>
      </trkpt>
      <trkpt lat="43.39608" lon="6.63502">
        <ele>384.5</ele>
        <time>2013-10-10T10:48:04.606Z</time>
      </trkpt>
      <trkpt lat="43.39602" lon="6.63507">
        <ele>383.4</ele>
        <time>2013-10-10T10:48:05.521Z</time>
      </trkpt>
      <trkpt lat="43.39596" lon="6.63511">
        <ele>382.1</ele>
        <time>2013-10-10T10:48:06.556Z</time>
      </trkpt>
      <trkpt lat="43.39588" lon="6.63513">
        <ele>381.1</ele>
        <time>2013-10-10T10:48:07.565Z</time>
      </trkpt>
      <trkpt lat="43.3958" lon="6.63515">
        <ele>379.9</ele>
        <time>2013-10-10T10:48:08.526Z</time>
      </trkpt>
      <trkpt lat="43.39571" lon="6.63516">
        <ele>378.9</ele>
        <time>2013-10-10T10:48:09.521Z</time>
      </trkpt>
      <trkpt lat="43.39563" lon="6.63517">
        <ele>377.6</ele>
        <time>2013-10-10T10:48:10.538Z</time>
      </trkpt>
      <trkpt lat="43.39555" lon="6.63517">
        <ele>376.1</ele>
        <time>2013-10-10T10:48:11.534Z</time>
      </trkpt>
      <trkpt lat="43.39548" lon="6.63518">
        <ele>374.3</ele>
        <time>2013-10-10T10:48:12.528Z</time>
      </trkpt>
      <trkpt lat="43.39542" lon="6.63517">
        <ele>372.9</ele>
        <time>2013-10-10T10:48:13.535Z</time>
      </trkpt>
      <trkpt lat="43.39536" lon="6.63515">
        <ele>371.7</ele>
        <time>2013-10-10T10:48:14.584Z</time>
      </trkpt>
      <trkpt lat="43.3953" lon="6.63513">
        <ele>370.1</ele>
        <time>2013-10-10T10:48:15.544Z</time>
      </trkpt>
      <trkpt lat="43.39524" lon="6.63511">
        <ele>368.6</ele>
        <time>2013-10-10T10:48:16.564Z</time>
      </trkpt>
      <trkpt lat="43.39518" lon="6.63512">
        <ele>367.6</ele>
        <time>2013-10-10T10:48:17.564Z</time>
      </trkpt>
      <trkpt lat="43.39511" lon="6.63515">
        <ele>366</ele>
        <time>2013-10-10T10:48:18.564Z</time>
      </trkpt>
      <trkpt lat="43.39504" lon="6.6352">
        <ele>364.8</ele>
        <time>2013-10-10T10:48:19.604Z</time>
      </trkpt>
      <trkpt lat="43.39497" lon="6.63524">
        <ele>363.6</ele>
        <time>2013-10-10T10:48:20.578Z</time>
      </trkpt>
      <trkpt lat="43.39489" lon="6.63527">
        <ele>362.3</ele>
        <time>2013-10-10T10:48:21.564Z</time>
      </trkpt>
      <trkpt lat="43.39481" lon="6.63531">
        <ele>361.1</ele>
        <time>2013-10-10T10:48:22.565Z</time>
      </trkpt>
      <trkpt lat="43.39472" lon="6.63534">
        <ele>360.2</ele>
        <time>2013-10-10T10:48:23.563Z</time>
      </trkpt>
      <trkpt lat="43.39463" lon="6.63537">
        <ele>359</ele>
        <time>2013-10-10T10:48:24.564Z</time>
      </trkpt>
      <trkpt lat="43.39454" lon="6.63542">
        <ele>357.4</ele>
        <time>2013-10-10T10:48:25.565Z</time>
      </trkpt>
      <trkpt lat="43.39446" lon="6.6355">
        <ele>355.7</ele>
        <time>2013-10-10T10:48:26.567Z</time>
      </trkpt>
      <trkpt lat="43.3944" lon="6.63558">
        <ele>353.9</ele>
        <time>2013-10-10T10:48:27.568Z</time>
      </trkpt>
      <trkpt lat="43.39435" lon="6.63566">
        <ele>352.4</ele>
        <time>2013-10-10T10:48:28.568Z</time>
      </trkpt>
      <trkpt lat="43.3943" lon="6.63572">
        <ele>350.9</ele>
        <time>2013-10-10T10:48:29.565Z</time>
      </trkpt>
      <trkpt lat="43.39425" lon="6.63577">
        <ele>349.3</ele>
        <time>2013-10-10T10:48:30.570Z</time>
      </trkpt>
      <trkpt lat="43.39421" lon="6.63582">
        <ele>347.6</ele>
        <time>2013-10-10T10:48:31.565Z</time>
      </trkpt>
      <trkpt lat="43.39418" lon="6.63587">
        <ele>346</ele>
        <time>2013-10-10T10:48:32.543Z</time>
      </trkpt>
      <trkpt lat="43.39417" lon="6.63593">
        <ele>344.6</ele>
        <time>2013-10-10T10:48:33.562Z</time>
      </trkpt>
      <trkpt lat="43.39415" lon="6.63599">
        <ele>343.8</ele>
        <time>2013-10-10T10:48:34.563Z</time>
      </trkpt>
      <trkpt lat="43.39414" lon="6.63608">
        <ele>343.2</ele>
        <time>2013-10-10T10:48:35.562Z</time>
      </trkpt>
      <trkpt lat="43.39413" lon="6.6362">
        <ele>342.6</ele>
        <time>2013-10-10T10:48:36.564Z</time>
      </trkpt>
      <trkpt lat="43.3941" lon="6.63631">
        <ele>341.6</ele>
        <time>2013-10-10T10:48:37.564Z</time>
      </trkpt>
      <trkpt lat="43.39407" lon="6.63642">
        <ele>340.6</ele>
        <time>2013-10-10T10:48:38.564Z</time>
      </trkpt>
      <trkpt lat="43.39402" lon="6.63651">
        <ele>339.5</ele>
        <time>2013-10-10T10:48:39.563Z</time>
      </trkpt>
      <trkpt lat="43.39396" lon="6.63661">
        <ele>338.8</ele>
        <time>2013-10-10T10:48:40.571Z</time>
      </trkpt>
      <trkpt lat="43.39391" lon="6.63669">
        <ele>338.2</ele>
        <time>2013-10-10T10:48:41.568Z</time>
      </trkpt>
      <trkpt lat="43.39386" lon="6.63677">
        <ele>337.3</ele>
        <time>2013-10-10T10:48:42.563Z</time>
      </trkpt>
      <trkpt lat="43.39381" lon="6.63684">
        <ele>336.3</ele>
        <time>2013-10-10T10:48:43.563Z</time>
      </trkpt>
      <trkpt lat="43.39377" lon="6.63688">
        <ele>335</ele>
        <time>2013-10-10T10:48:44.562Z</time>
      </trkpt>
      <trkpt lat="43.39372" lon="6.63693">
        <ele>332.6</ele>
        <time>2013-10-10T10:48:45.563Z</time>
      </trkpt>
      <trkpt lat="43.39366" lon="6.63697">
        <ele>330</ele>
        <time>2013-10-10T10:48:46.564Z</time>
      </trkpt>
      <trkpt lat="43.39359" lon="6.63702">
        <ele>327.6</ele>
        <time>2013-10-10T10:48:47.567Z</time>
      </trkpt>
      <trkpt lat="43.39351" lon="6.6371">
        <ele>325.5</ele>
        <time>2013-10-10T10:48:48.564Z</time>
      </trkpt>
      <trkpt lat="43.39343" lon="6.63719">
        <ele>323.7</ele>
        <time>2013-10-10T10:48:49.564Z</time>
      </trkpt>
      <trkpt lat="43.39335" lon="6.6373">
        <ele>321.9</ele>
        <time>2013-10-10T10:48:50.573Z</time>
      </trkpt>
      <trkpt lat="43.39328" lon="6.6374">
        <ele>319.9</ele>
        <time>2013-10-10T10:48:51.536Z</time>
      </trkpt>
      <trkpt lat="43.39322" lon="6.6375">
        <ele>317.9</ele>
        <time>2013-10-10T10:48:52.563Z</time>
      </trkpt>
      <trkpt lat="43.39317" lon="6.63757">
        <ele>315.9</ele>
        <time>2013-10-10T10:48:53.563Z</time>
      </trkpt>
      <trkpt lat="43.39313" lon="6.63763">
        <ele>314</ele>
        <time>2013-10-10T10:48:54.562Z</time>
      </trkpt>
      <trkpt lat="43.39308" lon="6.63767">
        <ele>311.8</ele>
        <time>2013-10-10T10:48:55.562Z</time>
      </trkpt>
      <trkpt lat="43.39303" lon="6.63771">
        <ele>309.7</ele>
        <time>2013-10-10T10:48:56.563Z</time>
      </trkpt>
      <trkpt lat="43.39297" lon="6.63774">
        <ele>307.9</ele>
        <time>2013-10-10T10:48:57.564Z</time>
      </trkpt>
      <trkpt lat="43.39291" lon="6.63779">
        <ele>306.2</ele>
        <time>2013-10-10T10:48:58.564Z</time>
      </trkpt>
      <trkpt lat="43.39287" lon="6.63785">
        <ele>304.5</ele>
        <time>2013-10-10T10:48:59.564Z</time>
      </trkpt>
      <trkpt lat="43.39283" lon="6.63789">
        <ele>302.8</ele>
        <time>2013-10-10T10:49:00.545Z</time>
      </trkpt>
      <trkpt lat="43.39277" lon="6.63792">
        <ele>300.5</ele>
        <time>2013-10-10T10:49:02.564Z</time>
      </trkpt>
      <trkpt lat="43.39275" lon="6.63795">
        <ele>298.2</ele>
        <time>2013-10-10T10:49:03.563Z</time>
      </trkpt>
      <trkpt lat="43.39275" lon="6.63806">
        <ele>295</ele>
        <time>2013-10-10T10:49:05.583Z</time>
      </trkpt>
      <trkpt lat="43.39274" lon="6.63814">
        <ele>293.1</ele>
        <time>2013-10-10T10:49:06.559Z</time>
      </trkpt>
      <trkpt lat="43.39273" lon="6.63822">
        <ele>291.2</ele>
        <time>2013-10-10T10:49:07.557Z</time>
      </trkpt>
      <trkpt lat="43.39272" lon="6.6383">
        <ele>289</ele>
        <time>2013-10-10T10:49:08.559Z</time>
      </trkpt>
      <trkpt lat="43.3927" lon="6.63841">
        <ele>286.8</ele>
        <time>2013-10-10T10:49:09.561Z</time>
      </trkpt>
      <trkpt lat="43.39268" lon="6.63853">
        <ele>284.7</ele>
        <time>2013-10-10T10:49:10.569Z</time>
      </trkpt>
      <trkpt lat="43.39266" lon="6.63864">
        <ele>282.9</ele>
        <time>2013-10-10T10:49:11.568Z</time>
      </trkpt>
      <trkpt lat="43.39264" lon="6.63874">
        <ele>280.8</ele>
        <time>2013-10-10T10:49:12.563Z</time>
      </trkpt>
      <trkpt lat="43.39262" lon="6.63883">
        <ele>278.6</ele>
        <time>2013-10-10T10:49:13.557Z</time>
      </trkpt>
      <trkpt lat="43.3926" lon="6.6389">
        <ele>277</ele>
        <time>2013-10-10T10:49:14.563Z</time>
      </trkpt>
      <trkpt lat="43.39258" lon="6.63897">
        <ele>275.4</ele>
        <time>2013-10-10T10:49:15.563Z</time>
      </trkpt>
      <trkpt lat="43.39257" lon="6.63904">
        <ele>275.2</ele>
        <time>2013-10-10T10:49:16.563Z</time>
      </trkpt>
      <trkpt lat="43.39251" lon="6.63912">
        <ele>270.8</ele>
        <time>2013-10-10T10:49:18.563Z</time>
      </trkpt>
      <trkpt lat="43.39245" lon="6.63914">
        <ele>268.8</ele>
        <time>2013-10-10T10:49:19.561Z</time>
      </trkpt>
      <trkpt lat="43.39238" lon="6.63915">
        <ele>266.9</ele>
        <time>2013-10-10T10:49:20.568Z</time>
      </trkpt>
      <trkpt lat="43.39229" lon="6.63916">
        <ele>265.4</ele>
        <time>2013-10-10T10:49:21.561Z</time>
      </trkpt>
      <trkpt lat="43.39218" lon="6.63918">
        <ele>264.3</ele>
        <time>2013-10-10T10:49:22.564Z</time>
      </trkpt>
      <trkpt lat="43.39208" lon="6.63922">
        <ele>263.2</ele>
        <time>2013-10-10T10:49:23.564Z</time>
      </trkpt>
      <trkpt lat="43.39197" lon="6.63927">
        <ele>262.1</ele>
        <time>2013-10-10T10:49:24.567Z</time>
      </trkpt>
      <trkpt lat="43.39187" lon="6.63932">
        <ele>260.7</ele>
        <time>2013-10-10T10:49:25.567Z</time>
      </trkpt>
      <trkpt lat="43.39179" lon="6.63937">
        <ele>259.4</ele>
        <time>2013-10-10T10:49:26.562Z</time>
      </trkpt>
      <trkpt lat="43.39171" lon="6.63942">
        <ele>258.5</ele>
        <time>2013-10-10T10:49:27.567Z</time>
      </trkpt>
      <trkpt lat="43.39164" lon="6.63946">
        <ele>258.3</ele>
        <time>2013-10-10T10:49:28.559Z</time>
      </trkpt>
      <trkpt lat="43.39157" lon="6.6395">
        <ele>258.5</ele>
        <time>2013-10-10T10:49:29.548Z</time>
      </trkpt>
      <trkpt lat="43.3915" lon="6.63954">
        <ele>259.1</ele>
        <time>2013-10-10T10:49:30.569Z</time>
      </trkpt>
      <trkpt lat="43.39143" lon="6.63958">
        <ele>259.9</ele>
        <time>2013-10-10T10:49:31.474Z</time>
      </trkpt>
      <trkpt lat="43.3914" lon="6.6396">
        <ele>260.3</ele>
        <time>2013-10-10T10:49:32.155Z</time>
      </trkpt>
      <trkpt lat="43.39132" lon="6.63964">
        <ele>262.1</ele>
        <time>2013-10-10T10:49:34.127Z</time>
      </trkpt>
      <trkpt lat="43.39128" lon="6.63965">
        <ele>262.6</ele>
        <time>2013-10-10T10:49:35.402Z</time>
      </trkpt>
      <trkpt lat="43.39121" lon="6.63967">
        <ele>263.1</ele>
        <time>2013-10-10T10:49:37.121Z</time>
      </trkpt>
      <trkpt lat="43.39116" lon="6.63969">
        <ele>263.5</ele>
        <time>2013-10-10T10:49:38.136Z</time>
      </trkpt>
      <trkpt lat="43.39111" lon="6.6397">
        <ele>263.8</ele>
        <time>2013-10-10T10:49:39.126Z</time>
      </trkpt>
      <trkpt lat="43.39106" lon="6.63972">
        <ele>263.9</ele>
        <time>2013-10-10T10:49:40.169Z</time>
      </trkpt>
      <trkpt lat="43.39102" lon="6.63974">
        <ele>264.2</ele>
        <time>2013-10-10T10:49:41.163Z</time>
      </trkpt>
      <trkpt lat="43.39098" lon="6.63977">
        <ele>264.1</ele>
        <time>2013-10-10T10:49:42.161Z</time>
      </trkpt>
      <trkpt lat="43.39093" lon="6.63981">
        <ele>264.4</ele>
        <time>2013-10-10T10:49:43.201Z</time>
      </trkpt>
      <trkpt lat="43.39089" lon="6.63985">
        <ele>264.6</ele>
        <time>2013-10-10T10:49:44.162Z</time>
      </trkpt>
      <trkpt lat="43.39082" lon="6.63992">
        <ele>264.7</ele>
        <time>2013-10-10T10:49:46.160Z</time>
      </trkpt>
      <trkpt lat="43.3908" lon="6.63994">
        <ele>264.8</ele>
        <time>2013-10-10T10:49:47.163Z</time>
      </trkpt>
      <trkpt lat="43.39074" lon="6.64">
        <ele>265.7</ele>
        <time>2013-10-10T10:49:49.163Z</time>
      </trkpt>
      <trkpt lat="43.39071" lon="6.64003">
        <ele>266</ele>
        <time>2013-10-10T10:49:50.170Z</time>
      </trkpt>
      <trkpt lat="43.39067" lon="6.64007">
        <ele>266.2</ele>
        <time>2013-10-10T10:49:51.114Z</time>
      </trkpt>
      <trkpt lat="43.39063" lon="6.64011">
        <ele>266.2</ele>
        <time>2013-10-10T10:49:52.164Z</time>
      </trkpt>
      <trkpt lat="43.39059" lon="6.64014">
        <ele>265.8</ele>
        <time>2013-10-10T10:49:53.166Z</time>
      </trkpt>
      <trkpt lat="43.39055" lon="6.64018">
        <ele>265.5</ele>
        <time>2013-10-10T10:49:54.163Z</time>
      </trkpt>
      <trkpt lat="43.39051" lon="6.64023">
        <ele>265.1</ele>
        <time>2013-10-10T10:49:55.162Z</time>
      </trkpt>
      <trkpt lat="43.39045" lon="6.64028">
        <ele>264.6</ele>
        <time>2013-10-10T10:49:56.134Z</time>
      </trkpt>
      <trkpt lat="43.3904" lon="6.64033">
        <ele>264.3</ele>
        <time>2013-10-10T10:49:57.162Z</time>
      </trkpt>
      <trkpt lat="43.39034" lon="6.64038">
        <ele>263.8</ele>
        <time>2013-10-10T10:49:58.161Z</time>
      </trkpt>
      <trkpt lat="43.39028" lon="6.64044">
        <ele>263.3</ele>
        <time>2013-10-10T10:49:59.161Z</time>
      </trkpt>
      <trkpt lat="43.39021" lon="6.6405">
        <ele>262.9</ele>
        <time>2013-10-10T10:50:00.205Z</time>
      </trkpt>
      <trkpt lat="43.39013" lon="6.64056">
        <ele>262.5</ele>
        <time>2013-10-10T10:50:01.121Z</time>
      </trkpt>
      <trkpt lat="43.39005" lon="6.64063">
        <ele>261.9</ele>
        <time>2013-10-10T10:50:02.163Z</time>
      </trkpt>
      <trkpt lat="43.38997" lon="6.6407">
        <ele>261.3</ele>
        <time>2013-10-10T10:50:03.162Z</time>
      </trkpt>
      <trkpt lat="43.3899" lon="6.64076">
        <ele>260.2</ele>
        <time>2013-10-10T10:50:04.162Z</time>
      </trkpt>
      <trkpt lat="43.38982" lon="6.6408">
        <ele>259</ele>
        <time>2013-10-10T10:50:05.165Z</time>
      </trkpt>
      <trkpt lat="43.38973" lon="6.64084">
        <ele>257.7</ele>
        <time>2013-10-10T10:50:06.162Z</time>
      </trkpt>
      <trkpt lat="43.38963" lon="6.64086">
        <ele>256.3</ele>
        <time>2013-10-10T10:50:07.162Z</time>
      </trkpt>
      <trkpt lat="43.38954" lon="6.64086">
        <ele>255.1</ele>
        <time>2013-10-10T10:50:08.162Z</time>
      </trkpt>
      <trkpt lat="43.38945" lon="6.64083">
        <ele>254</ele>
        <time>2013-10-10T10:50:09.162Z</time>
      </trkpt>
      <trkpt lat="43.38937" lon="6.64077">
        <ele>253.2</ele>
        <time>2013-10-10T10:50:10.169Z</time>
      </trkpt>
      <trkpt lat="43.38933" lon="6.6407">
        <ele>252.4</ele>
        <time>2013-10-10T10:50:11.163Z</time>
      </trkpt>
      <trkpt lat="43.38931" lon="6.64062">
        <ele>252.3</ele>
        <time>2013-10-10T10:50:12.163Z</time>
      </trkpt>
      <trkpt lat="43.38931" lon="6.64054">
        <ele>252.2</ele>
        <time>2013-10-10T10:50:13.163Z</time>
      </trkpt>
      <trkpt lat="43.38932" lon="6.64048">
        <ele>252.2</ele>
        <time>2013-10-10T10:50:14.161Z</time>
      </trkpt>
      <trkpt lat="43.38935" lon="6.64042">
        <ele>251.4</ele>
        <time>2013-10-10T10:50:15.163Z</time>
      </trkpt>
      <trkpt lat="43.3894" lon="6.64032">
        <ele>249.9</ele>
        <time>2013-10-10T10:50:17.151Z</time>
      </trkpt>
      <trkpt lat="43.38943" lon="6.64024">
        <ele>249.8</ele>
        <time>2013-10-10T10:50:18.144Z</time>
      </trkpt>
      <trkpt lat="43.38946" lon="6.64016">
        <ele>250.1</ele>
        <time>2013-10-10T10:50:19.131Z</time>
      </trkpt>
      <trkpt lat="43.38949" lon="6.64009">
        <ele>250.5</ele>
        <time>2013-10-10T10:50:20.130Z</time>
      </trkpt>
      <trkpt lat="43.38953" lon="6.64002">
        <ele>250.7</ele>
        <time>2013-10-10T10:50:21.212Z</time>
      </trkpt>
      <trkpt lat="43.38957" lon="6.63998">
        <ele>251.1</ele>
        <time>2013-10-10T10:50:22.141Z</time>
      </trkpt>
      <trkpt lat="43.38962" lon="6.63993">
        <ele>251.4</ele>
        <time>2013-10-10T10:50:23.190Z</time>
      </trkpt>
      <trkpt lat="43.38966" lon="6.63989">
        <ele>251.3</ele>
        <time>2013-10-10T10:50:24.181Z</time>
      </trkpt>
      <trkpt lat="43.38971" lon="6.63985">
        <ele>251.5</ele>
        <time>2013-10-10T10:50:25.181Z</time>
      </trkpt>
      <trkpt lat="43.38976" lon="6.63982">
        <ele>251.6</ele>
        <time>2013-10-10T10:50:26.181Z</time>
      </trkpt>
      <trkpt lat="43.38982" lon="6.63979">
        <ele>251.5</ele>
        <time>2013-10-10T10:50:27.182Z</time>
      </trkpt>
      <trkpt lat="43.38988" lon="6.63975">
        <ele>251.2</ele>
        <time>2013-10-10T10:50:28.184Z</time>
      </trkpt>
      <trkpt lat="43.38993" lon="6.63971">
        <ele>250.8</ele>
        <time>2013-10-10T10:50:29.182Z</time>
      </trkpt>
      <trkpt lat="43.38999" lon="6.63967">
        <ele>250.5</ele>
        <time>2013-10-10T10:50:30.251Z</time>
      </trkpt>
      <trkpt lat="43.39004" lon="6.63964">
        <ele>250.3</ele>
        <time>2013-10-10T10:50:31.268Z</time>
      </trkpt>
      <trkpt lat="43.39008" lon="6.6396">
        <ele>250.1</ele>
        <time>2013-10-10T10:50:32.182Z</time>
      </trkpt>
      <trkpt lat="43.39012" lon="6.63956">
        <ele>249.8</ele>
        <time>2013-10-10T10:50:33.182Z</time>
      </trkpt>
      <trkpt lat="43.39016" lon="6.63952">
        <ele>249.6</ele>
        <time>2013-10-10T10:50:34.182Z</time>
      </trkpt>
      <trkpt lat="43.3902" lon="6.63947">
        <ele>249.3</ele>
        <time>2013-10-10T10:50:35.181Z</time>
      </trkpt>
      <trkpt lat="43.39024" lon="6.63943">
        <ele>249.2</ele>
        <time>2013-10-10T10:50:36.185Z</time>
      </trkpt>
      <trkpt lat="43.39031" lon="6.63936">
        <ele>248.8</ele>
        <time>2013-10-10T10:50:38.433Z</time>
      </trkpt>
      <trkpt lat="43.39032" lon="6.63932">
        <ele>248.5</ele>
        <time>2013-10-10T10:50:39.450Z</time>
      </trkpt>
      <trkpt lat="43.39034" lon="6.63921">
        <ele>247.4</ele>
        <time>2013-10-10T10:50:41.475Z</time>
      </trkpt>
      <trkpt lat="43.39033" lon="6.63914">
        <ele>247.1</ele>
        <time>2013-10-10T10:50:42.468Z</time>
      </trkpt>
      <trkpt lat="43.39029" lon="6.63908">
        <ele>246.8</ele>
        <time>2013-10-10T10:50:43.443Z</time>
      </trkpt>
      <trkpt lat="43.39025" lon="6.63903">
        <ele>246.4</ele>
        <time>2013-10-10T10:50:44.438Z</time>
      </trkpt>
      <trkpt lat="43.39021" lon="6.63898">
        <ele>246.1</ele>
        <time>2013-10-10T10:50:45.468Z</time>
      </trkpt>
      <trkpt lat="43.39017" lon="6.63892">
        <ele>245.7</ele>
        <time>2013-10-10T10:50:46.481Z</time>
      </trkpt>
      <trkpt lat="43.39014" lon="6.63887">
        <ele>245.4</ele>
        <time>2013-10-10T10:50:47.465Z</time>
      </trkpt>
      <trkpt lat="43.39011" lon="6.63882">
        <ele>245.1</ele>
        <time>2013-10-10T10:50:48.466Z</time>
      </trkpt>
      <trkpt lat="43.39006" lon="6.63876">
        <ele>244.6</ele>
        <time>2013-10-10T10:50:49.465Z</time>
      </trkpt>
      <trkpt lat="43.39001" lon="6.63872">
        <ele>243.3</ele>
        <time>2013-10-10T10:50:50.471Z</time>
      </trkpt>
      <trkpt lat="43.38994" lon="6.63869">
        <ele>241.9</ele>
        <time>2013-10-10T10:50:51.465Z</time>
      </trkpt>
      <trkpt lat="43.38987" lon="6.63866">
        <ele>240.3</ele>
        <time>2013-10-10T10:50:52.465Z</time>
      </trkpt>
      <trkpt lat="43.3898" lon="6.63862">
        <ele>238.2</ele>
        <time>2013-10-10T10:50:53.468Z</time>
      </trkpt>
      <trkpt lat="43.38973" lon="6.63857">
        <ele>236.1</ele>
        <time>2013-10-10T10:50:54.466Z</time>
      </trkpt>
      <trkpt lat="43.38967" lon="6.63853">
        <ele>233.8</ele>
        <time>2013-10-10T10:50:55.466Z</time>
      </trkpt>
      <trkpt lat="43.38962" lon="6.63849">
        <ele>231.7</ele>
        <time>2013-10-10T10:50:56.465Z</time>
      </trkpt>
      <trkpt lat="43.38959" lon="6.63844">
        <ele>229.5</ele>
        <time>2013-10-10T10:50:57.465Z</time>
      </trkpt>
      <trkpt lat="43.38957" lon="6.63839">
        <ele>227.5</ele>
        <time>2013-10-10T10:50:58.464Z</time>
      </trkpt>
      <trkpt lat="43.38954" lon="6.6383">
        <ele>225.6</ele>
        <time>2013-10-10T10:50:59.468Z</time>
      </trkpt>
      <trkpt lat="43.38951" lon="6.63819">
        <ele>223.6</ele>
        <time>2013-10-10T10:51:00.522Z</time>
      </trkpt>
      <trkpt lat="43.38948" lon="6.63808">
        <ele>221.8</ele>
        <time>2013-10-10T10:51:01.434Z</time>
      </trkpt>
      <trkpt lat="43.38944" lon="6.63797">
        <ele>220.3</ele>
        <time>2013-10-10T10:51:02.461Z</time>
      </trkpt>
      <trkpt lat="43.38939" lon="6.63788">
        <ele>219.2</ele>
        <time>2013-10-10T10:51:03.464Z</time>
      </trkpt>
      <trkpt lat="43.38934" lon="6.6378">
        <ele>218.8</ele>
        <time>2013-10-10T10:51:04.547Z</time>
      </trkpt>
      <trkpt lat="43.38929" lon="6.63774">
        <ele>217.9</ele>
        <time>2013-10-10T10:51:05.464Z</time>
      </trkpt>
      <trkpt lat="43.38924" lon="6.63769">
        <ele>216.9</ele>
        <time>2013-10-10T10:51:06.464Z</time>
      </trkpt>
      <trkpt lat="43.38919" lon="6.63764">
        <ele>215.8</ele>
        <time>2013-10-10T10:51:07.465Z</time>
      </trkpt>
      <trkpt lat="43.38914" lon="6.6376">
        <ele>214.7</ele>
        <time>2013-10-10T10:51:08.430Z</time>
      </trkpt>
      <trkpt lat="43.38908" lon="6.63756">
        <ele>213.2</ele>
        <time>2013-10-10T10:51:09.464Z</time>
      </trkpt>
      <trkpt lat="43.38903" lon="6.63751">
        <ele>212</ele>
        <time>2013-10-10T10:51:10.471Z</time>
      </trkpt>
      <trkpt lat="43.38899" lon="6.63746">
        <ele>211</ele>
        <time>2013-10-10T10:51:11.462Z</time>
      </trkpt>
      <trkpt lat="43.38896" lon="6.6374">
        <ele>210.4</ele>
        <time>2013-10-10T10:51:12.461Z</time>
      </trkpt>
      <trkpt lat="43.38894" lon="6.63735">
        <ele>210</ele>
        <time>2013-10-10T10:51:13.462Z</time>
      </trkpt>
      <trkpt lat="43.3889" lon="6.6373">
        <ele>209.5</ele>
        <time>2013-10-10T10:51:14.462Z</time>
      </trkpt>
      <trkpt lat="43.38887" lon="6.63725">
        <ele>209</ele>
        <time>2013-10-10T10:51:15.462Z</time>
      </trkpt>
      <trkpt lat="43.38885" lon="6.6372">
        <ele>208.3</ele>
        <time>2013-10-10T10:51:16.464Z</time>
      </trkpt>
      <trkpt lat="43.38883" lon="6.63714">
        <ele>207.8</ele>
        <time>2013-10-10T10:51:17.464Z</time>
      </trkpt>
      <trkpt lat="43.3888" lon="6.63708">
        <ele>207</ele>
        <time>2013-10-10T10:51:18.462Z</time>
      </trkpt>
      <trkpt lat="43.38875" lon="6.63701">
        <ele>206.4</ele>
        <time>2013-10-10T10:51:19.461Z</time>
      </trkpt>
      <trkpt lat="43.38869" lon="6.63693">
        <ele>205.4</ele>
        <time>2013-10-10T10:51:20.469Z</time>
      </trkpt>
      <trkpt lat="43.38862" lon="6.63684">
        <ele>204.2</ele>
        <time>2013-10-10T10:51:21.461Z</time>
      </trkpt>
      <trkpt lat="43.38854" lon="6.63675">
        <ele>202.8</ele>
        <time>2013-10-10T10:51:22.464Z</time>
      </trkpt>
      <trkpt lat="43.38846" lon="6.63666">
        <ele>201.6</ele>
        <time>2013-10-10T10:51:23.462Z</time>
      </trkpt>
      <trkpt lat="43.38839" lon="6.63658">
        <ele>200.3</ele>
        <time>2013-10-10T10:51:24.462Z</time>
      </trkpt>
      <trkpt lat="43.38832" lon="6.63652">
        <ele>199</ele>
        <time>2013-10-10T10:51:25.462Z</time>
      </trkpt>
      <trkpt lat="43.38826" lon="6.63646">
        <ele>197.5</ele>
        <time>2013-10-10T10:51:26.464Z</time>
      </trkpt>
      <trkpt lat="43.3882" lon="6.63641">
        <ele>196.4</ele>
        <time>2013-10-10T10:51:27.465Z</time>
      </trkpt>
      <trkpt lat="43.38815" lon="6.63636">
        <ele>195.8</ele>
        <time>2013-10-10T10:51:28.464Z</time>
      </trkpt>
      <trkpt lat="43.38811" lon="6.63632">
        <ele>195.5</ele>
        <time>2013-10-10T10:51:29.464Z</time>
      </trkpt>
      <trkpt lat="43.38807" lon="6.63627">
        <ele>194.8</ele>
        <time>2013-10-10T10:51:30.470Z</time>
      </trkpt>
      <trkpt lat="43.38803" lon="6.6362">
        <ele>194</ele>
        <time>2013-10-10T10:51:31.462Z</time>
      </trkpt>
      <trkpt lat="43.388" lon="6.63612">
        <ele>193.4</ele>
        <time>2013-10-10T10:51:32.464Z</time>
      </trkpt>
      <trkpt lat="43.38798" lon="6.63604">
        <ele>193</ele>
        <time>2013-10-10T10:51:33.462Z</time>
      </trkpt>
      <trkpt lat="43.38795" lon="6.63596">
        <ele>192.6</ele>
        <time>2013-10-10T10:51:34.463Z</time>
      </trkpt>
      <trkpt lat="43.38792" lon="6.63588">
        <ele>192.2</ele>
        <time>2013-10-10T10:51:35.462Z</time>
      </trkpt>
      <trkpt lat="43.38789" lon="6.6358">
        <ele>192.1</ele>
        <time>2013-10-10T10:51:36.463Z</time>
      </trkpt>
      <trkpt lat="43.38787" lon="6.63573">
        <ele>192</ele>
        <time>2013-10-10T10:51:37.464Z</time>
      </trkpt>
      <trkpt lat="43.38785" lon="6.63566">
        <ele>192.1</ele>
        <time>2013-10-10T10:51:38.465Z</time>
      </trkpt>
      <trkpt lat="43.38783" lon="6.63561">
        <ele>192.3</ele>
        <time>2013-10-10T10:51:39.464Z</time>
      </trkpt>
      <trkpt lat="43.38779" lon="6.63551">
        <ele>192.4</ele>
        <time>2013-10-10T10:51:41.465Z</time>
      </trkpt>
      <trkpt lat="43.38777" lon="6.63545">
        <ele>192.6</ele>
        <time>2013-10-10T10:51:42.501Z</time>
      </trkpt>
      <trkpt lat="43.38776" lon="6.63539">
        <ele>192.9</ele>
        <time>2013-10-10T10:51:43.464Z</time>
      </trkpt>
      <trkpt lat="43.38777" lon="6.63532">
        <ele>193.2</ele>
        <time>2013-10-10T10:51:44.464Z</time>
      </trkpt>
      <trkpt lat="43.38781" lon="6.63522">
        <ele>194.1</ele>
        <time>2013-10-10T10:51:46.464Z</time>
      </trkpt>
      <trkpt lat="43.38783" lon="6.63517">
        <ele>194.1</ele>
        <time>2013-10-10T10:51:47.466Z</time>
      </trkpt>
      <trkpt lat="43.38786" lon="6.63512">
        <ele>194.5</ele>
        <time>2013-10-10T10:51:52.465Z</time>
      </trkpt>
      <trkpt lat="43.38785" lon="6.63512">
        <ele>194.5</ele>
        <time>2013-10-10T10:51:53.466Z</time>
      </trkpt>
      <trkpt lat="43.38785" lon="6.63512">
        <ele>195</ele>
        <time>2013-10-10T10:52:01.466Z</time>
      </trkpt>
      <trkpt lat="43.38786" lon="6.63509">
        <ele>195.1</ele>
        <time>2013-10-10T10:52:02.465Z</time>
      </trkpt>
      <trkpt lat="43.38787" lon="6.63507">
        <ele>195.2</ele>
        <time>2013-10-10T10:52:06.468Z</time>
      </trkpt>
      <trkpt lat="43.38787" lon="6.63507">
        <ele>195.3</ele>
        <time>2013-10-10T10:52:07.468Z</time>
      </trkpt>
      <trkpt lat="43.38787" lon="6.63508">
        <ele>195.4</ele>
        <time>2013-10-10T10:52:09.469Z</time>
      </trkpt>
      <trkpt lat="43.38788" lon="6.63504">
        <ele>195.4</ele>
        <time>2013-10-10T10:52:10.475Z</time>
      </trkpt>
      <trkpt lat="43.38789" lon="6.63502">
        <ele>195.7</ele>
        <time>2013-10-10T10:52:14.466Z</time>
      </trkpt>
      <trkpt lat="43.38789" lon="6.63502">
        <ele>195.7</ele>
        <time>2013-10-10T10:52:15.466Z</time>
      </trkpt>
      <trkpt lat="43.38789" lon="6.63502">
        <ele>199.2</ele>
        <time>2013-10-10T10:55:15.456Z</time>
      </trkpt>
      <trkpt lat="43.38793" lon="6.63504">
        <ele>199.3</ele>
        <time>2013-10-10T10:55:16.460Z</time>
      </trkpt>
      <trkpt lat="43.38802" lon="6.63504">
        <ele>199.6</ele>
        <time>2013-10-10T10:55:24.457Z</time>
      </trkpt>
      <trkpt lat="43.38803" lon="6.63504">
        <ele>199.7</ele>
        <time>2013-10-10T10:55:25.470Z</time>
      </trkpt>
      <trkpt lat="43.38811" lon="6.63504">
        <ele>199.9</ele>
        <time>2013-10-10T10:55:32.457Z</time>
      </trkpt>
      <trkpt lat="43.38813" lon="6.63504">
        <ele>199.9</ele>
        <time>2013-10-10T10:55:33.461Z</time>
      </trkpt>
      <trkpt lat="43.38817" lon="6.63504">
        <ele>200.1</ele>
        <time>2013-10-10T10:55:40.474Z</time>
      </trkpt>
      <trkpt lat="43.38817" lon="6.63504">
        <ele>200.1</ele>
        <time>2013-10-10T10:55:41.463Z</time>
      </trkpt>
      <trkpt lat="43.38817" lon="6.63504">
        <ele>200.2</ele>
        <time>2013-10-10T10:55:44.460Z</time>
      </trkpt>
      <trkpt lat="43.3882" lon="6.63503">
        <ele>200.3</ele>
        <time>2013-10-10T10:55:45.479Z</time>
      </trkpt>
      <trkpt lat="43.38828" lon="6.63504">
        <ele>200.6</ele>
        <time>2013-10-10T10:55:52.458Z</time>
      </trkpt>
      <trkpt lat="43.38829" lon="6.63504">
        <ele>200.7</ele>
        <time>2013-10-10T10:55:53.462Z</time>
      </trkpt>
      <trkpt lat="43.38838" lon="6.63505">
        <ele>201.1</ele>
        <time>2013-10-10T10:56:01.464Z</time>
      </trkpt>
      <trkpt lat="43.38839" lon="6.63505">
        <ele>201.1</ele>
        <time>2013-10-10T10:56:02.463Z</time>
      </trkpt>
      <trkpt lat="43.38847" lon="6.63507">
        <ele>201.5</ele>
        <time>2013-10-10T10:56:12.462Z</time>
      </trkpt>
      <trkpt lat="43.38848" lon="6.63508">
        <ele>201.6</ele>
        <time>2013-10-10T10:56:13.462Z</time>
      </trkpt>
      <trkpt lat="43.38856" lon="6.63511">
        <ele>202.5</ele>
        <time>2013-10-10T10:56:21.464Z</time>
      </trkpt>
      <trkpt lat="43.38857" lon="6.63511">
        <ele>202.6</ele>
        <time>2013-10-10T10:56:22.469Z</time>
      </trkpt>
      <trkpt lat="43.38866" lon="6.63512">
        <ele>203.7</ele>
        <time>2013-10-10T10:56:29.478Z</time>
      </trkpt>
      <trkpt lat="43.38867" lon="6.63512">
        <ele>203.9</ele>
        <time>2013-10-10T10:56:30.478Z</time>
      </trkpt>
      <trkpt lat="43.38873" lon="6.63519">
        <ele>205</ele>
        <time>2013-10-10T10:56:36.475Z</time>
      </trkpt>
      <trkpt lat="43.38874" lon="6.63522">
        <ele>205.1</ele>
        <time>2013-10-10T10:56:37.470Z</time>
      </trkpt>
      <trkpt lat="43.38879" lon="6.63529">
        <ele>205.7</ele>
        <time>2013-10-10T10:56:40.484Z</time>
      </trkpt>
      <trkpt lat="43.3888" lon="6.63531">
        <ele>205.9</ele>
        <time>2013-10-10T10:56:41.472Z</time>
      </trkpt>
      <trkpt lat="43.38885" lon="6.6354">
        <ele>206.3</ele>
        <time>2013-10-10T10:56:45.471Z</time>
      </trkpt>
      <trkpt lat="43.38887" lon="6.63542">
        <ele>206.5</ele>
        <time>2013-10-10T10:56:46.465Z</time>
      </trkpt>
      <trkpt lat="43.38893" lon="6.63548">
        <ele>206.8</ele>
        <time>2013-10-10T10:56:50.485Z</time>
      </trkpt>
      <trkpt lat="43.38894" lon="6.6355">
        <ele>206.9</ele>
        <time>2013-10-10T10:56:51.474Z</time>
      </trkpt>
      <trkpt lat="43.389" lon="6.63558">
        <ele>207.6</ele>
        <time>2013-10-10T10:56:56.466Z</time>
      </trkpt>
      <trkpt lat="43.38901" lon="6.6356">
        <ele>207.8</ele>
        <time>2013-10-10T10:56:57.466Z</time>
      </trkpt>
      <trkpt lat="43.38906" lon="6.6357">
        <ele>208.3</ele>
        <time>2013-10-10T10:57:01.489Z</time>
      </trkpt>
      <trkpt lat="43.38907" lon="6.63572">
        <ele>208.5</ele>
        <time>2013-10-10T10:57:02.475Z</time>
      </trkpt>
      <trkpt lat="43.38911" lon="6.63582">
        <ele>208.9</ele>
        <time>2013-10-10T10:57:06.470Z</time>
      </trkpt>
      <trkpt lat="43.38912" lon="6.63585">
        <ele>209.1</ele>
        <time>2013-10-10T10:57:07.468Z</time>
      </trkpt>
      <trkpt lat="43.38917" lon="6.63594">
        <ele>209.4</ele>
        <time>2013-10-10T10:57:11.474Z</time>
      </trkpt>
      <trkpt lat="43.38918" lon="6.63597">
        <ele>209.5</ele>
        <time>2013-10-10T10:57:12.465Z</time>
      </trkpt>
      <trkpt lat="43.38922" lon="6.63605">
        <ele>209.8</ele>
        <time>2013-10-10T10:57:16.470Z</time>
      </trkpt>
      <trkpt lat="43.38923" lon="6.63608">
        <ele>209.9</ele>
        <time>2013-10-10T10:57:17.481Z</time>
      </trkpt>
      <trkpt lat="43.38927" lon="6.63617">
        <ele>210.2</ele>
        <time>2013-10-10T10:57:21.465Z</time>
      </trkpt>
      <trkpt lat="43.38927" lon="6.63619">
        <ele>210.2</ele>
        <time>2013-10-10T10:57:22.444Z</time>
      </trkpt>
      <trkpt lat="43.38931" lon="6.63629">
        <ele>210.4</ele>
        <time>2013-10-10T10:57:27.469Z</time>
      </trkpt>
      <trkpt lat="43.38931" lon="6.63631">
        <ele>210.4</ele>
        <time>2013-10-10T10:57:28.475Z</time>
      </trkpt>
      <trkpt lat="43.38935" lon="6.63641">
        <ele>210.6</ele>
        <time>2013-10-10T10:57:33.466Z</time>
      </trkpt>
      <trkpt lat="43.38936" lon="6.63643">
        <ele>210.6</ele>
        <time>2013-10-10T10:57:34.493Z</time>
      </trkpt>
      <trkpt lat="43.38938" lon="6.63654">
        <ele>210.8</ele>
        <time>2013-10-10T10:57:42.476Z</time>
      </trkpt>
      <trkpt lat="43.38938" lon="6.63655">
        <ele>210.9</ele>
        <time>2013-10-10T10:57:43.471Z</time>
      </trkpt>
      <trkpt lat="43.38941" lon="6.63666">
        <ele>211.4</ele>
        <time>2013-10-10T10:57:50.485Z</time>
      </trkpt>
      <trkpt lat="43.38941" lon="6.63667">
        <ele>211.4</ele>
        <time>2013-10-10T10:57:51.472Z</time>
      </trkpt>
      <trkpt lat="43.38942" lon="6.63677">
        <ele>211.8</ele>
        <time>2013-10-10T10:57:56.470Z</time>
      </trkpt>
      <trkpt lat="43.38943" lon="6.6368">
        <ele>211.9</ele>
        <time>2013-10-10T10:57:57.470Z</time>
      </trkpt>
      <trkpt lat="43.38947" lon="6.6369">
        <ele>212.2</ele>
        <time>2013-10-10T10:58:02.475Z</time>
      </trkpt>
      <trkpt lat="43.38947" lon="6.63692">
        <ele>212.2</ele>
        <time>2013-10-10T10:58:03.481Z</time>
      </trkpt>
      <trkpt lat="43.3895" lon="6.63702">
        <ele>212.9</ele>
        <time>2013-10-10T10:58:11.457Z</time>
      </trkpt>
      <trkpt lat="43.38951" lon="6.63703">
        <ele>213</ele>
        <time>2013-10-10T10:58:12.458Z</time>
      </trkpt>
      <trkpt lat="43.38956" lon="6.63712">
        <ele>213.6</ele>
        <time>2013-10-10T10:58:18.461Z</time>
      </trkpt>
      <trkpt lat="43.38956" lon="6.63713">
        <ele>213.6</ele>
        <time>2013-10-10T10:58:19.457Z</time>
      </trkpt>
      <trkpt lat="43.38963" lon="6.6372">
        <ele>214.7</ele>
        <time>2013-10-10T10:58:29.462Z</time>
      </trkpt>
      <trkpt lat="43.38963" lon="6.63721">
        <ele>214.9</ele>
        <time>2013-10-10T10:58:30.481Z</time>
      </trkpt>
      <trkpt lat="43.38971" lon="6.63726">
        <ele>216.3</ele>
        <time>2013-10-10T10:58:40.491Z</time>
      </trkpt>
      <trkpt lat="43.38972" lon="6.63726">
        <ele>216.5</ele>
        <time>2013-10-10T10:58:41.480Z</time>
      </trkpt>
      <trkpt lat="43.3898" lon="6.63732">
        <ele>217.8</ele>
        <time>2013-10-10T10:58:48.480Z</time>
      </trkpt>
      <trkpt lat="43.38981" lon="6.63733">
        <ele>217.9</ele>
        <time>2013-10-10T10:58:49.485Z</time>
      </trkpt>
      <trkpt lat="43.38988" lon="6.63737">
        <ele>218.7</ele>
        <time>2013-10-10T10:58:54.472Z</time>
      </trkpt>
      <trkpt lat="43.38989" lon="6.63738">
        <ele>218.9</ele>
        <time>2013-10-10T10:58:55.481Z</time>
      </trkpt>
      <trkpt lat="43.38997" lon="6.63744">
        <ele>220</ele>
        <time>2013-10-10T10:59:02.473Z</time>
      </trkpt>
      <trkpt lat="43.38998" lon="6.63745">
        <ele>220.2</ele>
        <time>2013-10-10T10:59:03.476Z</time>
      </trkpt>
      <trkpt lat="43.39004" lon="6.63754">
        <ele>221</ele>
        <time>2013-10-10T10:59:09.477Z</time>
      </trkpt>
      <trkpt lat="43.39005" lon="6.63755">
        <ele>221.2</ele>
        <time>2013-10-10T10:59:10.484Z</time>
      </trkpt>
      <trkpt lat="43.39009" lon="6.63764">
        <ele>222</ele>
        <time>2013-10-10T10:59:16.479Z</time>
      </trkpt>
      <trkpt lat="43.3901" lon="6.63765">
        <ele>222.2</ele>
        <time>2013-10-10T10:59:17.473Z</time>
      </trkpt>
      <trkpt lat="43.39015" lon="6.63773">
        <ele>223.2</ele>
        <time>2013-10-10T10:59:23.470Z</time>
      </trkpt>
      <trkpt lat="43.39016" lon="6.63775">
        <ele>223.3</ele>
        <time>2013-10-10T10:59:24.468Z</time>
      </trkpt>
      <trkpt lat="43.39022" lon="6.63783">
        <ele>224.3</ele>
        <time>2013-10-10T10:59:30.492Z</time>
      </trkpt>
      <trkpt lat="43.39023" lon="6.63784">
        <ele>224.4</ele>
        <time>2013-10-10T10:59:31.465Z</time>
      </trkpt>
      <trkpt lat="43.3903" lon="6.6379">
        <ele>225.3</ele>
        <time>2013-10-10T10:59:37.472Z</time>
      </trkpt>
      <trkpt lat="43.39031" lon="6.63792">
        <ele>225.4</ele>
        <time>2013-10-10T10:59:38.466Z</time>
      </trkpt>
      <trkpt lat="43.39038" lon="6.63799">
        <ele>226.2</ele>
        <time>2013-10-10T10:59:44.472Z</time>
      </trkpt>
      <trkpt lat="43.39039" lon="6.638">
        <ele>226.3</ele>
        <time>2013-10-10T10:59:45.466Z</time>
      </trkpt>
      <trkpt lat="43.39046" lon="6.63806">
        <ele>227</ele>
        <time>2013-10-10T10:59:51.480Z</time>
      </trkpt>
      <trkpt lat="43.39047" lon="6.63808">
        <ele>227.1</ele>
        <time>2013-10-10T10:59:52.442Z</time>
      </trkpt>
      <trkpt lat="43.39052" lon="6.63815">
        <ele>227.7</ele>
        <time>2013-10-10T10:59:57.470Z</time>
      </trkpt>
      <trkpt lat="43.39053" lon="6.63816">
        <ele>227.8</ele>
        <time>2013-10-10T10:59:58.577Z</time>
      </trkpt>
      <trkpt lat="43.39059" lon="6.63824">
        <ele>228.4</ele>
        <time>2013-10-10T11:00:04.479Z</time>
      </trkpt>
      <trkpt lat="43.39061" lon="6.63825">
        <ele>228.5</ele>
        <time>2013-10-10T11:00:05.470Z</time>
      </trkpt>
      <trkpt lat="43.39067" lon="6.63831">
        <ele>229</ele>
        <time>2013-10-10T11:00:10.493Z</time>
      </trkpt>
      <trkpt lat="43.39069" lon="6.63832">
        <ele>229.1</ele>
        <time>2013-10-10T11:00:11.480Z</time>
      </trkpt>
      <trkpt lat="43.39076" lon="6.63836">
        <ele>229.8</ele>
        <time>2013-10-10T11:00:18.475Z</time>
      </trkpt>
      <trkpt lat="43.39078" lon="6.63836">
        <ele>230</ele>
        <time>2013-10-10T11:00:19.480Z</time>
      </trkpt>
      <trkpt lat="43.39086" lon="6.63837">
        <ele>230.4</ele>
        <time>2013-10-10T11:00:24.463Z</time>
      </trkpt>
      <trkpt lat="43.39088" lon="6.63837">
        <ele>230.4</ele>
        <time>2013-10-10T11:00:25.466Z</time>
      </trkpt>
      <trkpt lat="43.39096" lon="6.63836">
        <ele>230.7</ele>
        <time>2013-10-10T11:00:29.463Z</time>
      </trkpt>
      <trkpt lat="43.39097" lon="6.63835">
        <ele>230.8</ele>
        <time>2013-10-10T11:00:30.478Z</time>
      </trkpt>
      <trkpt lat="43.39104" lon="6.63828">
        <ele>231.2</ele>
        <time>2013-10-10T11:00:35.465Z</time>
      </trkpt>
      <trkpt lat="43.39105" lon="6.63827">
        <ele>231.4</ele>
        <time>2013-10-10T11:00:36.466Z</time>
      </trkpt>
      <trkpt lat="43.3911" lon="6.63817">
        <ele>231.8</ele>
        <time>2013-10-10T11:00:41.464Z</time>
      </trkpt>
      <trkpt lat="43.39111" lon="6.63815">
        <ele>231.9</ele>
        <time>2013-10-10T11:00:42.472Z</time>
      </trkpt>
      <trkpt lat="43.39117" lon="6.6381">
        <ele>232.3</ele>
        <time>2013-10-10T11:00:46.471Z</time>
      </trkpt>
      <trkpt lat="43.39119" lon="6.63809">
        <ele>232.4</ele>
        <time>2013-10-10T11:00:47.469Z</time>
      </trkpt>
      <trkpt lat="43.39127" lon="6.63809">
        <ele>232.7</ele>
        <time>2013-10-10T11:00:51.464Z</time>
      </trkpt>
      <trkpt lat="43.39129" lon="6.6381">
        <ele>232.8</ele>
        <time>2013-10-10T11:00:52.463Z</time>
      </trkpt>
      <trkpt lat="43.39137" lon="6.63809">
        <ele>232.9</ele>
        <time>2013-10-10T11:00:55.428Z</time>
      </trkpt>
      <trkpt lat="43.3914" lon="6.63809">
        <ele>232.9</ele>
        <time>2013-10-10T11:00:56.465Z</time>
      </trkpt>
      <trkpt lat="43.39148" lon="6.63806">
        <ele>232.8</ele>
        <time>2013-10-10T11:00:58.475Z</time>
      </trkpt>
      <trkpt lat="43.39153" lon="6.63805">
        <ele>232.6</ele>
        <time>2013-10-10T11:00:59.476Z</time>
      </trkpt>
      <trkpt lat="43.3916" lon="6.63799">
        <ele>232.3</ele>
        <time>2013-10-10T11:01:01.474Z</time>
      </trkpt>
      <trkpt lat="43.39163" lon="6.63796">
        <ele>232.2</ele>
        <time>2013-10-10T11:01:02.481Z</time>
      </trkpt>
      <trkpt lat="43.39163" lon="6.63786">
        <ele>232.2</ele>
        <time>2013-10-10T11:01:04.475Z</time>
      </trkpt>
      <trkpt lat="43.39163" lon="6.63782">
        <ele>232.2</ele>
        <time>2013-10-10T11:01:05.474Z</time>
      </trkpt>
      <trkpt lat="43.39161" lon="6.63773">
        <ele>232.2</ele>
        <time>2013-10-10T11:01:07.483Z</time>
      </trkpt>
      <trkpt lat="43.3916" lon="6.63769">
        <ele>232.3</ele>
        <time>2013-10-10T11:01:08.477Z</time>
      </trkpt>
      <trkpt lat="43.39158" lon="6.63758">
        <ele>232.4</ele>
        <time>2013-10-10T11:01:11.472Z</time>
      </trkpt>
      <trkpt lat="43.39158" lon="6.63754">
        <ele>232.5</ele>
        <time>2013-10-10T11:01:12.424Z</time>
      </trkpt>
      <trkpt lat="43.39156" lon="6.63743">
        <ele>232.5</ele>
        <time>2013-10-10T11:01:15.471Z</time>
      </trkpt>
      <trkpt lat="43.39155" lon="6.63739">
        <ele>232.5</ele>
        <time>2013-10-10T11:01:16.622Z</time>
      </trkpt>
      <trkpt lat="43.39152" lon="6.63732">
        <ele>232.5</ele>
        <time>2013-10-10T11:01:18.471Z</time>
      </trkpt>
      <trkpt lat="43.3915" lon="6.63728">
        <ele>232.5</ele>
        <time>2013-10-10T11:01:19.645Z</time>
      </trkpt>
      <trkpt lat="43.39147" lon="6.63721">
        <ele>232.4</ele>
        <time>2013-10-10T11:01:21.485Z</time>
      </trkpt>
      <trkpt lat="43.39145" lon="6.63717">
        <ele>232.4</ele>
        <time>2013-10-10T11:01:22.473Z</time>
      </trkpt>
      <trkpt lat="43.39142" lon="6.63707">
        <ele>232.4</ele>
        <time>2013-10-10T11:01:25.470Z</time>
      </trkpt>
      <trkpt lat="43.39141" lon="6.63703">
        <ele>232.5</ele>
        <time>2013-10-10T11:01:26.470Z</time>
      </trkpt>
      <trkpt lat="43.39141" lon="6.63692">
        <ele>232.5</ele>
        <time>2013-10-10T11:01:29.470Z</time>
      </trkpt>
      <trkpt lat="43.39141" lon="6.63688">
        <ele>232.6</ele>
        <time>2013-10-10T11:01:30.434Z</time>
      </trkpt>
      <trkpt lat="43.39145" lon="6.63677">
        <ele>232.8</ele>
        <time>2013-10-10T11:01:33.471Z</time>
      </trkpt>
      <trkpt lat="43.39147" lon="6.63675">
        <ele>232.9</ele>
        <time>2013-10-10T11:01:34.475Z</time>
      </trkpt>
      <trkpt lat="43.39155" lon="6.63677">
        <ele>233.9</ele>
        <time>2013-10-10T11:01:42.466Z</time>
      </trkpt>
      <trkpt lat="43.39156" lon="6.63678">
        <ele>234</ele>
        <time>2013-10-10T11:01:43.470Z</time>
      </trkpt>
      <trkpt lat="43.39156" lon="6.6369">
        <ele>234.6</ele>
        <time>2013-10-10T11:01:48.472Z</time>
      </trkpt>
      <trkpt lat="43.39156" lon="6.63692">
        <ele>234.7</ele>
        <time>2013-10-10T11:01:49.477Z</time>
      </trkpt>
      <trkpt lat="43.39159" lon="6.63702">
        <ele>235.9</ele>
        <time>2013-10-10T11:01:57.471Z</time>
      </trkpt>
      <trkpt lat="43.3916" lon="6.63704">
        <ele>236.1</ele>
        <time>2013-10-10T11:01:58.466Z</time>
      </trkpt>
      <trkpt lat="43.39165" lon="6.63714">
        <ele>237.1</ele>
        <time>2013-10-10T11:02:05.583Z</time>
      </trkpt>
      <trkpt lat="43.39165" lon="6.63715">
        <ele>237.2</ele>
        <time>2013-10-10T11:02:06.595Z</time>
      </trkpt>
      <trkpt lat="43.39171" lon="6.63723">
        <ele>238.6</ele>
        <time>2013-10-10T11:02:14.584Z</time>
      </trkpt>
      <trkpt lat="43.39171" lon="6.63724">
        <ele>238.7</ele>
        <time>2013-10-10T11:02:15.570Z</time>
      </trkpt>
      <trkpt lat="43.39176" lon="6.63735">
        <ele>239.7</ele>
        <time>2013-10-10T11:02:22.662Z</time>
      </trkpt>
      <trkpt lat="43.39177" lon="6.63736">
        <ele>239.8</ele>
        <time>2013-10-10T11:02:23.671Z</time>
      </trkpt>
      <trkpt lat="43.39181" lon="6.63746">
        <ele>241</ele>
        <time>2013-10-10T11:02:31.710Z</time>
      </trkpt>
      <trkpt lat="43.39182" lon="6.63748">
        <ele>241.2</ele>
        <time>2013-10-10T11:02:32.708Z</time>
      </trkpt>
      <trkpt lat="43.39186" lon="6.63757">
        <ele>242.3</ele>
        <time>2013-10-10T11:02:39.710Z</time>
      </trkpt>
      <trkpt lat="43.39186" lon="6.63759">
        <ele>242.5</ele>
        <time>2013-10-10T11:02:40.723Z</time>
      </trkpt>
      <trkpt lat="43.39189" lon="6.63769">
        <ele>243.9</ele>
        <time>2013-10-10T11:02:48.709Z</time>
      </trkpt>
      <trkpt lat="43.3919" lon="6.63771">
        <ele>244</ele>
        <time>2013-10-10T11:02:49.710Z</time>
      </trkpt>
      <trkpt lat="43.39196" lon="6.6378">
        <ele>245</ele>
        <time>2013-10-10T11:02:57.709Z</time>
      </trkpt>
      <trkpt lat="43.39197" lon="6.63781">
        <ele>245.1</ele>
        <time>2013-10-10T11:02:58.710Z</time>
      </trkpt>
      <trkpt lat="43.392" lon="6.6379">
        <ele>246.2</ele>
        <time>2013-10-10T11:03:06.713Z</time>
      </trkpt>
      <trkpt lat="43.39201" lon="6.63791">
        <ele>246.3</ele>
        <time>2013-10-10T11:03:07.711Z</time>
      </trkpt>
      <trkpt lat="43.39207" lon="6.63799">
        <ele>246.9</ele>
        <time>2013-10-10T11:03:12.712Z</time>
      </trkpt>
      <trkpt lat="43.39208" lon="6.638">
        <ele>247</ele>
        <time>2013-10-10T11:03:13.711Z</time>
      </trkpt>
      <trkpt lat="43.39212" lon="6.63811">
        <ele>247.9</ele>
        <time>2013-10-10T11:03:21.709Z</time>
      </trkpt>
      <trkpt lat="43.39213" lon="6.63813">
        <ele>248</ele>
        <time>2013-10-10T11:03:22.717Z</time>
      </trkpt>
      <trkpt lat="43.39216" lon="6.63824">
        <ele>248.6</ele>
        <time>2013-10-10T11:03:28.707Z</time>
      </trkpt>
      <trkpt lat="43.39217" lon="6.63825">
        <ele>248.6</ele>
        <time>2013-10-10T11:03:29.710Z</time>
      </trkpt>
      <trkpt lat="43.3922" lon="6.63836">
        <ele>249.2</ele>
        <time>2013-10-10T11:03:35.716Z</time>
      </trkpt>
      <trkpt lat="43.39221" lon="6.63838">
        <ele>249.3</ele>
        <time>2013-10-10T11:03:36.710Z</time>
      </trkpt>
      <trkpt lat="43.39222" lon="6.6385">
        <ele>250.3</ele>
        <time>2013-10-10T11:03:43.704Z</time>
      </trkpt>
      <trkpt lat="43.39222" lon="6.63852">
        <ele>250.5</ele>
        <time>2013-10-10T11:03:44.710Z</time>
      </trkpt>
      <trkpt lat="43.39224" lon="6.63864">
        <ele>251.5</ele>
        <time>2013-10-10T11:03:50.719Z</time>
      </trkpt>
      <trkpt lat="43.39224" lon="6.63866">
        <ele>251.6</ele>
        <time>2013-10-10T11:03:51.706Z</time>
      </trkpt>
      <trkpt lat="43.39226" lon="6.63877">
        <ele>252.3</ele>
        <time>2013-10-10T11:03:56.710Z</time>
      </trkpt>
      <trkpt lat="43.39226" lon="6.6388">
        <ele>252.5</ele>
        <time>2013-10-10T11:03:57.715Z</time>
      </trkpt>
      <trkpt lat="43.39223" lon="6.63889">
        <ele>253.2</ele>
        <time>2013-10-10T11:04:02.708Z</time>
      </trkpt>
      <trkpt lat="43.39222" lon="6.63891">
        <ele>253.3</ele>
        <time>2013-10-10T11:04:03.831Z</time>
      </trkpt>
      <trkpt lat="43.3922" lon="6.63902">
        <ele>253.9</ele>
        <time>2013-10-10T11:04:10.729Z</time>
      </trkpt>
      <trkpt lat="43.39219" lon="6.63903">
        <ele>254</ele>
        <time>2013-10-10T11:04:11.706Z</time>
      </trkpt>
      <trkpt lat="43.39217" lon="6.63911">
        <ele>254.8</ele>
        <time>2013-10-10T11:04:21.714Z</time>
      </trkpt>
      <trkpt lat="43.39217" lon="6.63911">
        <ele>254.9</ele>
        <time>2013-10-10T11:04:22.721Z</time>
      </trkpt>
      <trkpt lat="43.39217" lon="6.6391">
        <ele>255</ele>
        <time>2013-10-10T11:04:23.724Z</time>
      </trkpt>
      <trkpt lat="43.39217" lon="6.63909">
        <ele>255.1</ele>
        <time>2013-10-10T11:04:24.718Z</time>
      </trkpt>
      <trkpt lat="43.39217" lon="6.63907">
        <ele>255.2</ele>
        <time>2013-10-10T11:04:29.712Z</time>
      </trkpt>
      <trkpt lat="43.39216" lon="6.63907">
        <ele>255.3</ele>
        <time>2013-10-10T11:04:30.730Z</time>
      </trkpt>
      <trkpt lat="43.39216" lon="6.63908">
        <ele>255.3</ele>
        <time>2013-10-10T11:04:31.716Z</time>
      </trkpt>
      <trkpt lat="43.39216" lon="6.63908">
        <ele>255.4</ele>
        <time>2013-10-10T11:04:32.711Z</time>
      </trkpt>
      <trkpt lat="43.39212" lon="6.63917">
        <ele>255.8</ele>
        <time>2013-10-10T11:04:37.743Z</time>
      </trkpt>
      <trkpt lat="43.39211" lon="6.63921">
        <ele>255.9</ele>
        <time>2013-10-10T11:04:38.718Z</time>
      </trkpt>
      <trkpt lat="43.39207" lon="6.63931">
        <ele>256.3</ele>
        <time>2013-10-10T11:04:41.714Z</time>
      </trkpt>
      <trkpt lat="43.39206" lon="6.63934">
        <ele>256.4</ele>
        <time>2013-10-10T11:04:42.713Z</time>
      </trkpt>
      <trkpt lat="43.39202" lon="6.63944">
        <ele>256.9</ele>
        <time>2013-10-10T11:04:47.711Z</time>
      </trkpt>
      <trkpt lat="43.39201" lon="6.63947">
        <ele>257</ele>
        <time>2013-10-10T11:04:48.716Z</time>
      </trkpt>
      <trkpt lat="43.39199" lon="6.63956">
        <ele>257.5</ele>
        <time>2013-10-10T11:04:52.713Z</time>
      </trkpt>
      <trkpt lat="43.39199" lon="6.63959">
        <ele>257.6</ele>
        <time>2013-10-10T11:04:53.713Z</time>
      </trkpt>
      <trkpt lat="43.39201" lon="6.6397">
        <ele>258</ele>
        <time>2013-10-10T11:04:57.718Z</time>
      </trkpt>
      <trkpt lat="43.39203" lon="6.63973">
        <ele>258</ele>
        <time>2013-10-10T11:04:58.719Z</time>
      </trkpt>
      <trkpt lat="43.39209" lon="6.6398">
        <ele>258.3</ele>
        <time>2013-10-10T11:05:01.716Z</time>
      </trkpt>
      <trkpt lat="43.39211" lon="6.63981">
        <ele>258.3</ele>
        <time>2013-10-10T11:05:02.717Z</time>
      </trkpt>
      <trkpt lat="43.39216" lon="6.63985">
        <ele>258.5</ele>
        <time>2013-10-10T11:05:04.717Z</time>
      </trkpt>
      <trkpt lat="43.39219" lon="6.63987">
        <ele>258.5</ele>
        <time>2013-10-10T11:05:05.717Z</time>
      </trkpt>
      <trkpt lat="43.39226" lon="6.63991">
        <ele>258.7</ele>
        <time>2013-10-10T11:05:07.722Z</time>
      </trkpt>
      <trkpt lat="43.39229" lon="6.63992">
        <ele>258.7</ele>
        <time>2013-10-10T11:05:08.716Z</time>
      </trkpt>
      <trkpt lat="43.39236" lon="6.63993">
        <ele>258.8</ele>
        <time>2013-10-10T11:05:10.720Z</time>
      </trkpt>
      <trkpt lat="43.39239" lon="6.63994">
        <ele>258.8</ele>
        <time>2013-10-10T11:05:11.739Z</time>
      </trkpt>
      <trkpt lat="43.39247" lon="6.63998">
        <ele>259</ele>
        <time>2013-10-10T11:05:14.680Z</time>
      </trkpt>
      <trkpt lat="43.39249" lon="6.63999">
        <ele>259</ele>
        <time>2013-10-10T11:05:15.779Z</time>
      </trkpt>
      <trkpt lat="43.39255" lon="6.64001">
        <ele>259.1</ele>
        <time>2013-10-10T11:05:18.733Z</time>
      </trkpt>
      <trkpt lat="43.39259" lon="6.64002">
        <ele>259.1</ele>
        <time>2013-10-10T11:05:19.735Z</time>
      </trkpt>
      <trkpt lat="43.39268" lon="6.64003">
        <ele>258.4</ele>
        <time>2013-10-10T11:05:21.694Z</time>
      </trkpt>
      <trkpt lat="43.39273" lon="6.64001">
        <ele>257.4</ele>
        <time>2013-10-10T11:05:22.704Z</time>
      </trkpt>
      <trkpt lat="43.39278" lon="6.63997">
        <ele>256.2</ele>
        <time>2013-10-10T11:05:23.737Z</time>
      </trkpt>
      <trkpt lat="43.39282" lon="6.63991">
        <ele>255</ele>
        <time>2013-10-10T11:05:24.736Z</time>
      </trkpt>
      <trkpt lat="43.39284" lon="6.63983">
        <ele>254.1</ele>
        <time>2013-10-10T11:05:25.736Z</time>
      </trkpt>
      <trkpt lat="43.39286" lon="6.63974">
        <ele>253.5</ele>
        <time>2013-10-10T11:05:26.734Z</time>
      </trkpt>
      <trkpt lat="43.3929" lon="6.63967">
        <ele>252.8</ele>
        <time>2013-10-10T11:05:27.735Z</time>
      </trkpt>
      <trkpt lat="43.39295" lon="6.63961">
        <ele>252.2</ele>
        <time>2013-10-10T11:05:28.731Z</time>
      </trkpt>
      <trkpt lat="43.39301" lon="6.63956">
        <ele>251.8</ele>
        <time>2013-10-10T11:05:29.746Z</time>
      </trkpt>
      <trkpt lat="43.39308" lon="6.63952">
        <ele>251.4</ele>
        <time>2013-10-10T11:05:30.746Z</time>
      </trkpt>
      <trkpt lat="43.39314" lon="6.63949">
        <ele>251.4</ele>
        <time>2013-10-10T11:05:31.733Z</time>
      </trkpt>
      <trkpt lat="43.3932" lon="6.63946">
        <ele>251</ele>
        <time>2013-10-10T11:05:32.732Z</time>
      </trkpt>
      <trkpt lat="43.39326" lon="6.63943">
        <ele>250.5</ele>
        <time>2013-10-10T11:05:33.737Z</time>
      </trkpt>
      <trkpt lat="43.39331" lon="6.6394">
        <ele>250.1</ele>
        <time>2013-10-10T11:05:34.741Z</time>
      </trkpt>
      <trkpt lat="43.39337" lon="6.63938">
        <ele>249.6</ele>
        <time>2013-10-10T11:05:35.726Z</time>
      </trkpt>
      <trkpt lat="43.39344" lon="6.63936">
        <ele>248.9</ele>
        <time>2013-10-10T11:05:36.696Z</time>
      </trkpt>
      <trkpt lat="43.3935" lon="6.63934">
        <ele>248.1</ele>
        <time>2013-10-10T11:05:37.679Z</time>
      </trkpt>
      <trkpt lat="43.39356" lon="6.63932">
        <ele>247.2</ele>
        <time>2013-10-10T11:05:38.693Z</time>
      </trkpt>
      <trkpt lat="43.39364" lon="6.6393">
        <ele>246.2</ele>
        <time>2013-10-10T11:05:39.556Z</time>
      </trkpt>
      <trkpt lat="43.3937" lon="6.63929">
        <ele>245.2</ele>
        <time>2013-10-10T11:05:40.390Z</time>
      </trkpt>
      <trkpt lat="43.39377" lon="6.63928">
        <ele>244.2</ele>
        <time>2013-10-10T11:05:41.471Z</time>
      </trkpt>
      <trkpt lat="43.39383" lon="6.63927">
        <ele>243.6</ele>
        <time>2013-10-10T11:05:42.372Z</time>
      </trkpt>
      <trkpt lat="43.39389" lon="6.63928">
        <ele>243.3</ele>
        <time>2013-10-10T11:05:43.395Z</time>
      </trkpt>
      <trkpt lat="43.39396" lon="6.6393">
        <ele>242.9</ele>
        <time>2013-10-10T11:05:44.491Z</time>
      </trkpt>
      <trkpt lat="43.39402" lon="6.63932">
        <ele>242.7</ele>
        <time>2013-10-10T11:05:45.396Z</time>
      </trkpt>
      <trkpt lat="43.3941" lon="6.63935">
        <ele>242.4</ele>
        <time>2013-10-10T11:05:46.385Z</time>
      </trkpt>
      <trkpt lat="43.39417" lon="6.63938">
        <ele>242.2</ele>
        <time>2013-10-10T11:05:47.393Z</time>
      </trkpt>
      <trkpt lat="43.39425" lon="6.63941">
        <ele>242</ele>
        <time>2013-10-10T11:05:48.429Z</time>
      </trkpt>
      <trkpt lat="43.39431" lon="6.63943">
        <ele>241.8</ele>
        <time>2013-10-10T11:05:49.430Z</time>
      </trkpt>
      <trkpt lat="43.39436" lon="6.63944">
        <ele>241.7</ele>
        <time>2013-10-10T11:05:50.442Z</time>
      </trkpt>
      <trkpt lat="43.39441" lon="6.63944">
        <ele>241.5</ele>
        <time>2013-10-10T11:05:51.425Z</time>
      </trkpt>
      <trkpt lat="43.39446" lon="6.63943">
        <ele>241.2</ele>
        <time>2013-10-10T11:05:52.419Z</time>
      </trkpt>
      <trkpt lat="43.39454" lon="6.6394">
        <ele>240.7</ele>
        <time>2013-10-10T11:05:54.442Z</time>
      </trkpt>
      <trkpt lat="43.39458" lon="6.63938">
        <ele>240.3</ele>
        <time>2013-10-10T11:05:55.437Z</time>
      </trkpt>
      <trkpt lat="43.39466" lon="6.63937">
        <ele>239.5</ele>
        <time>2013-10-10T11:05:57.433Z</time>
      </trkpt>
      <trkpt lat="43.39471" lon="6.63939">
        <ele>239.1</ele>
        <time>2013-10-10T11:05:58.428Z</time>
      </trkpt>
      <trkpt lat="43.39475" lon="6.63942">
        <ele>239</ele>
        <time>2013-10-10T11:05:59.436Z</time>
      </trkpt>
      <trkpt lat="43.39481" lon="6.63946">
        <ele>239</ele>
        <time>2013-10-10T11:06:00.406Z</time>
      </trkpt>
      <trkpt lat="43.39487" lon="6.6395">
        <ele>239</ele>
        <time>2013-10-10T11:06:01.425Z</time>
      </trkpt>
      <trkpt lat="43.39493" lon="6.63955">
        <ele>238.7</ele>
        <time>2013-10-10T11:06:02.422Z</time>
      </trkpt>
      <trkpt lat="43.39499" lon="6.63958">
        <ele>238.4</ele>
        <time>2013-10-10T11:06:03.419Z</time>
      </trkpt>
      <trkpt lat="43.39504" lon="6.6396">
        <ele>238.1</ele>
        <time>2013-10-10T11:06:04.384Z</time>
      </trkpt>
      <trkpt lat="43.39512" lon="6.63959">
        <ele>238.1</ele>
        <time>2013-10-10T11:06:06.418Z</time>
      </trkpt>
      <trkpt lat="43.39515" lon="6.63958">
        <ele>238</ele>
        <time>2013-10-10T11:06:07.432Z</time>
      </trkpt>
      <trkpt lat="43.39521" lon="6.63955">
        <ele>237.2</ele>
        <time>2013-10-10T11:06:09.457Z</time>
      </trkpt>
      <trkpt lat="43.39524" lon="6.63953">
        <ele>236.7</ele>
        <time>2013-10-10T11:06:10.443Z</time>
      </trkpt>
      <trkpt lat="43.39528" lon="6.63951">
        <ele>236.2</ele>
        <time>2013-10-10T11:06:11.430Z</time>
      </trkpt>
      <trkpt lat="43.39533" lon="6.63948">
        <ele>236</ele>
        <time>2013-10-10T11:06:12.312Z</time>
      </trkpt>
      <trkpt lat="43.39537" lon="6.63945">
        <ele>236.2</ele>
        <time>2013-10-10T11:06:13.211Z</time>
      </trkpt>
      <trkpt lat="43.39541" lon="6.63942">
        <ele>236.1</ele>
        <time>2013-10-10T11:06:13.977Z</time>
      </trkpt>
      <trkpt lat="43.39545" lon="6.63938">
        <ele>236.1</ele>
        <time>2013-10-10T11:06:15.008Z</time>
      </trkpt>
      <trkpt lat="43.39549" lon="6.63935">
        <ele>236</ele>
        <time>2013-10-10T11:06:15.997Z</time>
      </trkpt>
      <trkpt lat="43.39555" lon="6.63927">
        <ele>236</ele>
        <time>2013-10-10T11:06:17.971Z</time>
      </trkpt>
      <trkpt lat="43.39558" lon="6.63924">
        <ele>235.5</ele>
        <time>2013-10-10T11:06:18.970Z</time>
      </trkpt>
      <trkpt lat="43.39564" lon="6.6392">
        <ele>234.9</ele>
        <time>2013-10-10T11:06:21.000Z</time>
      </trkpt>
      <trkpt lat="43.39567" lon="6.63921">
        <ele>234.9</ele>
        <time>2013-10-10T11:06:21.995Z</time>
      </trkpt>
      <trkpt lat="43.39574" lon="6.63924">
        <ele>235</ele>
        <time>2013-10-10T11:06:24.994Z</time>
      </trkpt>
      <trkpt lat="43.39577" lon="6.63925">
        <ele>235</ele>
        <time>2013-10-10T11:06:25.995Z</time>
      </trkpt>
      <trkpt lat="43.39583" lon="6.63928">
        <ele>235.1</ele>
        <time>2013-10-10T11:06:28.058Z</time>
      </trkpt>
      <trkpt lat="43.39586" lon="6.6393">
        <ele>235.2</ele>
        <time>2013-10-10T11:06:29.003Z</time>
      </trkpt>
      <trkpt lat="43.39592" lon="6.63935">
        <ele>235.4</ele>
        <time>2013-10-10T11:06:30.995Z</time>
      </trkpt>
      <trkpt lat="43.39594" lon="6.63939">
        <ele>235.5</ele>
        <time>2013-10-10T11:06:32.002Z</time>
      </trkpt>
      <trkpt lat="43.39596" lon="6.6395">
        <ele>235.7</ele>
        <time>2013-10-10T11:06:34.009Z</time>
      </trkpt>
      <trkpt lat="43.39596" lon="6.63956">
        <ele>236.8</ele>
        <time>2013-10-10T11:06:35.006Z</time>
      </trkpt>
      <trkpt lat="43.39597" lon="6.63967">
        <ele>237.7</ele>
        <time>2013-10-10T11:06:36.996Z</time>
      </trkpt>
      <trkpt lat="43.39597" lon="6.63972">
        <ele>237.8</ele>
        <time>2013-10-10T11:06:37.995Z</time>
      </trkpt>
      <trkpt lat="43.396" lon="6.6398">
        <ele>238</ele>
        <time>2013-10-10T11:06:40.016Z</time>
      </trkpt>
      <trkpt lat="43.39601" lon="6.63984">
        <ele>238</ele>
        <time>2013-10-10T11:06:41.003Z</time>
      </trkpt>
      <trkpt lat="43.39604" lon="6.63991">
        <ele>238.2</ele>
        <time>2013-10-10T11:06:42.971Z</time>
      </trkpt>
      <trkpt lat="43.39606" lon="6.63996">
        <ele>238.3</ele>
        <time>2013-10-10T11:06:44.016Z</time>
      </trkpt>
      <trkpt lat="43.39612" lon="6.64004">
        <ele>239.1</ele>
        <time>2013-10-10T11:06:46.007Z</time>
      </trkpt>
      <trkpt lat="43.39615" lon="6.64007">
        <ele>239.1</ele>
        <time>2013-10-10T11:06:47.007Z</time>
      </trkpt>
      <trkpt lat="43.39623" lon="6.64013">
        <ele>239.3</ele>
        <time>2013-10-10T11:06:49.008Z</time>
      </trkpt>
      <trkpt lat="43.39627" lon="6.64016">
        <ele>239.1</ele>
        <time>2013-10-10T11:06:50.023Z</time>
      </trkpt>
      <trkpt lat="43.39632" lon="6.64019">
        <ele>238.9</ele>
        <time>2013-10-10T11:06:51.012Z</time>
      </trkpt>
      <trkpt lat="43.39638" lon="6.6402">
        <ele>238.4</ele>
        <time>2013-10-10T11:06:52.008Z</time>
      </trkpt>
      <trkpt lat="43.39644" lon="6.64022">
        <ele>237.9</ele>
        <time>2013-10-10T11:06:53.011Z</time>
      </trkpt>
      <trkpt lat="43.3965" lon="6.64023">
        <ele>237.4</ele>
        <time>2013-10-10T11:06:54.011Z</time>
      </trkpt>
      <trkpt lat="43.39657" lon="6.64024">
        <ele>237.1</ele>
        <time>2013-10-10T11:06:54.974Z</time>
      </trkpt>
      <trkpt lat="43.39665" lon="6.64026">
        <ele>236.5</ele>
        <time>2013-10-10T11:06:56.006Z</time>
      </trkpt>
      <trkpt lat="43.39672" lon="6.64029">
        <ele>236</ele>
        <time>2013-10-10T11:06:57.008Z</time>
      </trkpt>
      <trkpt lat="43.39678" lon="6.64033">
        <ele>235.4</ele>
        <time>2013-10-10T11:06:58.007Z</time>
      </trkpt>
      <trkpt lat="43.39684" lon="6.64037">
        <ele>234.9</ele>
        <time>2013-10-10T11:06:59.008Z</time>
      </trkpt>
      <trkpt lat="43.3969" lon="6.64042">
        <ele>234.5</ele>
        <time>2013-10-10T11:07:00.080Z</time>
      </trkpt>
      <trkpt lat="43.39694" lon="6.64045">
        <ele>234.2</ele>
        <time>2013-10-10T11:07:00.962Z</time>
      </trkpt>
      <trkpt lat="43.39699" lon="6.64048">
        <ele>233.9</ele>
        <time>2013-10-10T11:07:02.009Z</time>
      </trkpt>
      <trkpt lat="43.39704" lon="6.64051">
        <ele>233.7</ele>
        <time>2013-10-10T11:07:03.014Z</time>
      </trkpt>
      <trkpt lat="43.39708" lon="6.64053">
        <ele>233.8</ele>
        <time>2013-10-10T11:07:04.014Z</time>
      </trkpt>
      <trkpt lat="43.39715" lon="6.64055">
        <ele>233.7</ele>
        <time>2013-10-10T11:07:06.081Z</time>
      </trkpt>
      <trkpt lat="43.39718" lon="6.64054">
        <ele>233.7</ele>
        <time>2013-10-10T11:07:07.010Z</time>
      </trkpt>
      <trkpt lat="43.39725" lon="6.64054">
        <ele>233.6</ele>
        <time>2013-10-10T11:07:09.178Z</time>
      </trkpt>
      <trkpt lat="43.39727" lon="6.64053">
        <ele>233.6</ele>
        <time>2013-10-10T11:07:10.044Z</time>
      </trkpt>
      <trkpt lat="43.39735" lon="6.64048">
        <ele>233.1</ele>
        <time>2013-10-10T11:07:13.008Z</time>
      </trkpt>
      <trkpt lat="43.39739" lon="6.64047">
        <ele>232.8</ele>
        <time>2013-10-10T11:07:14.004Z</time>
      </trkpt>
      <trkpt lat="43.39747" lon="6.64045">
        <ele>232.3</ele>
        <time>2013-10-10T11:07:15.999Z</time>
      </trkpt>
      <trkpt lat="43.39752" lon="6.64046">
        <ele>232.3</ele>
        <time>2013-10-10T11:07:17.003Z</time>
      </trkpt>
      <trkpt lat="43.39758" lon="6.64049">
        <ele>232.7</ele>
        <time>2013-10-10T11:07:18.004Z</time>
      </trkpt>
      <trkpt lat="43.39765" lon="6.64053">
        <ele>233</ele>
        <time>2013-10-10T11:07:19.007Z</time>
      </trkpt>
      <trkpt lat="43.39772" lon="6.64058">
        <ele>233.1</ele>
        <time>2013-10-10T11:07:20.018Z</time>
      </trkpt>
      <trkpt lat="43.39778" lon="6.64062">
        <ele>233.1</ele>
        <time>2013-10-10T11:07:20.966Z</time>
      </trkpt>
      <trkpt lat="43.39784" lon="6.64066">
        <ele>232.8</ele>
        <time>2013-10-10T11:07:22.006Z</time>
      </trkpt>
      <trkpt lat="43.39789" lon="6.64069">
        <ele>232.3</ele>
        <time>2013-10-10T11:07:23.011Z</time>
      </trkpt>
      <trkpt lat="43.39798" lon="6.64071">
        <ele>232</ele>
        <time>2013-10-10T11:07:25.060Z</time>
      </trkpt>
      <trkpt lat="43.39801" lon="6.64071">
        <ele>231.9</ele>
        <time>2013-10-10T11:07:26.084Z</time>
      </trkpt>
      <trkpt lat="43.39807" lon="6.6407">
        <ele>231.8</ele>
        <time>2013-10-10T11:07:28.007Z</time>
      </trkpt>
      <trkpt lat="43.39811" lon="6.6407">
        <ele>231.2</ele>
        <time>2013-10-10T11:07:29.624Z</time>
      </trkpt>
      <trkpt lat="43.39819" lon="6.6407">
        <ele>229.9</ele>
        <time>2013-10-10T11:07:31.447Z</time>
      </trkpt>
      <trkpt lat="43.39823" lon="6.6407">
        <ele>229.6</ele>
        <time>2013-10-10T11:07:32.411Z</time>
      </trkpt>
      <trkpt lat="43.39832" lon="6.64071">
        <ele>229.5</ele>
        <time>2013-10-10T11:07:34.395Z</time>
      </trkpt>
      <trkpt lat="43.39837" lon="6.6407">
        <ele>229.5</ele>
        <time>2013-10-10T11:07:35.407Z</time>
      </trkpt>
      <trkpt lat="43.39841" lon="6.6407">
        <ele>229.5</ele>
        <time>2013-10-10T11:07:36.431Z</time>
      </trkpt>
      <trkpt lat="43.39847" lon="6.64069">
        <ele>229.3</ele>
        <time>2013-10-10T11:07:37.515Z</time>
      </trkpt>
      <trkpt lat="43.39851" lon="6.64067">
        <ele>229</ele>
        <time>2013-10-10T11:07:38.396Z</time>
      </trkpt>
      <trkpt lat="43.39856" lon="6.64064">
        <ele>228.8</ele>
        <time>2013-10-10T11:07:39.448Z</time>
      </trkpt>
      <trkpt lat="43.39861" lon="6.64061">
        <ele>228.4</ele>
        <time>2013-10-10T11:07:40.471Z</time>
      </trkpt>
      <trkpt lat="43.39864" lon="6.64058">
        <ele>228.2</ele>
        <time>2013-10-10T11:07:41.450Z</time>
      </trkpt>
      <trkpt lat="43.39868" lon="6.64054">
        <ele>227.9</ele>
        <time>2013-10-10T11:07:42.450Z</time>
      </trkpt>
      <trkpt lat="43.39871" lon="6.64049">
        <ele>227.6</ele>
        <time>2013-10-10T11:07:43.452Z</time>
      </trkpt>
      <trkpt lat="43.39876" lon="6.64042">
        <ele>227.3</ele>
        <time>2013-10-10T11:07:45.453Z</time>
      </trkpt>
      <trkpt lat="43.39879" lon="6.6404">
        <ele>227.6</ele>
        <time>2013-10-10T11:07:46.450Z</time>
      </trkpt>
      <trkpt lat="43.39887" lon="6.64043">
        <ele>227.7</ele>
        <time>2013-10-10T11:07:49.444Z</time>
      </trkpt>
      <trkpt lat="43.39889" lon="6.64045">
        <ele>227.8</ele>
        <time>2013-10-10T11:07:50.459Z</time>
      </trkpt>
      <trkpt lat="43.39892" lon="6.64052">
        <ele>228</ele>
        <time>2013-10-10T11:07:52.473Z</time>
      </trkpt>
      <trkpt lat="43.39894" lon="6.64056">
        <ele>228.1</ele>
        <time>2013-10-10T11:07:53.463Z</time>
      </trkpt>
      <trkpt lat="43.39899" lon="6.64065">
        <ele>228.2</ele>
        <time>2013-10-10T11:07:55.447Z</time>
      </trkpt>
      <trkpt lat="43.39902" lon="6.64069">
        <ele>228.3</ele>
        <time>2013-10-10T11:07:56.446Z</time>
      </trkpt>
      <trkpt lat="43.39908" lon="6.64076">
        <ele>228.4</ele>
        <time>2013-10-10T11:07:58.449Z</time>
      </trkpt>
      <trkpt lat="43.3991" lon="6.64079">
        <ele>228.5</ele>
        <time>2013-10-10T11:07:59.448Z</time>
      </trkpt>
      <trkpt lat="43.39917" lon="6.64083">
        <ele>228.6</ele>
        <time>2013-10-10T11:08:01.409Z</time>
      </trkpt>
      <trkpt lat="43.3992" lon="6.64084">
        <ele>228.6</ele>
        <time>2013-10-10T11:08:02.450Z</time>
      </trkpt>
      <trkpt lat="43.39926" lon="6.64085">
        <ele>228.8</ele>
        <time>2013-10-10T11:08:04.445Z</time>
      </trkpt>
      <trkpt lat="43.39929" lon="6.64086">
        <ele>228.9</ele>
        <time>2013-10-10T11:08:05.447Z</time>
      </trkpt>
      <trkpt lat="43.39936" lon="6.64089">
        <ele>228.9</ele>
        <time>2013-10-10T11:08:07.449Z</time>
      </trkpt>
      <trkpt lat="43.39939" lon="6.64092">
        <ele>228.9</ele>
        <time>2013-10-10T11:08:08.446Z</time>
      </trkpt>
      <trkpt lat="43.39945" lon="6.641">
        <ele>229</ele>
        <time>2013-10-10T11:08:11.445Z</time>
      </trkpt>
      <trkpt lat="43.39947" lon="6.64103">
        <ele>229</ele>
        <time>2013-10-10T11:08:12.446Z</time>
      </trkpt>
      <trkpt lat="43.3995" lon="6.64112">
        <ele>229.2</ele>
        <time>2013-10-10T11:08:15.450Z</time>
      </trkpt>
      <trkpt lat="43.39952" lon="6.64114">
        <ele>229.3</ele>
        <time>2013-10-10T11:08:16.445Z</time>
      </trkpt>
      <trkpt lat="43.39959" lon="6.64118">
        <ele>229.7</ele>
        <time>2013-10-10T11:08:19.449Z</time>
      </trkpt>
      <trkpt lat="43.39961" lon="6.64119">
        <ele>229.8</ele>
        <time>2013-10-10T11:08:20.462Z</time>
      </trkpt>
      <trkpt lat="43.3997" lon="6.64123">
        <ele>230.4</ele>
        <time>2013-10-10T11:08:24.450Z</time>
      </trkpt>
      <trkpt lat="43.39972" lon="6.64124">
        <ele>230.5</ele>
        <time>2013-10-10T11:08:25.446Z</time>
      </trkpt>
      <trkpt lat="43.39979" lon="6.64129">
        <ele>231.2</ele>
        <time>2013-10-10T11:08:29.416Z</time>
      </trkpt>
      <trkpt lat="43.39981" lon="6.6413">
        <ele>231.3</ele>
        <time>2013-10-10T11:08:30.463Z</time>
      </trkpt>
      <trkpt lat="43.39988" lon="6.64134">
        <ele>231.9</ele>
        <time>2013-10-10T11:08:34.461Z</time>
      </trkpt>
      <trkpt lat="43.39991" lon="6.64136">
        <ele>232</ele>
        <time>2013-10-10T11:08:35.453Z</time>
      </trkpt>
      <trkpt lat="43.39996" lon="6.64141">
        <ele>232.3</ele>
        <time>2013-10-10T11:08:37.447Z</time>
      </trkpt>
      <trkpt lat="43.39998" lon="6.64143">
        <ele>232.5</ele>
        <time>2013-10-10T11:08:38.437Z</time>
      </trkpt>
      <trkpt lat="43.40006" lon="6.64147">
        <ele>232.9</ele>
        <time>2013-10-10T11:08:41.436Z</time>
      </trkpt>
      <trkpt lat="43.40008" lon="6.64148">
        <ele>233</ele>
        <time>2013-10-10T11:08:42.472Z</time>
      </trkpt>
      <trkpt lat="43.40016" lon="6.64152">
        <ele>233.4</ele>
        <time>2013-10-10T11:08:46.443Z</time>
      </trkpt>
      <trkpt lat="43.40018" lon="6.64153">
        <ele>233.5</ele>
        <time>2013-10-10T11:08:47.446Z</time>
      </trkpt>
      <trkpt lat="43.40025" lon="6.64156">
        <ele>234</ele>
        <time>2013-10-10T11:08:51.447Z</time>
      </trkpt>
      <trkpt lat="43.40027" lon="6.64157">
        <ele>234.2</ele>
        <time>2013-10-10T11:08:52.449Z</time>
      </trkpt>
      <trkpt lat="43.40035" lon="6.64155">
        <ele>234.9</ele>
        <time>2013-10-10T11:08:57.439Z</time>
      </trkpt>
      <trkpt lat="43.40036" lon="6.64153">
        <ele>235</ele>
        <time>2013-10-10T11:08:58.444Z</time>
      </trkpt>
      <trkpt lat="43.40041" lon="6.64143">
        <ele>235.4</ele>
        <time>2013-10-10T11:09:02.459Z</time>
      </trkpt>
      <trkpt lat="43.40043" lon="6.6414">
        <ele>235.5</ele>
        <time>2013-10-10T11:09:03.454Z</time>
      </trkpt>
      <trkpt lat="43.40048" lon="6.64131">
        <ele>235.7</ele>
        <time>2013-10-10T11:09:06.450Z</time>
      </trkpt>
      <trkpt lat="43.40049" lon="6.64128">
        <ele>235.8</ele>
        <time>2013-10-10T11:09:07.448Z</time>
      </trkpt>
      <trkpt lat="43.40055" lon="6.64119">
        <ele>236.2</ele>
        <time>2013-10-10T11:09:10.452Z</time>
      </trkpt>
      <trkpt lat="43.40057" lon="6.64116">
        <ele>236.3</ele>
        <time>2013-10-10T11:09:11.437Z</time>
      </trkpt>
      <trkpt lat="43.40063" lon="6.64109">
        <ele>236.5</ele>
        <time>2013-10-10T11:09:13.441Z</time>
      </trkpt>
      <trkpt lat="43.40066" lon="6.64106">
        <ele>236.6</ele>
        <time>2013-10-10T11:09:14.439Z</time>
      </trkpt>
      <trkpt lat="43.40073" lon="6.64101">
        <ele>237.3</ele>
        <time>2013-10-10T11:09:16.454Z</time>
      </trkpt>
      <trkpt lat="43.40077" lon="6.64099">
        <ele>237.6</ele>
        <time>2013-10-10T11:09:17.433Z</time>
      </trkpt>
      <trkpt lat="43.40081" lon="6.64097">
        <ele>237.7</ele>
        <time>2013-10-10T11:09:18.426Z</time>
      </trkpt>
      <trkpt lat="43.40087" lon="6.64094">
        <ele>237.6</ele>
        <time>2013-10-10T11:09:19.630Z</time>
      </trkpt>
      <trkpt lat="43.40092" lon="6.64092">
        <ele>237.1</ele>
        <time>2013-10-10T11:09:20.457Z</time>
      </trkpt>
      <trkpt lat="43.40098" lon="6.6409">
        <ele>236.6</ele>
        <time>2013-10-10T11:09:21.431Z</time>
      </trkpt>
      <trkpt lat="43.40105" lon="6.64087">
        <ele>236</ele>
        <time>2013-10-10T11:09:22.425Z</time>
      </trkpt>
      <trkpt lat="43.40112" lon="6.64083">
        <ele>235.4</ele>
        <time>2013-10-10T11:09:23.448Z</time>
      </trkpt>
      <trkpt lat="43.4012" lon="6.6408">
        <ele>234.7</ele>
        <time>2013-10-10T11:09:24.448Z</time>
      </trkpt>
      <trkpt lat="43.40127" lon="6.64077">
        <ele>234.1</ele>
        <time>2013-10-10T11:09:25.445Z</time>
      </trkpt>
      <trkpt lat="43.40135" lon="6.64073">
        <ele>233.3</ele>
        <time>2013-10-10T11:09:26.447Z</time>
      </trkpt>
      <trkpt lat="43.40143" lon="6.6407">
        <ele>232.3</ele>
        <time>2013-10-10T11:09:27.449Z</time>
      </trkpt>
      <trkpt lat="43.40151" lon="6.64065">
        <ele>231.5</ele>
        <time>2013-10-10T11:09:28.445Z</time>
      </trkpt>
      <trkpt lat="43.40159" lon="6.6406">
        <ele>230.7</ele>
        <time>2013-10-10T11:09:29.447Z</time>
      </trkpt>
      <trkpt lat="43.40165" lon="6.64054">
        <ele>230</ele>
        <time>2013-10-10T11:09:30.454Z</time>
      </trkpt>
      <trkpt lat="43.4017" lon="6.64047">
        <ele>229.4</ele>
        <time>2013-10-10T11:09:31.431Z</time>
      </trkpt>
      <trkpt lat="43.40175" lon="6.64039">
        <ele>229</ele>
        <time>2013-10-10T11:09:32.427Z</time>
      </trkpt>
      <trkpt lat="43.4018" lon="6.64033">
        <ele>228.3</ele>
        <time>2013-10-10T11:09:33.427Z</time>
      </trkpt>
      <trkpt lat="43.40186" lon="6.64029">
        <ele>227.8</ele>
        <time>2013-10-10T11:09:34.427Z</time>
      </trkpt>
      <trkpt lat="43.40192" lon="6.6403">
        <ele>227.5</ele>
        <time>2013-10-10T11:09:35.400Z</time>
      </trkpt>
      <trkpt lat="43.40197" lon="6.64032">
        <ele>227.8</ele>
        <time>2013-10-10T11:09:36.452Z</time>
      </trkpt>
      <trkpt lat="43.40201" lon="6.64036">
        <ele>228.3</ele>
        <time>2013-10-10T11:09:37.449Z</time>
      </trkpt>
      <trkpt lat="43.40205" lon="6.64041">
        <ele>228.7</ele>
        <time>2013-10-10T11:09:38.451Z</time>
      </trkpt>
      <trkpt lat="43.4021" lon="6.64044">
        <ele>229.4</ele>
        <time>2013-10-10T11:09:39.457Z</time>
      </trkpt>
      <trkpt lat="43.40215" lon="6.64048">
        <ele>229.9</ele>
        <time>2013-10-10T11:09:40.548Z</time>
      </trkpt>
      <trkpt lat="43.40219" lon="6.64051">
        <ele>229.8</ele>
        <time>2013-10-10T11:09:41.453Z</time>
      </trkpt>
      <trkpt lat="43.40225" lon="6.64054">
        <ele>230.1</ele>
        <time>2013-10-10T11:09:42.442Z</time>
      </trkpt>
      <trkpt lat="43.40231" lon="6.64057">
        <ele>229.8</ele>
        <time>2013-10-10T11:09:43.443Z</time>
      </trkpt>
      <trkpt lat="43.40238" lon="6.64058">
        <ele>228.7</ele>
        <time>2013-10-10T11:09:44.438Z</time>
      </trkpt>
      <trkpt lat="43.40245" lon="6.64058">
        <ele>227.4</ele>
        <time>2013-10-10T11:09:45.443Z</time>
      </trkpt>
      <trkpt lat="43.40253" lon="6.64056">
        <ele>226.6</ele>
        <time>2013-10-10T11:09:46.448Z</time>
      </trkpt>
      <trkpt lat="43.40264" lon="6.64052">
        <ele>226.1</ele>
        <time>2013-10-10T11:09:47.720Z</time>
      </trkpt>
      <trkpt lat="43.40271" lon="6.64049">
        <ele>225.3</ele>
        <time>2013-10-10T11:09:48.409Z</time>
      </trkpt>
      <trkpt lat="43.4028" lon="6.64047">
        <ele>224.4</ele>
        <time>2013-10-10T11:09:49.450Z</time>
      </trkpt>
      <trkpt lat="43.40289" lon="6.64046">
        <ele>223.6</ele>
        <time>2013-10-10T11:09:50.453Z</time>
      </trkpt>
      <trkpt lat="43.40296" lon="6.64047">
        <ele>222.9</ele>
        <time>2013-10-10T11:09:51.435Z</time>
      </trkpt>
      <trkpt lat="43.40303" lon="6.64049">
        <ele>222.1</ele>
        <time>2013-10-10T11:09:52.427Z</time>
      </trkpt>
      <trkpt lat="43.40309" lon="6.64051">
        <ele>221.6</ele>
        <time>2013-10-10T11:09:53.398Z</time>
      </trkpt>
      <trkpt lat="43.40315" lon="6.64053">
        <ele>221.3</ele>
        <time>2013-10-10T11:09:54.434Z</time>
      </trkpt>
      <trkpt lat="43.40321" lon="6.64053">
        <ele>220.9</ele>
        <time>2013-10-10T11:09:55.428Z</time>
      </trkpt>
      <trkpt lat="43.40326" lon="6.64053">
        <ele>220.5</ele>
        <time>2013-10-10T11:09:56.429Z</time>
      </trkpt>
      <trkpt lat="43.40332" lon="6.64051">
        <ele>220.3</ele>
        <time>2013-10-10T11:09:57.434Z</time>
      </trkpt>
      <trkpt lat="43.40338" lon="6.64049">
        <ele>219.4</ele>
        <time>2013-10-10T11:09:58.435Z</time>
      </trkpt>
      <trkpt lat="43.40345" lon="6.64046">
        <ele>218.1</ele>
        <time>2013-10-10T11:09:59.433Z</time>
      </trkpt>
      <trkpt lat="43.40352" lon="6.64044">
        <ele>216.6</ele>
        <time>2013-10-10T11:10:00.418Z</time>
      </trkpt>
      <trkpt lat="43.40359" lon="6.64044">
        <ele>216</ele>
        <time>2013-10-10T11:10:01.394Z</time>
      </trkpt>
      <trkpt lat="43.40366" lon="6.64045">
        <ele>215.9</ele>
        <time>2013-10-10T11:10:02.436Z</time>
      </trkpt>
      <trkpt lat="43.40372" lon="6.64046">
        <ele>216.1</ele>
        <time>2013-10-10T11:10:03.415Z</time>
      </trkpt>
      <trkpt lat="43.40377" lon="6.64047">
        <ele>216.5</ele>
        <time>2013-10-10T11:10:04.380Z</time>
      </trkpt>
      <trkpt lat="43.40382" lon="6.64048">
        <ele>217.4</ele>
        <time>2013-10-10T11:10:05.430Z</time>
      </trkpt>
      <trkpt lat="43.40387" lon="6.64048">
        <ele>218.3</ele>
        <time>2013-10-10T11:10:06.722Z</time>
      </trkpt>
      <trkpt lat="43.40391" lon="6.64046">
        <ele>219.2</ele>
        <time>2013-10-10T11:10:07.409Z</time>
      </trkpt>
      <trkpt lat="43.40396" lon="6.64043">
        <ele>219.8</ele>
        <time>2013-10-10T11:10:08.381Z</time>
      </trkpt>
      <trkpt lat="43.40402" lon="6.64041">
        <ele>219.9</ele>
        <time>2013-10-10T11:10:09.438Z</time>
      </trkpt>
      <trkpt lat="43.40407" lon="6.64038">
        <ele>219.9</ele>
        <time>2013-10-10T11:10:10.448Z</time>
      </trkpt>
      <trkpt lat="43.40412" lon="6.64035">
        <ele>220.1</ele>
        <time>2013-10-10T11:10:11.435Z</time>
      </trkpt>
      <trkpt lat="43.40416" lon="6.64033">
        <ele>220.4</ele>
        <time>2013-10-10T11:10:12.427Z</time>
      </trkpt>
      <trkpt lat="43.40422" lon="6.6403">
        <ele>220.4</ele>
        <time>2013-10-10T11:10:14.010Z</time>
      </trkpt>
      <trkpt lat="43.40429" lon="6.64027">
        <ele>220.5</ele>
        <time>2013-10-10T11:10:15.435Z</time>
      </trkpt>
      <trkpt lat="43.40433" lon="6.64025">
        <ele>220.4</ele>
        <time>2013-10-10T11:10:16.439Z</time>
      </trkpt>
      <trkpt lat="43.4044" lon="6.64023">
        <ele>220.4</ele>
        <time>2013-10-10T11:10:18.443Z</time>
      </trkpt>
      <trkpt lat="43.40444" lon="6.64022">
        <ele>220.3</ele>
        <time>2013-10-10T11:10:19.412Z</time>
      </trkpt>
      <trkpt lat="43.40452" lon="6.6402">
        <ele>220.1</ele>
        <time>2013-10-10T11:10:22.445Z</time>
      </trkpt>
      <trkpt lat="43.40454" lon="6.6402">
        <ele>220</ele>
        <time>2013-10-10T11:10:23.447Z</time>
      </trkpt>
      <trkpt lat="43.40461" lon="6.64018">
        <ele>219.7</ele>
        <time>2013-10-10T11:10:26.428Z</time>
      </trkpt>
      <trkpt lat="43.40463" lon="6.64018">
        <ele>219.6</ele>
        <time>2013-10-10T11:10:27.430Z</time>
      </trkpt>
      <trkpt lat="43.4047" lon="6.64014">
        <ele>219.5</ele>
        <time>2013-10-10T11:10:30.447Z</time>
      </trkpt>
      <trkpt lat="43.40472" lon="6.64013">
        <ele>219.6</ele>
        <time>2013-10-10T11:10:31.430Z</time>
      </trkpt>
      <trkpt lat="43.4048" lon="6.64008">
        <ele>219.7</ele>
        <time>2013-10-10T11:10:34.429Z</time>
      </trkpt>
      <trkpt lat="43.40482" lon="6.64007">
        <ele>219.7</ele>
        <time>2013-10-10T11:10:35.430Z</time>
      </trkpt>
      <trkpt lat="43.40488" lon="6.64004">
        <ele>219.7</ele>
        <time>2013-10-10T11:10:38.435Z</time>
      </trkpt>
      <trkpt lat="43.40491" lon="6.64003">
        <ele>219.7</ele>
        <time>2013-10-10T11:10:39.545Z</time>
      </trkpt>
      <trkpt lat="43.40497" lon="6.63998">
        <ele>219.7</ele>
        <time>2013-10-10T11:10:42.433Z</time>
      </trkpt>
      <trkpt lat="43.40499" lon="6.63996">
        <ele>219.7</ele>
        <time>2013-10-10T11:10:43.431Z</time>
      </trkpt>
      <trkpt lat="43.40506" lon="6.63992">
        <ele>219.7</ele>
        <time>2013-10-10T11:10:46.434Z</time>
      </trkpt>
      <trkpt lat="43.40508" lon="6.6399">
        <ele>219.7</ele>
        <time>2013-10-10T11:10:47.438Z</time>
      </trkpt>
      <trkpt lat="43.40515" lon="6.63986">
        <ele>219.7</ele>
        <time>2013-10-10T11:10:51.447Z</time>
      </trkpt>
      <trkpt lat="43.40517" lon="6.63985">
        <ele>219.6</ele>
        <time>2013-10-10T11:10:52.439Z</time>
      </trkpt>
      <trkpt lat="43.40524" lon="6.63982">
        <ele>219.6</ele>
        <time>2013-10-10T11:10:56.449Z</time>
      </trkpt>
      <trkpt lat="43.40526" lon="6.63982">
        <ele>219.6</ele>
        <time>2013-10-10T11:10:57.436Z</time>
      </trkpt>
      <trkpt lat="43.40533" lon="6.63981">
        <ele>220</ele>
        <time>2013-10-10T11:11:01.435Z</time>
      </trkpt>
      <trkpt lat="43.40536" lon="6.6398">
        <ele>220.1</ele>
        <time>2013-10-10T11:11:02.433Z</time>
      </trkpt>
      <trkpt lat="43.40543" lon="6.63979">
        <ele>220.4</ele>
        <time>2013-10-10T11:11:05.434Z</time>
      </trkpt>
      <trkpt lat="43.40545" lon="6.63978">
        <ele>220.5</ele>
        <time>2013-10-10T11:11:06.433Z</time>
      </trkpt>
      <trkpt lat="43.40553" lon="6.63974">
        <ele>221</ele>
        <time>2013-10-10T11:11:10.447Z</time>
      </trkpt>
      <trkpt lat="43.40555" lon="6.63972">
        <ele>221.1</ele>
        <time>2013-10-10T11:11:11.607Z</time>
      </trkpt>
      <trkpt lat="43.40561" lon="6.63963">
        <ele>221.4</ele>
        <time>2013-10-10T11:11:15.398Z</time>
      </trkpt>
      <trkpt lat="43.40562" lon="6.6396">
        <ele>221.5</ele>
        <time>2013-10-10T11:11:16.438Z</time>
      </trkpt>
      <trkpt lat="43.40564" lon="6.63949">
        <ele>222.2</ele>
        <time>2013-10-10T11:11:21.402Z</time>
      </trkpt>
      <trkpt lat="43.40564" lon="6.63947">
        <ele>222.5</ele>
        <time>2013-10-10T11:11:22.438Z</time>
      </trkpt>
      <trkpt lat="43.40562" lon="6.63936">
        <ele>223.8</ele>
        <time>2013-10-10T11:11:26.445Z</time>
      </trkpt>
      <trkpt lat="43.40562" lon="6.63934">
        <ele>224.2</ele>
        <time>2013-10-10T11:11:27.443Z</time>
      </trkpt>
      <trkpt lat="43.40559" lon="6.63925">
        <ele>226.1</ele>
        <time>2013-10-10T11:11:31.445Z</time>
      </trkpt>
      <trkpt lat="43.40558" lon="6.63922">
        <ele>226.7</ele>
        <time>2013-10-10T11:11:32.439Z</time>
      </trkpt>
      <trkpt lat="43.40555" lon="6.63916">
        <ele>227.8</ele>
        <time>2013-10-10T11:11:34.444Z</time>
      </trkpt>
      <trkpt lat="43.40553" lon="6.63912">
        <ele>228.4</ele>
        <time>2013-10-10T11:11:35.436Z</time>
      </trkpt>
      <trkpt lat="43.40546" lon="6.63904">
        <ele>230.8</ele>
        <time>2013-10-10T11:11:39.436Z</time>
      </trkpt>
      <trkpt lat="43.40545" lon="6.63903">
        <ele>231.5</ele>
        <time>2013-10-10T11:11:40.430Z</time>
      </trkpt>
      <trkpt lat="43.4054" lon="6.63893">
        <ele>233.3</ele>
        <time>2013-10-10T11:11:44.445Z</time>
      </trkpt>
      <trkpt lat="43.40539" lon="6.63891">
        <ele>233.6</ele>
        <time>2013-10-10T11:11:45.444Z</time>
      </trkpt>
      <trkpt lat="43.40537" lon="6.63882">
        <ele>234.1</ele>
        <time>2013-10-10T11:11:49.437Z</time>
      </trkpt>
      <trkpt lat="43.40536" lon="6.63878">
        <ele>234</ele>
        <time>2013-10-10T11:11:50.454Z</time>
      </trkpt>
      <trkpt lat="43.40538" lon="6.63866">
        <ele>233.8</ele>
        <time>2013-10-10T11:11:54.439Z</time>
      </trkpt>
      <trkpt lat="43.4054" lon="6.63864">
        <ele>233.8</ele>
        <time>2013-10-10T11:11:55.495Z</time>
      </trkpt>
      <trkpt lat="43.40544" lon="6.63857">
        <ele>234.2</ele>
        <time>2013-10-10T11:11:59.442Z</time>
      </trkpt>
      <trkpt lat="43.40546" lon="6.63854">
        <ele>234.2</ele>
        <time>2013-10-10T11:12:00.415Z</time>
      </trkpt>
      <trkpt lat="43.40551" lon="6.63845">
        <ele>234.7</ele>
        <time>2013-10-10T11:12:05.284Z</time>
      </trkpt>
      <trkpt lat="43.40551" lon="6.63843">
        <ele>234.9</ele>
        <time>2013-10-10T11:12:06.266Z</time>
      </trkpt>
      <trkpt lat="43.40551" lon="6.63833">
        <ele>236.8</ele>
        <time>2013-10-10T11:12:11.300Z</time>
      </trkpt>
      <trkpt lat="43.4055" lon="6.6383">
        <ele>237.2</ele>
        <time>2013-10-10T11:12:12.347Z</time>
      </trkpt>
      <trkpt lat="43.40545" lon="6.6382">
        <ele>239</ele>
        <time>2013-10-10T11:12:16.261Z</time>
      </trkpt>
      <trkpt lat="43.40544" lon="6.63818">
        <ele>239.5</ele>
        <time>2013-10-10T11:12:17.300Z</time>
      </trkpt>
      <trkpt lat="43.40542" lon="6.63808">
        <ele>240.3</ele>
        <time>2013-10-10T11:12:20.322Z</time>
      </trkpt>
      <trkpt lat="43.40542" lon="6.63805">
        <ele>240.3</ele>
        <time>2013-10-10T11:12:21.304Z</time>
      </trkpt>
      <trkpt lat="43.40542" lon="6.63794">
        <ele>240.2</ele>
        <time>2013-10-10T11:12:25.302Z</time>
      </trkpt>
      <trkpt lat="43.40542" lon="6.63792">
        <ele>240.2</ele>
        <time>2013-10-10T11:12:26.307Z</time>
      </trkpt>
      <trkpt lat="43.40544" lon="6.63781">
        <ele>239.8</ele>
        <time>2013-10-10T11:12:30.314Z</time>
      </trkpt>
      <trkpt lat="43.40545" lon="6.63779">
        <ele>239.7</ele>
        <time>2013-10-10T11:12:31.301Z</time>
      </trkpt>
      <trkpt lat="43.40546" lon="6.63767">
        <ele>239.2</ele>
        <time>2013-10-10T11:12:36.303Z</time>
      </trkpt>
      <trkpt lat="43.40547" lon="6.63764">
        <ele>239.1</ele>
        <time>2013-10-10T11:12:37.306Z</time>
      </trkpt>
      <trkpt lat="43.40547" lon="6.63754">
        <ele>239.8</ele>
        <time>2013-10-10T11:12:43.306Z</time>
      </trkpt>
      <trkpt lat="43.40547" lon="6.63752">
        <ele>240.2</ele>
        <time>2013-10-10T11:12:44.302Z</time>
      </trkpt>
      <trkpt lat="43.40546" lon="6.6374">
        <ele>241.5</ele>
        <time>2013-10-10T11:12:48.302Z</time>
      </trkpt>
      <trkpt lat="43.40546" lon="6.63736">
        <ele>241.6</ele>
        <time>2013-10-10T11:12:49.303Z</time>
      </trkpt>
      <trkpt lat="43.40544" lon="6.63725">
        <ele>243.5</ele>
        <time>2013-10-10T11:12:55.316Z</time>
      </trkpt>
      <trkpt lat="43.40544" lon="6.63721">
        <ele>243.8</ele>
        <time>2013-10-10T11:12:56.308Z</time>
      </trkpt>
      <trkpt lat="43.40544" lon="6.63709">
        <ele>244.4</ele>
        <time>2013-10-10T11:13:00.340Z</time>
      </trkpt>
      <trkpt lat="43.40544" lon="6.63707">
        <ele>244.5</ele>
        <time>2013-10-10T11:13:01.300Z</time>
      </trkpt>
      <trkpt lat="43.40543" lon="6.63696">
        <ele>244.4</ele>
        <time>2013-10-10T11:13:05.303Z</time>
      </trkpt>
      <trkpt lat="43.40543" lon="6.63694">
        <ele>244.3</ele>
        <time>2013-10-10T11:13:06.265Z</time>
      </trkpt>
      <trkpt lat="43.40542" lon="6.63683">
        <ele>243.8</ele>
        <time>2013-10-10T11:13:11.304Z</time>
      </trkpt>
      <trkpt lat="43.40541" lon="6.63681">
        <ele>243.7</ele>
        <time>2013-10-10T11:13:12.307Z</time>
      </trkpt>
      <trkpt lat="43.4054" lon="6.63669">
        <ele>244.1</ele>
        <time>2013-10-10T11:13:18.305Z</time>
      </trkpt>
      <trkpt lat="43.40539" lon="6.63666">
        <ele>244.4</ele>
        <time>2013-10-10T11:13:19.305Z</time>
      </trkpt>
      <trkpt lat="43.40537" lon="6.63658">
        <ele>245.3</ele>
        <time>2013-10-10T11:13:22.305Z</time>
      </trkpt>
      <trkpt lat="43.40536" lon="6.63655">
        <ele>245.5</ele>
        <time>2013-10-10T11:13:23.306Z</time>
      </trkpt>
      <trkpt lat="43.40534" lon="6.63643">
        <ele>245.7</ele>
        <time>2013-10-10T11:13:26.310Z</time>
      </trkpt>
      <trkpt lat="43.40533" lon="6.63641">
        <ele>245.9</ele>
        <time>2013-10-10T11:13:27.306Z</time>
      </trkpt>
      <trkpt lat="43.40534" lon="6.63632">
        <ele>247.3</ele>
        <time>2013-10-10T11:13:33.824Z</time>
      </trkpt>
      <trkpt lat="43.40534" lon="6.63628">
        <ele>247.5</ele>
        <time>2013-10-10T11:13:34.686Z</time>
      </trkpt>
      <trkpt lat="43.40534" lon="6.63618">
        <ele>247.8</ele>
        <time>2013-10-10T11:13:37.691Z</time>
      </trkpt>
      <trkpt lat="43.40535" lon="6.63615">
        <ele>247.8</ele>
        <time>2013-10-10T11:13:38.706Z</time>
      </trkpt>
      <trkpt lat="43.40537" lon="6.63605">
        <ele>247.8</ele>
        <time>2013-10-10T11:13:42.683Z</time>
      </trkpt>
      <trkpt lat="43.40537" lon="6.63603">
        <ele>247.8</ele>
        <time>2013-10-10T11:13:43.692Z</time>
      </trkpt>
      <trkpt lat="43.40538" lon="6.63592">
        <ele>247.7</ele>
        <time>2013-10-10T11:13:48.685Z</time>
      </trkpt>
      <trkpt lat="43.40538" lon="6.6359">
        <ele>247.8</ele>
        <time>2013-10-10T11:13:49.690Z</time>
      </trkpt>
      <trkpt lat="43.40536" lon="6.6358">
        <ele>249.2</ele>
        <time>2013-10-10T11:13:54.657Z</time>
      </trkpt>
      <trkpt lat="43.40536" lon="6.63577">
        <ele>249.4</ele>
        <time>2013-10-10T11:13:55.678Z</time>
      </trkpt>
      <trkpt lat="43.40534" lon="6.63565">
        <ele>250.7</ele>
        <time>2013-10-10T11:14:00.614Z</time>
      </trkpt>
      <trkpt lat="43.40534" lon="6.63563">
        <ele>251</ele>
        <time>2013-10-10T11:14:01.665Z</time>
      </trkpt>
      <trkpt lat="43.4053" lon="6.63553">
        <ele>254</ele>
        <time>2013-10-10T11:14:08.623Z</time>
      </trkpt>
      <trkpt lat="43.40529" lon="6.63551">
        <ele>254.5</ele>
        <time>2013-10-10T11:14:09.659Z</time>
      </trkpt>
      <trkpt lat="43.40526" lon="6.63543">
        <ele>255.2</ele>
        <time>2013-10-10T11:14:11.659Z</time>
      </trkpt>
      <trkpt lat="43.40525" lon="6.63539">
        <ele>255.5</ele>
        <time>2013-10-10T11:14:12.659Z</time>
      </trkpt>
      <trkpt lat="43.40522" lon="6.63529">
        <ele>255.9</ele>
        <time>2013-10-10T11:14:15.663Z</time>
      </trkpt>
      <trkpt lat="43.40522" lon="6.63525">
        <ele>256</ele>
        <time>2013-10-10T11:14:16.670Z</time>
      </trkpt>
      <trkpt lat="43.40522" lon="6.63515">
        <ele>255.7</ele>
        <time>2013-10-10T11:14:21.659Z</time>
      </trkpt>
      <trkpt lat="43.40522" lon="6.63513">
        <ele>255.6</ele>
        <time>2013-10-10T11:14:22.662Z</time>
      </trkpt>
      <trkpt lat="43.40521" lon="6.63503">
        <ele>255</ele>
        <time>2013-10-10T11:14:26.659Z</time>
      </trkpt>
      <trkpt lat="43.40521" lon="6.635">
        <ele>254.8</ele>
        <time>2013-10-10T11:14:27.659Z</time>
      </trkpt>
      <trkpt lat="43.40518" lon="6.63489">
        <ele>253.9</ele>
        <time>2013-10-10T11:14:32.660Z</time>
      </trkpt>
      <trkpt lat="43.40518" lon="6.63487">
        <ele>253.8</ele>
        <time>2013-10-10T11:14:33.661Z</time>
      </trkpt>
      <trkpt lat="43.40514" lon="6.63477">
        <ele>253.5</ele>
        <time>2013-10-10T11:14:38.630Z</time>
      </trkpt>
      <trkpt lat="43.40513" lon="6.63475">
        <ele>253.5</ele>
        <time>2013-10-10T11:14:39.631Z</time>
      </trkpt>
      <trkpt lat="43.40509" lon="6.63466">
        <ele>253.7</ele>
        <time>2013-10-10T11:14:45.664Z</time>
      </trkpt>
      <trkpt lat="43.40508" lon="6.63465">
        <ele>253.8</ele>
        <time>2013-10-10T11:14:46.662Z</time>
      </trkpt>
      <trkpt lat="43.40503" lon="6.63455">
        <ele>254</ele>
        <time>2013-10-10T11:14:53.667Z</time>
      </trkpt>
      <trkpt lat="43.40503" lon="6.63452">
        <ele>253.9</ele>
        <time>2013-10-10T11:14:54.665Z</time>
      </trkpt>
      <trkpt lat="43.40502" lon="6.63442">
        <ele>253.7</ele>
        <time>2013-10-10T11:14:57.661Z</time>
      </trkpt>
      <trkpt lat="43.40502" lon="6.63439">
        <ele>253.7</ele>
        <time>2013-10-10T11:14:58.660Z</time>
      </trkpt>
      <trkpt lat="43.40504" lon="6.63428">
        <ele>253.5</ele>
        <time>2013-10-10T11:15:03.664Z</time>
      </trkpt>
      <trkpt lat="43.40505" lon="6.63427">
        <ele>253.5</ele>
        <time>2013-10-10T11:15:04.670Z</time>
      </trkpt>
      <trkpt lat="43.40512" lon="6.63431">
        <ele>253.9</ele>
        <time>2013-10-10T11:15:09.663Z</time>
      </trkpt>
      <trkpt lat="43.40514" lon="6.63432">
        <ele>254</ele>
        <time>2013-10-10T11:15:10.673Z</time>
      </trkpt>
      <trkpt lat="43.40521" lon="6.63438">
        <ele>254.1</ele>
        <time>2013-10-10T11:15:15.662Z</time>
      </trkpt>
      <trkpt lat="43.40523" lon="6.63439">
        <ele>254.2</ele>
        <time>2013-10-10T11:15:16.671Z</time>
      </trkpt>
      <trkpt lat="43.40529" lon="6.63448">
        <ele>254.3</ele>
        <time>2013-10-10T11:15:21.631Z</time>
      </trkpt>
      <trkpt lat="43.4053" lon="6.63449">
        <ele>254.4</ele>
        <time>2013-10-10T11:15:22.665Z</time>
      </trkpt>
      <trkpt lat="43.40537" lon="6.63456">
        <ele>254.7</ele>
        <time>2013-10-10T11:15:27.663Z</time>
      </trkpt>
      <trkpt lat="43.40539" lon="6.63457">
        <ele>254.8</ele>
        <time>2013-10-10T11:15:28.665Z</time>
      </trkpt>
      <trkpt lat="43.40545" lon="6.63462">
        <ele>255.2</ele>
        <time>2013-10-10T11:15:33.664Z</time>
      </trkpt>
      <trkpt lat="43.40547" lon="6.63463">
        <ele>255.2</ele>
        <time>2013-10-10T11:15:34.671Z</time>
      </trkpt>
      <trkpt lat="43.40553" lon="6.63468">
        <ele>255.7</ele>
        <time>2013-10-10T11:15:39.668Z</time>
      </trkpt>
      <trkpt lat="43.40555" lon="6.63469">
        <ele>255.8</ele>
        <time>2013-10-10T11:15:40.695Z</time>
      </trkpt>
      <trkpt lat="43.40562" lon="6.63475">
        <ele>256.1</ele>
        <time>2013-10-10T11:15:45.669Z</time>
      </trkpt>
      <trkpt lat="43.40564" lon="6.63476">
        <ele>256.2</ele>
        <time>2013-10-10T11:15:46.674Z</time>
      </trkpt>
      <trkpt lat="43.40572" lon="6.63481">
        <ele>256.5</ele>
        <time>2013-10-10T11:15:51.672Z</time>
      </trkpt>
      <trkpt lat="43.40573" lon="6.63482">
        <ele>256.6</ele>
        <time>2013-10-10T11:15:52.653Z</time>
      </trkpt>
      <trkpt lat="43.40581" lon="6.63488">
        <ele>256.7</ele>
        <time>2013-10-10T11:15:58.684Z</time>
      </trkpt>
      <trkpt lat="43.40582" lon="6.63489">
        <ele>256.7</ele>
        <time>2013-10-10T11:15:59.726Z</time>
      </trkpt>
      <trkpt lat="43.40589" lon="6.63494">
        <ele>257</ele>
        <time>2013-10-10T11:16:04.674Z</time>
      </trkpt>
      <trkpt lat="43.4059" lon="6.63495">
        <ele>257.1</ele>
        <time>2013-10-10T11:16:05.674Z</time>
      </trkpt>
      <trkpt lat="43.40597" lon="6.635">
        <ele>257.6</ele>
        <time>2013-10-10T11:16:10.658Z</time>
      </trkpt>
      <trkpt lat="43.40599" lon="6.63501">
        <ele>257.7</ele>
        <time>2013-10-10T11:16:11.671Z</time>
      </trkpt>
      <trkpt lat="43.40607" lon="6.63505">
        <ele>258</ele>
        <time>2013-10-10T11:16:16.671Z</time>
      </trkpt>
      <trkpt lat="43.40608" lon="6.63506">
        <ele>258.1</ele>
        <time>2013-10-10T11:16:17.683Z</time>
      </trkpt>
      <trkpt lat="43.40614" lon="6.63512">
        <ele>258.3</ele>
        <time>2013-10-10T11:16:21.683Z</time>
      </trkpt>
      <trkpt lat="43.40616" lon="6.63513">
        <ele>258.4</ele>
        <time>2013-10-10T11:16:22.674Z</time>
      </trkpt>
      <trkpt lat="43.40622" lon="6.6352">
        <ele>258.9</ele>
        <time>2013-10-10T11:16:27.672Z</time>
      </trkpt>
      <trkpt lat="43.40623" lon="6.63521">
        <ele>259.1</ele>
        <time>2013-10-10T11:16:28.672Z</time>
      </trkpt>
      <trkpt lat="43.4063" lon="6.63529">
        <ele>259.6</ele>
        <time>2013-10-10T11:16:33.639Z</time>
      </trkpt>
      <trkpt lat="43.40631" lon="6.6353">
        <ele>259.7</ele>
        <time>2013-10-10T11:16:34.680Z</time>
      </trkpt>
      <trkpt lat="43.40637" lon="6.6354">
        <ele>260.4</ele>
        <time>2013-10-10T11:16:40.696Z</time>
      </trkpt>
      <trkpt lat="43.40637" lon="6.63541">
        <ele>260.5</ele>
        <time>2013-10-10T11:16:41.686Z</time>
      </trkpt>
      <trkpt lat="43.40643" lon="6.63548">
        <ele>261.1</ele>
        <time>2013-10-10T11:16:46.678Z</time>
      </trkpt>
      <trkpt lat="43.40643" lon="6.6355">
        <ele>261.2</ele>
        <time>2013-10-10T11:16:47.681Z</time>
      </trkpt>
      <trkpt lat="43.40648" lon="6.63558">
        <ele>261.7</ele>
        <time>2013-10-10T11:16:51.679Z</time>
      </trkpt>
      <trkpt lat="43.4065" lon="6.63561">
        <ele>261.8</ele>
        <time>2013-10-10T11:16:52.688Z</time>
      </trkpt>
      <trkpt lat="43.40655" lon="6.63568">
        <ele>262.2</ele>
        <time>2013-10-10T11:16:57.681Z</time>
      </trkpt>
      <trkpt lat="43.40656" lon="6.6357">
        <ele>262.3</ele>
        <time>2013-10-10T11:16:58.674Z</time>
      </trkpt>
      <trkpt lat="43.40663" lon="6.63577">
        <ele>263</ele>
        <time>2013-10-10T11:17:04.684Z</time>
      </trkpt>
      <trkpt lat="43.40664" lon="6.63578">
        <ele>263.1</ele>
        <time>2013-10-10T11:17:05.725Z</time>
      </trkpt>
      <trkpt lat="43.4067" lon="6.63585">
        <ele>263.7</ele>
        <time>2013-10-10T11:17:10.690Z</time>
      </trkpt>
      <trkpt lat="43.40671" lon="6.63586">
        <ele>263.8</ele>
        <time>2013-10-10T11:17:11.687Z</time>
      </trkpt>
      <trkpt lat="43.40676" lon="6.63594">
        <ele>264.5</ele>
        <time>2013-10-10T11:17:16.677Z</time>
      </trkpt>
      <trkpt lat="43.40678" lon="6.63595">
        <ele>264.6</ele>
        <time>2013-10-10T11:17:17.689Z</time>
      </trkpt>
      <trkpt lat="43.40683" lon="6.63602">
        <ele>265.5</ele>
        <time>2013-10-10T11:17:23.677Z</time>
      </trkpt>
      <trkpt lat="43.40685" lon="6.63604">
        <ele>265.6</ele>
        <time>2013-10-10T11:17:24.653Z</time>
      </trkpt>
      <trkpt lat="43.40691" lon="6.63611">
        <ele>266.3</ele>
        <time>2013-10-10T11:17:29.684Z</time>
      </trkpt>
      <trkpt lat="43.40692" lon="6.63613">
        <ele>266.5</ele>
        <time>2013-10-10T11:17:30.704Z</time>
      </trkpt>
      <trkpt lat="43.40698" lon="6.6362">
        <ele>267.2</ele>
        <time>2013-10-10T11:17:35.656Z</time>
      </trkpt>
      <trkpt lat="43.40699" lon="6.63622">
        <ele>267.3</ele>
        <time>2013-10-10T11:17:36.636Z</time>
      </trkpt>
      <trkpt lat="43.40707" lon="6.63629">
        <ele>268.1</ele>
        <time>2013-10-10T11:17:42.680Z</time>
      </trkpt>
      <trkpt lat="43.40708" lon="6.6363">
        <ele>268.3</ele>
        <time>2013-10-10T11:17:43.696Z</time>
      </trkpt>
      <trkpt lat="43.40713" lon="6.63637">
        <ele>268.9</ele>
        <time>2013-10-10T11:17:48.646Z</time>
      </trkpt>
      <trkpt lat="43.40715" lon="6.63638">
        <ele>269.1</ele>
        <time>2013-10-10T11:17:49.699Z</time>
      </trkpt>
      <trkpt lat="43.40722" lon="6.63645">
        <ele>270</ele>
        <time>2013-10-10T11:17:55.691Z</time>
      </trkpt>
      <trkpt lat="43.40724" lon="6.63647">
        <ele>270.1</ele>
        <time>2013-10-10T11:17:56.682Z</time>
      </trkpt>
      <trkpt lat="43.40731" lon="6.6365">
        <ele>270.8</ele>
        <time>2013-10-10T11:18:01.635Z</time>
      </trkpt>
      <trkpt lat="43.40733" lon="6.6365">
        <ele>271</ele>
        <time>2013-10-10T11:18:02.644Z</time>
      </trkpt>
      <trkpt lat="43.40741" lon="6.63651">
        <ele>271.6</ele>
        <time>2013-10-10T11:18:07.685Z</time>
      </trkpt>
      <trkpt lat="43.40743" lon="6.63651">
        <ele>271.8</ele>
        <time>2013-10-10T11:18:08.681Z</time>
      </trkpt>
      <trkpt lat="43.40751" lon="6.6365">
        <ele>272.3</ele>
        <time>2013-10-10T11:18:13.652Z</time>
      </trkpt>
      <trkpt lat="43.40752" lon="6.63649">
        <ele>272.5</ele>
        <time>2013-10-10T11:18:14.688Z</time>
      </trkpt>
      <trkpt lat="43.4076" lon="6.63645">
        <ele>273.1</ele>
        <time>2013-10-10T11:18:20.124Z</time>
      </trkpt>
      <trkpt lat="43.40762" lon="6.63644">
        <ele>273.2</ele>
        <time>2013-10-10T11:18:21.056Z</time>
      </trkpt>
      <trkpt lat="43.4077" lon="6.63643">
        <ele>274</ele>
        <time>2013-10-10T11:18:27.060Z</time>
      </trkpt>
      <trkpt lat="43.40772" lon="6.63643">
        <ele>274.2</ele>
        <time>2013-10-10T11:18:28.051Z</time>
      </trkpt>
      <trkpt lat="43.4078" lon="6.63643">
        <ele>275.4</ele>
        <time>2013-10-10T11:18:34.108Z</time>
      </trkpt>
      <trkpt lat="43.40782" lon="6.63644">
        <ele>275.5</ele>
        <time>2013-10-10T11:18:35.296Z</time>
      </trkpt>
      <trkpt lat="43.40789" lon="6.63644">
        <ele>276.7</ele>
        <time>2013-10-10T11:18:41.047Z</time>
      </trkpt>
      <trkpt lat="43.40791" lon="6.63644">
        <ele>276.8</ele>
        <time>2013-10-10T11:18:42.050Z</time>
      </trkpt>
      <trkpt lat="43.40799" lon="6.63641">
        <ele>277.7</ele>
        <time>2013-10-10T11:18:47.054Z</time>
      </trkpt>
      <trkpt lat="43.40801" lon="6.6364">
        <ele>277.8</ele>
        <time>2013-10-10T11:18:48.057Z</time>
      </trkpt>
      <trkpt lat="43.40808" lon="6.63636">
        <ele>278.4</ele>
        <time>2013-10-10T11:18:52.102Z</time>
      </trkpt>
      <trkpt lat="43.40809" lon="6.63634">
        <ele>278.5</ele>
        <time>2013-10-10T11:18:53.103Z</time>
      </trkpt>
      <trkpt lat="43.40814" lon="6.63624">
        <ele>279.3</ele>
        <time>2013-10-10T11:18:57.060Z</time>
      </trkpt>
      <trkpt lat="43.40815" lon="6.63621">
        <ele>279.4</ele>
        <time>2013-10-10T11:18:58.098Z</time>
      </trkpt>
      <trkpt lat="43.4082" lon="6.63612">
        <ele>280.3</ele>
        <time>2013-10-10T11:19:03.106Z</time>
      </trkpt>
      <trkpt lat="43.40821" lon="6.6361">
        <ele>280.4</ele>
        <time>2013-10-10T11:19:04.111Z</time>
      </trkpt>
      <trkpt lat="43.40826" lon="6.63601">
        <ele>281.1</ele>
        <time>2013-10-10T11:19:08.078Z</time>
      </trkpt>
      <trkpt lat="43.40827" lon="6.63599">
        <ele>281.2</ele>
        <time>2013-10-10T11:19:09.078Z</time>
      </trkpt>
      <trkpt lat="43.40833" lon="6.63591">
        <ele>281.7</ele>
        <time>2013-10-10T11:19:14.085Z</time>
      </trkpt>
      <trkpt lat="43.40835" lon="6.63589">
        <ele>281.8</ele>
        <time>2013-10-10T11:19:15.096Z</time>
      </trkpt>
      <trkpt lat="43.40842" lon="6.63586">
        <ele>282.3</ele>
        <time>2013-10-10T11:19:20.106Z</time>
      </trkpt>
      <trkpt lat="43.40844" lon="6.63586">
        <ele>282.5</ele>
        <time>2013-10-10T11:19:21.101Z</time>
      </trkpt>
      <trkpt lat="43.40851" lon="6.63582">
        <ele>283.2</ele>
        <time>2013-10-10T11:19:26.087Z</time>
      </trkpt>
      <trkpt lat="43.40853" lon="6.63581">
        <ele>283.4</ele>
        <time>2013-10-10T11:19:27.098Z</time>
      </trkpt>
      <trkpt lat="43.4086" lon="6.63578">
        <ele>284.1</ele>
        <time>2013-10-10T11:19:32.077Z</time>
      </trkpt>
      <trkpt lat="43.40862" lon="6.63577">
        <ele>284.3</ele>
        <time>2013-10-10T11:19:33.095Z</time>
      </trkpt>
      <trkpt lat="43.40869" lon="6.63574">
        <ele>285</ele>
        <time>2013-10-10T11:19:38.075Z</time>
      </trkpt>
      <trkpt lat="43.40871" lon="6.63573">
        <ele>285.1</ele>
        <time>2013-10-10T11:19:39.088Z</time>
      </trkpt>
      <trkpt lat="43.40879" lon="6.63567">
        <ele>285.6</ele>
        <time>2013-10-10T11:19:44.085Z</time>
      </trkpt>
      <trkpt lat="43.40881" lon="6.63566">
        <ele>285.7</ele>
        <time>2013-10-10T11:19:45.083Z</time>
      </trkpt>
      <trkpt lat="43.40888" lon="6.63561">
        <ele>286.2</ele>
        <time>2013-10-10T11:19:50.094Z</time>
      </trkpt>
      <trkpt lat="43.40889" lon="6.6356">
        <ele>286.3</ele>
        <time>2013-10-10T11:19:51.084Z</time>
      </trkpt>
      <trkpt lat="43.40896" lon="6.63555">
        <ele>287</ele>
        <time>2013-10-10T11:19:56.079Z</time>
      </trkpt>
      <trkpt lat="43.40897" lon="6.63554">
        <ele>287.1</ele>
        <time>2013-10-10T11:19:57.076Z</time>
      </trkpt>
      <trkpt lat="43.40904" lon="6.63547">
        <ele>288</ele>
        <time>2013-10-10T11:20:03.086Z</time>
      </trkpt>
      <trkpt lat="43.40905" lon="6.63546">
        <ele>288.2</ele>
        <time>2013-10-10T11:20:04.080Z</time>
      </trkpt>
      <trkpt lat="43.40911" lon="6.63539">
        <ele>288.9</ele>
        <time>2013-10-10T11:20:09.078Z</time>
      </trkpt>
      <trkpt lat="43.40912" lon="6.63537">
        <ele>288.9</ele>
        <time>2013-10-10T11:20:10.103Z</time>
      </trkpt>
      <trkpt lat="43.40917" lon="6.63529">
        <ele>289.6</ele>
        <time>2013-10-10T11:20:16.091Z</time>
      </trkpt>
      <trkpt lat="43.40918" lon="6.63527">
        <ele>289.8</ele>
        <time>2013-10-10T11:20:17.082Z</time>
      </trkpt>
      <trkpt lat="43.40924" lon="6.63518">
        <ele>290.9</ele>
        <time>2013-10-10T11:20:25.086Z</time>
      </trkpt>
      <trkpt lat="43.40925" lon="6.63517">
        <ele>291</ele>
        <time>2013-10-10T11:20:26.056Z</time>
      </trkpt>
      <trkpt lat="43.40931" lon="6.63508">
        <ele>292.1</ele>
        <time>2013-10-10T11:20:33.080Z</time>
      </trkpt>
      <trkpt lat="43.40932" lon="6.63507">
        <ele>292.3</ele>
        <time>2013-10-10T11:20:34.084Z</time>
      </trkpt>
      <trkpt lat="43.40937" lon="6.63498">
        <ele>293.5</ele>
        <time>2013-10-10T11:20:41.083Z</time>
      </trkpt>
      <trkpt lat="43.40938" lon="6.63497">
        <ele>293.7</ele>
        <time>2013-10-10T11:20:42.084Z</time>
      </trkpt>
      <trkpt lat="43.40943" lon="6.63489">
        <ele>294.7</ele>
        <time>2013-10-10T11:20:48.060Z</time>
      </trkpt>
      <trkpt lat="43.40944" lon="6.63487">
        <ele>294.9</ele>
        <time>2013-10-10T11:20:49.095Z</time>
      </trkpt>
      <trkpt lat="43.4095" lon="6.63478">
        <ele>295.5</ele>
        <time>2013-10-10T11:20:56.111Z</time>
      </trkpt>
      <trkpt lat="43.4095" lon="6.63477">
        <ele>295.6</ele>
        <time>2013-10-10T11:20:57.098Z</time>
      </trkpt>
      <trkpt lat="43.40954" lon="6.63467">
        <ele>296.5</ele>
        <time>2013-10-10T11:21:04.091Z</time>
      </trkpt>
      <trkpt lat="43.40954" lon="6.63465">
        <ele>296.6</ele>
        <time>2013-10-10T11:21:05.088Z</time>
      </trkpt>
      <trkpt lat="43.40958" lon="6.63455">
        <ele>297.5</ele>
        <time>2013-10-10T11:21:11.094Z</time>
      </trkpt>
      <trkpt lat="43.40958" lon="6.63453">
        <ele>297.6</ele>
        <time>2013-10-10T11:21:12.085Z</time>
      </trkpt>
      <trkpt lat="43.40962" lon="6.63442">
        <ele>298.4</ele>
        <time>2013-10-10T11:21:19.084Z</time>
      </trkpt>
      <trkpt lat="43.40963" lon="6.63441">
        <ele>298.5</ele>
        <time>2013-10-10T11:21:20.071Z</time>
      </trkpt>
      <trkpt lat="43.40964" lon="6.6343">
        <ele>299.7</ele>
        <time>2013-10-10T11:21:28.093Z</time>
      </trkpt>
      <trkpt lat="43.40964" lon="6.63428">
        <ele>299.9</ele>
        <time>2013-10-10T11:21:29.094Z</time>
      </trkpt>
      <trkpt lat="43.40965" lon="6.63416">
        <ele>300.7</ele>
        <time>2013-10-10T11:21:34.085Z</time>
      </trkpt>
      <trkpt lat="43.40965" lon="6.63414">
        <ele>300.9</ele>
        <time>2013-10-10T11:21:35.061Z</time>
      </trkpt>
      <trkpt lat="43.40965" lon="6.63402">
        <ele>301.7</ele>
        <time>2013-10-10T11:21:41.105Z</time>
      </trkpt>
      <trkpt lat="43.40965" lon="6.63401">
        <ele>301.8</ele>
        <time>2013-10-10T11:21:42.097Z</time>
      </trkpt>
      <trkpt lat="43.40963" lon="6.63389">
        <ele>302.5</ele>
        <time>2013-10-10T11:21:50.104Z</time>
      </trkpt>
      <trkpt lat="43.40963" lon="6.63388">
        <ele>302.6</ele>
        <time>2013-10-10T11:21:51.092Z</time>
      </trkpt>
      <trkpt lat="43.40963" lon="6.63377">
        <ele>303</ele>
        <time>2013-10-10T11:21:56.092Z</time>
      </trkpt>
      <trkpt lat="43.40963" lon="6.63374">
        <ele>303.1</ele>
        <time>2013-10-10T11:21:57.102Z</time>
      </trkpt>
      <trkpt lat="43.40961" lon="6.63363">
        <ele>303.7</ele>
        <time>2013-10-10T11:22:03.099Z</time>
      </trkpt>
      <trkpt lat="43.40961" lon="6.63361">
        <ele>303.8</ele>
        <time>2013-10-10T11:22:04.092Z</time>
      </trkpt>
      <trkpt lat="43.40962" lon="6.6335">
        <ele>304.3</ele>
        <time>2013-10-10T11:22:09.090Z</time>
      </trkpt>
      <trkpt lat="43.40963" lon="6.63348">
        <ele>304.4</ele>
        <time>2013-10-10T11:22:10.115Z</time>
      </trkpt>
      <trkpt lat="43.40968" lon="6.63341">
        <ele>304.9</ele>
        <time>2013-10-10T11:22:16.062Z</time>
      </trkpt>
      <trkpt lat="43.40969" lon="6.6334">
        <ele>305</ele>
        <time>2013-10-10T11:22:17.095Z</time>
      </trkpt>
      <trkpt lat="43.40978" lon="6.63338">
        <ele>305.9</ele>
        <time>2013-10-10T11:22:23.102Z</time>
      </trkpt>
      <trkpt lat="43.40979" lon="6.63337">
        <ele>306</ele>
        <time>2013-10-10T11:22:24.096Z</time>
      </trkpt>
      <trkpt lat="43.40987" lon="6.63333">
        <ele>306.5</ele>
        <time>2013-10-10T11:22:28.093Z</time>
      </trkpt>
      <trkpt lat="43.40988" lon="6.63332">
        <ele>306.6</ele>
        <time>2013-10-10T11:22:29.042Z</time>
      </trkpt>
      <trkpt lat="43.40995" lon="6.63326">
        <ele>307.4</ele>
        <time>2013-10-10T11:22:35.093Z</time>
      </trkpt>
      <trkpt lat="43.40996" lon="6.63325">
        <ele>307.5</ele>
        <time>2013-10-10T11:22:36.092Z</time>
      </trkpt>
      <trkpt lat="43.41002" lon="6.63318">
        <ele>308.1</ele>
        <time>2013-10-10T11:22:41.095Z</time>
      </trkpt>
      <trkpt lat="43.41003" lon="6.63317">
        <ele>308.2</ele>
        <time>2013-10-10T11:22:42.102Z</time>
      </trkpt>
      <trkpt lat="43.41009" lon="6.63309">
        <ele>308.8</ele>
        <time>2013-10-10T11:22:48.109Z</time>
      </trkpt>
      <trkpt lat="43.4101" lon="6.63308">
        <ele>308.9</ele>
        <time>2013-10-10T11:22:49.099Z</time>
      </trkpt>
      <trkpt lat="43.41017" lon="6.63302">
        <ele>309.3</ele>
        <time>2013-10-10T11:22:54.097Z</time>
      </trkpt>
      <trkpt lat="43.41018" lon="6.633">
        <ele>309.5</ele>
        <time>2013-10-10T11:22:55.102Z</time>
      </trkpt>
      <trkpt lat="43.41025" lon="6.63294">
        <ele>310</ele>
        <time>2013-10-10T11:23:00.198Z</time>
      </trkpt>
      <trkpt lat="43.41026" lon="6.63293">
        <ele>310.1</ele>
        <time>2013-10-10T11:23:01.043Z</time>
      </trkpt>
      <trkpt lat="43.41033" lon="6.63287">
        <ele>310.6</ele>
        <time>2013-10-10T11:23:06.065Z</time>
      </trkpt>
      <trkpt lat="43.41035" lon="6.63286">
        <ele>310.7</ele>
        <time>2013-10-10T11:23:07.098Z</time>
      </trkpt>
      <trkpt lat="43.41042" lon="6.63282">
        <ele>311.2</ele>
        <time>2013-10-10T11:23:12.097Z</time>
      </trkpt>
      <trkpt lat="43.41043" lon="6.63281">
        <ele>311.3</ele>
        <time>2013-10-10T11:23:13.101Z</time>
      </trkpt>
      <trkpt lat="43.41049" lon="6.63275">
        <ele>311.9</ele>
        <time>2013-10-10T11:23:18.103Z</time>
      </trkpt>
      <trkpt lat="43.41051" lon="6.63274">
        <ele>312.1</ele>
        <time>2013-10-10T11:23:19.098Z</time>
      </trkpt>
      <trkpt lat="43.41058" lon="6.63269">
        <ele>312.9</ele>
        <time>2013-10-10T11:23:24.098Z</time>
      </trkpt>
      <trkpt lat="43.41059" lon="6.63268">
        <ele>313.1</ele>
        <time>2013-10-10T11:23:25.104Z</time>
      </trkpt>
      <trkpt lat="43.41056" lon="6.63259">
        <ele>314.1</ele>
        <time>2013-10-10T11:23:35.101Z</time>
      </trkpt>
      <trkpt lat="43.41057" lon="6.63259">
        <ele>314.2</ele>
        <time>2013-10-10T11:23:36.105Z</time>
      </trkpt>
      <trkpt lat="43.41057" lon="6.6326">
        <ele>314.2</ele>
        <time>2013-10-10T11:23:37.066Z</time>
      </trkpt>
      <trkpt lat="43.41057" lon="6.63261">
        <ele>314.4</ele>
        <time>2013-10-10T11:23:38.102Z</time>
      </trkpt>
      <trkpt lat="43.41056" lon="6.63262">
        <ele>314.8</ele>
        <time>2013-10-10T11:23:42.066Z</time>
      </trkpt>
      <trkpt lat="43.41056" lon="6.63262">
        <ele>314.8</ele>
        <time>2013-10-10T11:23:43.100Z</time>
      </trkpt>
      <trkpt lat="43.41056" lon="6.63261">
        <ele>315</ele>
        <time>2013-10-10T11:23:56.096Z</time>
      </trkpt>
      <trkpt lat="43.41057" lon="6.63261">
        <ele>315</ele>
        <time>2013-10-10T11:23:57.096Z</time>
      </trkpt>
      <trkpt lat="43.41057" lon="6.63261">
        <ele>315.1</ele>
        <time>2013-10-10T11:23:58.096Z</time>
      </trkpt>
      <trkpt lat="43.41057" lon="6.63261">
        <ele>315.3</ele>
        <time>2013-10-10T11:23:59.111Z</time>
      </trkpt>
      <trkpt lat="43.41057" lon="6.6326">
        <ele>315.4</ele>
        <time>2013-10-10T11:24:02.192Z</time>
      </trkpt>
      <trkpt lat="43.41057" lon="6.6326">
        <ele>315.4</ele>
        <time>2013-10-10T11:24:03.098Z</time>
      </trkpt>
      <trkpt lat="43.41057" lon="6.6326">
        <ele>315.4</ele>
        <time>2013-10-10T11:24:04.106Z</time>
      </trkpt>
      <trkpt lat="43.41057" lon="6.6326">
        <ele>315.5</ele>
        <time>2013-10-10T11:24:05.100Z</time>
      </trkpt>
      <trkpt lat="43.41057" lon="6.63259">
        <ele>315.6</ele>
        <time>2013-10-10T11:24:08.098Z</time>
      </trkpt>
      <trkpt lat="43.41056" lon="6.63259">
        <ele>315.6</ele>
        <time>2013-10-10T11:24:09.109Z</time>
      </trkpt>
      <trkpt lat="43.41056" lon="6.63259">
        <ele>315.6</ele>
        <time>2013-10-10T11:24:11.116Z</time>
      </trkpt>
      <trkpt lat="43.41056" lon="6.63259">
        <ele>315.6</ele>
        <time>2013-10-10T11:24:12.123Z</time>
      </trkpt>
      <trkpt lat="43.41056" lon="6.6326">
        <ele>315.7</ele>
        <time>2013-10-10T11:24:15.097Z</time>
      </trkpt>
      <trkpt lat="43.41056" lon="6.6326">
        <ele>315.7</ele>
        <time>2013-10-10T11:24:16.097Z</time>
      </trkpt>
      <trkpt lat="43.41057" lon="6.63261">
        <ele>315.7</ele>
        <time>2013-10-10T11:24:20.094Z</time>
      </trkpt>
      <trkpt lat="43.41057" lon="6.63261">
        <ele>315.7</ele>
        <time>2013-10-10T11:24:21.092Z</time>
      </trkpt>
      <trkpt lat="43.41057" lon="6.63261">
        <ele>315.8</ele>
        <time>2013-10-10T11:24:22.072Z</time>
      </trkpt>
      <trkpt lat="43.4105" lon="6.63268">
        <ele>316</ele>
        <time>2013-10-10T11:24:29.087Z</time>
      </trkpt>
      <trkpt lat="43.41048" lon="6.6327">
        <ele>316.1</ele>
        <time>2013-10-10T11:24:30.106Z</time>
      </trkpt>
      <trkpt lat="43.4104" lon="6.63273">
        <ele>316.2</ele>
        <time>2013-10-10T11:24:33.085Z</time>
      </trkpt>
      <trkpt lat="43.41037" lon="6.63274">
        <ele>316.3</ele>
        <time>2013-10-10T11:24:34.087Z</time>
      </trkpt>
      <trkpt lat="43.4103" lon="6.63277">
        <ele>316.5</ele>
        <time>2013-10-10T11:24:37.076Z</time>
      </trkpt>
      <trkpt lat="43.41028" lon="6.63279">
        <ele>316.6</ele>
        <time>2013-10-10T11:24:38.086Z</time>
      </trkpt>
      <trkpt lat="43.41021" lon="6.63283">
        <ele>316.8</ele>
        <time>2013-10-10T11:24:41.048Z</time>
      </trkpt>
      <trkpt lat="43.41019" lon="6.63284">
        <ele>316.8</ele>
        <time>2013-10-10T11:24:42.088Z</time>
      </trkpt>
      <trkpt lat="43.41011" lon="6.63287">
        <ele>317.1</ele>
        <time>2013-10-10T11:24:46.084Z</time>
      </trkpt>
      <trkpt lat="43.41008" lon="6.63288">
        <ele>317.1</ele>
        <time>2013-10-10T11:24:47.091Z</time>
      </trkpt>
      <trkpt lat="43.41002" lon="6.63292">
        <ele>317.3</ele>
        <time>2013-10-10T11:24:50.098Z</time>
      </trkpt>
      <trkpt lat="43.40999" lon="6.63293">
        <ele>317.4</ele>
        <time>2013-10-10T11:24:51.077Z</time>
      </trkpt>
      <trkpt lat="43.40993" lon="6.63296">
        <ele>317.7</ele>
        <time>2013-10-10T11:24:54.077Z</time>
      </trkpt>
      <trkpt lat="43.4099" lon="6.63297">
        <ele>317.8</ele>
        <time>2013-10-10T11:24:55.075Z</time>
      </trkpt>
      <trkpt lat="43.40983" lon="6.633">
        <ele>318.2</ele>
        <time>2013-10-10T11:24:59.077Z</time>
      </trkpt>
      <trkpt lat="43.40981" lon="6.63301">
        <ele>318.3</ele>
        <time>2013-10-10T11:25:00.172Z</time>
      </trkpt>
      <trkpt lat="43.40973" lon="6.63303">
        <ele>318.4</ele>
        <time>2013-10-10T11:25:04.053Z</time>
      </trkpt>
      <trkpt lat="43.4097" lon="6.63303">
        <ele>318.5</ele>
        <time>2013-10-10T11:25:05.164Z</time>
      </trkpt>
      <trkpt lat="43.40962" lon="6.63303">
        <ele>318.7</ele>
        <time>2013-10-10T11:25:09.078Z</time>
      </trkpt>
      <trkpt lat="43.4096" lon="6.63303">
        <ele>318.8</ele>
        <time>2013-10-10T11:25:10.099Z</time>
      </trkpt>
      <trkpt lat="43.40951" lon="6.63305">
        <ele>319.2</ele>
        <time>2013-10-10T11:25:15.076Z</time>
      </trkpt>
      <trkpt lat="43.40949" lon="6.63306">
        <ele>319.2</ele>
        <time>2013-10-10T11:25:16.092Z</time>
      </trkpt>
      <trkpt lat="43.40942" lon="6.63308">
        <ele>319.3</ele>
        <time>2013-10-10T11:25:19.077Z</time>
      </trkpt>
      <trkpt lat="43.40939" lon="6.63309">
        <ele>319.4</ele>
        <time>2013-10-10T11:25:20.319Z</time>
      </trkpt>
      <trkpt lat="43.40932" lon="6.63315">
        <ele>319.4</ele>
        <time>2013-10-10T11:25:24.078Z</time>
      </trkpt>
      <trkpt lat="43.40931" lon="6.63317">
        <ele>319.4</ele>
        <time>2013-10-10T11:25:25.077Z</time>
      </trkpt>
      <trkpt lat="43.40927" lon="6.63328">
        <ele>319.8</ele>
        <time>2013-10-10T11:25:30.057Z</time>
      </trkpt>
      <trkpt lat="43.40927" lon="6.6333">
        <ele>319.9</ele>
        <time>2013-10-10T11:25:31.093Z</time>
      </trkpt>
      <trkpt lat="43.40925" lon="6.63341">
        <ele>320.5</ele>
        <time>2013-10-10T11:25:35.084Z</time>
      </trkpt>
      <trkpt lat="43.40924" lon="6.63344">
        <ele>320.7</ele>
        <time>2013-10-10T11:25:36.080Z</time>
      </trkpt>
      <trkpt lat="43.40922" lon="6.63355">
        <ele>321.4</ele>
        <time>2013-10-10T11:25:40.104Z</time>
      </trkpt>
      <trkpt lat="43.40922" lon="6.63357">
        <ele>321.6</ele>
        <time>2013-10-10T11:25:41.086Z</time>
      </trkpt>
      <trkpt lat="43.40919" lon="6.63366">
        <ele>322.2</ele>
        <time>2013-10-10T11:25:45.092Z</time>
      </trkpt>
      <trkpt lat="43.40919" lon="6.63369">
        <ele>322.3</ele>
        <time>2013-10-10T11:25:46.080Z</time>
      </trkpt>
      <trkpt lat="43.40915" lon="6.6338">
        <ele>322.7</ele>
        <time>2013-10-10T11:25:50.104Z</time>
      </trkpt>
      <trkpt lat="43.40914" lon="6.63382">
        <ele>322.8</ele>
        <time>2013-10-10T11:25:51.093Z</time>
      </trkpt>
      <trkpt lat="43.40907" lon="6.6339">
        <ele>323</ele>
        <time>2013-10-10T11:25:55.087Z</time>
      </trkpt>
      <trkpt lat="43.40905" lon="6.63392">
        <ele>323.1</ele>
        <time>2013-10-10T11:25:56.088Z</time>
      </trkpt>
      <trkpt lat="43.409" lon="6.63399">
        <ele>323.4</ele>
        <time>2013-10-10T11:25:59.087Z</time>
      </trkpt>
      <trkpt lat="43.40898" lon="6.63401">
        <ele>323.5</ele>
        <time>2013-10-10T11:26:00.205Z</time>
      </trkpt>
      <trkpt lat="43.40893" lon="6.63407">
        <ele>323.9</ele>
        <time>2013-10-10T11:26:03.095Z</time>
      </trkpt>
      <trkpt lat="43.40891" lon="6.63409">
        <ele>324</ele>
        <time>2013-10-10T11:26:04.090Z</time>
      </trkpt>
      <trkpt lat="43.40885" lon="6.63414">
        <ele>324.2</ele>
        <time>2013-10-10T11:26:07.091Z</time>
      </trkpt>
      <trkpt lat="43.40883" lon="6.63416">
        <ele>324.3</ele>
        <time>2013-10-10T11:26:08.180Z</time>
      </trkpt>
      <trkpt lat="43.40876" lon="6.63418">
        <ele>324.5</ele>
        <time>2013-10-10T11:26:11.091Z</time>
      </trkpt>
      <trkpt lat="43.40874" lon="6.63418">
        <ele>324.6</ele>
        <time>2013-10-10T11:26:12.107Z</time>
      </trkpt>
      <trkpt lat="43.40865" lon="6.63421">
        <ele>324.9</ele>
        <time>2013-10-10T11:26:16.091Z</time>
      </trkpt>
      <trkpt lat="43.40863" lon="6.63422">
        <ele>325</ele>
        <time>2013-10-10T11:26:17.095Z</time>
      </trkpt>
      <trkpt lat="43.40856" lon="6.63425">
        <ele>325.4</ele>
        <time>2013-10-10T11:26:21.100Z</time>
      </trkpt>
      <trkpt lat="43.40855" lon="6.63426">
        <ele>325.5</ele>
        <time>2013-10-10T11:26:22.096Z</time>
      </trkpt>
      <trkpt lat="43.40847" lon="6.63428">
        <ele>325.8</ele>
        <time>2013-10-10T11:26:26.087Z</time>
      </trkpt>
      <trkpt lat="43.40844" lon="6.63429">
        <ele>325.9</ele>
        <time>2013-10-10T11:26:27.091Z</time>
      </trkpt>
      <trkpt lat="43.40837" lon="6.63429">
        <ele>326.3</ele>
        <time>2013-10-10T11:26:31.085Z</time>
      </trkpt>
      <trkpt lat="43.40834" lon="6.63429">
        <ele>326.4</ele>
        <time>2013-10-10T11:26:32.086Z</time>
      </trkpt>
      <trkpt lat="43.40827" lon="6.6343">
        <ele>326.8</ele>
        <time>2013-10-10T11:26:36.090Z</time>
      </trkpt>
      <trkpt lat="43.40825" lon="6.6343">
        <ele>327</ele>
        <time>2013-10-10T11:26:37.090Z</time>
      </trkpt>
      <trkpt lat="43.40817" lon="6.63431">
        <ele>327.5</ele>
        <time>2013-10-10T11:26:41.087Z</time>
      </trkpt>
      <trkpt lat="43.40815" lon="6.63431">
        <ele>327.6</ele>
        <time>2013-10-10T11:26:42.085Z</time>
      </trkpt>
      <trkpt lat="43.40806" lon="6.63433">
        <ele>328</ele>
        <time>2013-10-10T11:26:47.086Z</time>
      </trkpt>
      <trkpt lat="43.40805" lon="6.63433">
        <ele>328</ele>
        <time>2013-10-10T11:26:48.087Z</time>
      </trkpt>
      <trkpt lat="43.40797" lon="6.63433">
        <ele>328.3</ele>
        <time>2013-10-10T11:26:52.094Z</time>
      </trkpt>
      <trkpt lat="43.40794" lon="6.63433">
        <ele>328.3</ele>
        <time>2013-10-10T11:26:53.300Z</time>
      </trkpt>
      <trkpt lat="43.40786" lon="6.63431">
        <ele>328.4</ele>
        <time>2013-10-10T11:26:56.093Z</time>
      </trkpt>
      <trkpt lat="43.40784" lon="6.6343">
        <ele>328.4</ele>
        <time>2013-10-10T11:26:57.096Z</time>
      </trkpt>
      <trkpt lat="43.40776" lon="6.63428">
        <ele>328.5</ele>
        <time>2013-10-10T11:27:01.041Z</time>
      </trkpt>
      <trkpt lat="43.40774" lon="6.63427">
        <ele>328.6</ele>
        <time>2013-10-10T11:27:02.096Z</time>
      </trkpt>
      <trkpt lat="43.40767" lon="6.63422">
        <ele>329</ele>
        <time>2013-10-10T11:27:06.187Z</time>
      </trkpt>
      <trkpt lat="43.40765" lon="6.63421">
        <ele>329</ele>
        <time>2013-10-10T11:27:07.103Z</time>
      </trkpt>
      <trkpt lat="43.40758" lon="6.63416">
        <ele>329.3</ele>
        <time>2013-10-10T11:27:11.100Z</time>
      </trkpt>
      <trkpt lat="43.40757" lon="6.63414">
        <ele>329.4</ele>
        <time>2013-10-10T11:27:12.101Z</time>
      </trkpt>
      <trkpt lat="43.4075" lon="6.63409">
        <ele>329.9</ele>
        <time>2013-10-10T11:27:16.104Z</time>
      </trkpt>
      <trkpt lat="43.40748" lon="6.63407">
        <ele>330.1</ele>
        <time>2013-10-10T11:27:17.105Z</time>
      </trkpt>
      <trkpt lat="43.40742" lon="6.63398">
        <ele>331.1</ele>
        <time>2013-10-10T11:27:21.068Z</time>
      </trkpt>
      <trkpt lat="43.40741" lon="6.63395">
        <ele>331.4</ele>
        <time>2013-10-10T11:27:22.101Z</time>
      </trkpt>
      <trkpt lat="43.40737" lon="6.63385">
        <ele>332.4</ele>
        <time>2013-10-10T11:27:26.074Z</time>
      </trkpt>
      <trkpt lat="43.40736" lon="6.63383">
        <ele>332.7</ele>
        <time>2013-10-10T11:27:27.107Z</time>
      </trkpt>
      <trkpt lat="43.40732" lon="6.63374">
        <ele>333.7</ele>
        <time>2013-10-10T11:27:31.097Z</time>
      </trkpt>
      <trkpt lat="43.40731" lon="6.63371">
        <ele>333.9</ele>
        <time>2013-10-10T11:27:32.085Z</time>
      </trkpt>
      <trkpt lat="43.40728" lon="6.63361">
        <ele>334.6</ele>
        <time>2013-10-10T11:27:36.094Z</time>
      </trkpt>
      <trkpt lat="43.40727" lon="6.63358">
        <ele>334.8</ele>
        <time>2013-10-10T11:27:37.349Z</time>
      </trkpt>
      <trkpt lat="43.40724" lon="6.63348">
        <ele>335.6</ele>
        <time>2013-10-10T11:27:41.095Z</time>
      </trkpt>
      <trkpt lat="43.40724" lon="6.63346">
        <ele>335.8</ele>
        <time>2013-10-10T11:27:42.097Z</time>
      </trkpt>
      <trkpt lat="43.40722" lon="6.63334">
        <ele>336.4</ele>
        <time>2013-10-10T11:27:46.096Z</time>
      </trkpt>
      <trkpt lat="43.40721" lon="6.63331">
        <ele>336.5</ele>
        <time>2013-10-10T11:27:47.096Z</time>
      </trkpt>
      <trkpt lat="43.40721" lon="6.63321">
        <ele>336.9</ele>
        <time>2013-10-10T11:27:51.095Z</time>
      </trkpt>
      <trkpt lat="43.40721" lon="6.63318">
        <ele>337</ele>
        <time>2013-10-10T11:27:52.096Z</time>
      </trkpt>
      <trkpt lat="43.40719" lon="6.63307">
        <ele>337.5</ele>
        <time>2013-10-10T11:27:56.095Z</time>
      </trkpt>
      <trkpt lat="43.40719" lon="6.63304">
        <ele>337.6</ele>
        <time>2013-10-10T11:27:57.142Z</time>
      </trkpt>
      <trkpt lat="43.40717" lon="6.63293">
        <ele>337.9</ele>
        <time>2013-10-10T11:28:01.047Z</time>
      </trkpt>
      <trkpt lat="43.40716" lon="6.63291">
        <ele>338</ele>
        <time>2013-10-10T11:28:02.095Z</time>
      </trkpt>
      <trkpt lat="43.40713" lon="6.63282">
        <ele>338.5</ele>
        <time>2013-10-10T11:28:06.065Z</time>
      </trkpt>
      <trkpt lat="43.40712" lon="6.63279">
        <ele>338.7</ele>
        <time>2013-10-10T11:28:07.104Z</time>
      </trkpt>
      <trkpt lat="43.40709" lon="6.6327">
        <ele>339.4</ele>
        <time>2013-10-10T11:28:11.103Z</time>
      </trkpt>
      <trkpt lat="43.40708" lon="6.63268">
        <ele>339.6</ele>
        <time>2013-10-10T11:28:12.099Z</time>
      </trkpt>
      <trkpt lat="43.40704" lon="6.63258">
        <ele>340.3</ele>
        <time>2013-10-10T11:28:16.099Z</time>
      </trkpt>
      <trkpt lat="43.40704" lon="6.63255">
        <ele>340.4</ele>
        <time>2013-10-10T11:28:17.102Z</time>
      </trkpt>
      <trkpt lat="43.40702" lon="6.63246">
        <ele>340.8</ele>
        <time>2013-10-10T11:28:20.113Z</time>
      </trkpt>
      <trkpt lat="43.40701" lon="6.63243">
        <ele>340.9</ele>
        <time>2013-10-10T11:28:21.096Z</time>
      </trkpt>
      <trkpt lat="43.40702" lon="6.63231">
        <ele>341.1</ele>
        <time>2013-10-10T11:28:25.064Z</time>
      </trkpt>
      <trkpt lat="43.40703" lon="6.63228">
        <ele>341.1</ele>
        <time>2013-10-10T11:28:26.097Z</time>
      </trkpt>
      <trkpt lat="43.40706" lon="6.63217">
        <ele>341.1</ele>
        <time>2013-10-10T11:28:30.109Z</time>
      </trkpt>
      <trkpt lat="43.40707" lon="6.63215">
        <ele>341.1</ele>
        <time>2013-10-10T11:28:31.096Z</time>
      </trkpt>
      <trkpt lat="43.40712" lon="6.63204">
        <ele>341.1</ele>
        <time>2013-10-10T11:28:36.112Z</time>
      </trkpt>
      <trkpt lat="43.40713" lon="6.63202">
        <ele>341.1</ele>
        <time>2013-10-10T11:28:37.121Z</time>
      </trkpt>
      <trkpt lat="43.40715" lon="6.63193">
        <ele>341.4</ele>
        <time>2013-10-10T11:28:41.099Z</time>
      </trkpt>
      <trkpt lat="43.40716" lon="6.6319">
        <ele>341.5</ele>
        <time>2013-10-10T11:28:42.097Z</time>
      </trkpt>
      <trkpt lat="43.40721" lon="6.63181">
        <ele>341.9</ele>
        <time>2013-10-10T11:28:46.316Z</time>
      </trkpt>
      <trkpt lat="43.40722" lon="6.6318">
        <ele>342</ele>
        <time>2013-10-10T11:28:47.058Z</time>
      </trkpt>
      <trkpt lat="43.40726" lon="6.6317">
        <ele>342.4</ele>
        <time>2013-10-10T11:28:51.069Z</time>
      </trkpt>
      <trkpt lat="43.40727" lon="6.63167">
        <ele>342.5</ele>
        <time>2013-10-10T11:28:52.076Z</time>
      </trkpt>
      <trkpt lat="43.40731" lon="6.63158">
        <ele>342.5</ele>
        <time>2013-10-10T11:28:56.060Z</time>
      </trkpt>
      <trkpt lat="43.40733" lon="6.63156">
        <ele>342.5</ele>
        <time>2013-10-10T11:28:57.060Z</time>
      </trkpt>
      <trkpt lat="43.40738" lon="6.63146">
        <ele>342.6</ele>
        <time>2013-10-10T11:29:01.051Z</time>
      </trkpt>
      <trkpt lat="43.4074" lon="6.63144">
        <ele>342.7</ele>
        <time>2013-10-10T11:29:02.105Z</time>
      </trkpt>
      <trkpt lat="43.40743" lon="6.63133">
        <ele>343.1</ele>
        <time>2013-10-10T11:29:06.070Z</time>
      </trkpt>
      <trkpt lat="43.40744" lon="6.6313">
        <ele>343.1</ele>
        <time>2013-10-10T11:29:07.103Z</time>
      </trkpt>
      <trkpt lat="43.4075" lon="6.63121">
        <ele>343.3</ele>
        <time>2013-10-10T11:29:11.099Z</time>
      </trkpt>
      <trkpt lat="43.40751" lon="6.63118">
        <ele>343.4</ele>
        <time>2013-10-10T11:29:12.097Z</time>
      </trkpt>
      <trkpt lat="43.40756" lon="6.63109">
        <ele>343.7</ele>
        <time>2013-10-10T11:29:17.103Z</time>
      </trkpt>
      <trkpt lat="43.40757" lon="6.63107">
        <ele>343.9</ele>
        <time>2013-10-10T11:29:18.105Z</time>
      </trkpt>
      <trkpt lat="43.40761" lon="6.63097">
        <ele>344.5</ele>
        <time>2013-10-10T11:29:22.097Z</time>
      </trkpt>
      <trkpt lat="43.40761" lon="6.63095">
        <ele>344.7</ele>
        <time>2013-10-10T11:29:23.096Z</time>
      </trkpt>
      <trkpt lat="43.40764" lon="6.63084">
        <ele>345.2</ele>
        <time>2013-10-10T11:29:27.098Z</time>
      </trkpt>
      <trkpt lat="43.40764" lon="6.63081">
        <ele>345.3</ele>
        <time>2013-10-10T11:29:28.099Z</time>
      </trkpt>
      <trkpt lat="43.40766" lon="6.6307">
        <ele>345.8</ele>
        <time>2013-10-10T11:29:32.096Z</time>
      </trkpt>
      <trkpt lat="43.40766" lon="6.63067">
        <ele>345.9</ele>
        <time>2013-10-10T11:29:33.098Z</time>
      </trkpt>
      <trkpt lat="43.40768" lon="6.63055">
        <ele>346.2</ele>
        <time>2013-10-10T11:29:37.073Z</time>
      </trkpt>
      <trkpt lat="43.40768" lon="6.63052">
        <ele>346.3</ele>
        <time>2013-10-10T11:29:38.072Z</time>
      </trkpt>
      <trkpt lat="43.40771" lon="6.63041">
        <ele>346.6</ele>
        <time>2013-10-10T11:29:42.074Z</time>
      </trkpt>
      <trkpt lat="43.40771" lon="6.63038">
        <ele>346.7</ele>
        <time>2013-10-10T11:29:43.090Z</time>
      </trkpt>
      <trkpt lat="43.40771" lon="6.63026">
        <ele>347.1</ele>
        <time>2013-10-10T11:29:47.093Z</time>
      </trkpt>
      <trkpt lat="43.40771" lon="6.63024">
        <ele>347.2</ele>
        <time>2013-10-10T11:29:48.093Z</time>
      </trkpt>
      <trkpt lat="43.4077" lon="6.63012">
        <ele>347.5</ele>
        <time>2013-10-10T11:29:52.089Z</time>
      </trkpt>
      <trkpt lat="43.40769" lon="6.63009">
        <ele>347.6</ele>
        <time>2013-10-10T11:29:53.085Z</time>
      </trkpt>
      <trkpt lat="43.40767" lon="6.62999">
        <ele>347.9</ele>
        <time>2013-10-10T11:29:57.097Z</time>
      </trkpt>
      <trkpt lat="43.40766" lon="6.62996">
        <ele>347.9</ele>
        <time>2013-10-10T11:29:58.097Z</time>
      </trkpt>
      <trkpt lat="43.4076" lon="6.62988">
        <ele>348.3</ele>
        <time>2013-10-10T11:30:02.092Z</time>
      </trkpt>
      <trkpt lat="43.40759" lon="6.62986">
        <ele>348.5</ele>
        <time>2013-10-10T11:30:03.093Z</time>
      </trkpt>
      <trkpt lat="43.40753" lon="6.62977">
        <ele>348.9</ele>
        <time>2013-10-10T11:30:07.092Z</time>
      </trkpt>
      <trkpt lat="43.40752" lon="6.62975">
        <ele>349</ele>
        <time>2013-10-10T11:30:08.091Z</time>
      </trkpt>
      <trkpt lat="43.40745" lon="6.62967">
        <ele>349.5</ele>
        <time>2013-10-10T11:30:12.096Z</time>
      </trkpt>
      <trkpt lat="43.40743" lon="6.62965">
        <ele>349.6</ele>
        <time>2013-10-10T11:30:13.094Z</time>
      </trkpt>
      <trkpt lat="43.40738" lon="6.62959">
        <ele>349.9</ele>
        <time>2013-10-10T11:30:16.080Z</time>
      </trkpt>
      <trkpt lat="43.40737" lon="6.62956">
        <ele>350</ele>
        <time>2013-10-10T11:30:17.084Z</time>
      </trkpt>
      <trkpt lat="43.40732" lon="6.62948">
        <ele>350.2</ele>
        <time>2013-10-10T11:30:20.096Z</time>
      </trkpt>
      <trkpt lat="43.40731" lon="6.62946">
        <ele>350.2</ele>
        <time>2013-10-10T11:30:21.082Z</time>
      </trkpt>
      <trkpt lat="43.40727" lon="6.62938">
        <ele>350.6</ele>
        <time>2013-10-10T11:30:24.063Z</time>
      </trkpt>
      <trkpt lat="43.40726" lon="6.62935">
        <ele>350.7</ele>
        <time>2013-10-10T11:30:25.091Z</time>
      </trkpt>
      <trkpt lat="43.40721" lon="6.62928">
        <ele>351.1</ele>
        <time>2013-10-10T11:30:28.080Z</time>
      </trkpt>
      <trkpt lat="43.4072" lon="6.62926">
        <ele>351.2</ele>
        <time>2013-10-10T11:30:29.077Z</time>
      </trkpt>
      <trkpt lat="43.40716" lon="6.62918">
        <ele>351.6</ele>
        <time>2013-10-10T11:30:32.077Z</time>
      </trkpt>
      <trkpt lat="43.40714" lon="6.62915">
        <ele>351.7</ele>
        <time>2013-10-10T11:30:33.077Z</time>
      </trkpt>
      <trkpt lat="43.40709" lon="6.62909">
        <ele>352</ele>
        <time>2013-10-10T11:30:36.082Z</time>
      </trkpt>
      <trkpt lat="43.40707" lon="6.62907">
        <ele>352.1</ele>
        <time>2013-10-10T11:30:37.084Z</time>
      </trkpt>
      <trkpt lat="43.40698" lon="6.62905">
        <ele>352.5</ele>
        <time>2013-10-10T11:30:41.090Z</time>
      </trkpt>
      <trkpt lat="43.40697" lon="6.62905">
        <ele>352.6</ele>
        <time>2013-10-10T11:30:42.085Z</time>
      </trkpt>
      <trkpt lat="43.40688" lon="6.62907">
        <ele>353</ele>
        <time>2013-10-10T11:30:47.081Z</time>
      </trkpt>
      <trkpt lat="43.40686" lon="6.62908">
        <ele>353.1</ele>
        <time>2013-10-10T11:30:48.088Z</time>
      </trkpt>
      <trkpt lat="43.40678" lon="6.62908">
        <ele>353.6</ele>
        <time>2013-10-10T11:30:52.092Z</time>
      </trkpt>
      <trkpt lat="43.40676" lon="6.62908">
        <ele>353.7</ele>
        <time>2013-10-10T11:30:53.302Z</time>
      </trkpt>
      <trkpt lat="43.40668" lon="6.62909">
        <ele>354.4</ele>
        <time>2013-10-10T11:30:57.090Z</time>
      </trkpt>
      <trkpt lat="43.40666" lon="6.62909">
        <ele>354.6</ele>
        <time>2013-10-10T11:30:58.087Z</time>
      </trkpt>
      <trkpt lat="43.40658" lon="6.6291">
        <ele>355.2</ele>
        <time>2013-10-10T11:31:02.082Z</time>
      </trkpt>
      <trkpt lat="43.40656" lon="6.6291">
        <ele>355.3</ele>
        <time>2013-10-10T11:31:03.084Z</time>
      </trkpt>
      <trkpt lat="43.40648" lon="6.62909">
        <ele>355.8</ele>
        <time>2013-10-10T11:31:07.085Z</time>
      </trkpt>
      <trkpt lat="43.40645" lon="6.62909">
        <ele>355.9</ele>
        <time>2013-10-10T11:31:08.312Z</time>
      </trkpt>
      <trkpt lat="43.40637" lon="6.6291">
        <ele>356.3</ele>
        <time>2013-10-10T11:31:12.038Z</time>
      </trkpt>
      <trkpt lat="43.40635" lon="6.6291">
        <ele>356.4</ele>
        <time>2013-10-10T11:31:13.085Z</time>
      </trkpt>
      <trkpt lat="43.40628" lon="6.62909">
        <ele>356.7</ele>
        <time>2013-10-10T11:31:17.093Z</time>
      </trkpt>
      <trkpt lat="43.40626" lon="6.62909">
        <ele>356.7</ele>
        <time>2013-10-10T11:31:18.089Z</time>
      </trkpt>
      <trkpt lat="43.40618" lon="6.62909">
        <ele>357</ele>
        <time>2013-10-10T11:31:22.093Z</time>
      </trkpt>
      <trkpt lat="43.40615" lon="6.62909">
        <ele>357</ele>
        <time>2013-10-10T11:31:23.092Z</time>
      </trkpt>
      <trkpt lat="43.40607" lon="6.62909">
        <ele>357.3</ele>
        <time>2013-10-10T11:31:27.088Z</time>
      </trkpt>
      <trkpt lat="43.40604" lon="6.62909">
        <ele>357.3</ele>
        <time>2013-10-10T11:31:28.092Z</time>
      </trkpt>
      <trkpt lat="43.40596" lon="6.62908">
        <ele>357.6</ele>
        <time>2013-10-10T11:31:32.091Z</time>
      </trkpt>
      <trkpt lat="43.40594" lon="6.62908">
        <ele>357.7</ele>
        <time>2013-10-10T11:31:33.100Z</time>
      </trkpt>
      <trkpt lat="43.40585" lon="6.62908">
        <ele>358.1</ele>
        <time>2013-10-10T11:31:37.094Z</time>
      </trkpt>
      <trkpt lat="43.40583" lon="6.62908">
        <ele>358.2</ele>
        <time>2013-10-10T11:31:38.091Z</time>
      </trkpt>
      <trkpt lat="43.40576" lon="6.62907">
        <ele>358.4</ele>
        <time>2013-10-10T11:31:41.092Z</time>
      </trkpt>
      <trkpt lat="43.40573" lon="6.62907">
        <ele>358.5</ele>
        <time>2013-10-10T11:31:42.094Z</time>
      </trkpt>
      <trkpt lat="43.40565" lon="6.62906">
        <ele>358.9</ele>
        <time>2013-10-10T11:31:46.097Z</time>
      </trkpt>
      <trkpt lat="43.40563" lon="6.62906">
        <ele>358.9</ele>
        <time>2013-10-10T11:31:47.095Z</time>
      </trkpt>
      <trkpt lat="43.40555" lon="6.62905">
        <ele>359.2</ele>
        <time>2013-10-10T11:31:51.094Z</time>
      </trkpt>
      <trkpt lat="43.40553" lon="6.62904">
        <ele>359.2</ele>
        <time>2013-10-10T11:31:52.092Z</time>
      </trkpt>
      <trkpt lat="43.40544" lon="6.62904">
        <ele>359.5</ele>
        <time>2013-10-10T11:31:56.093Z</time>
      </trkpt>
      <trkpt lat="43.40542" lon="6.62903">
        <ele>359.5</ele>
        <time>2013-10-10T11:31:57.099Z</time>
      </trkpt>
      <trkpt lat="43.40534" lon="6.62904">
        <ele>359.5</ele>
        <time>2013-10-10T11:32:00.176Z</time>
      </trkpt>
      <trkpt lat="43.40532" lon="6.62905">
        <ele>359.5</ele>
        <time>2013-10-10T11:32:01.286Z</time>
      </trkpt>
      <trkpt lat="43.40524" lon="6.62909">
        <ele>359.7</ele>
        <time>2013-10-10T11:32:05.346Z</time>
      </trkpt>
      <trkpt lat="43.40523" lon="6.62911">
        <ele>359.8</ele>
        <time>2013-10-10T11:32:06.363Z</time>
      </trkpt>
      <trkpt lat="43.40517" lon="6.62917">
        <ele>360</ele>
        <time>2013-10-10T11:32:10.305Z</time>
      </trkpt>
      <trkpt lat="43.40515" lon="6.62919">
        <ele>360</ele>
        <time>2013-10-10T11:32:11.339Z</time>
      </trkpt>
      <trkpt lat="43.40508" lon="6.62927">
        <ele>360.2</ele>
        <time>2013-10-10T11:32:15.357Z</time>
      </trkpt>
      <trkpt lat="43.40506" lon="6.62929">
        <ele>360.3</ele>
        <time>2013-10-10T11:32:16.346Z</time>
      </trkpt>
      <trkpt lat="43.405" lon="6.62936">
        <ele>360.3</ele>
        <time>2013-10-10T11:32:20.311Z</time>
      </trkpt>
      <trkpt lat="43.40499" lon="6.62937">
        <ele>360.3</ele>
        <time>2013-10-10T11:32:21.341Z</time>
      </trkpt>
      <trkpt lat="43.40491" lon="6.62942">
        <ele>360.4</ele>
        <time>2013-10-10T11:32:26.343Z</time>
      </trkpt>
      <trkpt lat="43.40489" lon="6.62943">
        <ele>360.4</ele>
        <time>2013-10-10T11:32:27.347Z</time>
      </trkpt>
      <trkpt lat="43.40482" lon="6.62944">
        <ele>360.4</ele>
        <time>2013-10-10T11:32:30.360Z</time>
      </trkpt>
      <trkpt lat="43.4048" lon="6.62944">
        <ele>360.5</ele>
        <time>2013-10-10T11:32:31.343Z</time>
      </trkpt>
      <trkpt lat="43.40472" lon="6.62943">
        <ele>360.7</ele>
        <time>2013-10-10T11:32:35.342Z</time>
      </trkpt>
      <trkpt lat="43.4047" lon="6.62942">
        <ele>360.8</ele>
        <time>2013-10-10T11:32:36.345Z</time>
      </trkpt>
      <trkpt lat="43.40462" lon="6.62938">
        <ele>361.2</ele>
        <time>2013-10-10T11:32:40.353Z</time>
      </trkpt>
      <trkpt lat="43.4046" lon="6.62937">
        <ele>361.3</ele>
        <time>2013-10-10T11:32:41.348Z</time>
      </trkpt>
      <trkpt lat="43.40453" lon="6.62934">
        <ele>361.6</ele>
        <time>2013-10-10T11:32:44.340Z</time>
      </trkpt>
      <trkpt lat="43.4045" lon="6.62932">
        <ele>361.7</ele>
        <time>2013-10-10T11:32:45.342Z</time>
      </trkpt>
      <trkpt lat="43.40443" lon="6.62928">
        <ele>362</ele>
        <time>2013-10-10T11:32:48.342Z</time>
      </trkpt>
      <trkpt lat="43.40441" lon="6.62927">
        <ele>362.1</ele>
        <time>2013-10-10T11:32:49.343Z</time>
      </trkpt>
      <trkpt lat="43.40433" lon="6.62922">
        <ele>362.6</ele>
        <time>2013-10-10T11:32:53.348Z</time>
      </trkpt>
      <trkpt lat="43.40431" lon="6.62921">
        <ele>362.8</ele>
        <time>2013-10-10T11:32:54.552Z</time>
      </trkpt>
      <trkpt lat="43.40424" lon="6.62917">
        <ele>363.2</ele>
        <time>2013-10-10T11:32:58.350Z</time>
      </trkpt>
      <trkpt lat="43.40422" lon="6.62916">
        <ele>363.3</ele>
        <time>2013-10-10T11:32:59.350Z</time>
      </trkpt>
      <trkpt lat="43.40414" lon="6.62911">
        <ele>363.6</ele>
        <time>2013-10-10T11:33:03.348Z</time>
      </trkpt>
      <trkpt lat="43.40412" lon="6.6291">
        <ele>363.7</ele>
        <time>2013-10-10T11:33:04.346Z</time>
      </trkpt>
      <trkpt lat="43.40404" lon="6.62907">
        <ele>364.1</ele>
        <time>2013-10-10T11:33:08.344Z</time>
      </trkpt>
      <trkpt lat="43.40402" lon="6.62907">
        <ele>364.2</ele>
        <time>2013-10-10T11:33:09.345Z</time>
      </trkpt>
      <trkpt lat="43.40394" lon="6.62907">
        <ele>364.6</ele>
        <time>2013-10-10T11:33:13.344Z</time>
      </trkpt>
      <trkpt lat="43.40392" lon="6.62907">
        <ele>364.8</ele>
        <time>2013-10-10T11:33:14.344Z</time>
      </trkpt>
      <trkpt lat="43.40384" lon="6.62908">
        <ele>365.5</ele>
        <time>2013-10-10T11:33:19.347Z</time>
      </trkpt>
      <trkpt lat="43.40382" lon="6.62909">
        <ele>365.6</ele>
        <time>2013-10-10T11:33:20.367Z</time>
      </trkpt>
      <trkpt lat="43.40375" lon="6.6291">
        <ele>365.9</ele>
        <time>2013-10-10T11:33:23.345Z</time>
      </trkpt>
      <trkpt lat="43.40373" lon="6.6291">
        <ele>366.1</ele>
        <time>2013-10-10T11:33:24.345Z</time>
      </trkpt>
      <trkpt lat="43.40364" lon="6.62913">
        <ele>366.6</ele>
        <time>2013-10-10T11:33:28.344Z</time>
      </trkpt>
      <trkpt lat="43.40362" lon="6.62913">
        <ele>366.7</ele>
        <time>2013-10-10T11:33:29.348Z</time>
      </trkpt>
      <trkpt lat="43.40355" lon="6.62916">
        <ele>367.1</ele>
        <time>2013-10-10T11:33:32.364Z</time>
      </trkpt>
      <trkpt lat="43.40353" lon="6.62917">
        <ele>367.1</ele>
        <time>2013-10-10T11:33:33.350Z</time>
      </trkpt>
      <trkpt lat="43.40346" lon="6.62925">
        <ele>367.4</ele>
        <time>2013-10-10T11:33:37.353Z</time>
      </trkpt>
      <trkpt lat="43.40345" lon="6.62926">
        <ele>367.5</ele>
        <time>2013-10-10T11:33:38.451Z</time>
      </trkpt>
      <trkpt lat="43.4034" lon="6.62936">
        <ele>367.8</ele>
        <time>2013-10-10T11:33:42.312Z</time>
      </trkpt>
      <trkpt lat="43.40339" lon="6.62939">
        <ele>367.9</ele>
        <time>2013-10-10T11:33:43.441Z</time>
      </trkpt>
      <trkpt lat="43.40336" lon="6.62949">
        <ele>368.2</ele>
        <time>2013-10-10T11:33:47.358Z</time>
      </trkpt>
      <trkpt lat="43.40336" lon="6.62951">
        <ele>368.3</ele>
        <time>2013-10-10T11:33:48.362Z</time>
      </trkpt>
      <trkpt lat="43.40332" lon="6.62961">
        <ele>368.7</ele>
        <time>2013-10-10T11:33:52.355Z</time>
      </trkpt>
      <trkpt lat="43.4033" lon="6.62964">
        <ele>368.9</ele>
        <time>2013-10-10T11:33:53.361Z</time>
      </trkpt>
      <trkpt lat="43.40326" lon="6.62972">
        <ele>369.4</ele>
        <time>2013-10-10T11:33:56.302Z</time>
      </trkpt>
      <trkpt lat="43.40325" lon="6.62975">
        <ele>369.5</ele>
        <time>2013-10-10T11:33:57.356Z</time>
      </trkpt>
      <trkpt lat="43.40321" lon="6.62982">
        <ele>369.9</ele>
        <time>2013-10-10T11:34:00.335Z</time>
      </trkpt>
      <trkpt lat="43.4032" lon="6.62985">
        <ele>370.1</ele>
        <time>2013-10-10T11:34:01.312Z</time>
      </trkpt>
      <trkpt lat="43.40316" lon="6.62993">
        <ele>370.4</ele>
        <time>2013-10-10T11:34:04.353Z</time>
      </trkpt>
      <trkpt lat="43.40314" lon="6.62995">
        <ele>370.5</ele>
        <time>2013-10-10T11:34:05.352Z</time>
      </trkpt>
      <trkpt lat="43.40309" lon="6.63002">
        <ele>370.8</ele>
        <time>2013-10-10T11:34:08.356Z</time>
      </trkpt>
      <trkpt lat="43.40308" lon="6.63004">
        <ele>371</ele>
        <time>2013-10-10T11:34:09.318Z</time>
      </trkpt>
      <trkpt lat="43.40301" lon="6.63013">
        <ele>371.4</ele>
        <time>2013-10-10T11:34:13.353Z</time>
      </trkpt>
      <trkpt lat="43.403" lon="6.63015">
        <ele>371.5</ele>
        <time>2013-10-10T11:34:14.381Z</time>
      </trkpt>
      <trkpt lat="43.40294" lon="6.63024">
        <ele>371.9</ele>
        <time>2013-10-10T11:34:18.349Z</time>
      </trkpt>
      <trkpt lat="43.40292" lon="6.63026">
        <ele>372</ele>
        <time>2013-10-10T11:34:19.349Z</time>
      </trkpt>
      <trkpt lat="43.40286" lon="6.63032">
        <ele>372.2</ele>
        <time>2013-10-10T11:34:22.351Z</time>
      </trkpt>
      <trkpt lat="43.40284" lon="6.63034">
        <ele>372.3</ele>
        <time>2013-10-10T11:34:23.356Z</time>
      </trkpt>
      <trkpt lat="43.40278" lon="6.63042">
        <ele>372.5</ele>
        <time>2013-10-10T11:34:27.349Z</time>
      </trkpt>
      <trkpt lat="43.40277" lon="6.63044">
        <ele>372.6</ele>
        <time>2013-10-10T11:34:28.349Z</time>
      </trkpt>
      <trkpt lat="43.4027" lon="6.63051">
        <ele>372.8</ele>
        <time>2013-10-10T11:34:32.349Z</time>
      </trkpt>
      <trkpt lat="43.40268" lon="6.63053">
        <ele>372.8</ele>
        <time>2013-10-10T11:34:33.350Z</time>
      </trkpt>
      <trkpt lat="43.40262" lon="6.63058">
        <ele>372.9</ele>
        <time>2013-10-10T11:34:36.349Z</time>
      </trkpt>
      <trkpt lat="43.40261" lon="6.6306">
        <ele>373</ele>
        <time>2013-10-10T11:34:37.350Z</time>
      </trkpt>
      <trkpt lat="43.40253" lon="6.63064">
        <ele>373.6</ele>
        <time>2013-10-10T11:34:41.352Z</time>
      </trkpt>
      <trkpt lat="43.40251" lon="6.63064">
        <ele>373.8</ele>
        <time>2013-10-10T11:34:42.353Z</time>
      </trkpt>
      <trkpt lat="43.40243" lon="6.63066">
        <ele>374.3</ele>
        <time>2013-10-10T11:34:45.351Z</time>
      </trkpt>
      <trkpt lat="43.40241" lon="6.63067">
        <ele>374.5</ele>
        <time>2013-10-10T11:34:46.351Z</time>
      </trkpt>
      <trkpt lat="43.40232" lon="6.63069">
        <ele>375.2</ele>
        <time>2013-10-10T11:34:50.366Z</time>
      </trkpt>
      <trkpt lat="43.4023" lon="6.63069">
        <ele>375.4</ele>
        <time>2013-10-10T11:34:51.344Z</time>
      </trkpt>
      <trkpt lat="43.40222" lon="6.63071">
        <ele>375.9</ele>
        <time>2013-10-10T11:34:55.349Z</time>
      </trkpt>
      <trkpt lat="43.4022" lon="6.63072">
        <ele>376</ele>
        <time>2013-10-10T11:34:56.345Z</time>
      </trkpt>
      <trkpt lat="43.40212" lon="6.63075">
        <ele>376.1</ele>
        <time>2013-10-10T11:35:00.395Z</time>
      </trkpt>
      <trkpt lat="43.40211" lon="6.63076">
        <ele>376.1</ele>
        <time>2013-10-10T11:35:01.293Z</time>
      </trkpt>
      <trkpt lat="43.40202" lon="6.63078">
        <ele>376.1</ele>
        <time>2013-10-10T11:35:05.353Z</time>
      </trkpt>
      <trkpt lat="43.402" lon="6.63079">
        <ele>376.1</ele>
        <time>2013-10-10T11:35:06.320Z</time>
      </trkpt>
      <trkpt lat="43.40193" lon="6.63083">
        <ele>376.4</ele>
        <time>2013-10-10T11:35:10.365Z</time>
      </trkpt>
      <trkpt lat="43.40191" lon="6.63085">
        <ele>376.4</ele>
        <time>2013-10-10T11:35:11.358Z</time>
      </trkpt>
      <trkpt lat="43.40185" lon="6.63091">
        <ele>376.6</ele>
        <time>2013-10-10T11:35:14.353Z</time>
      </trkpt>
      <trkpt lat="43.40184" lon="6.63093">
        <ele>376.6</ele>
        <time>2013-10-10T11:35:15.351Z</time>
      </trkpt>
      <trkpt lat="43.40179" lon="6.63103">
        <ele>376.8</ele>
        <time>2013-10-10T11:35:19.353Z</time>
      </trkpt>
      <trkpt lat="43.40178" lon="6.63105">
        <ele>376.9</ele>
        <time>2013-10-10T11:35:20.368Z</time>
      </trkpt>
      <trkpt lat="43.40176" lon="6.63114">
        <ele>377.4</ele>
        <time>2013-10-10T11:35:23.350Z</time>
      </trkpt>
      <trkpt lat="43.40175" lon="6.63117">
        <ele>377.6</ele>
        <time>2013-10-10T11:35:24.346Z</time>
      </trkpt>
      <trkpt lat="43.40173" lon="6.63127">
        <ele>378.2</ele>
        <time>2013-10-10T11:35:28.331Z</time>
      </trkpt>
      <trkpt lat="43.40172" lon="6.63129">
        <ele>378.4</ele>
        <time>2013-10-10T11:35:29.334Z</time>
      </trkpt>
      <trkpt lat="43.4017" lon="6.6314">
        <ele>379</ele>
        <time>2013-10-10T11:35:33.333Z</time>
      </trkpt>
      <trkpt lat="43.40169" lon="6.63142">
        <ele>379.1</ele>
        <time>2013-10-10T11:35:34.370Z</time>
      </trkpt>
      <trkpt lat="43.40162" lon="6.63137">
        <ele>380</ele>
        <time>2013-10-10T11:35:41.333Z</time>
      </trkpt>
      <trkpt lat="43.40162" lon="6.63135">
        <ele>380.1</ele>
        <time>2013-10-10T11:35:42.333Z</time>
      </trkpt>
      <trkpt lat="43.4016" lon="6.63124">
        <ele>380.8</ele>
        <time>2013-10-10T11:35:48.339Z</time>
      </trkpt>
      <trkpt lat="43.40159" lon="6.63122">
        <ele>380.9</ele>
        <time>2013-10-10T11:35:49.338Z</time>
      </trkpt>
      <trkpt lat="43.40159" lon="6.6311">
        <ele>381.2</ele>
        <time>2013-10-10T11:35:56.332Z</time>
      </trkpt>
      <trkpt lat="43.40159" lon="6.63109">
        <ele>381.2</ele>
        <time>2013-10-10T11:35:57.332Z</time>
      </trkpt>
      <trkpt lat="43.4016" lon="6.63098">
        <ele>382</ele>
        <time>2013-10-10T11:36:04.343Z</time>
      </trkpt>
      <trkpt lat="43.4016" lon="6.63097">
        <ele>382.2</ele>
        <time>2013-10-10T11:36:05.344Z</time>
      </trkpt>
      <trkpt lat="43.40162" lon="6.63085">
        <ele>383.4</ele>
        <time>2013-10-10T11:36:14.344Z</time>
      </trkpt>
      <trkpt lat="43.40162" lon="6.63084">
        <ele>383.6</ele>
        <time>2013-10-10T11:36:15.343Z</time>
      </trkpt>
      <trkpt lat="43.40161" lon="6.63073">
        <ele>385</ele>
        <time>2013-10-10T11:36:23.343Z</time>
      </trkpt>
      <trkpt lat="43.40161" lon="6.63071">
        <ele>385.3</ele>
        <time>2013-10-10T11:36:24.344Z</time>
      </trkpt>
      <trkpt lat="43.40161" lon="6.63066">
        <ele>386.6</ele>
        <time>2013-10-10T11:36:31.350Z</time>
      </trkpt>
      <trkpt lat="43.40161" lon="6.63066">
        <ele>386.6</ele>
        <time>2013-10-10T11:36:32.346Z</time>
      </trkpt>
      <trkpt lat="43.4016" lon="6.63066">
        <ele>386.7</ele>
        <time>2013-10-10T11:36:33.343Z</time>
      </trkpt>
      <trkpt lat="43.4016" lon="6.63066">
        <ele>386.7</ele>
        <time>2013-10-10T11:36:34.340Z</time>
      </trkpt>
      <trkpt lat="43.4016" lon="6.63066">
        <ele>386.7</ele>
        <time>2013-10-10T11:36:35.339Z</time>
      </trkpt>
      <trkpt lat="43.4016" lon="6.63066">
        <ele>386.7</ele>
        <time>2013-10-10T11:36:36.342Z</time>
      </trkpt>
      <trkpt lat="43.40159" lon="6.63066">
        <ele>386.7</ele>
        <time>2013-10-10T11:36:37.340Z</time>
      </trkpt>
      <trkpt lat="43.40159" lon="6.63066">
        <ele>386.7</ele>
        <time>2013-10-10T11:36:38.334Z</time>
      </trkpt>
      <trkpt lat="43.40158" lon="6.63065">
        <ele>386.7</ele>
        <time>2013-10-10T11:36:43.335Z</time>
      </trkpt>
      <trkpt lat="43.40158" lon="6.63065">
        <ele>386.7</ele>
        <time>2013-10-10T11:36:44.424Z</time>
      </trkpt>
      <trkpt lat="43.40159" lon="6.63065">
        <ele>386.9</ele>
        <time>2013-10-10T11:36:52.336Z</time>
      </trkpt>
      <trkpt lat="43.40159" lon="6.63065">
        <ele>386.9</ele>
        <time>2013-10-10T11:36:53.339Z</time>
      </trkpt>
      <trkpt lat="43.40161" lon="6.63058">
        <ele>388.2</ele>
        <time>2013-10-10T11:37:10.361Z</time>
      </trkpt>
      <trkpt lat="43.40161" lon="6.63058">
        <ele>388.2</ele>
        <time>2013-10-10T11:37:11.354Z</time>
      </trkpt>
      <trkpt lat="43.40162" lon="6.63059">
        <ele>388.2</ele>
        <time>2013-10-10T11:37:14.344Z</time>
      </trkpt>
      <trkpt lat="43.40162" lon="6.63059">
        <ele>388.2</ele>
        <time>2013-10-10T11:37:15.307Z</time>
      </trkpt>
      <trkpt lat="43.4017" lon="6.63056">
        <ele>389</ele>
        <time>2013-10-10T11:37:27.345Z</time>
      </trkpt>
      <trkpt lat="43.40171" lon="6.63055">
        <ele>389.1</ele>
        <time>2013-10-10T11:37:28.341Z</time>
      </trkpt>
      <trkpt lat="43.40175" lon="6.63046">
        <ele>390.3</ele>
        <time>2013-10-10T11:37:37.358Z</time>
      </trkpt>
      <trkpt lat="43.40176" lon="6.63045">
        <ele>390.4</ele>
        <time>2013-10-10T11:37:38.341Z</time>
      </trkpt>
      <trkpt lat="43.40181" lon="6.63036">
        <ele>391.3</ele>
        <time>2013-10-10T11:37:47.341Z</time>
      </trkpt>
      <trkpt lat="43.40182" lon="6.63035">
        <ele>391.4</ele>
        <time>2013-10-10T11:37:48.346Z</time>
      </trkpt>
      <trkpt lat="43.40188" lon="6.63028">
        <ele>391.6</ele>
        <time>2013-10-10T11:37:58.343Z</time>
      </trkpt>
      <trkpt lat="43.40189" lon="6.63028">
        <ele>391.5</ele>
        <time>2013-10-10T11:37:59.351Z</time>
      </trkpt>
      <trkpt lat="43.40193" lon="6.63017">
        <ele>391.7</ele>
        <time>2013-10-10T11:38:11.346Z</time>
      </trkpt>
      <trkpt lat="43.40193" lon="6.63016">
        <ele>391.8</ele>
        <time>2013-10-10T11:38:12.344Z</time>
      </trkpt>
      <trkpt lat="43.40199" lon="6.63007">
        <ele>393.5</ele>
        <time>2013-10-10T11:38:28.345Z</time>
      </trkpt>
      <trkpt lat="43.40199" lon="6.63006">
        <ele>393.7</ele>
        <time>2013-10-10T11:38:29.350Z</time>
      </trkpt>
      <trkpt lat="43.40204" lon="6.63">
        <ele>395.2</ele>
        <time>2013-10-10T11:38:46.354Z</time>
      </trkpt>
      <trkpt lat="43.40204" lon="6.63">
        <ele>395.3</ele>
        <time>2013-10-10T11:38:47.372Z</time>
      </trkpt>
      <trkpt lat="43.40203" lon="6.63">
        <ele>396.6</ele>
        <time>2013-10-10T11:38:52.370Z</time>
      </trkpt>
      <trkpt lat="43.40203" lon="6.63">
        <ele>396.7</ele>
        <time>2013-10-10T11:38:53.360Z</time>
      </trkpt>
      <trkpt lat="43.40204" lon="6.63003">
        <ele>397.8</ele>
        <time>2013-10-10T11:39:00.347Z</time>
      </trkpt>
      <trkpt lat="43.40204" lon="6.63003">
        <ele>398</ele>
        <time>2013-10-10T11:39:01.333Z</time>
      </trkpt>
      <trkpt lat="43.40205" lon="6.63002">
        <ele>398</ele>
        <time>2013-10-10T11:39:04.366Z</time>
      </trkpt>
      <trkpt lat="43.40205" lon="6.63002">
        <ele>398</ele>
        <time>2013-10-10T11:39:05.364Z</time>
      </trkpt>
      <trkpt lat="43.40212" lon="6.62995">
        <ele>399.5</ele>
        <time>2013-10-10T11:39:18.351Z</time>
      </trkpt>
      <trkpt lat="43.40213" lon="6.62993">
        <ele>399.6</ele>
        <time>2013-10-10T11:39:19.353Z</time>
      </trkpt>
      <trkpt lat="43.40218" lon="6.62985">
        <ele>400.7</ele>
        <time>2013-10-10T11:39:26.351Z</time>
      </trkpt>
      <trkpt lat="43.40219" lon="6.62985">
        <ele>400.8</ele>
        <time>2013-10-10T11:39:27.350Z</time>
      </trkpt>
      <trkpt lat="43.40227" lon="6.62979">
        <ele>401.4</ele>
        <time>2013-10-10T11:39:38.351Z</time>
      </trkpt>
      <trkpt lat="43.40227" lon="6.62978">
        <ele>401.6</ele>
        <time>2013-10-10T11:39:39.361Z</time>
      </trkpt>
      <trkpt lat="43.40233" lon="6.62969">
        <ele>403.8</ele>
        <time>2013-10-10T11:39:53.357Z</time>
      </trkpt>
      <trkpt lat="43.40233" lon="6.62968">
        <ele>404</ele>
        <time>2013-10-10T11:39:54.353Z</time>
      </trkpt>
      <trkpt lat="43.40237" lon="6.62957">
        <ele>405.7</ele>
        <time>2013-10-10T11:40:07.352Z</time>
      </trkpt>
      <trkpt lat="43.40237" lon="6.62957">
        <ele>405.9</ele>
        <time>2013-10-10T11:40:08.350Z</time>
      </trkpt>
      <trkpt lat="43.40239" lon="6.62947">
        <ele>407.5</ele>
        <time>2013-10-10T11:40:24.348Z</time>
      </trkpt>
      <trkpt lat="43.40239" lon="6.62947">
        <ele>407.5</ele>
        <time>2013-10-10T11:40:25.363Z</time>
      </trkpt>
      <trkpt lat="43.40238" lon="6.62947">
        <ele>407.8</ele>
        <time>2013-10-10T11:40:30.370Z</time>
      </trkpt>
      <trkpt lat="43.40238" lon="6.62946">
        <ele>407.8</ele>
        <time>2013-10-10T11:40:31.366Z</time>
      </trkpt>
      <trkpt lat="43.40236" lon="6.62935">
        <ele>410.2</ele>
        <time>2013-10-10T11:40:47.360Z</time>
      </trkpt>
      <trkpt lat="43.40236" lon="6.62934">
        <ele>410.3</ele>
        <time>2013-10-10T11:40:48.358Z</time>
      </trkpt>
      <trkpt lat="43.40236" lon="6.62922">
        <ele>412.3</ele>
        <time>2013-10-10T11:41:03.360Z</time>
      </trkpt>
      <trkpt lat="43.40237" lon="6.62921">
        <ele>412.4</ele>
        <time>2013-10-10T11:41:04.325Z</time>
      </trkpt>
      <trkpt lat="43.40236" lon="6.62909">
        <ele>414.9</ele>
        <time>2013-10-10T11:41:22.353Z</time>
      </trkpt>
      <trkpt lat="43.40236" lon="6.62909">
        <ele>415</ele>
        <time>2013-10-10T11:41:23.351Z</time>
      </trkpt>
      <trkpt lat="43.40234" lon="6.62897">
        <ele>417.2</ele>
        <time>2013-10-10T11:41:37.353Z</time>
      </trkpt>
      <trkpt lat="43.40234" lon="6.62896">
        <ele>417.4</ele>
        <time>2013-10-10T11:41:38.343Z</time>
      </trkpt>
      <trkpt lat="43.40234" lon="6.62884">
        <ele>419.5</ele>
        <time>2013-10-10T11:41:52.351Z</time>
      </trkpt>
      <trkpt lat="43.40235" lon="6.62883">
        <ele>419.6</ele>
        <time>2013-10-10T11:41:53.354Z</time>
      </trkpt>
      <trkpt lat="43.40236" lon="6.62871">
        <ele>421</ele>
        <time>2013-10-10T11:42:05.349Z</time>
      </trkpt>
      <trkpt lat="43.40236" lon="6.6287">
        <ele>421.2</ele>
        <time>2013-10-10T11:42:06.347Z</time>
      </trkpt>
      <trkpt lat="43.40235" lon="6.62858">
        <ele>422.7</ele>
        <time>2013-10-10T11:42:19.358Z</time>
      </trkpt>
      <trkpt lat="43.40235" lon="6.62857">
        <ele>422.8</ele>
        <time>2013-10-10T11:42:20.373Z</time>
      </trkpt>
      <trkpt lat="43.40235" lon="6.62845">
        <ele>424.6</ele>
        <time>2013-10-10T11:42:33.359Z</time>
      </trkpt>
      <trkpt lat="43.40235" lon="6.62845">
        <ele>424.8</ele>
        <time>2013-10-10T11:42:34.347Z</time>
      </trkpt>
      <trkpt lat="43.40235" lon="6.62842">
        <ele>425.5</ele>
        <time>2013-10-10T11:42:41.345Z</time>
      </trkpt>
      <trkpt lat="43.40235" lon="6.62842">
        <ele>425.6</ele>
        <time>2013-10-10T11:42:42.353Z</time>
      </trkpt>
      <trkpt lat="43.40234" lon="6.62842">
        <ele>425.6</ele>
        <time>2013-10-10T11:42:44.342Z</time>
      </trkpt>
      <trkpt lat="43.40234" lon="6.62841">
        <ele>425.6</ele>
        <time>2013-10-10T11:42:45.342Z</time>
      </trkpt>
      <trkpt lat="43.40232" lon="6.6283">
        <ele>428.9</ele>
        <time>2013-10-10T11:43:05.356Z</time>
      </trkpt>
      <trkpt lat="43.40231" lon="6.62829">
        <ele>429.1</ele>
        <time>2013-10-10T11:43:06.352Z</time>
      </trkpt>
      <trkpt lat="43.40227" lon="6.62818">
        <ele>432.6</ele>
        <time>2013-10-10T11:43:21.351Z</time>
      </trkpt>
      <trkpt lat="43.40227" lon="6.62817">
        <ele>432.8</ele>
        <time>2013-10-10T11:43:22.362Z</time>
      </trkpt>
      <trkpt lat="43.40226" lon="6.62805">
        <ele>435</ele>
        <time>2013-10-10T11:43:35.348Z</time>
      </trkpt>
      <trkpt lat="43.40226" lon="6.62804">
        <ele>435.1</ele>
        <time>2013-10-10T11:43:36.347Z</time>
      </trkpt>
      <trkpt lat="43.4023" lon="6.62793">
        <ele>435.5</ele>
        <time>2013-10-10T11:43:49.349Z</time>
      </trkpt>
      <trkpt lat="43.4023" lon="6.62793">
        <ele>435.5</ele>
        <time>2013-10-10T11:43:50.359Z</time>
      </trkpt>
      <trkpt lat="43.40234" lon="6.62783">
        <ele>436.5</ele>
        <time>2013-10-10T11:44:02.353Z</time>
      </trkpt>
      <trkpt lat="43.40234" lon="6.62782">
        <ele>436.5</ele>
        <time>2013-10-10T11:44:03.351Z</time>
      </trkpt>
      <trkpt lat="43.40235" lon="6.6277">
        <ele>437</ele>
        <time>2013-10-10T11:44:13.908Z</time>
      </trkpt>
      <trkpt lat="43.40235" lon="6.62769">
        <ele>437.1</ele>
        <time>2013-10-10T11:44:14.882Z</time>
      </trkpt>
      <trkpt lat="43.40236" lon="6.62757">
        <ele>438.1</ele>
        <time>2013-10-10T11:44:25.931Z</time>
      </trkpt>
      <trkpt lat="43.40236" lon="6.62756">
        <ele>438.2</ele>
        <time>2013-10-10T11:44:26.928Z</time>
      </trkpt>
      <trkpt lat="43.4024" lon="6.62745">
        <ele>439.3</ele>
        <time>2013-10-10T11:44:38.933Z</time>
      </trkpt>
      <trkpt lat="43.4024" lon="6.62744">
        <ele>439.4</ele>
        <time>2013-10-10T11:44:39.931Z</time>
      </trkpt>
      <trkpt lat="43.40246" lon="6.62734">
        <ele>441.1</ele>
        <time>2013-10-10T11:44:50.924Z</time>
      </trkpt>
      <trkpt lat="43.40246" lon="6.62733">
        <ele>441.1</ele>
        <time>2013-10-10T11:44:51.938Z</time>
      </trkpt>
      <trkpt lat="43.40251" lon="6.62723">
        <ele>441.6</ele>
        <time>2013-10-10T11:45:00.971Z</time>
      </trkpt>
      <trkpt lat="43.40251" lon="6.62722">
        <ele>441.7</ele>
        <time>2013-10-10T11:45:01.939Z</time>
      </trkpt>
      <trkpt lat="43.40257" lon="6.62714">
        <ele>442.6</ele>
        <time>2013-10-10T11:45:13.938Z</time>
      </trkpt>
      <trkpt lat="43.40258" lon="6.62714">
        <ele>442.6</ele>
        <time>2013-10-10T11:45:14.937Z</time>
      </trkpt>
      <trkpt lat="43.40265" lon="6.62706">
        <ele>444.1</ele>
        <time>2013-10-10T11:45:27.873Z</time>
      </trkpt>
      <trkpt lat="43.40265" lon="6.62706">
        <ele>444.3</ele>
        <time>2013-10-10T11:45:28.920Z</time>
      </trkpt>
      <trkpt lat="43.40272" lon="6.62699">
        <ele>446.9</ele>
        <time>2013-10-10T11:45:39.931Z</time>
      </trkpt>
      <trkpt lat="43.40272" lon="6.62698">
        <ele>447.2</ele>
        <time>2013-10-10T11:45:40.945Z</time>
      </trkpt>
      <trkpt lat="43.4028" lon="6.62693">
        <ele>449</ele>
        <time>2013-10-10T11:45:51.925Z</time>
      </trkpt>
      <trkpt lat="43.4028" lon="6.62692">
        <ele>449.1</ele>
        <time>2013-10-10T11:45:52.926Z</time>
      </trkpt>
      <trkpt lat="43.40289" lon="6.62692">
        <ele>450.5</ele>
        <time>2013-10-10T11:46:06.895Z</time>
      </trkpt>
      <trkpt lat="43.40289" lon="6.62692">
        <ele>450.7</ele>
        <time>2013-10-10T11:46:07.894Z</time>
      </trkpt>
      <trkpt lat="43.40297" lon="6.62688">
        <ele>452.6</ele>
        <time>2013-10-10T11:46:19.933Z</time>
      </trkpt>
      <trkpt lat="43.40298" lon="6.62688">
        <ele>452.7</ele>
        <time>2013-10-10T11:46:20.923Z</time>
      </trkpt>
      <trkpt lat="43.40306" lon="6.62683">
        <ele>454.1</ele>
        <time>2013-10-10T11:46:31.930Z</time>
      </trkpt>
      <trkpt lat="43.40307" lon="6.62683">
        <ele>454.2</ele>
        <time>2013-10-10T11:46:32.946Z</time>
      </trkpt>
      <trkpt lat="43.40309" lon="6.62675">
        <ele>456</ele>
        <time>2013-10-10T11:46:46.930Z</time>
      </trkpt>
      <trkpt lat="43.40309" lon="6.62674">
        <ele>456</ele>
        <time>2013-10-10T11:46:47.936Z</time>
      </trkpt>
      <trkpt lat="43.4031" lon="6.62674">
        <ele>456.1</ele>
        <time>2013-10-10T11:46:51.968Z</time>
      </trkpt>
      <trkpt lat="43.4031" lon="6.62674">
        <ele>456.2</ele>
        <time>2013-10-10T11:46:52.954Z</time>
      </trkpt>
      <trkpt lat="43.40316" lon="6.62665">
        <ele>459.3</ele>
        <time>2013-10-10T11:47:08.936Z</time>
      </trkpt>
      <trkpt lat="43.40316" lon="6.62664">
        <ele>459.4</ele>
        <time>2013-10-10T11:47:09.931Z</time>
      </trkpt>
      <trkpt lat="43.40319" lon="6.62654">
        <ele>461.1</ele>
        <time>2013-10-10T11:47:24.426Z</time>
      </trkpt>
      <trkpt lat="43.40319" lon="6.62653">
        <ele>461.1</ele>
        <time>2013-10-10T11:47:25.424Z</time>
      </trkpt>
      <trkpt lat="43.40321" lon="6.62647">
        <ele>462.1</ele>
        <time>2013-10-10T11:47:38.452Z</time>
      </trkpt>
      <trkpt lat="43.40321" lon="6.62647">
        <ele>462.1</ele>
        <time>2013-10-10T11:47:39.450Z</time>
      </trkpt>
      <trkpt lat="43.40322" lon="6.62647">
        <ele>462.2</ele>
        <time>2013-10-10T11:47:40.468Z</time>
      </trkpt>
      <trkpt lat="43.40322" lon="6.62646">
        <ele>462.4</ele>
        <time>2013-10-10T11:47:41.467Z</time>
      </trkpt>
      <trkpt lat="43.40324" lon="6.62639">
        <ele>464</ele>
        <time>2013-10-10T11:47:54.449Z</time>
      </trkpt>
      <trkpt lat="43.40324" lon="6.62639">
        <ele>464</ele>
        <time>2013-10-10T11:47:55.439Z</time>
      </trkpt>
      <trkpt lat="43.40325" lon="6.62639">
        <ele>464.2</ele>
        <time>2013-10-10T11:47:56.420Z</time>
      </trkpt>
      <trkpt lat="43.40325" lon="6.62639">
        <ele>464.3</ele>
        <time>2013-10-10T11:47:57.440Z</time>
      </trkpt>
      <trkpt lat="43.40327" lon="6.62627">
        <ele>465.9</ele>
        <time>2013-10-10T11:48:14.388Z</time>
      </trkpt>
      <trkpt lat="43.40327" lon="6.62627">
        <ele>466</ele>
        <time>2013-10-10T11:48:15.389Z</time>
      </trkpt>
      <trkpt lat="43.40326" lon="6.62614">
        <ele>467.3</ele>
        <time>2013-10-10T11:48:28.447Z</time>
      </trkpt>
      <trkpt lat="43.40326" lon="6.62613">
        <ele>467.4</ele>
        <time>2013-10-10T11:48:29.426Z</time>
      </trkpt>
      <trkpt lat="43.40326" lon="6.62602">
        <ele>470.9</ele>
        <time>2013-10-10T11:48:45.445Z</time>
      </trkpt>
      <trkpt lat="43.40327" lon="6.62601">
        <ele>471.1</ele>
        <time>2013-10-10T11:48:46.452Z</time>
      </trkpt>
      <trkpt lat="43.40329" lon="6.6259">
        <ele>473.1</ele>
        <time>2013-10-10T11:48:55.426Z</time>
      </trkpt>
      <trkpt lat="43.40329" lon="6.62589">
        <ele>473.3</ele>
        <time>2013-10-10T11:48:56.432Z</time>
      </trkpt>
      <trkpt lat="43.40336" lon="6.6258">
        <ele>475.4</ele>
        <time>2013-10-10T11:49:07.456Z</time>
      </trkpt>
      <trkpt lat="43.40336" lon="6.62579">
        <ele>475.6</ele>
        <time>2013-10-10T11:49:08.411Z</time>
      </trkpt>
      <trkpt lat="43.40343" lon="6.62571">
        <ele>477</ele>
        <time>2013-10-10T11:49:19.424Z</time>
      </trkpt>
      <trkpt lat="43.40344" lon="6.62571">
        <ele>477.2</ele>
        <time>2013-10-10T11:49:20.437Z</time>
      </trkpt>
      <trkpt lat="43.40352" lon="6.62566">
        <ele>478.8</ele>
        <time>2013-10-10T11:49:31.540Z</time>
      </trkpt>
      <trkpt lat="43.40353" lon="6.62565">
        <ele>478.9</ele>
        <time>2013-10-10T11:49:32.873Z</time>
      </trkpt>
      <trkpt lat="43.40361" lon="6.62562">
        <ele>480.6</ele>
        <time>2013-10-10T11:49:46.906Z</time>
      </trkpt>
      <trkpt lat="43.40361" lon="6.62561">
        <ele>480.7</ele>
        <time>2013-10-10T11:49:47.893Z</time>
      </trkpt>
      <trkpt lat="43.40368" lon="6.62555">
        <ele>482.1</ele>
        <time>2013-10-10T11:49:57.251Z</time>
      </trkpt>
      <trkpt lat="43.40369" lon="6.62555">
        <ele>482.3</ele>
        <time>2013-10-10T11:49:58.284Z</time>
      </trkpt>
      <trkpt lat="43.40377" lon="6.6255">
        <ele>483.5</ele>
        <time>2013-10-10T11:50:10.281Z</time>
      </trkpt>
      <trkpt lat="43.40378" lon="6.62549">
        <ele>483.6</ele>
        <time>2013-10-10T11:50:11.266Z</time>
      </trkpt>
      <trkpt lat="43.40384" lon="6.62541">
        <ele>485.5</ele>
        <time>2013-10-10T11:50:28.269Z</time>
      </trkpt>
      <trkpt lat="43.40384" lon="6.6254">
        <ele>485.6</ele>
        <time>2013-10-10T11:50:29.270Z</time>
      </trkpt>
      <trkpt lat="43.40391" lon="6.62532">
        <ele>486.9</ele>
        <time>2013-10-10T11:50:42.270Z</time>
      </trkpt>
      <trkpt lat="43.40391" lon="6.62532">
        <ele>487.1</ele>
        <time>2013-10-10T11:50:43.272Z</time>
      </trkpt>
      <trkpt lat="43.40399" lon="6.62526">
        <ele>489.4</ele>
        <time>2013-10-10T11:51:02.274Z</time>
      </trkpt>
      <trkpt lat="43.40399" lon="6.62526">
        <ele>489.4</ele>
        <time>2013-10-10T11:51:03.278Z</time>
      </trkpt>
      <trkpt lat="43.40399" lon="6.62526">
        <ele>489.8</ele>
        <time>2013-10-10T11:51:11.311Z</time>
      </trkpt>
      <trkpt lat="43.40399" lon="6.62525">
        <ele>489.8</ele>
        <time>2013-10-10T11:51:12.249Z</time>
      </trkpt>
      <trkpt lat="43.40404" lon="6.62521">
        <ele>491.2</ele>
        <time>2013-10-10T11:51:21.334Z</time>
      </trkpt>
      <trkpt lat="43.40404" lon="6.62521">
        <ele>491.2</ele>
        <time>2013-10-10T11:51:22.217Z</time>
      </trkpt>
      <trkpt lat="43.40404" lon="6.62521">
        <ele>491.7</ele>
        <time>2013-10-10T11:51:27.266Z</time>
      </trkpt>
      <trkpt lat="43.40404" lon="6.62521">
        <ele>491.9</ele>
        <time>2013-10-10T11:51:28.282Z</time>
      </trkpt>
      <trkpt lat="43.40412" lon="6.62518">
        <ele>493.8</ele>
        <time>2013-10-10T11:51:39.277Z</time>
      </trkpt>
      <trkpt lat="43.40413" lon="6.62518">
        <ele>493.9</ele>
        <time>2013-10-10T11:51:40.281Z</time>
      </trkpt>
      <trkpt lat="43.40421" lon="6.62514">
        <ele>496.1</ele>
        <time>2013-10-10T11:51:57.285Z</time>
      </trkpt>
      <trkpt lat="43.40422" lon="6.62514">
        <ele>496.2</ele>
        <time>2013-10-10T11:51:58.272Z</time>
      </trkpt>
      <trkpt lat="43.4043" lon="6.62509">
        <ele>498.1</ele>
        <time>2013-10-10T11:52:14.261Z</time>
      </trkpt>
      <trkpt lat="43.4043" lon="6.62508">
        <ele>498.2</ele>
        <time>2013-10-10T11:52:15.264Z</time>
      </trkpt>
      <trkpt lat="43.40438" lon="6.62504">
        <ele>500.2</ele>
        <time>2013-10-10T11:52:32.267Z</time>
      </trkpt>
      <trkpt lat="43.40439" lon="6.62503">
        <ele>500.3</ele>
        <time>2013-10-10T11:52:33.264Z</time>
      </trkpt>
      <trkpt lat="43.40447" lon="6.62499">
        <ele>502.1</ele>
        <time>2013-10-10T11:52:46.263Z</time>
      </trkpt>
      <trkpt lat="43.40447" lon="6.62499">
        <ele>502.3</ele>
        <time>2013-10-10T11:52:47.263Z</time>
      </trkpt>
      <trkpt lat="43.40455" lon="6.62494">
        <ele>503.7</ele>
        <time>2013-10-10T11:53:02.267Z</time>
      </trkpt>
      <trkpt lat="43.40456" lon="6.62494">
        <ele>503.9</ele>
        <time>2013-10-10T11:53:03.271Z</time>
      </trkpt>
      <trkpt lat="43.40465" lon="6.62493">
        <ele>506.8</ele>
        <time>2013-10-10T11:53:19.264Z</time>
      </trkpt>
      <trkpt lat="43.40465" lon="6.62493">
        <ele>507</ele>
        <time>2013-10-10T11:53:20.281Z</time>
      </trkpt>
      <trkpt lat="43.40467" lon="6.62493">
        <ele>507.4</ele>
        <time>2013-10-10T11:53:25.266Z</time>
      </trkpt>
      <trkpt lat="43.40467" lon="6.62493">
        <ele>507.4</ele>
        <time>2013-10-10T11:53:26.265Z</time>
      </trkpt>
      <trkpt lat="43.40467" lon="6.62494">
        <ele>507.4</ele>
        <time>2013-10-10T11:53:28.264Z</time>
      </trkpt>
      <trkpt lat="43.40466" lon="6.62494">
        <ele>507.5</ele>
        <time>2013-10-10T11:53:29.533Z</time>
      </trkpt>
      <trkpt lat="43.40466" lon="6.62495">
        <ele>507.8</ele>
        <time>2013-10-10T11:53:33.212Z</time>
      </trkpt>
      <trkpt lat="43.40465" lon="6.62495">
        <ele>507.9</ele>
        <time>2013-10-10T11:53:34.176Z</time>
      </trkpt>
      <trkpt lat="43.40466" lon="6.62494">
        <ele>508.1</ele>
        <time>2013-10-10T11:53:38.161Z</time>
      </trkpt>
      <trkpt lat="43.40466" lon="6.62494">
        <ele>508.1</ele>
        <time>2013-10-10T11:53:39.143Z</time>
      </trkpt>
      <trkpt lat="43.40475" lon="6.62495">
        <ele>509.3</ele>
        <time>2013-10-10T11:53:47.194Z</time>
      </trkpt>
      <trkpt lat="43.40476" lon="6.62495">
        <ele>509.4</ele>
        <time>2013-10-10T11:53:48.192Z</time>
      </trkpt>
      <trkpt lat="43.40479" lon="6.62495">
        <ele>510.1</ele>
        <time>2013-10-10T11:53:54.207Z</time>
      </trkpt>
      <trkpt lat="43.40479" lon="6.62495">
        <ele>510.2</ele>
        <time>2013-10-10T11:53:55.200Z</time>
      </trkpt>
      <trkpt lat="43.40478" lon="6.62495">
        <ele>510.4</ele>
        <time>2013-10-10T11:53:56.199Z</time>
      </trkpt>
      <trkpt lat="43.40478" lon="6.62494">
        <ele>510.5</ele>
        <time>2013-10-10T11:53:58.166Z</time>
      </trkpt>
      <trkpt lat="43.40478" lon="6.62495">
        <ele>510.5</ele>
        <time>2013-10-10T11:53:59.202Z</time>
      </trkpt>
      <trkpt lat="43.40478" lon="6.62495">
        <ele>510.6</ele>
        <time>2013-10-10T11:54:01.147Z</time>
      </trkpt>
      <trkpt lat="43.40478" lon="6.62496">
        <ele>510.6</ele>
        <time>2013-10-10T11:54:02.196Z</time>
      </trkpt>
      <trkpt lat="43.40478" lon="6.62496">
        <ele>510.6</ele>
        <time>2013-10-10T11:54:03.191Z</time>
      </trkpt>
      <trkpt lat="43.40478" lon="6.62496">
        <ele>510.6</ele>
        <time>2013-10-10T11:54:04.194Z</time>
      </trkpt>
      <trkpt lat="43.40478" lon="6.62496">
        <ele>510.6</ele>
        <time>2013-10-10T11:54:08.220Z</time>
      </trkpt>
      <trkpt lat="43.40478" lon="6.62495">
        <ele>510.6</ele>
        <time>2013-10-10T11:54:09.247Z</time>
      </trkpt>
      <trkpt lat="43.40479" lon="6.62494">
        <ele>510.6</ele>
        <time>2013-10-10T11:54:12.191Z</time>
      </trkpt>
      <trkpt lat="43.40479" lon="6.62494">
        <ele>510.6</ele>
        <time>2013-10-10T11:54:13.188Z</time>
      </trkpt>
      <trkpt lat="43.40478" lon="6.62495">
        <ele>510.7</ele>
        <time>2013-10-10T11:54:15.136Z</time>
      </trkpt>
      <trkpt lat="43.40478" lon="6.62495">
        <ele>510.7</ele>
        <time>2013-10-10T11:54:16.185Z</time>
      </trkpt>
      <trkpt lat="43.40477" lon="6.62497">
        <ele>510.8</ele>
        <time>2013-10-10T11:54:20.223Z</time>
      </trkpt>
      <trkpt lat="43.40477" lon="6.62497">
        <ele>510.8</ele>
        <time>2013-10-10T11:54:21.186Z</time>
      </trkpt>
      <trkpt lat="43.40478" lon="6.62497">
        <ele>511.3</ele>
        <time>2013-10-10T11:54:28.187Z</time>
      </trkpt>
      <trkpt lat="43.40478" lon="6.62497">
        <ele>511.4</ele>
        <time>2013-10-10T11:54:29.192Z</time>
      </trkpt>
      <trkpt lat="43.40479" lon="6.62495">
        <ele>511.5</ele>
        <time>2013-10-10T11:54:35.192Z</time>
      </trkpt>
      <trkpt lat="43.40479" lon="6.62495">
        <ele>511.5</ele>
        <time>2013-10-10T11:54:37.502Z</time>
      </trkpt>
      <trkpt lat="43.40479" lon="6.62495">
        <ele>511.5</ele>
        <time>2013-10-10T11:54:39.011Z</time>
      </trkpt>
      <trkpt lat="43.40479" lon="6.62495">
        <ele>511.5</ele>
        <time>2013-10-10T11:54:39.917Z</time>
      </trkpt>
      <trkpt lat="43.40478" lon="6.62496">
        <ele>511.8</ele>
        <time>2013-10-10T11:54:42.872Z</time>
      </trkpt>
      <trkpt lat="43.40478" lon="6.62496">
        <ele>511.8</ele>
        <time>2013-10-10T11:54:43.900Z</time>
      </trkpt>
      <trkpt lat="43.40478" lon="6.62495">
        <ele>511.9</ele>
        <time>2013-10-10T11:54:45.871Z</time>
      </trkpt>
      <trkpt lat="43.40478" lon="6.62495">
        <ele>511.9</ele>
        <time>2013-10-10T11:54:46.923Z</time>
      </trkpt>
      <trkpt lat="43.40476" lon="6.62494">
        <ele>511.9</ele>
        <time>2013-10-10T11:54:51.920Z</time>
      </trkpt>
      <trkpt lat="43.40476" lon="6.62494">
        <ele>511.9</ele>
        <time>2013-10-10T11:54:52.935Z</time>
      </trkpt>
      <trkpt lat="43.40476" lon="6.62494">
        <ele>512</ele>
        <time>2013-10-10T11:54:53.950Z</time>
      </trkpt>
      <trkpt lat="43.40477" lon="6.62493">
        <ele>512</ele>
        <time>2013-10-10T11:54:59.929Z</time>
      </trkpt>
      <trkpt lat="43.40477" lon="6.62493">
        <ele>512</ele>
        <time>2013-10-10T11:55:01.083Z</time>
      </trkpt>
      <trkpt lat="43.40477" lon="6.62493">
        <ele>512.1</ele>
        <time>2013-10-10T11:55:01.938Z</time>
      </trkpt>
      <trkpt lat="43.40477" lon="6.62493">
        <ele>512.1</ele>
        <time>2013-10-10T11:55:02.921Z</time>
      </trkpt>
      <trkpt lat="43.40478" lon="6.62494">
        <ele>512.1</ele>
        <time>2013-10-10T11:55:06.949Z</time>
      </trkpt>
      <trkpt lat="43.40478" lon="6.62494">
        <ele>512.2</ele>
        <time>2013-10-10T11:55:07.955Z</time>
      </trkpt>
      <trkpt lat="43.40479" lon="6.62493">
        <ele>512.4</ele>
        <time>2013-10-10T11:55:12.739Z</time>
      </trkpt>
      <trkpt lat="43.40479" lon="6.62493">
        <ele>512.5</ele>
        <time>2013-10-10T11:55:13.474Z</time>
      </trkpt>
      <trkpt lat="43.4048" lon="6.62493">
        <ele>512.6</ele>
        <time>2013-10-10T11:55:15.478Z</time>
      </trkpt>
      <trkpt lat="43.4048" lon="6.62493">
        <ele>512.6</ele>
        <time>2013-10-10T11:55:16.605Z</time>
      </trkpt>
      <trkpt lat="43.40479" lon="6.62494">
        <ele>512.7</ele>
        <time>2013-10-10T11:55:27.517Z</time>
      </trkpt>
      <trkpt lat="43.40479" lon="6.62494">
        <ele>512.7</ele>
        <time>2013-10-10T11:55:28.519Z</time>
      </trkpt>
      <trkpt lat="43.40478" lon="6.62496">
        <ele>512.8</ele>
        <time>2013-10-10T11:55:35.508Z</time>
      </trkpt>
      <trkpt lat="43.40478" lon="6.62496">
        <ele>512.8</ele>
        <time>2013-10-10T11:55:36.516Z</time>
      </trkpt>
      <trkpt lat="43.40479" lon="6.62495">
        <ele>513.1</ele>
        <time>2013-10-10T11:55:57.537Z</time>
      </trkpt>
      <trkpt lat="43.40477" lon="6.62495">
        <ele>513.2</ele>
        <time>2013-10-10T11:55:58.552Z</time>
      </trkpt>
      <trkpt lat="43.40476" lon="6.62494">
        <ele>513.5</ele>
        <time>2013-10-10T11:56:07.513Z</time>
      </trkpt>
      <trkpt lat="43.40476" lon="6.62494">
        <ele>513.5</ele>
        <time>2013-10-10T11:56:08.508Z</time>
      </trkpt>
      <trkpt lat="43.40477" lon="6.62492">
        <ele>513.5</ele>
        <time>2013-10-10T11:56:20.515Z</time>
      </trkpt>
      <trkpt lat="43.40477" lon="6.62492">
        <ele>513.5</ele>
        <time>2013-10-10T11:56:21.505Z</time>
      </trkpt>
      <trkpt lat="43.40478" lon="6.62491">
        <ele>513.5</ele>
        <time>2013-10-10T11:56:26.481Z</time>
      </trkpt>
      <trkpt lat="43.40478" lon="6.62491">
        <ele>513.5</ele>
        <time>2013-10-10T11:56:27.483Z</time>
      </trkpt>
      <trkpt lat="43.40478" lon="6.62495">
        <ele>513.8</ele>
        <time>2013-10-10T11:57:47.486Z</time>
      </trkpt>
      <trkpt lat="43.40478" lon="6.62496">
        <ele>513.8</ele>
        <time>2013-10-10T11:57:48.486Z</time>
      </trkpt>
      <trkpt lat="43.40478" lon="6.62497">
        <ele>513.8</ele>
        <time>2013-10-10T11:57:51.490Z</time>
      </trkpt>
      <trkpt lat="43.40478" lon="6.62497">
        <ele>513.8</ele>
        <time>2013-10-10T11:57:52.487Z</time>
      </trkpt>
      <trkpt lat="43.40478" lon="6.62497">
        <ele>513.8</ele>
        <time>2013-10-10T11:57:53.492Z</time>
      </trkpt>
      <trkpt lat="43.40479" lon="6.62497">
        <ele>513.9</ele>
        <time>2013-10-10T11:57:54.504Z</time>
      </trkpt>
      <trkpt lat="43.40479" lon="6.62497">
        <ele>513.9</ele>
        <time>2013-10-10T11:57:55.489Z</time>
      </trkpt>
      <trkpt lat="43.40478" lon="6.62496">
        <ele>513.9</ele>
        <time>2013-10-10T11:58:10.913Z</time>
      </trkpt>
      <trkpt lat="43.40478" lon="6.62495">
        <ele>513.9</ele>
        <time>2013-10-10T11:58:11.909Z</time>
      </trkpt>
      <trkpt lat="43.40479" lon="6.62494">
        <ele>514</ele>
        <time>2013-10-10T11:58:16.952Z</time>
      </trkpt>
      <trkpt lat="43.40479" lon="6.62494">
        <ele>514</ele>
        <time>2013-10-10T11:58:17.982Z</time>
      </trkpt>
      <trkpt lat="43.40479" lon="6.62495">
        <ele>514</ele>
        <time>2013-10-10T11:58:19.943Z</time>
      </trkpt>
      <trkpt lat="43.40478" lon="6.62495">
        <ele>514</ele>
        <time>2013-10-10T11:58:20.974Z</time>
      </trkpt>
      <trkpt lat="43.40476" lon="6.62495">
        <ele>514.2</ele>
        <time>2013-10-10T11:58:28.005Z</time>
      </trkpt>
      <trkpt lat="43.40476" lon="6.62495">
        <ele>514.2</ele>
        <time>2013-10-10T11:58:29.021Z</time>
      </trkpt>
      <trkpt lat="43.40477" lon="6.62495">
        <ele>514.2</ele>
        <time>2013-10-10T11:58:33.951Z</time>
      </trkpt>
      <trkpt lat="43.40477" lon="6.62495">
        <ele>514.2</ele>
        <time>2013-10-10T11:58:34.967Z</time>
      </trkpt>
      <trkpt lat="43.40478" lon="6.62494">
        <ele>514.3</ele>
        <time>2013-10-10T11:58:38.998Z</time>
      </trkpt>
      <trkpt lat="43.40478" lon="6.62494">
        <ele>514.3</ele>
        <time>2013-10-10T11:58:40.002Z</time>
      </trkpt>
      <trkpt lat="43.40479" lon="6.62494">
        <ele>514.4</ele>
        <time>2013-10-10T11:58:49.952Z</time>
      </trkpt>
      <trkpt lat="43.40479" lon="6.62495">
        <ele>514.4</ele>
        <time>2013-10-10T11:58:50.961Z</time>
      </trkpt>
      <trkpt lat="43.4048" lon="6.62496">
        <ele>514.4</ele>
        <time>2013-10-10T11:58:53.944Z</time>
      </trkpt>
      <trkpt lat="43.4048" lon="6.62496">
        <ele>514.4</ele>
        <time>2013-10-10T11:58:54.961Z</time>
      </trkpt>
      <trkpt lat="43.4048" lon="6.62496">
        <ele>514.5</ele>
        <time>2013-10-10T11:58:55.958Z</time>
      </trkpt>
      <trkpt lat="43.40479" lon="6.62496">
        <ele>514.5</ele>
        <time>2013-10-10T11:58:56.963Z</time>
      </trkpt>
      <trkpt lat="43.40471" lon="6.62494">
        <ele>514.8</ele>
        <time>2013-10-10T11:59:07.968Z</time>
      </trkpt>
      <trkpt lat="43.40471" lon="6.62494">
        <ele>514.8</ele>
        <time>2013-10-10T11:59:08.956Z</time>
      </trkpt>
      <trkpt lat="43.40471" lon="6.62494">
        <ele>514.8</ele>
        <time>2013-10-10T11:59:20.966Z</time>
      </trkpt>
      <trkpt lat="43.4047" lon="6.62493">
        <ele>514.9</ele>
        <time>2013-10-10T11:59:21.948Z</time>
      </trkpt>
      <trkpt lat="43.40466" lon="6.62487">
        <ele>515.2</ele>
        <time>2013-10-10T11:59:23.957Z</time>
      </trkpt>
      <trkpt lat="43.40464" lon="6.62479">
        <ele>514.8</ele>
        <time>2013-10-10T11:59:24.959Z</time>
      </trkpt>
      <trkpt lat="43.40462" lon="6.62469">
        <ele>513.8</ele>
        <time>2013-10-10T11:59:25.957Z</time>
      </trkpt>
      <trkpt lat="43.40459" lon="6.62457">
        <ele>512.5</ele>
        <time>2013-10-10T11:59:26.954Z</time>
      </trkpt>
      <trkpt lat="43.40456" lon="6.62447">
        <ele>511.1</ele>
        <time>2013-10-10T11:59:27.955Z</time>
      </trkpt>
      <trkpt lat="43.40454" lon="6.62437">
        <ele>509.6</ele>
        <time>2013-10-10T11:59:28.953Z</time>
      </trkpt>
      <trkpt lat="43.40452" lon="6.62429">
        <ele>508</ele>
        <time>2013-10-10T11:59:29.956Z</time>
      </trkpt>
      <trkpt lat="43.4045" lon="6.62421">
        <ele>506.3</ele>
        <time>2013-10-10T11:59:30.967Z</time>
      </trkpt>
      <trkpt lat="43.40448" lon="6.62412">
        <ele>504.4</ele>
        <time>2013-10-10T11:59:31.960Z</time>
      </trkpt>
      <trkpt lat="43.40446" lon="6.62404">
        <ele>502.4</ele>
        <time>2013-10-10T11:59:32.955Z</time>
      </trkpt>
      <trkpt lat="43.40444" lon="6.62397">
        <ele>500.3</ele>
        <time>2013-10-10T11:59:33.955Z</time>
      </trkpt>
      <trkpt lat="43.40443" lon="6.62389">
        <ele>498.3</ele>
        <time>2013-10-10T11:59:34.955Z</time>
      </trkpt>
      <trkpt lat="43.40441" lon="6.62382">
        <ele>496.2</ele>
        <time>2013-10-10T11:59:35.955Z</time>
      </trkpt>
      <trkpt lat="43.40438" lon="6.62373">
        <ele>493.9</ele>
        <time>2013-10-10T11:59:36.955Z</time>
      </trkpt>
      <trkpt lat="43.40435" lon="6.62364">
        <ele>491.4</ele>
        <time>2013-10-10T11:59:37.956Z</time>
      </trkpt>
      <trkpt lat="43.40432" lon="6.62357">
        <ele>489.2</ele>
        <time>2013-10-10T11:59:38.955Z</time>
      </trkpt>
      <trkpt lat="43.40429" lon="6.62346">
        <ele>486.7</ele>
        <time>2013-10-10T11:59:41.955Z</time>
      </trkpt>
      <trkpt lat="43.40429" lon="6.62341">
        <ele>484.9</ele>
        <time>2013-10-10T11:59:42.954Z</time>
      </trkpt>
      <trkpt lat="43.40429" lon="6.6233">
        <ele>484.4</ele>
        <time>2013-10-10T11:59:45.955Z</time>
      </trkpt>
      <trkpt lat="43.40427" lon="6.62326">
        <ele>484.2</ele>
        <time>2013-10-10T11:59:46.955Z</time>
      </trkpt>
      <trkpt lat="43.40422" lon="6.6232">
        <ele>481.8</ele>
        <time>2013-10-10T11:59:48.964Z</time>
      </trkpt>
      <trkpt lat="43.4042" lon="6.62317">
        <ele>481.6</ele>
        <time>2013-10-10T11:59:49.954Z</time>
      </trkpt>
      <trkpt lat="43.40415" lon="6.62309">
        <ele>479.2</ele>
        <time>2013-10-10T11:59:51.919Z</time>
      </trkpt>
      <trkpt lat="43.40414" lon="6.62305">
        <ele>479</ele>
        <time>2013-10-10T11:59:53.105Z</time>
      </trkpt>
      <trkpt lat="43.40414" lon="6.62297">
        <ele>478.6</ele>
        <time>2013-10-10T11:59:54.960Z</time>
      </trkpt>
      <trkpt lat="43.40416" lon="6.62291">
        <ele>475.9</ele>
        <time>2013-10-10T11:59:55.957Z</time>
      </trkpt>
      <trkpt lat="43.40417" lon="6.62284">
        <ele>473.7</ele>
        <time>2013-10-10T11:59:56.958Z</time>
      </trkpt>
      <trkpt lat="43.40418" lon="6.62277">
        <ele>471.8</ele>
        <time>2013-10-10T11:59:57.959Z</time>
      </trkpt>
      <trkpt lat="43.40419" lon="6.6227">
        <ele>470</ele>
        <time>2013-10-10T11:59:58.958Z</time>
      </trkpt>
      <trkpt lat="43.40418" lon="6.62262">
        <ele>468.2</ele>
        <time>2013-10-10T11:59:59.955Z</time>
      </trkpt>
      <trkpt lat="43.40415" lon="6.62256">
        <ele>466.5</ele>
        <time>2013-10-10T12:00:00.988Z</time>
      </trkpt>
      <trkpt lat="43.40412" lon="6.6225">
        <ele>466.3</ele>
        <time>2013-10-10T12:00:01.955Z</time>
      </trkpt>
      <trkpt lat="43.40409" lon="6.62239">
        <ele>461.6</ele>
        <time>2013-10-10T12:00:03.955Z</time>
      </trkpt>
      <trkpt lat="43.40406" lon="6.62233">
        <ele>459.3</ele>
        <time>2013-10-10T12:00:04.955Z</time>
      </trkpt>
      <trkpt lat="43.40403" lon="6.62227">
        <ele>456.8</ele>
        <time>2013-10-10T12:00:05.958Z</time>
      </trkpt>
      <trkpt lat="43.40401" lon="6.62222">
        <ele>456.6</ele>
        <time>2013-10-10T12:00:06.955Z</time>
      </trkpt>
      <trkpt lat="43.404" lon="6.62216">
        <ele>454.6</ele>
        <time>2013-10-10T12:00:07.920Z</time>
      </trkpt>
      <trkpt lat="43.40399" lon="6.62207">
        <ele>453.2</ele>
        <time>2013-10-10T12:00:08.955Z</time>
      </trkpt>
      <trkpt lat="43.40399" lon="6.62196">
        <ele>451.3</ele>
        <time>2013-10-10T12:00:09.955Z</time>
      </trkpt>
      <trkpt lat="43.40399" lon="6.62183">
        <ele>449</ele>
        <time>2013-10-10T12:00:10.967Z</time>
      </trkpt>
      <trkpt lat="43.40398" lon="6.6217">
        <ele>447.1</ele>
        <time>2013-10-10T12:00:11.955Z</time>
      </trkpt>
      <trkpt lat="43.40398" lon="6.62156">
        <ele>445.5</ele>
        <time>2013-10-10T12:00:12.960Z</time>
      </trkpt>
      <trkpt lat="43.404" lon="6.62141">
        <ele>444.1</ele>
        <time>2013-10-10T12:00:13.955Z</time>
      </trkpt>
      <trkpt lat="43.40404" lon="6.62128">
        <ele>442.6</ele>
        <time>2013-10-10T12:00:14.971Z</time>
      </trkpt>
      <trkpt lat="43.40411" lon="6.62117">
        <ele>441.4</ele>
        <time>2013-10-10T12:00:15.947Z</time>
      </trkpt>
      <trkpt lat="43.40418" lon="6.62108">
        <ele>440.5</ele>
        <time>2013-10-10T12:00:16.953Z</time>
      </trkpt>
      <trkpt lat="43.40426" lon="6.62098">
        <ele>439.9</ele>
        <time>2013-10-10T12:00:17.953Z</time>
      </trkpt>
      <trkpt lat="43.40434" lon="6.62088">
        <ele>439.4</ele>
        <time>2013-10-10T12:00:18.952Z</time>
      </trkpt>
      <trkpt lat="43.40442" lon="6.62077">
        <ele>439</ele>
        <time>2013-10-10T12:00:19.964Z</time>
      </trkpt>
      <trkpt lat="43.40449" lon="6.62066">
        <ele>438.5</ele>
        <time>2013-10-10T12:00:20.967Z</time>
      </trkpt>
      <trkpt lat="43.40455" lon="6.62055">
        <ele>437.9</ele>
        <time>2013-10-10T12:00:21.953Z</time>
      </trkpt>
      <trkpt lat="43.40459" lon="6.62042">
        <ele>437.2</ele>
        <time>2013-10-10T12:00:22.963Z</time>
      </trkpt>
      <trkpt lat="43.40462" lon="6.62028">
        <ele>436.7</ele>
        <time>2013-10-10T12:00:23.954Z</time>
      </trkpt>
      <trkpt lat="43.40465" lon="6.62014">
        <ele>436.1</ele>
        <time>2013-10-10T12:00:24.919Z</time>
      </trkpt>
      <trkpt lat="43.40466" lon="6.61998">
        <ele>435.6</ele>
        <time>2013-10-10T12:00:25.960Z</time>
      </trkpt>
      <trkpt lat="43.40467" lon="6.61984">
        <ele>435.2</ele>
        <time>2013-10-10T12:00:26.959Z</time>
      </trkpt>
      <trkpt lat="43.40466" lon="6.61968">
        <ele>434.8</ele>
        <time>2013-10-10T12:00:27.956Z</time>
      </trkpt>
      <trkpt lat="43.40465" lon="6.61953">
        <ele>434.4</ele>
        <time>2013-10-10T12:00:28.960Z</time>
      </trkpt>
      <trkpt lat="43.40465" lon="6.61939">
        <ele>433.9</ele>
        <time>2013-10-10T12:00:29.926Z</time>
      </trkpt>
      <trkpt lat="43.40468" lon="6.61928">
        <ele>433.4</ele>
        <time>2013-10-10T12:00:30.966Z</time>
      </trkpt>
      <trkpt lat="43.40473" lon="6.61921">
        <ele>433</ele>
        <time>2013-10-10T12:00:31.950Z</time>
      </trkpt>
      <trkpt lat="43.40479" lon="6.61916">
        <ele>432.6</ele>
        <time>2013-10-10T12:00:32.963Z</time>
      </trkpt>
      <trkpt lat="43.40487" lon="6.61914">
        <ele>432.3</ele>
        <time>2013-10-10T12:00:33.964Z</time>
      </trkpt>
      <trkpt lat="43.40495" lon="6.61912">
        <ele>432.2</ele>
        <time>2013-10-10T12:00:34.934Z</time>
      </trkpt>
      <trkpt lat="43.40504" lon="6.6191">
        <ele>432.2</ele>
        <time>2013-10-10T12:00:35.967Z</time>
      </trkpt>
      <trkpt lat="43.40513" lon="6.61908">
        <ele>432.1</ele>
        <time>2013-10-10T12:00:36.925Z</time>
      </trkpt>
      <trkpt lat="43.40523" lon="6.61905">
        <ele>432.1</ele>
        <time>2013-10-10T12:00:38.156Z</time>
      </trkpt>
      <trkpt lat="43.40529" lon="6.61901">
        <ele>432.2</ele>
        <time>2013-10-10T12:00:38.952Z</time>
      </trkpt>
      <trkpt lat="43.40536" lon="6.61895">
        <ele>432.5</ele>
        <time>2013-10-10T12:00:39.235Z</time>
      </trkpt>
      <trkpt lat="43.40542" lon="6.61887">
        <ele>432.9</ele>
        <time>2013-10-10T12:00:40.154Z</time>
      </trkpt>
      <trkpt lat="43.40548" lon="6.61877">
        <ele>433.1</ele>
        <time>2013-10-10T12:00:41.131Z</time>
      </trkpt>
      <trkpt lat="43.40553" lon="6.61867">
        <ele>433.1</ele>
        <time>2013-10-10T12:00:42.130Z</time>
      </trkpt>
      <trkpt lat="43.40558" lon="6.61856">
        <ele>432.4</ele>
        <time>2013-10-10T12:00:43.168Z</time>
      </trkpt>
      <trkpt lat="43.40563" lon="6.61845">
        <ele>431.7</ele>
        <time>2013-10-10T12:00:44.124Z</time>
      </trkpt>
      <trkpt lat="43.40568" lon="6.61834">
        <ele>431</ele>
        <time>2013-10-10T12:00:45.161Z</time>
      </trkpt>
      <trkpt lat="43.40573" lon="6.61823">
        <ele>430.4</ele>
        <time>2013-10-10T12:00:46.221Z</time>
      </trkpt>
      <trkpt lat="43.40577" lon="6.61813">
        <ele>429.7</ele>
        <time>2013-10-10T12:00:47.161Z</time>
      </trkpt>
      <trkpt lat="43.40583" lon="6.61802">
        <ele>429.2</ele>
        <time>2013-10-10T12:00:48.164Z</time>
      </trkpt>
      <trkpt lat="43.40588" lon="6.61791">
        <ele>428.6</ele>
        <time>2013-10-10T12:00:49.132Z</time>
      </trkpt>
      <trkpt lat="43.40594" lon="6.6178">
        <ele>428.2</ele>
        <time>2013-10-10T12:00:50.178Z</time>
      </trkpt>
      <trkpt lat="43.406" lon="6.6177">
        <ele>427.7</ele>
        <time>2013-10-10T12:00:51.145Z</time>
      </trkpt>
      <trkpt lat="43.40606" lon="6.6176">
        <ele>427.5</ele>
        <time>2013-10-10T12:00:52.166Z</time>
      </trkpt>
      <trkpt lat="43.40613" lon="6.61752">
        <ele>427.4</ele>
        <time>2013-10-10T12:00:53.166Z</time>
      </trkpt>
      <trkpt lat="43.40621" lon="6.61745">
        <ele>427.5</ele>
        <time>2013-10-10T12:00:54.166Z</time>
      </trkpt>
      <trkpt lat="43.40629" lon="6.61738">
        <ele>427.6</ele>
        <time>2013-10-10T12:00:55.163Z</time>
      </trkpt>
      <trkpt lat="43.40637" lon="6.61732">
        <ele>427.5</ele>
        <time>2013-10-10T12:00:56.165Z</time>
      </trkpt>
      <trkpt lat="43.40646" lon="6.61728">
        <ele>427.3</ele>
        <time>2013-10-10T12:00:57.166Z</time>
      </trkpt>
      <trkpt lat="43.40656" lon="6.61724">
        <ele>426.4</ele>
        <time>2013-10-10T12:00:58.164Z</time>
      </trkpt>
      <trkpt lat="43.40665" lon="6.61721">
        <ele>425.8</ele>
        <time>2013-10-10T12:00:59.166Z</time>
      </trkpt>
      <trkpt lat="43.40675" lon="6.61718">
        <ele>425.3</ele>
        <time>2013-10-10T12:01:00.168Z</time>
      </trkpt>
      <trkpt lat="43.40685" lon="6.61715">
        <ele>425.8</ele>
        <time>2013-10-10T12:01:01.164Z</time>
      </trkpt>
      <trkpt lat="43.40693" lon="6.61711">
        <ele>426.3</ele>
        <time>2013-10-10T12:01:02.164Z</time>
      </trkpt>
      <trkpt lat="43.407" lon="6.61706">
        <ele>426.2</ele>
        <time>2013-10-10T12:01:03.163Z</time>
      </trkpt>
      <trkpt lat="43.40708" lon="6.61701">
        <ele>425.9</ele>
        <time>2013-10-10T12:01:04.163Z</time>
      </trkpt>
      <trkpt lat="43.40716" lon="6.61695">
        <ele>425.8</ele>
        <time>2013-10-10T12:01:05.164Z</time>
      </trkpt>
      <trkpt lat="43.40724" lon="6.61689">
        <ele>425.8</ele>
        <time>2013-10-10T12:01:06.183Z</time>
      </trkpt>
      <trkpt lat="43.40732" lon="6.61684">
        <ele>425.7</ele>
        <time>2013-10-10T12:01:07.166Z</time>
      </trkpt>
      <trkpt lat="43.4074" lon="6.61679">
        <ele>425.6</ele>
        <time>2013-10-10T12:01:08.151Z</time>
      </trkpt>
      <trkpt lat="43.40748" lon="6.61675">
        <ele>425.6</ele>
        <time>2013-10-10T12:01:09.116Z</time>
      </trkpt>
      <trkpt lat="43.40757" lon="6.6167">
        <ele>425.5</ele>
        <time>2013-10-10T12:01:10.329Z</time>
      </trkpt>
      <trkpt lat="43.40766" lon="6.61665">
        <ele>425.6</ele>
        <time>2013-10-10T12:01:11.550Z</time>
      </trkpt>
      <trkpt lat="43.40772" lon="6.61662">
        <ele>425.6</ele>
        <time>2013-10-10T12:01:12.205Z</time>
      </trkpt>
      <trkpt lat="43.40781" lon="6.61657">
        <ele>425.5</ele>
        <time>2013-10-10T12:01:13.152Z</time>
      </trkpt>
      <trkpt lat="43.40788" lon="6.61652">
        <ele>425.4</ele>
        <time>2013-10-10T12:01:14.102Z</time>
      </trkpt>
      <trkpt lat="43.40795" lon="6.61647">
        <ele>425.3</ele>
        <time>2013-10-10T12:01:15.098Z</time>
      </trkpt>
      <trkpt lat="43.40802" lon="6.61642">
        <ele>424.6</ele>
        <time>2013-10-10T12:01:16.172Z</time>
      </trkpt>
      <trkpt lat="43.40807" lon="6.61639">
        <ele>423.5</ele>
        <time>2013-10-10T12:01:17.156Z</time>
      </trkpt>
      <trkpt lat="43.40811" lon="6.61638">
        <ele>422.3</ele>
        <time>2013-10-10T12:01:18.185Z</time>
      </trkpt>
      <trkpt lat="43.40816" lon="6.6164">
        <ele>421.3</ele>
        <time>2013-10-10T12:01:19.291Z</time>
      </trkpt>
      <trkpt lat="43.40822" lon="6.61643">
        <ele>420.2</ele>
        <time>2013-10-10T12:01:20.186Z</time>
      </trkpt>
      <trkpt lat="43.4083" lon="6.61646">
        <ele>419.4</ele>
        <time>2013-10-10T12:01:21.300Z</time>
      </trkpt>
      <trkpt lat="43.40838" lon="6.61649">
        <ele>418.2</ele>
        <time>2013-10-10T12:01:22.168Z</time>
      </trkpt>
      <trkpt lat="43.40848" lon="6.61652">
        <ele>417.3</ele>
        <time>2013-10-10T12:01:23.133Z</time>
      </trkpt>
      <trkpt lat="43.40858" lon="6.61655">
        <ele>416.6</ele>
        <time>2013-10-10T12:01:24.173Z</time>
      </trkpt>
      <trkpt lat="43.40869" lon="6.61657">
        <ele>415.8</ele>
        <time>2013-10-10T12:01:25.174Z</time>
      </trkpt>
      <trkpt lat="43.40878" lon="6.6166">
        <ele>414.4</ele>
        <time>2013-10-10T12:01:26.176Z</time>
      </trkpt>
      <trkpt lat="43.40885" lon="6.6166">
        <ele>413.1</ele>
        <time>2013-10-10T12:01:27.160Z</time>
      </trkpt>
      <trkpt lat="43.40893" lon="6.61659">
        <ele>411.6</ele>
        <time>2013-10-10T12:01:28.129Z</time>
      </trkpt>
      <trkpt lat="43.409" lon="6.61655">
        <ele>410</ele>
        <time>2013-10-10T12:01:29.164Z</time>
      </trkpt>
      <trkpt lat="43.40909" lon="6.61652">
        <ele>408.3</ele>
        <time>2013-10-10T12:01:30.178Z</time>
      </trkpt>
      <trkpt lat="43.40917" lon="6.61649">
        <ele>406.8</ele>
        <time>2013-10-10T12:01:31.164Z</time>
      </trkpt>
      <trkpt lat="43.40925" lon="6.61646">
        <ele>405.3</ele>
        <time>2013-10-10T12:01:32.168Z</time>
      </trkpt>
      <trkpt lat="43.40933" lon="6.61643">
        <ele>403.8</ele>
        <time>2013-10-10T12:01:33.120Z</time>
      </trkpt>
      <trkpt lat="43.40942" lon="6.61642">
        <ele>402.2</ele>
        <time>2013-10-10T12:01:34.159Z</time>
      </trkpt>
      <trkpt lat="43.4095" lon="6.61639">
        <ele>400.6</ele>
        <time>2013-10-10T12:01:35.164Z</time>
      </trkpt>
      <trkpt lat="43.40958" lon="6.61636">
        <ele>399</ele>
        <time>2013-10-10T12:01:36.163Z</time>
      </trkpt>
      <trkpt lat="43.40967" lon="6.61632">
        <ele>397.4</ele>
        <time>2013-10-10T12:01:37.160Z</time>
      </trkpt>
      <trkpt lat="43.40976" lon="6.61628">
        <ele>395.9</ele>
        <time>2013-10-10T12:01:38.168Z</time>
      </trkpt>
      <trkpt lat="43.40984" lon="6.61627">
        <ele>394.4</ele>
        <time>2013-10-10T12:01:39.130Z</time>
      </trkpt>
      <trkpt lat="43.40992" lon="6.61626">
        <ele>393.1</ele>
        <time>2013-10-10T12:01:40.173Z</time>
      </trkpt>
      <trkpt lat="43.41001" lon="6.61628">
        <ele>391.8</ele>
        <time>2013-10-10T12:01:41.517Z</time>
      </trkpt>
      <trkpt lat="43.41007" lon="6.61631">
        <ele>390.5</ele>
        <time>2013-10-10T12:01:42.130Z</time>
      </trkpt>
      <trkpt lat="43.41014" lon="6.61636">
        <ele>389.1</ele>
        <time>2013-10-10T12:01:43.180Z</time>
      </trkpt>
      <trkpt lat="43.4102" lon="6.61643">
        <ele>387.3</ele>
        <time>2013-10-10T12:01:44.164Z</time>
      </trkpt>
      <trkpt lat="43.41026" lon="6.61649">
        <ele>386.1</ele>
        <time>2013-10-10T12:01:45.165Z</time>
      </trkpt>
      <trkpt lat="43.41032" lon="6.61655">
        <ele>385.1</ele>
        <time>2013-10-10T12:01:46.911Z</time>
      </trkpt>
      <trkpt lat="43.41038" lon="6.61659">
        <ele>383.8</ele>
        <time>2013-10-10T12:01:47.872Z</time>
      </trkpt>
      <trkpt lat="43.41045" lon="6.61664">
        <ele>382</ele>
        <time>2013-10-10T12:01:48.993Z</time>
      </trkpt>
      <trkpt lat="43.41053" lon="6.61669">
        <ele>380.2</ele>
        <time>2013-10-10T12:01:49.854Z</time>
      </trkpt>
      <trkpt lat="43.4106" lon="6.61677">
        <ele>378.5</ele>
        <time>2013-10-10T12:01:50.841Z</time>
      </trkpt>
      <trkpt lat="43.41067" lon="6.61685">
        <ele>376.8</ele>
        <time>2013-10-10T12:01:51.842Z</time>
      </trkpt>
      <trkpt lat="43.41074" lon="6.61694">
        <ele>375.3</ele>
        <time>2013-10-10T12:01:52.866Z</time>
      </trkpt>
      <trkpt lat="43.41079" lon="6.61701">
        <ele>373.7</ele>
        <time>2013-10-10T12:01:53.858Z</time>
      </trkpt>
      <trkpt lat="43.41083" lon="6.61707">
        <ele>372.2</ele>
        <time>2013-10-10T12:01:54.852Z</time>
      </trkpt>
      <trkpt lat="43.41088" lon="6.61711">
        <ele>370.6</ele>
        <time>2013-10-10T12:01:55.871Z</time>
      </trkpt>
      <trkpt lat="43.41092" lon="6.61713">
        <ele>369.1</ele>
        <time>2013-10-10T12:01:56.953Z</time>
      </trkpt>
      <trkpt lat="43.41097" lon="6.61713">
        <ele>367.7</ele>
        <time>2013-10-10T12:01:57.871Z</time>
      </trkpt>
      <trkpt lat="43.41104" lon="6.61712">
        <ele>366.6</ele>
        <time>2013-10-10T12:01:58.860Z</time>
      </trkpt>
      <trkpt lat="43.4111" lon="6.61711">
        <ele>365.3</ele>
        <time>2013-10-10T12:01:59.895Z</time>
      </trkpt>
      <trkpt lat="43.41118" lon="6.61712">
        <ele>363.2</ele>
        <time>2013-10-10T12:02:01.894Z</time>
      </trkpt>
      <trkpt lat="43.4112" lon="6.61716">
        <ele>361.4</ele>
        <time>2013-10-10T12:02:02.891Z</time>
      </trkpt>
      <trkpt lat="43.41124" lon="6.61722">
        <ele>359.4</ele>
        <time>2013-10-10T12:02:03.894Z</time>
      </trkpt>
      <trkpt lat="43.41128" lon="6.6173">
        <ele>357.4</ele>
        <time>2013-10-10T12:02:04.896Z</time>
      </trkpt>
      <trkpt lat="43.41132" lon="6.61738">
        <ele>355.6</ele>
        <time>2013-10-10T12:02:05.887Z</time>
      </trkpt>
      <trkpt lat="43.41136" lon="6.61745">
        <ele>353.8</ele>
        <time>2013-10-10T12:02:06.894Z</time>
      </trkpt>
      <trkpt lat="43.4114" lon="6.6175">
        <ele>352</ele>
        <time>2013-10-10T12:02:07.889Z</time>
      </trkpt>
      <trkpt lat="43.41143" lon="6.61757">
        <ele>350</ele>
        <time>2013-10-10T12:02:08.885Z</time>
      </trkpt>
      <trkpt lat="43.41145" lon="6.61763">
        <ele>347.7</ele>
        <time>2013-10-10T12:02:09.887Z</time>
      </trkpt>
      <trkpt lat="43.41147" lon="6.6177">
        <ele>345.2</ele>
        <time>2013-10-10T12:02:10.936Z</time>
      </trkpt>
      <trkpt lat="43.41148" lon="6.61777">
        <ele>342.6</ele>
        <time>2013-10-10T12:02:11.886Z</time>
      </trkpt>
      <trkpt lat="43.4115" lon="6.61786">
        <ele>340</ele>
        <time>2013-10-10T12:02:12.886Z</time>
      </trkpt>
      <trkpt lat="43.41152" lon="6.61796">
        <ele>337.5</ele>
        <time>2013-10-10T12:02:13.886Z</time>
      </trkpt>
      <trkpt lat="43.41155" lon="6.61805">
        <ele>335.2</ele>
        <time>2013-10-10T12:02:14.887Z</time>
      </trkpt>
      <trkpt lat="43.41159" lon="6.61813">
        <ele>333.2</ele>
        <time>2013-10-10T12:02:15.893Z</time>
      </trkpt>
      <trkpt lat="43.41163" lon="6.6182">
        <ele>331.2</ele>
        <time>2013-10-10T12:02:16.896Z</time>
      </trkpt>
      <trkpt lat="43.41167" lon="6.61825">
        <ele>329.4</ele>
        <time>2013-10-10T12:02:17.898Z</time>
      </trkpt>
      <trkpt lat="43.41172" lon="6.61829">
        <ele>327.6</ele>
        <time>2013-10-10T12:02:18.896Z</time>
      </trkpt>
      <trkpt lat="43.41177" lon="6.61831">
        <ele>325.8</ele>
        <time>2013-10-10T12:02:19.899Z</time>
      </trkpt>
      <trkpt lat="43.41183" lon="6.61832">
        <ele>323.7</ele>
        <time>2013-10-10T12:02:20.872Z</time>
      </trkpt>
      <trkpt lat="43.41189" lon="6.61833">
        <ele>322</ele>
        <time>2013-10-10T12:02:21.902Z</time>
      </trkpt>
      <trkpt lat="43.41195" lon="6.61833">
        <ele>320.2</ele>
        <time>2013-10-10T12:02:22.894Z</time>
      </trkpt>
      <trkpt lat="43.41201" lon="6.61835">
        <ele>318.2</ele>
        <time>2013-10-10T12:02:23.871Z</time>
      </trkpt>
      <trkpt lat="43.41207" lon="6.61839">
        <ele>316.1</ele>
        <time>2013-10-10T12:02:24.869Z</time>
      </trkpt>
      <trkpt lat="43.41214" lon="6.61845">
        <ele>313.5</ele>
        <time>2013-10-10T12:02:25.867Z</time>
      </trkpt>
      <trkpt lat="43.41222" lon="6.61851">
        <ele>310.9</ele>
        <time>2013-10-10T12:02:26.866Z</time>
      </trkpt>
      <trkpt lat="43.41231" lon="6.61856">
        <ele>308.4</ele>
        <time>2013-10-10T12:02:27.869Z</time>
      </trkpt>
      <trkpt lat="43.4124" lon="6.61861">
        <ele>306.5</ele>
        <time>2013-10-10T12:02:28.908Z</time>
      </trkpt>
      <trkpt lat="43.41249" lon="6.61864">
        <ele>304.6</ele>
        <time>2013-10-10T12:02:29.851Z</time>
      </trkpt>
      <trkpt lat="43.41259" lon="6.61867">
        <ele>302.7</ele>
        <time>2013-10-10T12:02:30.905Z</time>
      </trkpt>
      <trkpt lat="43.41267" lon="6.61869">
        <ele>300.7</ele>
        <time>2013-10-10T12:02:31.891Z</time>
      </trkpt>
      <trkpt lat="43.41274" lon="6.61867">
        <ele>299.2</ele>
        <time>2013-10-10T12:02:32.868Z</time>
      </trkpt>
      <trkpt lat="43.41279" lon="6.61862">
        <ele>298</ele>
        <time>2013-10-10T12:02:33.867Z</time>
      </trkpt>
      <trkpt lat="43.41285" lon="6.61854">
        <ele>296.7</ele>
        <time>2013-10-10T12:02:34.866Z</time>
      </trkpt>
      <trkpt lat="43.41291" lon="6.61845">
        <ele>295.7</ele>
        <time>2013-10-10T12:02:35.890Z</time>
      </trkpt>
      <trkpt lat="43.41298" lon="6.61838">
        <ele>294.9</ele>
        <time>2013-10-10T12:02:36.865Z</time>
      </trkpt>
      <trkpt lat="43.41306" lon="6.61832">
        <ele>293.8</ele>
        <time>2013-10-10T12:02:37.862Z</time>
      </trkpt>
      <trkpt lat="43.41313" lon="6.61829">
        <ele>292.8</ele>
        <time>2013-10-10T12:02:38.864Z</time>
      </trkpt>
      <trkpt lat="43.41318" lon="6.61827">
        <ele>292.7</ele>
        <time>2013-10-10T12:02:39.861Z</time>
      </trkpt>
      <trkpt lat="43.41319" lon="6.6182">
        <ele>291.4</ele>
        <time>2013-10-10T12:02:42.844Z</time>
      </trkpt>
      <trkpt lat="43.41314" lon="6.61815">
        <ele>290.1</ele>
        <time>2013-10-10T12:02:43.899Z</time>
      </trkpt>
      <trkpt lat="43.41307" lon="6.6181">
        <ele>288.5</ele>
        <time>2013-10-10T12:02:44.865Z</time>
      </trkpt>
      <trkpt lat="43.41301" lon="6.61804">
        <ele>287.4</ele>
        <time>2013-10-10T12:02:45.825Z</time>
      </trkpt>
      <trkpt lat="43.41293" lon="6.61797">
        <ele>286.5</ele>
        <time>2013-10-10T12:02:46.833Z</time>
      </trkpt>
      <trkpt lat="43.41285" lon="6.61792">
        <ele>286</ele>
        <time>2013-10-10T12:02:47.824Z</time>
      </trkpt>
      <trkpt lat="43.41277" lon="6.61788">
        <ele>285.4</ele>
        <time>2013-10-10T12:02:49.011Z</time>
      </trkpt>
      <trkpt lat="43.41272" lon="6.61785">
        <ele>284.9</ele>
        <time>2013-10-10T12:02:49.822Z</time>
      </trkpt>
      <trkpt lat="43.41268" lon="6.6178">
        <ele>284.1</ele>
        <time>2013-10-10T12:02:50.833Z</time>
      </trkpt>
      <trkpt lat="43.41269" lon="6.6177">
        <ele>282.8</ele>
        <time>2013-10-10T12:02:52.838Z</time>
      </trkpt>
      <trkpt lat="43.41273" lon="6.61765">
        <ele>281.6</ele>
        <time>2013-10-10T12:02:53.869Z</time>
      </trkpt>
      <trkpt lat="43.41279" lon="6.6176">
        <ele>280.2</ele>
        <time>2013-10-10T12:02:54.848Z</time>
      </trkpt>
      <trkpt lat="43.41286" lon="6.61754">
        <ele>278.8</ele>
        <time>2013-10-10T12:02:55.846Z</time>
      </trkpt>
      <trkpt lat="43.41295" lon="6.61747">
        <ele>277.1</ele>
        <time>2013-10-10T12:02:56.846Z</time>
      </trkpt>
      <trkpt lat="43.41305" lon="6.6174">
        <ele>275.3</ele>
        <time>2013-10-10T12:02:57.848Z</time>
      </trkpt>
      <trkpt lat="43.41315" lon="6.6173">
        <ele>273.3</ele>
        <time>2013-10-10T12:02:58.847Z</time>
      </trkpt>
      <trkpt lat="43.41325" lon="6.61721">
        <ele>271.3</ele>
        <time>2013-10-10T12:02:59.847Z</time>
      </trkpt>
      <trkpt lat="43.41332" lon="6.61711">
        <ele>269.4</ele>
        <time>2013-10-10T12:03:00.827Z</time>
      </trkpt>
      <trkpt lat="43.41337" lon="6.61703">
        <ele>267.6</ele>
        <time>2013-10-10T12:03:01.874Z</time>
      </trkpt>
      <trkpt lat="43.41343" lon="6.61697">
        <ele>265.6</ele>
        <time>2013-10-10T12:03:02.874Z</time>
      </trkpt>
      <trkpt lat="43.41347" lon="6.61693">
        <ele>263.6</ele>
        <time>2013-10-10T12:03:03.876Z</time>
      </trkpt>
      <trkpt lat="43.41351" lon="6.61689">
        <ele>261.9</ele>
        <time>2013-10-10T12:03:04.880Z</time>
      </trkpt>
      <trkpt lat="43.41355" lon="6.6168">
        <ele>260.1</ele>
        <time>2013-10-10T12:03:06.856Z</time>
      </trkpt>
      <trkpt lat="43.41356" lon="6.61678">
        <ele>260</ele>
        <time>2013-10-10T12:03:07.892Z</time>
      </trkpt>
      <trkpt lat="43.41358" lon="6.61676">
        <ele>259.5</ele>
        <time>2013-10-10T12:03:12.875Z</time>
      </trkpt>
      <trkpt lat="43.41358" lon="6.61676">
        <ele>259.5</ele>
        <time>2013-10-10T12:03:13.873Z</time>
      </trkpt>
      <trkpt lat="43.41358" lon="6.61677">
        <ele>258.6</ele>
        <time>2013-10-10T12:03:45.873Z</time>
      </trkpt>
      <trkpt lat="43.41361" lon="6.61675">
        <ele>258.5</ele>
        <time>2013-10-10T12:03:46.847Z</time>
      </trkpt>
      <trkpt lat="43.41369" lon="6.61671">
        <ele>258.2</ele>
        <time>2013-10-10T12:03:50.883Z</time>
      </trkpt>
      <trkpt lat="43.4137" lon="6.61671">
        <ele>258.2</ele>
        <time>2013-10-10T12:03:51.854Z</time>
      </trkpt>
      <trkpt lat="43.41376" lon="6.61662">
        <ele>258</ele>
        <time>2013-10-10T12:03:58.849Z</time>
      </trkpt>
      <trkpt lat="43.41377" lon="6.61661">
        <ele>258</ele>
        <time>2013-10-10T12:03:59.848Z</time>
      </trkpt>
      <trkpt lat="43.41384" lon="6.61654">
        <ele>257.6</ele>
        <time>2013-10-10T12:04:08.852Z</time>
      </trkpt>
      <trkpt lat="43.41385" lon="6.61653">
        <ele>257.6</ele>
        <time>2013-10-10T12:04:09.850Z</time>
      </trkpt>
      <trkpt lat="43.41391" lon="6.61645">
        <ele>257.7</ele>
        <time>2013-10-10T12:04:17.850Z</time>
      </trkpt>
      <trkpt lat="43.41392" lon="6.61644">
        <ele>257.7</ele>
        <time>2013-10-10T12:04:18.850Z</time>
      </trkpt>
      <trkpt lat="43.41396" lon="6.61634">
        <ele>258.7</ele>
        <time>2013-10-10T12:04:27.848Z</time>
      </trkpt>
      <trkpt lat="43.41397" lon="6.61632">
        <ele>258.9</ele>
        <time>2013-10-10T12:04:28.848Z</time>
      </trkpt>
      <trkpt lat="43.414" lon="6.6162">
        <ele>259.8</ele>
        <time>2013-10-10T12:04:36.850Z</time>
      </trkpt>
      <trkpt lat="43.41401" lon="6.61619">
        <ele>259.9</ele>
        <time>2013-10-10T12:04:37.849Z</time>
      </trkpt>
      <trkpt lat="43.41406" lon="6.6161">
        <ele>260.7</ele>
        <time>2013-10-10T12:04:45.850Z</time>
      </trkpt>
      <trkpt lat="43.41407" lon="6.61609">
        <ele>260.8</ele>
        <time>2013-10-10T12:04:46.850Z</time>
      </trkpt>
      <trkpt lat="43.41413" lon="6.61604">
        <ele>261.1</ele>
        <time>2013-10-10T12:04:50.859Z</time>
      </trkpt>
      <trkpt lat="43.41415" lon="6.61603">
        <ele>261.1</ele>
        <time>2013-10-10T12:04:51.852Z</time>
      </trkpt>
      <trkpt lat="43.4142" lon="6.61599">
        <ele>261.1</ele>
        <time>2013-10-10T12:04:53.864Z</time>
      </trkpt>
      <trkpt lat="43.41423" lon="6.61597">
        <ele>261</ele>
        <time>2013-10-10T12:04:54.864Z</time>
      </trkpt>
      <trkpt lat="43.41431" lon="6.61591">
        <ele>261</ele>
        <time>2013-10-10T12:04:58.849Z</time>
      </trkpt>
      <trkpt lat="43.41432" lon="6.6159">
        <ele>261.1</ele>
        <time>2013-10-10T12:04:59.849Z</time>
      </trkpt>
      <trkpt lat="43.4144" lon="6.61588">
        <ele>261.8</ele>
        <time>2013-10-10T12:05:05.870Z</time>
      </trkpt>
      <trkpt lat="43.41441" lon="6.61588">
        <ele>261.9</ele>
        <time>2013-10-10T12:05:06.876Z</time>
      </trkpt>
      <trkpt lat="43.4145" lon="6.61587">
        <ele>262.3</ele>
        <time>2013-10-10T12:05:12.872Z</time>
      </trkpt>
      <trkpt lat="43.41451" lon="6.61587">
        <ele>262.4</ele>
        <time>2013-10-10T12:05:13.863Z</time>
      </trkpt>
      <trkpt lat="43.4146" lon="6.61586">
        <ele>262.5</ele>
        <time>2013-10-10T12:05:20.860Z</time>
      </trkpt>
      <trkpt lat="43.41461" lon="6.61585">
        <ele>262.5</ele>
        <time>2013-10-10T12:05:21.869Z</time>
      </trkpt>
      <trkpt lat="43.41466" lon="6.6158">
        <ele>262.9</ele>
        <time>2013-10-10T12:05:28.862Z</time>
      </trkpt>
      <trkpt lat="43.41465" lon="6.6158">
        <ele>262.9</ele>
        <time>2013-10-10T12:05:29.864Z</time>
      </trkpt>
      <trkpt lat="43.41465" lon="6.6158">
        <ele>263</ele>
        <time>2013-10-10T12:05:30.883Z</time>
      </trkpt>
      <trkpt lat="43.41467" lon="6.61577">
        <ele>263.1</ele>
        <time>2013-10-10T12:05:31.882Z</time>
      </trkpt>
      <trkpt lat="43.41473" lon="6.61568">
        <ele>264.1</ele>
        <time>2013-10-10T12:05:38.868Z</time>
      </trkpt>
      <trkpt lat="43.41473" lon="6.61567">
        <ele>264.3</ele>
        <time>2013-10-10T12:05:39.868Z</time>
      </trkpt>
      <trkpt lat="43.41474" lon="6.61566">
        <ele>265</ele>
        <time>2013-10-10T12:05:43.864Z</time>
      </trkpt>
      <trkpt lat="43.41474" lon="6.61566">
        <ele>265.2</ele>
        <time>2013-10-10T12:05:44.850Z</time>
      </trkpt>
      <trkpt lat="43.41474" lon="6.61566">
        <ele>265.4</ele>
        <time>2013-10-10T12:05:46.870Z</time>
      </trkpt>
      <trkpt lat="43.41477" lon="6.61564">
        <ele>265.5</ele>
        <time>2013-10-10T12:05:47.867Z</time>
      </trkpt>
      <trkpt lat="43.41485" lon="6.61564">
        <ele>266.2</ele>
        <time>2013-10-10T12:05:53.873Z</time>
      </trkpt>
      <trkpt lat="43.41486" lon="6.61564">
        <ele>266.3</ele>
        <time>2013-10-10T12:05:54.866Z</time>
      </trkpt>
      <trkpt lat="43.41495" lon="6.61567">
        <ele>267.3</ele>
        <time>2013-10-10T12:06:04.870Z</time>
      </trkpt>
      <trkpt lat="43.41495" lon="6.61567">
        <ele>267.4</ele>
        <time>2013-10-10T12:06:05.945Z</time>
      </trkpt>
      <trkpt lat="43.41499" lon="6.61567">
        <ele>268.2</ele>
        <time>2013-10-10T12:06:12.868Z</time>
      </trkpt>
      <trkpt lat="43.41499" lon="6.61567">
        <ele>268.3</ele>
        <time>2013-10-10T12:06:13.868Z</time>
      </trkpt>
      <trkpt lat="43.41499" lon="6.61567">
        <ele>268.8</ele>
        <time>2013-10-10T12:06:17.869Z</time>
      </trkpt>
      <trkpt lat="43.41502" lon="6.61567">
        <ele>268.9</ele>
        <time>2013-10-10T12:06:18.868Z</time>
      </trkpt>
      <trkpt lat="43.41511" lon="6.61566">
        <ele>269.6</ele>
        <time>2013-10-10T12:06:24.843Z</time>
      </trkpt>
      <trkpt lat="43.41512" lon="6.61565">
        <ele>269.6</ele>
        <time>2013-10-10T12:06:25.841Z</time>
      </trkpt>
      <trkpt lat="43.41512" lon="6.61565">
        <ele>269.7</ele>
        <time>2013-10-10T12:06:27.843Z</time>
      </trkpt>
      <trkpt lat="43.41511" lon="6.61565">
        <ele>269.8</ele>
        <time>2013-10-10T12:06:28.851Z</time>
      </trkpt>
      <trkpt lat="43.41511" lon="6.61565">
        <ele>269.9</ele>
        <time>2013-10-10T12:06:30.869Z</time>
      </trkpt>
      <trkpt lat="43.41514" lon="6.61566">
        <ele>270</ele>
        <time>2013-10-10T12:06:31.855Z</time>
      </trkpt>
      <trkpt lat="43.41519" lon="6.61568">
        <ele>270.3</ele>
        <time>2013-10-10T12:06:36.854Z</time>
      </trkpt>
      <trkpt lat="43.41518" lon="6.61568">
        <ele>270.4</ele>
        <time>2013-10-10T12:06:37.856Z</time>
      </trkpt>
      <trkpt lat="43.41518" lon="6.61568">
        <ele>271.4</ele>
        <time>2013-10-10T12:06:44.850Z</time>
      </trkpt>
      <trkpt lat="43.41521" lon="6.61569">
        <ele>271.6</ele>
        <time>2013-10-10T12:06:45.852Z</time>
      </trkpt>
      <trkpt lat="43.41525" lon="6.61569">
        <ele>272.1</ele>
        <time>2013-10-10T12:06:50.880Z</time>
      </trkpt>
      <trkpt lat="43.41524" lon="6.61569">
        <ele>272.2</ele>
        <time>2013-10-10T12:06:51.870Z</time>
      </trkpt>
      <trkpt lat="43.41524" lon="6.61569">
        <ele>272.4</ele>
        <time>2013-10-10T12:06:55.869Z</time>
      </trkpt>
      <trkpt lat="43.41527" lon="6.61568">
        <ele>272.5</ele>
        <time>2013-10-10T12:06:56.869Z</time>
      </trkpt>
      <trkpt lat="43.4153" lon="6.61568">
        <ele>273</ele>
        <time>2013-10-10T12:07:01.867Z</time>
      </trkpt>
      <trkpt lat="43.4153" lon="6.61568">
        <ele>273.1</ele>
        <time>2013-10-10T12:07:02.868Z</time>
      </trkpt>
      <trkpt lat="43.4153" lon="6.61568">
        <ele>273.5</ele>
        <time>2013-10-10T12:07:06.868Z</time>
      </trkpt>
      <trkpt lat="43.41532" lon="6.61566">
        <ele>273.5</ele>
        <time>2013-10-10T12:07:07.870Z</time>
      </trkpt>
      <trkpt lat="43.41535" lon="6.61564">
        <ele>273.9</ele>
        <time>2013-10-10T12:07:12.868Z</time>
      </trkpt>
      <trkpt lat="43.41535" lon="6.61564">
        <ele>274</ele>
        <time>2013-10-10T12:07:13.871Z</time>
      </trkpt>
      <trkpt lat="43.41535" lon="6.61564">
        <ele>275.5</ele>
        <time>2013-10-10T12:07:27.865Z</time>
      </trkpt>
      <trkpt lat="43.41538" lon="6.61563">
        <ele>275.6</ele>
        <time>2013-10-10T12:07:28.852Z</time>
      </trkpt>
      <trkpt lat="43.41541" lon="6.61562">
        <ele>276.2</ele>
        <time>2013-10-10T12:07:33.858Z</time>
      </trkpt>
      <trkpt lat="43.41541" lon="6.61562">
        <ele>276.4</ele>
        <time>2013-10-10T12:07:34.858Z</time>
      </trkpt>
      <trkpt lat="43.4154" lon="6.61562">
        <ele>276.8</ele>
        <time>2013-10-10T12:07:37.847Z</time>
      </trkpt>
      <trkpt lat="43.41544" lon="6.61562">
        <ele>277</ele>
        <time>2013-10-10T12:07:38.847Z</time>
      </trkpt>
      <trkpt lat="43.41548" lon="6.61563">
        <ele>277.6</ele>
        <time>2013-10-10T12:07:43.849Z</time>
      </trkpt>
      <trkpt lat="43.41548" lon="6.61563">
        <ele>277.7</ele>
        <time>2013-10-10T12:07:44.847Z</time>
      </trkpt>
      <trkpt lat="43.41547" lon="6.61563">
        <ele>277.8</ele>
        <time>2013-10-10T12:07:45.850Z</time>
      </trkpt>
      <trkpt lat="43.41551" lon="6.61563">
        <ele>277.8</ele>
        <time>2013-10-10T12:07:46.851Z</time>
      </trkpt>
      <trkpt lat="43.41554" lon="6.61563">
        <ele>278.3</ele>
        <time>2013-10-10T12:07:51.905Z</time>
      </trkpt>
      <trkpt lat="43.41554" lon="6.61563">
        <ele>278.4</ele>
        <time>2013-10-10T12:07:52.849Z</time>
      </trkpt>
      <trkpt lat="43.41554" lon="6.61563">
        <ele>278.8</ele>
        <time>2013-10-10T12:07:56.851Z</time>
      </trkpt>
      <trkpt lat="43.41557" lon="6.61564">
        <ele>278.9</ele>
        <time>2013-10-10T12:07:57.848Z</time>
      </trkpt>
      <trkpt lat="43.41566" lon="6.61566">
        <ele>279.9</ele>
        <time>2013-10-10T12:08:03.856Z</time>
      </trkpt>
      <trkpt lat="43.41566" lon="6.61567">
        <ele>280.2</ele>
        <time>2013-10-10T12:08:04.852Z</time>
      </trkpt>
      <trkpt lat="43.41574" lon="6.61572">
        <ele>281.7</ele>
        <time>2013-10-10T12:08:13.856Z</time>
      </trkpt>
      <trkpt lat="43.41575" lon="6.61573">
        <ele>281.8</ele>
        <time>2013-10-10T12:08:14.856Z</time>
      </trkpt>
      <trkpt lat="43.41583" lon="6.61575">
        <ele>282.6</ele>
        <time>2013-10-10T12:08:21.857Z</time>
      </trkpt>
      <trkpt lat="43.41584" lon="6.61576">
        <ele>282.7</ele>
        <time>2013-10-10T12:08:22.855Z</time>
      </trkpt>
      <trkpt lat="43.41592" lon="6.6158">
        <ele>283.6</ele>
        <time>2013-10-10T12:08:29.858Z</time>
      </trkpt>
      <trkpt lat="43.41593" lon="6.61581">
        <ele>283.8</ele>
        <time>2013-10-10T12:08:30.806Z</time>
      </trkpt>
      <trkpt lat="43.41599" lon="6.61589">
        <ele>285.2</ele>
        <time>2013-10-10T12:08:38.857Z</time>
      </trkpt>
      <trkpt lat="43.416" lon="6.6159">
        <ele>285.4</ele>
        <time>2013-10-10T12:08:39.857Z</time>
      </trkpt>
      <trkpt lat="43.41606" lon="6.61599">
        <ele>286.8</ele>
        <time>2013-10-10T12:08:48.906Z</time>
      </trkpt>
      <trkpt lat="43.41607" lon="6.61599">
        <ele>287</ele>
        <time>2013-10-10T12:08:49.857Z</time>
      </trkpt>
      <trkpt lat="43.41615" lon="6.61598">
        <ele>288.8</ele>
        <time>2013-10-10T12:08:58.714Z</time>
      </trkpt>
      <trkpt lat="43.41616" lon="6.61597">
        <ele>289</ele>
        <time>2013-10-10T12:08:59.709Z</time>
      </trkpt>
      <trkpt lat="43.41624" lon="6.61594">
        <ele>291</ele>
        <time>2013-10-10T12:09:08.455Z</time>
      </trkpt>
      <trkpt lat="43.41625" lon="6.61594">
        <ele>291.2</ele>
        <time>2013-10-10T12:09:09.533Z</time>
      </trkpt>
      <trkpt lat="43.41626" lon="6.61596">
        <ele>291.4</ele>
        <time>2013-10-10T12:09:14.506Z</time>
      </trkpt>
      <trkpt lat="43.41626" lon="6.61596">
        <ele>291.5</ele>
        <time>2013-10-10T12:09:15.507Z</time>
      </trkpt>
      <trkpt lat="43.41626" lon="6.61596">
        <ele>291.6</ele>
        <time>2013-10-10T12:09:16.503Z</time>
      </trkpt>
      <trkpt lat="43.41627" lon="6.61596">
        <ele>291.8</ele>
        <time>2013-10-10T12:09:17.503Z</time>
      </trkpt>
      <trkpt lat="43.4163" lon="6.61594">
        <ele>292.4</ele>
        <time>2013-10-10T12:09:23.518Z</time>
      </trkpt>
      <trkpt lat="43.4163" lon="6.61594">
        <ele>292.4</ele>
        <time>2013-10-10T12:09:24.508Z</time>
      </trkpt>
      <trkpt lat="43.4163" lon="6.61594">
        <ele>292.9</ele>
        <time>2013-10-10T12:09:28.502Z</time>
      </trkpt>
      <trkpt lat="43.41631" lon="6.61594">
        <ele>293.1</ele>
        <time>2013-10-10T12:09:29.502Z</time>
      </trkpt>
      <trkpt lat="43.41639" lon="6.61596">
        <ele>295.1</ele>
        <time>2013-10-10T12:09:45.510Z</time>
      </trkpt>
      <trkpt lat="43.4164" lon="6.61596">
        <ele>295.1</ele>
        <time>2013-10-10T12:09:46.505Z</time>
      </trkpt>
      <trkpt lat="43.41648" lon="6.61598">
        <ele>295.7</ele>
        <time>2013-10-10T12:09:56.505Z</time>
      </trkpt>
      <trkpt lat="43.41649" lon="6.61598">
        <ele>295.8</ele>
        <time>2013-10-10T12:09:57.504Z</time>
      </trkpt>
      <trkpt lat="43.41657" lon="6.61601">
        <ele>296.4</ele>
        <time>2013-10-10T12:10:08.574Z</time>
      </trkpt>
      <trkpt lat="43.41658" lon="6.61601">
        <ele>296.5</ele>
        <time>2013-10-10T12:10:09.573Z</time>
      </trkpt>
      <trkpt lat="43.41666" lon="6.61603">
        <ele>297.5</ele>
        <time>2013-10-10T12:10:19.577Z</time>
      </trkpt>
      <trkpt lat="43.41667" lon="6.61603">
        <ele>297.6</ele>
        <time>2013-10-10T12:10:20.585Z</time>
      </trkpt>
      <trkpt lat="43.41675" lon="6.61605">
        <ele>298.8</ele>
        <time>2013-10-10T12:10:30.587Z</time>
      </trkpt>
      <trkpt lat="43.41676" lon="6.61605">
        <ele>299</ele>
        <time>2013-10-10T12:10:31.584Z</time>
      </trkpt>
      <trkpt lat="43.41685" lon="6.61604">
        <ele>300</ele>
        <time>2013-10-10T12:10:40.529Z</time>
      </trkpt>
      <trkpt lat="43.41685" lon="6.61603">
        <ele>300.1</ele>
        <time>2013-10-10T12:10:41.515Z</time>
      </trkpt>
      <trkpt lat="43.41689" lon="6.61593">
        <ele>301.1</ele>
        <time>2013-10-10T12:10:49.512Z</time>
      </trkpt>
      <trkpt lat="43.41689" lon="6.61591">
        <ele>301.3</ele>
        <time>2013-10-10T12:10:50.526Z</time>
      </trkpt>
      <trkpt lat="43.41692" lon="6.61579">
        <ele>302.1</ele>
        <time>2013-10-10T12:10:57.514Z</time>
      </trkpt>
      <trkpt lat="43.41693" lon="6.61578">
        <ele>302.3</ele>
        <time>2013-10-10T12:10:58.511Z</time>
      </trkpt>
      <trkpt lat="43.41697" lon="6.61568">
        <ele>303.2</ele>
        <time>2013-10-10T12:11:06.657Z</time>
      </trkpt>
      <trkpt lat="43.41698" lon="6.61567">
        <ele>303.3</ele>
        <time>2013-10-10T12:11:07.869Z</time>
      </trkpt>
      <trkpt lat="43.41702" lon="6.61556">
        <ele>304.4</ele>
        <time>2013-10-10T12:11:16.676Z</time>
      </trkpt>
      <trkpt lat="43.41702" lon="6.61554">
        <ele>304.6</ele>
        <time>2013-10-10T12:11:17.677Z</time>
      </trkpt>
      <trkpt lat="43.41704" lon="6.61543">
        <ele>305.4</ele>
        <time>2013-10-10T12:11:23.680Z</time>
      </trkpt>
      <trkpt lat="43.41705" lon="6.61542">
        <ele>305.5</ele>
        <time>2013-10-10T12:11:24.675Z</time>
      </trkpt>
      <trkpt lat="43.41706" lon="6.6153">
        <ele>306.7</ele>
        <time>2013-10-10T12:11:32.688Z</time>
      </trkpt>
      <trkpt lat="43.41706" lon="6.61529">
        <ele>306.9</ele>
        <time>2013-10-10T12:11:33.733Z</time>
      </trkpt>
      <trkpt lat="43.41713" lon="6.61525">
        <ele>308.2</ele>
        <time>2013-10-10T12:11:41.680Z</time>
      </trkpt>
      <trkpt lat="43.41715" lon="6.61527">
        <ele>308.4</ele>
        <time>2013-10-10T12:11:42.689Z</time>
      </trkpt>
      <trkpt lat="43.41722" lon="6.6153">
        <ele>308.7</ele>
        <time>2013-10-10T12:11:44.687Z</time>
      </trkpt>
      <trkpt lat="43.41726" lon="6.61531">
        <ele>308.8</ele>
        <time>2013-10-10T12:11:45.687Z</time>
      </trkpt>
      <trkpt lat="43.41731" lon="6.6153">
        <ele>309</ele>
        <time>2013-10-10T12:11:46.688Z</time>
      </trkpt>
      <trkpt lat="43.41736" lon="6.61528">
        <ele>309.2</ele>
        <time>2013-10-10T12:11:47.690Z</time>
      </trkpt>
      <trkpt lat="43.41741" lon="6.61525">
        <ele>310.6</ele>
        <time>2013-10-10T12:11:48.690Z</time>
      </trkpt>
      <trkpt lat="43.41746" lon="6.61522">
        <ele>311.6</ele>
        <time>2013-10-10T12:11:49.688Z</time>
      </trkpt>
      <trkpt lat="43.41751" lon="6.61519">
        <ele>312.6</ele>
        <time>2013-10-10T12:11:50.707Z</time>
      </trkpt>
      <trkpt lat="43.41756" lon="6.61514">
        <ele>313.6</ele>
        <time>2013-10-10T12:11:51.687Z</time>
      </trkpt>
      <trkpt lat="43.41762" lon="6.6151">
        <ele>314.2</ele>
        <time>2013-10-10T12:11:52.689Z</time>
      </trkpt>
      <trkpt lat="43.41768" lon="6.61505">
        <ele>314.6</ele>
        <time>2013-10-10T12:11:53.688Z</time>
      </trkpt>
      <trkpt lat="43.41772" lon="6.61501">
        <ele>315.2</ele>
        <time>2013-10-10T12:11:54.688Z</time>
      </trkpt>
      <trkpt lat="43.41777" lon="6.61496">
        <ele>315.5</ele>
        <time>2013-10-10T12:11:55.686Z</time>
      </trkpt>
      <trkpt lat="43.4178" lon="6.61491">
        <ele>315.8</ele>
        <time>2013-10-10T12:11:56.688Z</time>
      </trkpt>
      <trkpt lat="43.41784" lon="6.61486">
        <ele>316.1</ele>
        <time>2013-10-10T12:11:57.694Z</time>
      </trkpt>
      <trkpt lat="43.41788" lon="6.61481">
        <ele>316.3</ele>
        <time>2013-10-10T12:11:58.689Z</time>
      </trkpt>
      <trkpt lat="43.41792" lon="6.61476">
        <ele>316.4</ele>
        <time>2013-10-10T12:11:59.684Z</time>
      </trkpt>
      <trkpt lat="43.41796" lon="6.61472">
        <ele>316.1</ele>
        <time>2013-10-10T12:12:00.655Z</time>
      </trkpt>
      <trkpt lat="43.41801" lon="6.61469">
        <ele>315.3</ele>
        <time>2013-10-10T12:12:01.687Z</time>
      </trkpt>
      <trkpt lat="43.41805" lon="6.61465">
        <ele>315.2</ele>
        <time>2013-10-10T12:12:02.674Z</time>
      </trkpt>
      <trkpt lat="43.4181" lon="6.61463">
        <ele>314.1</ele>
        <time>2013-10-10T12:12:03.687Z</time>
      </trkpt>
      <trkpt lat="43.41815" lon="6.61461">
        <ele>313.1</ele>
        <time>2013-10-10T12:12:04.690Z</time>
      </trkpt>
      <trkpt lat="43.4182" lon="6.61459">
        <ele>312.5</ele>
        <time>2013-10-10T12:12:05.687Z</time>
      </trkpt>
      <trkpt lat="43.41825" lon="6.61456">
        <ele>311.9</ele>
        <time>2013-10-10T12:12:06.685Z</time>
      </trkpt>
      <trkpt lat="43.4183" lon="6.61454">
        <ele>311.3</ele>
        <time>2013-10-10T12:12:07.653Z</time>
      </trkpt>
      <trkpt lat="43.41835" lon="6.61453">
        <ele>310.6</ele>
        <time>2013-10-10T12:12:08.685Z</time>
      </trkpt>
      <trkpt lat="43.4184" lon="6.61452">
        <ele>310</ele>
        <time>2013-10-10T12:12:09.684Z</time>
      </trkpt>
      <trkpt lat="43.41848" lon="6.61451">
        <ele>309.5</ele>
        <time>2013-10-10T12:12:11.677Z</time>
      </trkpt>
      <trkpt lat="43.41852" lon="6.61451">
        <ele>309.3</ele>
        <time>2013-10-10T12:12:12.686Z</time>
      </trkpt>
      <trkpt lat="43.4186" lon="6.61454">
        <ele>309.3</ele>
        <time>2013-10-10T12:12:14.684Z</time>
      </trkpt>
      <trkpt lat="43.41864" lon="6.61455">
        <ele>309.2</ele>
        <time>2013-10-10T12:12:15.683Z</time>
      </trkpt>
      <trkpt lat="43.4187" lon="6.61457">
        <ele>309.2</ele>
        <time>2013-10-10T12:12:17.681Z</time>
      </trkpt>
      <trkpt lat="43.41874" lon="6.61458">
        <ele>309.2</ele>
        <time>2013-10-10T12:12:18.684Z</time>
      </trkpt>
      <trkpt lat="43.41882" lon="6.61458">
        <ele>309.1</ele>
        <time>2013-10-10T12:12:20.706Z</time>
      </trkpt>
      <trkpt lat="43.41886" lon="6.61457">
        <ele>309.1</ele>
        <time>2013-10-10T12:12:21.687Z</time>
      </trkpt>
      <trkpt lat="43.41894" lon="6.61455">
        <ele>309</ele>
        <time>2013-10-10T12:12:23.681Z</time>
      </trkpt>
      <trkpt lat="43.41899" lon="6.61453">
        <ele>308.6</ele>
        <time>2013-10-10T12:12:24.682Z</time>
      </trkpt>
      <trkpt lat="43.41905" lon="6.61451">
        <ele>308.2</ele>
        <time>2013-10-10T12:12:25.682Z</time>
      </trkpt>
      <trkpt lat="43.4191" lon="6.61448">
        <ele>307.9</ele>
        <time>2013-10-10T12:12:26.682Z</time>
      </trkpt>
      <trkpt lat="43.41915" lon="6.61447">
        <ele>307.7</ele>
        <time>2013-10-10T12:12:27.682Z</time>
      </trkpt>
      <trkpt lat="43.4192" lon="6.61446">
        <ele>307.5</ele>
        <time>2013-10-10T12:12:28.683Z</time>
      </trkpt>
      <trkpt lat="43.41925" lon="6.61445">
        <ele>307.3</ele>
        <time>2013-10-10T12:12:29.682Z</time>
      </trkpt>
      <trkpt lat="43.4193" lon="6.61445">
        <ele>307.1</ele>
        <time>2013-10-10T12:12:30.696Z</time>
      </trkpt>
      <trkpt lat="43.41938" lon="6.61447">
        <ele>307.2</ele>
        <time>2013-10-10T12:12:32.652Z</time>
      </trkpt>
      <trkpt lat="43.41942" lon="6.61449">
        <ele>307.2</ele>
        <time>2013-10-10T12:12:33.680Z</time>
      </trkpt>
      <trkpt lat="43.41949" lon="6.61451">
        <ele>307.2</ele>
        <time>2013-10-10T12:12:35.651Z</time>
      </trkpt>
      <trkpt lat="43.41953" lon="6.61453">
        <ele>307.4</ele>
        <time>2013-10-10T12:12:36.649Z</time>
      </trkpt>
      <trkpt lat="43.4196" lon="6.61456">
        <ele>307.6</ele>
        <time>2013-10-10T12:12:38.684Z</time>
      </trkpt>
      <trkpt lat="43.41964" lon="6.61457">
        <ele>307.7</ele>
        <time>2013-10-10T12:12:39.680Z</time>
      </trkpt>
      <trkpt lat="43.41972" lon="6.61459">
        <ele>307.8</ele>
        <time>2013-10-10T12:12:41.683Z</time>
      </trkpt>
      <trkpt lat="43.41974" lon="6.6146">
        <ele>307.8</ele>
        <time>2013-10-10T12:12:42.686Z</time>
      </trkpt>
      <trkpt lat="43.41982" lon="6.61463">
        <ele>307.8</ele>
        <time>2013-10-10T12:12:45.651Z</time>
      </trkpt>
      <trkpt lat="43.41984" lon="6.61464">
        <ele>307.8</ele>
        <time>2013-10-10T12:12:46.652Z</time>
      </trkpt>
      <trkpt lat="43.41992" lon="6.61468">
        <ele>308.2</ele>
        <time>2013-10-10T12:12:52.691Z</time>
      </trkpt>
      <trkpt lat="43.41993" lon="6.61468">
        <ele>308.3</ele>
        <time>2013-10-10T12:12:53.701Z</time>
      </trkpt>
      <trkpt lat="43.42002" lon="6.61467">
        <ele>308.8</ele>
        <time>2013-10-10T12:13:00.638Z</time>
      </trkpt>
      <trkpt lat="43.42004" lon="6.61468">
        <ele>308.9</ele>
        <time>2013-10-10T12:13:01.686Z</time>
      </trkpt>
      <trkpt lat="43.42012" lon="6.61467">
        <ele>309.7</ele>
        <time>2013-10-10T12:13:07.650Z</time>
      </trkpt>
      <trkpt lat="43.42013" lon="6.61466">
        <ele>309.8</ele>
        <time>2013-10-10T12:13:08.732Z</time>
      </trkpt>
      <trkpt lat="43.42022" lon="6.61464">
        <ele>311.1</ele>
        <time>2013-10-10T12:13:15.687Z</time>
      </trkpt>
      <trkpt lat="43.42023" lon="6.61463">
        <ele>311.3</ele>
        <time>2013-10-10T12:13:16.685Z</time>
      </trkpt>
      <trkpt lat="43.4203" lon="6.61462">
        <ele>311.9</ele>
        <time>2013-10-10T12:13:20.699Z</time>
      </trkpt>
      <trkpt lat="43.42032" lon="6.61462">
        <ele>312</ele>
        <time>2013-10-10T12:13:21.687Z</time>
      </trkpt>
      <trkpt lat="43.4204" lon="6.61462">
        <ele>312.5</ele>
        <time>2013-10-10T12:13:25.684Z</time>
      </trkpt>
      <trkpt lat="43.42042" lon="6.61463">
        <ele>312.7</ele>
        <time>2013-10-10T12:13:26.683Z</time>
      </trkpt>
      <trkpt lat="43.42051" lon="6.61467">
        <ele>313.4</ele>
        <time>2013-10-10T12:13:31.848Z</time>
      </trkpt>
      <trkpt lat="43.42052" lon="6.61467">
        <ele>313.5</ele>
        <time>2013-10-10T12:13:32.684Z</time>
      </trkpt>
      <trkpt lat="43.42059" lon="6.61473">
        <ele>314.1</ele>
        <time>2013-10-10T12:13:37.687Z</time>
      </trkpt>
      <trkpt lat="43.42061" lon="6.61474">
        <ele>314.2</ele>
        <time>2013-10-10T12:13:38.700Z</time>
      </trkpt>
      <trkpt lat="43.42068" lon="6.61481">
        <ele>315.1</ele>
        <time>2013-10-10T12:13:44.699Z</time>
      </trkpt>
      <trkpt lat="43.42069" lon="6.61481">
        <ele>315.3</ele>
        <time>2013-10-10T12:13:45.689Z</time>
      </trkpt>
      <trkpt lat="43.42077" lon="6.61484">
        <ele>316.4</ele>
        <time>2013-10-10T12:13:51.694Z</time>
      </trkpt>
      <trkpt lat="43.42079" lon="6.61484">
        <ele>316.6</ele>
        <time>2013-10-10T12:13:52.690Z</time>
      </trkpt>
      <trkpt lat="43.42087" lon="6.61486">
        <ele>317.5</ele>
        <time>2013-10-10T12:13:57.693Z</time>
      </trkpt>
      <trkpt lat="43.42088" lon="6.61486">
        <ele>317.7</ele>
        <time>2013-10-10T12:13:58.701Z</time>
      </trkpt>
      <trkpt lat="43.42095" lon="6.61488">
        <ele>318.3</ele>
        <time>2013-10-10T12:14:04.700Z</time>
      </trkpt>
      <trkpt lat="43.42096" lon="6.61488">
        <ele>318.3</ele>
        <time>2013-10-10T12:14:05.689Z</time>
      </trkpt>
      <trkpt lat="43.42103" lon="6.61491">
        <ele>318.3</ele>
        <time>2013-10-10T12:14:08.697Z</time>
      </trkpt>
      <trkpt lat="43.42105" lon="6.61492">
        <ele>318.4</ele>
        <time>2013-10-10T12:14:09.687Z</time>
      </trkpt>
      <trkpt lat="43.42112" lon="6.61495">
        <ele>318.4</ele>
        <time>2013-10-10T12:14:12.680Z</time>
      </trkpt>
      <trkpt lat="43.42114" lon="6.61496">
        <ele>318.5</ele>
        <time>2013-10-10T12:14:13.676Z</time>
      </trkpt>
      <trkpt lat="43.42121" lon="6.61503">
        <ele>318.4</ele>
        <time>2013-10-10T12:14:20.697Z</time>
      </trkpt>
      <trkpt lat="43.42122" lon="6.61505">
        <ele>318.4</ele>
        <time>2013-10-10T12:14:21.690Z</time>
      </trkpt>
      <trkpt lat="43.42125" lon="6.61515">
        <ele>318.9</ele>
        <time>2013-10-10T12:14:26.685Z</time>
      </trkpt>
      <trkpt lat="43.42126" lon="6.61517">
        <ele>319</ele>
        <time>2013-10-10T12:14:27.663Z</time>
      </trkpt>
      <trkpt lat="43.42128" lon="6.61527">
        <ele>319.3</ele>
        <time>2013-10-10T12:14:31.683Z</time>
      </trkpt>
      <trkpt lat="43.42129" lon="6.6153">
        <ele>319.3</ele>
        <time>2013-10-10T12:14:32.677Z</time>
      </trkpt>
      <trkpt lat="43.42132" lon="6.61541">
        <ele>319.6</ele>
        <time>2013-10-10T12:14:36.684Z</time>
      </trkpt>
      <trkpt lat="43.42132" lon="6.61543">
        <ele>319.6</ele>
        <time>2013-10-10T12:14:37.686Z</time>
      </trkpt>
      <trkpt lat="43.42137" lon="6.61552">
        <ele>320</ele>
        <time>2013-10-10T12:14:42.683Z</time>
      </trkpt>
      <trkpt lat="43.42138" lon="6.61554">
        <ele>320.1</ele>
        <time>2013-10-10T12:14:43.675Z</time>
      </trkpt>
      <trkpt lat="43.42147" lon="6.61554">
        <ele>320.8</ele>
        <time>2013-10-10T12:14:48.653Z</time>
      </trkpt>
      <trkpt lat="43.42149" lon="6.61553">
        <ele>321</ele>
        <time>2013-10-10T12:14:49.735Z</time>
      </trkpt>
      <trkpt lat="43.42156" lon="6.61548">
        <ele>321.7</ele>
        <time>2013-10-10T12:14:53.654Z</time>
      </trkpt>
      <trkpt lat="43.42157" lon="6.61547">
        <ele>321.8</ele>
        <time>2013-10-10T12:14:54.694Z</time>
      </trkpt>
      <trkpt lat="43.42164" lon="6.61543">
        <ele>322.8</ele>
        <time>2013-10-10T12:14:59.690Z</time>
      </trkpt>
      <trkpt lat="43.42166" lon="6.61542">
        <ele>323</ele>
        <time>2013-10-10T12:15:00.805Z</time>
      </trkpt>
      <trkpt lat="43.42173" lon="6.61537">
        <ele>323.9</ele>
        <time>2013-10-10T12:15:05.680Z</time>
      </trkpt>
      <trkpt lat="43.42175" lon="6.61536">
        <ele>324</ele>
        <time>2013-10-10T12:15:06.694Z</time>
      </trkpt>
      <trkpt lat="43.42182" lon="6.61531">
        <ele>325.2</ele>
        <time>2013-10-10T12:15:12.585Z</time>
      </trkpt>
      <trkpt lat="43.42183" lon="6.6153">
        <ele>325.4</ele>
        <time>2013-10-10T12:15:13.534Z</time>
      </trkpt>
      <trkpt lat="43.4219" lon="6.61523">
        <ele>326.7</ele>
        <time>2013-10-10T12:15:19.496Z</time>
      </trkpt>
      <trkpt lat="43.42191" lon="6.61521">
        <ele>326.9</ele>
        <time>2013-10-10T12:15:20.564Z</time>
      </trkpt>
      <trkpt lat="43.42196" lon="6.61513">
        <ele>327.9</ele>
        <time>2013-10-10T12:15:25.557Z</time>
      </trkpt>
      <trkpt lat="43.42197" lon="6.61511">
        <ele>328.1</ele>
        <time>2013-10-10T12:15:26.523Z</time>
      </trkpt>
      <trkpt lat="43.42203" lon="6.61502">
        <ele>328.7</ele>
        <time>2013-10-10T12:15:32.575Z</time>
      </trkpt>
      <trkpt lat="43.42204" lon="6.615">
        <ele>328.8</ele>
        <time>2013-10-10T12:15:33.537Z</time>
      </trkpt>
      <trkpt lat="43.42208" lon="6.61491">
        <ele>329.5</ele>
        <time>2013-10-10T12:15:39.557Z</time>
      </trkpt>
      <trkpt lat="43.42209" lon="6.61489">
        <ele>329.6</ele>
        <time>2013-10-10T12:15:40.561Z</time>
      </trkpt>
      <trkpt lat="43.42215" lon="6.61482">
        <ele>330.2</ele>
        <time>2013-10-10T12:15:45.463Z</time>
      </trkpt>
      <trkpt lat="43.42217" lon="6.61481">
        <ele>330.3</ele>
        <time>2013-10-10T12:15:46.479Z</time>
      </trkpt>
      <trkpt lat="43.42226" lon="6.61477">
        <ele>330.9</ele>
        <time>2013-10-10T12:15:52.477Z</time>
      </trkpt>
      <trkpt lat="43.42227" lon="6.61476">
        <ele>330.9</ele>
        <time>2013-10-10T12:15:53.527Z</time>
      </trkpt>
      <trkpt lat="43.42234" lon="6.61468">
        <ele>331.5</ele>
        <time>2013-10-10T12:16:02.495Z</time>
      </trkpt>
      <trkpt lat="43.42233" lon="6.61467">
        <ele>331.6</ele>
        <time>2013-10-10T12:16:03.467Z</time>
      </trkpt>
      <trkpt lat="43.42231" lon="6.61465">
        <ele>331.9</ele>
        <time>2013-10-10T12:16:08.575Z</time>
      </trkpt>
      <trkpt lat="43.42231" lon="6.61465">
        <ele>331.9</ele>
        <time>2013-10-10T12:16:09.487Z</time>
      </trkpt>
      <trkpt lat="43.42232" lon="6.61466">
        <ele>332</ele>
        <time>2013-10-10T12:16:14.618Z</time>
      </trkpt>
      <trkpt lat="43.42232" lon="6.61466">
        <ele>332.1</ele>
        <time>2013-10-10T12:16:15.467Z</time>
      </trkpt>
      <trkpt lat="43.42233" lon="6.61466">
        <ele>332.2</ele>
        <time>2013-10-10T12:16:18.496Z</time>
      </trkpt>
      <trkpt lat="43.42233" lon="6.61466">
        <ele>332.2</ele>
        <time>2013-10-10T12:16:19.591Z</time>
      </trkpt>
      <trkpt lat="43.42233" lon="6.61465">
        <ele>332.3</ele>
        <time>2013-10-10T12:16:25.498Z</time>
      </trkpt>
      <trkpt lat="43.42232" lon="6.61466">
        <ele>332.4</ele>
        <time>2013-10-10T12:16:26.559Z</time>
      </trkpt>
      <trkpt lat="43.42231" lon="6.61466">
        <ele>332.5</ele>
        <time>2013-10-10T12:16:28.518Z</time>
      </trkpt>
      <trkpt lat="43.42231" lon="6.61466">
        <ele>332.5</ele>
        <time>2013-10-10T12:16:29.539Z</time>
      </trkpt>
      <trkpt lat="43.42232" lon="6.61466">
        <ele>332.6</ele>
        <time>2013-10-10T12:16:31.644Z</time>
      </trkpt>
      <trkpt lat="43.42232" lon="6.61466">
        <ele>332.6</ele>
        <time>2013-10-10T12:16:32.508Z</time>
      </trkpt>
      <trkpt lat="43.42232" lon="6.61466">
        <ele>332.6</ele>
        <time>2013-10-10T12:16:34.519Z</time>
      </trkpt>
      <trkpt lat="43.42232" lon="6.61466">
        <ele>332.6</ele>
        <time>2013-10-10T12:16:35.522Z</time>
      </trkpt>
      <trkpt lat="43.42232" lon="6.61466">
        <ele>332.6</ele>
        <time>2013-10-10T12:16:41.494Z</time>
      </trkpt>
      <trkpt lat="43.42232" lon="6.61466">
        <ele>332.6</ele>
        <time>2013-10-10T12:16:42.524Z</time>
      </trkpt>
      <trkpt lat="43.4223" lon="6.61467">
        <ele>333.1</ele>
        <time>2013-10-10T12:16:50.502Z</time>
      </trkpt>
      <trkpt lat="43.4223" lon="6.61467">
        <ele>333.1</ele>
        <time>2013-10-10T12:16:51.506Z</time>
      </trkpt>
      <trkpt lat="43.42231" lon="6.61466">
        <ele>333.3</ele>
        <time>2013-10-10T12:16:56.466Z</time>
      </trkpt>
      <trkpt lat="43.42231" lon="6.61466">
        <ele>333.3</ele>
        <time>2013-10-10T12:16:57.517Z</time>
      </trkpt>
      <trkpt lat="43.42232" lon="6.61466">
        <ele>333.4</ele>
        <time>2013-10-10T12:17:01.492Z</time>
      </trkpt>
      <trkpt lat="43.42232" lon="6.61466">
        <ele>333.5</ele>
        <time>2013-10-10T12:17:02.495Z</time>
      </trkpt>
      <trkpt lat="43.42232" lon="6.61467">
        <ele>333.7</ele>
        <time>2013-10-10T12:17:10.545Z</time>
      </trkpt>
      <trkpt lat="43.42232" lon="6.61468">
        <ele>333.7</ele>
        <time>2013-10-10T12:17:11.468Z</time>
      </trkpt>
      <trkpt lat="43.42232" lon="6.61468">
        <ele>333.7</ele>
        <time>2013-10-10T12:17:12.504Z</time>
      </trkpt>
      <trkpt lat="43.42232" lon="6.61468">
        <ele>333.7</ele>
        <time>2013-10-10T12:17:13.514Z</time>
      </trkpt>
      <trkpt lat="43.42231" lon="6.61465">
        <ele>334.3</ele>
        <time>2013-10-10T12:18:24.488Z</time>
      </trkpt>
      <trkpt lat="43.42231" lon="6.61465">
        <ele>334.3</ele>
        <time>2013-10-10T12:18:25.487Z</time>
      </trkpt>
      <trkpt lat="43.42228" lon="6.61462">
        <ele>334.2</ele>
        <time>2013-10-10T12:18:35.499Z</time>
      </trkpt>
      <trkpt lat="43.42228" lon="6.61462">
        <ele>334.2</ele>
        <time>2013-10-10T12:18:36.496Z</time>
      </trkpt>
      <trkpt lat="43.42229" lon="6.61462">
        <ele>334.2</ele>
        <time>2013-10-10T12:18:40.541Z</time>
      </trkpt>
      <trkpt lat="43.42229" lon="6.61462">
        <ele>334.2</ele>
        <time>2013-10-10T12:18:41.545Z</time>
      </trkpt>
      <trkpt lat="43.4223" lon="6.61462">
        <ele>334.2</ele>
        <time>2013-10-10T12:18:44.483Z</time>
      </trkpt>
      <trkpt lat="43.4223" lon="6.61463">
        <ele>334.2</ele>
        <time>2013-10-10T12:18:45.483Z</time>
      </trkpt>
      <trkpt lat="43.42231" lon="6.61463">
        <ele>334.2</ele>
        <time>2013-10-10T12:18:55.472Z</time>
      </trkpt>
      <trkpt lat="43.42231" lon="6.61464">
        <ele>334.2</ele>
        <time>2013-10-10T12:18:56.473Z</time>
      </trkpt>
      <trkpt lat="43.42231" lon="6.61464">
        <ele>334.2</ele>
        <time>2013-10-10T12:18:57.472Z</time>
      </trkpt>
      <trkpt lat="43.42231" lon="6.61464">
        <ele>334.2</ele>
        <time>2013-10-10T12:18:58.472Z</time>
      </trkpt>
      <trkpt lat="43.42231" lon="6.61465">
        <ele>334.2</ele>
        <time>2013-10-10T12:19:02.478Z</time>
      </trkpt>
      <trkpt lat="43.42231" lon="6.61465">
        <ele>334.3</ele>
        <time>2013-10-10T12:19:03.505Z</time>
      </trkpt>
      <trkpt lat="43.42232" lon="6.61465">
        <ele>334.3</ele>
        <time>2013-10-10T12:19:06.476Z</time>
      </trkpt>
      <trkpt lat="43.42232" lon="6.61465">
        <ele>334.3</ele>
        <time>2013-10-10T12:19:07.489Z</time>
      </trkpt>
      <trkpt lat="43.42233" lon="6.61465">
        <ele>334.5</ele>
        <time>2013-10-10T12:19:19.551Z</time>
      </trkpt>
      <trkpt lat="43.42233" lon="6.61465">
        <ele>334.5</ele>
        <time>2013-10-10T12:19:20.585Z</time>
      </trkpt>
      <trkpt lat="43.42233" lon="6.61466">
        <ele>334.6</ele>
        <time>2013-10-10T12:19:22.535Z</time>
      </trkpt>
      <trkpt lat="43.42233" lon="6.61466">
        <ele>334.6</ele>
        <time>2013-10-10T12:19:23.546Z</time>
      </trkpt>
      <trkpt lat="43.42234" lon="6.61466">
        <ele>334.7</ele>
        <time>2013-10-10T12:19:24.475Z</time>
      </trkpt>
      <trkpt lat="43.42234" lon="6.61464">
        <ele>334.8</ele>
        <time>2013-10-10T12:19:31.514Z</time>
      </trkpt>
      <trkpt lat="43.42234" lon="6.61464">
        <ele>334.8</ele>
        <time>2013-10-10T12:19:32.499Z</time>
      </trkpt>
      <trkpt lat="43.42233" lon="6.61464">
        <ele>335</ele>
        <time>2013-10-10T12:19:34.501Z</time>
      </trkpt>
      <trkpt lat="43.42233" lon="6.61465">
        <ele>335.2</ele>
        <time>2013-10-10T12:19:35.548Z</time>
      </trkpt>
      <trkpt lat="43.42235" lon="6.61466">
        <ele>336</ele>
        <time>2013-10-10T12:19:51.538Z</time>
      </trkpt>
      <trkpt lat="43.42236" lon="6.61466">
        <ele>336</ele>
        <time>2013-10-10T12:19:52.539Z</time>
      </trkpt>
      <trkpt lat="43.42234" lon="6.61467">
        <ele>336.1</ele>
        <time>2013-10-10T12:20:22.609Z</time>
      </trkpt>
      <trkpt lat="43.42234" lon="6.61468">
        <ele>336.1</ele>
        <time>2013-10-10T12:20:23.454Z</time>
      </trkpt>
      <trkpt lat="43.42234" lon="6.61469">
        <ele>336.1</ele>
        <time>2013-10-10T12:20:27.487Z</time>
      </trkpt>
      <trkpt lat="43.42234" lon="6.61469">
        <ele>336.1</ele>
        <time>2013-10-10T12:20:28.454Z</time>
      </trkpt>
      <trkpt lat="43.42233" lon="6.61468">
        <ele>336.6</ele>
        <time>2013-10-10T12:20:36.440Z</time>
      </trkpt>
      <trkpt lat="43.42233" lon="6.61468">
        <ele>336.7</ele>
        <time>2013-10-10T12:20:37.438Z</time>
      </trkpt>
      <trkpt lat="43.42231" lon="6.61466">
        <ele>336.9</ele>
        <time>2013-10-10T12:20:42.609Z</time>
      </trkpt>
      <trkpt lat="43.42231" lon="6.61466">
        <ele>337</ele>
        <time>2013-10-10T12:20:43.495Z</time>
      </trkpt>
      <trkpt lat="43.42232" lon="6.61466">
        <ele>337</ele>
        <time>2013-10-10T12:20:46.486Z</time>
      </trkpt>
      <trkpt lat="43.42232" lon="6.61466">
        <ele>337</ele>
        <time>2013-10-10T12:20:47.486Z</time>
      </trkpt>
      <trkpt lat="43.42232" lon="6.61465">
        <ele>337.1</ele>
        <time>2013-10-10T12:20:50.485Z</time>
      </trkpt>
      <trkpt lat="43.42233" lon="6.61465">
        <ele>337.1</ele>
        <time>2013-10-10T12:20:51.486Z</time>
      </trkpt>
      <trkpt lat="43.42232" lon="6.61465">
        <ele>337.3</ele>
        <time>2013-10-10T12:21:02.508Z</time>
      </trkpt>
      <trkpt lat="43.42232" lon="6.61465">
        <ele>337.4</ele>
        <time>2013-10-10T12:21:03.511Z</time>
      </trkpt>
      <trkpt lat="43.42229" lon="6.61461">
        <ele>337.6</ele>
        <time>2013-10-10T12:21:12.497Z</time>
      </trkpt>
      <trkpt lat="43.42229" lon="6.61461">
        <ele>337.6</ele>
        <time>2013-10-10T12:21:13.511Z</time>
      </trkpt>
      <trkpt lat="43.42228" lon="6.61462">
        <ele>338</ele>
        <time>2013-10-10T12:21:22.549Z</time>
      </trkpt>
      <trkpt lat="43.42228" lon="6.61462">
        <ele>338.1</ele>
        <time>2013-10-10T12:21:23.487Z</time>
      </trkpt>
      <trkpt lat="43.42228" lon="6.61462">
        <ele>338.1</ele>
        <time>2013-10-10T12:21:24.508Z</time>
      </trkpt>
      <trkpt lat="43.42228" lon="6.61461">
        <ele>338.1</ele>
        <time>2013-10-10T12:21:26.491Z</time>
      </trkpt>
      <trkpt lat="43.42228" lon="6.61461">
        <ele>338</ele>
        <time>2013-10-10T12:21:27.501Z</time>
      </trkpt>
      <trkpt lat="43.42228" lon="6.61459">
        <ele>337.9</ele>
        <time>2013-10-10T12:21:31.511Z</time>
      </trkpt>
      <trkpt lat="43.42228" lon="6.61459">
        <ele>337.9</ele>
        <time>2013-10-10T12:21:32.509Z</time>
      </trkpt>
      <trkpt lat="43.42228" lon="6.61459">
        <ele>337.9</ele>
        <time>2013-10-10T12:21:33.515Z</time>
      </trkpt>
      <trkpt lat="43.42229" lon="6.61459">
        <ele>337.9</ele>
        <time>2013-10-10T12:21:37.522Z</time>
      </trkpt>
      <trkpt lat="43.42229" lon="6.61459">
        <ele>337.9</ele>
        <time>2013-10-10T12:21:38.514Z</time>
      </trkpt>
      <trkpt lat="43.42229" lon="6.61459">
        <ele>338.3</ele>
        <time>2013-10-10T12:22:05.553Z</time>
      </trkpt>
      <trkpt lat="43.4223" lon="6.61459">
        <ele>338.3</ele>
        <time>2013-10-10T12:22:06.552Z</time>
      </trkpt>
      <trkpt lat="43.42231" lon="6.61459">
        <ele>338.3</ele>
        <time>2013-10-10T12:22:10.510Z</time>
      </trkpt>
      <trkpt lat="43.4223" lon="6.61459">
        <ele>338.3</ele>
        <time>2013-10-10T12:22:11.518Z</time>
      </trkpt>
      <trkpt lat="43.4223" lon="6.61458">
        <ele>338.3</ele>
        <time>2013-10-10T12:22:12.533Z</time>
      </trkpt>
      <trkpt lat="43.42226" lon="6.61461">
        <ele>338.3</ele>
        <time>2013-10-10T12:22:24.549Z</time>
      </trkpt>
      <trkpt lat="43.42226" lon="6.61461">
        <ele>338.4</ele>
        <time>2013-10-10T12:22:25.548Z</time>
      </trkpt>
      <trkpt lat="43.42227" lon="6.6146">
        <ele>338.7</ele>
        <time>2013-10-10T12:22:33.526Z</time>
      </trkpt>
      <trkpt lat="43.42227" lon="6.61459">
        <ele>338.9</ele>
        <time>2013-10-10T12:22:34.491Z</time>
      </trkpt>
      <trkpt lat="43.42227" lon="6.61457">
        <ele>339.2</ele>
        <time>2013-10-10T12:22:38.494Z</time>
      </trkpt>
      <trkpt lat="43.42227" lon="6.61457">
        <ele>339.2</ele>
        <time>2013-10-10T12:22:39.531Z</time>
      </trkpt>
      <trkpt lat="43.42228" lon="6.61458">
        <ele>339.6</ele>
        <time>2013-10-10T12:22:45.512Z</time>
      </trkpt>
      <trkpt lat="43.42228" lon="6.61459">
        <ele>339.9</ele>
        <time>2013-10-10T12:22:46.565Z</time>
      </trkpt>
      <trkpt lat="43.42228" lon="6.61459">
        <ele>340.2</ele>
        <time>2013-10-10T12:22:48.526Z</time>
      </trkpt>
      <trkpt lat="43.42228" lon="6.61459">
        <ele>340.2</ele>
        <time>2013-10-10T12:22:49.563Z</time>
      </trkpt>
      <trkpt lat="43.42227" lon="6.61457">
        <ele>340.3</ele>
        <time>2013-10-10T12:23:01.540Z</time>
      </trkpt>
      <trkpt lat="43.42227" lon="6.61456">
        <ele>340.3</ele>
        <time>2013-10-10T12:23:02.555Z</time>
      </trkpt>
      <trkpt lat="43.42223" lon="6.61448">
        <ele>340.3</ele>
        <time>2013-10-10T12:23:04.515Z</time>
      </trkpt>
      <trkpt lat="43.42222" lon="6.61441">
        <ele>340</ele>
        <time>2013-10-10T12:23:05.521Z</time>
      </trkpt>
      <trkpt lat="43.4222" lon="6.6143">
        <ele>339.6</ele>
        <time>2013-10-10T12:23:06.503Z</time>
      </trkpt>
      <trkpt lat="43.42219" lon="6.61417">
        <ele>339.2</ele>
        <time>2013-10-10T12:23:07.513Z</time>
      </trkpt>
      <trkpt lat="43.42218" lon="6.61404">
        <ele>338.5</ele>
        <time>2013-10-10T12:23:08.517Z</time>
      </trkpt>
      <trkpt lat="43.42218" lon="6.61389">
        <ele>338</ele>
        <time>2013-10-10T12:23:09.532Z</time>
      </trkpt>
      <trkpt lat="43.42218" lon="6.61374">
        <ele>337.5</ele>
        <time>2013-10-10T12:23:10.522Z</time>
      </trkpt>
      <trkpt lat="43.42219" lon="6.61359">
        <ele>336.9</ele>
        <time>2013-10-10T12:23:11.490Z</time>
      </trkpt>
      <trkpt lat="43.42221" lon="6.61348">
        <ele>336.5</ele>
        <time>2013-10-10T12:23:12.514Z</time>
      </trkpt>
      <trkpt lat="43.42225" lon="6.61339">
        <ele>335.3</ele>
        <time>2013-10-10T12:23:13.518Z</time>
      </trkpt>
      <trkpt lat="43.42229" lon="6.61331">
        <ele>334.5</ele>
        <time>2013-10-10T12:23:14.514Z</time>
      </trkpt>
      <trkpt lat="43.42233" lon="6.61325">
        <ele>333.6</ele>
        <time>2013-10-10T12:23:15.512Z</time>
      </trkpt>
      <trkpt lat="43.42233" lon="6.61316">
        <ele>332.7</ele>
        <time>2013-10-10T12:23:17.519Z</time>
      </trkpt>
      <trkpt lat="43.42231" lon="6.61311">
        <ele>331.8</ele>
        <time>2013-10-10T12:23:18.514Z</time>
      </trkpt>
      <trkpt lat="43.4223" lon="6.61305">
        <ele>331</ele>
        <time>2013-10-10T12:23:19.531Z</time>
      </trkpt>
      <trkpt lat="43.42229" lon="6.61297">
        <ele>330.1</ele>
        <time>2013-10-10T12:23:20.523Z</time>
      </trkpt>
      <trkpt lat="43.42231" lon="6.61289">
        <ele>329.6</ele>
        <time>2013-10-10T12:23:21.518Z</time>
      </trkpt>
      <trkpt lat="43.42235" lon="6.6128">
        <ele>328.5</ele>
        <time>2013-10-10T12:23:22.524Z</time>
      </trkpt>
      <trkpt lat="43.4224" lon="6.61272">
        <ele>327.3</ele>
        <time>2013-10-10T12:23:23.521Z</time>
      </trkpt>
      <trkpt lat="43.42245" lon="6.61263">
        <ele>326.4</ele>
        <time>2013-10-10T12:23:24.519Z</time>
      </trkpt>
      <trkpt lat="43.4225" lon="6.61255">
        <ele>325.8</ele>
        <time>2013-10-10T12:23:25.513Z</time>
      </trkpt>
      <trkpt lat="43.42253" lon="6.61246">
        <ele>324.9</ele>
        <time>2013-10-10T12:23:26.511Z</time>
      </trkpt>
      <trkpt lat="43.42255" lon="6.61237">
        <ele>323.9</ele>
        <time>2013-10-10T12:23:27.517Z</time>
      </trkpt>
      <trkpt lat="43.42257" lon="6.6123">
        <ele>323.2</ele>
        <time>2013-10-10T12:23:28.512Z</time>
      </trkpt>
      <trkpt lat="43.42259" lon="6.61224">
        <ele>322.1</ele>
        <time>2013-10-10T12:23:29.532Z</time>
      </trkpt>
      <trkpt lat="43.42262" lon="6.61218">
        <ele>320.4</ele>
        <time>2013-10-10T12:23:30.519Z</time>
      </trkpt>
      <trkpt lat="43.42268" lon="6.61208">
        <ele>317.6</ele>
        <time>2013-10-10T12:23:32.520Z</time>
      </trkpt>
      <trkpt lat="43.42269" lon="6.61202">
        <ele>316.6</ele>
        <time>2013-10-10T12:23:33.514Z</time>
      </trkpt>
      <trkpt lat="43.42269" lon="6.61194">
        <ele>316</ele>
        <time>2013-10-10T12:23:34.504Z</time>
      </trkpt>
      <trkpt lat="43.42268" lon="6.61185">
        <ele>315.5</ele>
        <time>2013-10-10T12:23:35.514Z</time>
      </trkpt>
      <trkpt lat="43.42268" lon="6.61177">
        <ele>314.5</ele>
        <time>2013-10-10T12:23:36.514Z</time>
      </trkpt>
      <trkpt lat="43.42269" lon="6.6117">
        <ele>313.5</ele>
        <time>2013-10-10T12:23:37.514Z</time>
      </trkpt>
      <trkpt lat="43.42274" lon="6.61163">
        <ele>310.6</ele>
        <time>2013-10-10T12:23:39.527Z</time>
      </trkpt>
      <trkpt lat="43.42276" lon="6.61161">
        <ele>310.5</ele>
        <time>2013-10-10T12:23:40.500Z</time>
      </trkpt>
      <trkpt lat="43.42275" lon="6.61153">
        <ele>308.3</ele>
        <time>2013-10-10T12:23:42.522Z</time>
      </trkpt>
      <trkpt lat="43.42271" lon="6.61149">
        <ele>307</ele>
        <time>2013-10-10T12:23:43.571Z</time>
      </trkpt>
      <trkpt lat="43.42264" lon="6.61144">
        <ele>304.9</ele>
        <time>2013-10-10T12:23:44.526Z</time>
      </trkpt>
      <trkpt lat="43.42258" lon="6.61139">
        <ele>302.5</ele>
        <time>2013-10-10T12:23:45.527Z</time>
      </trkpt>
      <trkpt lat="43.42252" lon="6.61133">
        <ele>300.4</ele>
        <time>2013-10-10T12:23:46.514Z</time>
      </trkpt>
      <trkpt lat="43.42248" lon="6.61124">
        <ele>298.5</ele>
        <time>2013-10-10T12:23:47.522Z</time>
      </trkpt>
      <trkpt lat="43.42245" lon="6.61113">
        <ele>296.6</ele>
        <time>2013-10-10T12:23:48.519Z</time>
      </trkpt>
      <trkpt lat="43.42243" lon="6.61102">
        <ele>295</ele>
        <time>2013-10-10T12:23:49.530Z</time>
      </trkpt>
      <trkpt lat="43.42244" lon="6.61092">
        <ele>293.9</ele>
        <time>2013-10-10T12:23:50.519Z</time>
      </trkpt>
      <trkpt lat="43.42246" lon="6.61083">
        <ele>292.5</ele>
        <time>2013-10-10T12:23:51.514Z</time>
      </trkpt>
      <trkpt lat="43.42249" lon="6.61075">
        <ele>291.3</ele>
        <time>2013-10-10T12:23:52.520Z</time>
      </trkpt>
      <trkpt lat="43.42253" lon="6.61067">
        <ele>290.7</ele>
        <time>2013-10-10T12:23:53.523Z</time>
      </trkpt>
      <trkpt lat="43.42258" lon="6.61061">
        <ele>290</ele>
        <time>2013-10-10T12:23:54.510Z</time>
      </trkpt>
      <trkpt lat="43.42265" lon="6.61055">
        <ele>289.5</ele>
        <time>2013-10-10T12:23:55.517Z</time>
      </trkpt>
      <trkpt lat="43.42272" lon="6.61049">
        <ele>289</ele>
        <time>2013-10-10T12:23:56.515Z</time>
      </trkpt>
      <trkpt lat="43.4228" lon="6.61043">
        <ele>288.4</ele>
        <time>2013-10-10T12:23:57.521Z</time>
      </trkpt>
      <trkpt lat="43.42288" lon="6.61036">
        <ele>288.1</ele>
        <time>2013-10-10T12:23:58.525Z</time>
      </trkpt>
      <trkpt lat="43.42296" lon="6.61029">
        <ele>288</ele>
        <time>2013-10-10T12:23:59.529Z</time>
      </trkpt>
      <trkpt lat="43.42303" lon="6.61024">
        <ele>287.2</ele>
        <time>2013-10-10T12:24:00.620Z</time>
      </trkpt>
      <trkpt lat="43.42307" lon="6.61018">
        <ele>286.2</ele>
        <time>2013-10-10T12:24:01.514Z</time>
      </trkpt>
      <trkpt lat="43.42311" lon="6.6101">
        <ele>285.5</ele>
        <time>2013-10-10T12:24:02.519Z</time>
      </trkpt>
      <trkpt lat="43.42316" lon="6.61001">
        <ele>285.1</ele>
        <time>2013-10-10T12:24:03.521Z</time>
      </trkpt>
      <trkpt lat="43.42319" lon="6.60991">
        <ele>284.6</ele>
        <time>2013-10-10T12:24:04.518Z</time>
      </trkpt>
      <trkpt lat="43.42321" lon="6.60982">
        <ele>284.5</ele>
        <time>2013-10-10T12:24:05.513Z</time>
      </trkpt>
      <trkpt lat="43.42322" lon="6.60973">
        <ele>284.2</ele>
        <time>2013-10-10T12:24:06.519Z</time>
      </trkpt>
      <trkpt lat="43.42324" lon="6.60966">
        <ele>283.6</ele>
        <time>2013-10-10T12:24:07.514Z</time>
      </trkpt>
      <trkpt lat="43.42328" lon="6.60961">
        <ele>282.9</ele>
        <time>2013-10-10T12:24:08.513Z</time>
      </trkpt>
      <trkpt lat="43.42333" lon="6.60959">
        <ele>282.1</ele>
        <time>2013-10-10T12:24:09.531Z</time>
      </trkpt>
      <trkpt lat="43.42339" lon="6.60957">
        <ele>281.4</ele>
        <time>2013-10-10T12:24:10.514Z</time>
      </trkpt>
      <trkpt lat="43.42345" lon="6.60954">
        <ele>280.5</ele>
        <time>2013-10-10T12:24:11.524Z</time>
      </trkpt>
      <trkpt lat="43.42351" lon="6.6095">
        <ele>278.9</ele>
        <time>2013-10-10T12:24:12.522Z</time>
      </trkpt>
      <trkpt lat="43.42357" lon="6.60945">
        <ele>277.8</ele>
        <time>2013-10-10T12:24:13.515Z</time>
      </trkpt>
      <trkpt lat="43.42364" lon="6.6094">
        <ele>276.9</ele>
        <time>2013-10-10T12:24:14.521Z</time>
      </trkpt>
      <trkpt lat="43.42371" lon="6.60934">
        <ele>276</ele>
        <time>2013-10-10T12:24:15.526Z</time>
      </trkpt>
      <trkpt lat="43.42377" lon="6.60928">
        <ele>274.9</ele>
        <time>2013-10-10T12:24:16.530Z</time>
      </trkpt>
      <trkpt lat="43.42382" lon="6.60923">
        <ele>273.8</ele>
        <time>2013-10-10T12:24:17.519Z</time>
      </trkpt>
      <trkpt lat="43.42387" lon="6.60916">
        <ele>272.8</ele>
        <time>2013-10-10T12:24:18.518Z</time>
      </trkpt>
      <trkpt lat="43.4239" lon="6.60909">
        <ele>272.1</ele>
        <time>2013-10-10T12:24:19.535Z</time>
      </trkpt>
      <trkpt lat="43.42392" lon="6.60902">
        <ele>271.4</ele>
        <time>2013-10-10T12:24:20.499Z</time>
      </trkpt>
      <trkpt lat="43.42394" lon="6.60896">
        <ele>270.9</ele>
        <time>2013-10-10T12:24:21.513Z</time>
      </trkpt>
      <trkpt lat="43.42397" lon="6.6089">
        <ele>270.1</ele>
        <time>2013-10-10T12:24:22.517Z</time>
      </trkpt>
      <trkpt lat="43.424" lon="6.60885">
        <ele>269.7</ele>
        <time>2013-10-10T12:24:23.514Z</time>
      </trkpt>
      <trkpt lat="43.42404" lon="6.6088">
        <ele>269.3</ele>
        <time>2013-10-10T12:24:24.513Z</time>
      </trkpt>
      <trkpt lat="43.42408" lon="6.60876">
        <ele>268.7</ele>
        <time>2013-10-10T12:24:25.519Z</time>
      </trkpt>
      <trkpt lat="43.42413" lon="6.60875">
        <ele>268.1</ele>
        <time>2013-10-10T12:24:26.522Z</time>
      </trkpt>
      <trkpt lat="43.42418" lon="6.60874">
        <ele>268</ele>
        <time>2013-10-10T12:24:27.521Z</time>
      </trkpt>
      <trkpt lat="43.42425" lon="6.60875">
        <ele>267.7</ele>
        <time>2013-10-10T12:24:29.533Z</time>
      </trkpt>
      <trkpt lat="43.42428" lon="6.60876">
        <ele>267.6</ele>
        <time>2013-10-10T12:24:30.518Z</time>
      </trkpt>
      <trkpt lat="43.42434" lon="6.60872">
        <ele>267.1</ele>
        <time>2013-10-10T12:24:33.514Z</time>
      </trkpt>
      <trkpt lat="43.42436" lon="6.60869">
        <ele>266.9</ele>
        <time>2013-10-10T12:24:34.520Z</time>
      </trkpt>
      <trkpt lat="43.42444" lon="6.60867">
        <ele>266.4</ele>
        <time>2013-10-10T12:24:37.484Z</time>
      </trkpt>
      <trkpt lat="43.42448" lon="6.60869">
        <ele>266.2</ele>
        <time>2013-10-10T12:24:38.514Z</time>
      </trkpt>
      <trkpt lat="43.42455" lon="6.60877">
        <ele>265.7</ele>
        <time>2013-10-10T12:24:40.525Z</time>
      </trkpt>
      <trkpt lat="43.42458" lon="6.60882">
        <ele>265.4</ele>
        <time>2013-10-10T12:24:41.520Z</time>
      </trkpt>
      <trkpt lat="43.42465" lon="6.60888">
        <ele>264.8</ele>
        <time>2013-10-10T12:24:43.521Z</time>
      </trkpt>
      <trkpt lat="43.42468" lon="6.60889">
        <ele>264.5</ele>
        <time>2013-10-10T12:24:44.525Z</time>
      </trkpt>
      <trkpt lat="43.42475" lon="6.60882">
        <ele>260</ele>
        <time>2013-10-10T12:24:46.514Z</time>
      </trkpt>
      <trkpt lat="43.42478" lon="6.60875">
        <ele>256.3</ele>
        <time>2013-10-10T12:24:47.521Z</time>
      </trkpt>
      <trkpt lat="43.4248" lon="6.60867">
        <ele>256</ele>
        <time>2013-10-10T12:24:48.521Z</time>
      </trkpt>
      <trkpt lat="43.42483" lon="6.6086">
        <ele>255.7</ele>
        <time>2013-10-10T12:24:49.470Z</time>
      </trkpt>
      <trkpt lat="43.42485" lon="6.60854">
        <ele>255.3</ele>
        <time>2013-10-10T12:24:50.520Z</time>
      </trkpt>
      <trkpt lat="43.42485" lon="6.60847">
        <ele>254.9</ele>
        <time>2013-10-10T12:24:51.520Z</time>
      </trkpt>
      <trkpt lat="43.42483" lon="6.60841">
        <ele>251.2</ele>
        <time>2013-10-10T12:24:52.519Z</time>
      </trkpt>
      <trkpt lat="43.4248" lon="6.60835">
        <ele>248.6</ele>
        <time>2013-10-10T12:24:53.504Z</time>
      </trkpt>
      <trkpt lat="43.42482" lon="6.60823">
        <ele>247.7</ele>
        <time>2013-10-10T12:24:57.520Z</time>
      </trkpt>
      <trkpt lat="43.42487" lon="6.60822">
        <ele>247.4</ele>
        <time>2013-10-10T12:24:58.504Z</time>
      </trkpt>
      <trkpt lat="43.42492" lon="6.60821">
        <ele>247.1</ele>
        <time>2013-10-10T12:24:59.521Z</time>
      </trkpt>
      <trkpt lat="43.42496" lon="6.60822">
        <ele>246.8</ele>
        <time>2013-10-10T12:25:00.635Z</time>
      </trkpt>
      <trkpt lat="43.425" lon="6.60822">
        <ele>246.5</ele>
        <time>2013-10-10T12:25:01.520Z</time>
      </trkpt>
      <trkpt lat="43.42505" lon="6.60822">
        <ele>246.2</ele>
        <time>2013-10-10T12:25:02.505Z</time>
      </trkpt>
      <trkpt lat="43.4251" lon="6.6082">
        <ele>242.7</ele>
        <time>2013-10-10T12:25:03.512Z</time>
      </trkpt>
      <trkpt lat="43.42515" lon="6.60816">
        <ele>239.5</ele>
        <time>2013-10-10T12:25:04.517Z</time>
      </trkpt>
      <trkpt lat="43.42519" lon="6.60811">
        <ele>236.6</ele>
        <time>2013-10-10T12:25:05.471Z</time>
      </trkpt>
      <trkpt lat="43.42524" lon="6.60805">
        <ele>234</ele>
        <time>2013-10-10T12:25:06.505Z</time>
      </trkpt>
      <trkpt lat="43.42528" lon="6.60798">
        <ele>231.5</ele>
        <time>2013-10-10T12:25:07.504Z</time>
      </trkpt>
      <trkpt lat="43.42533" lon="6.60791">
        <ele>229.1</ele>
        <time>2013-10-10T12:25:08.504Z</time>
      </trkpt>
      <trkpt lat="43.42538" lon="6.60787">
        <ele>226.7</ele>
        <time>2013-10-10T12:25:09.524Z</time>
      </trkpt>
      <trkpt lat="43.42542" lon="6.60785">
        <ele>226.5</ele>
        <time>2013-10-10T12:25:10.485Z</time>
      </trkpt>
      <trkpt lat="43.42546" lon="6.60777">
        <ele>223.8</ele>
        <time>2013-10-10T12:25:18.512Z</time>
      </trkpt>
      <trkpt lat="43.42545" lon="6.60778">
        <ele>223.5</ele>
        <time>2013-10-10T12:25:19.532Z</time>
      </trkpt>
      <trkpt lat="43.42546" lon="6.60773">
        <ele>223.2</ele>
        <time>2013-10-10T12:25:20.521Z</time>
      </trkpt>
      <trkpt lat="43.42553" lon="6.60775">
        <ele>217.8</ele>
        <time>2013-10-10T12:25:26.514Z</time>
      </trkpt>
      <trkpt lat="43.42556" lon="6.60781">
        <ele>217.6</ele>
        <time>2013-10-10T12:25:27.509Z</time>
      </trkpt>
      <trkpt lat="43.4256" lon="6.6079">
        <ele>217.4</ele>
        <time>2013-10-10T12:25:28.506Z</time>
      </trkpt>
      <trkpt lat="43.42563" lon="6.60796">
        <ele>217.2</ele>
        <time>2013-10-10T12:25:29.519Z</time>
      </trkpt>
      <trkpt lat="43.42565" lon="6.60789">
        <ele>213.6</ele>
        <time>2013-10-10T12:25:31.494Z</time>
      </trkpt>
      <trkpt lat="43.42565" lon="6.6078">
        <ele>211.8</ele>
        <time>2013-10-10T12:25:32.492Z</time>
      </trkpt>
      <trkpt lat="43.42564" lon="6.6077">
        <ele>210.3</ele>
        <time>2013-10-10T12:25:33.510Z</time>
      </trkpt>
      <trkpt lat="43.42563" lon="6.6076">
        <ele>208.8</ele>
        <time>2013-10-10T12:25:34.498Z</time>
      </trkpt>
      <trkpt lat="43.42562" lon="6.6075">
        <ele>208.6</ele>
        <time>2013-10-10T12:25:35.511Z</time>
      </trkpt>
      <trkpt lat="43.42563" lon="6.60743">
        <ele>208.5</ele>
        <time>2013-10-10T12:25:36.504Z</time>
      </trkpt>
      <trkpt lat="43.42571" lon="6.60745">
        <ele>208.1</ele>
        <time>2013-10-10T12:25:39.522Z</time>
      </trkpt>
      <trkpt lat="43.42574" lon="6.60752">
        <ele>207.8</ele>
        <time>2013-10-10T12:25:40.513Z</time>
      </trkpt>
      <trkpt lat="43.42576" lon="6.60759">
        <ele>206</ele>
        <time>2013-10-10T12:25:41.503Z</time>
      </trkpt>
      <trkpt lat="43.42579" lon="6.60767">
        <ele>204.5</ele>
        <time>2013-10-10T12:25:42.496Z</time>
      </trkpt>
      <trkpt lat="43.42582" lon="6.60777">
        <ele>203</ele>
        <time>2013-10-10T12:25:43.496Z</time>
      </trkpt>
      <trkpt lat="43.42585" lon="6.60786">
        <ele>201.4</ele>
        <time>2013-10-10T12:25:44.500Z</time>
      </trkpt>
      <trkpt lat="43.42588" lon="6.608">
        <ele>199.9</ele>
        <time>2013-10-10T12:25:45.497Z</time>
      </trkpt>
      <trkpt lat="43.42591" lon="6.60813">
        <ele>198.5</ele>
        <time>2013-10-10T12:25:46.499Z</time>
      </trkpt>
      <trkpt lat="43.42594" lon="6.60827">
        <ele>197.1</ele>
        <time>2013-10-10T12:25:47.500Z</time>
      </trkpt>
      <trkpt lat="43.42597" lon="6.60839">
        <ele>195.7</ele>
        <time>2013-10-10T12:25:48.508Z</time>
      </trkpt>
      <trkpt lat="43.426" lon="6.60851">
        <ele>194.8</ele>
        <time>2013-10-10T12:25:49.463Z</time>
      </trkpt>
      <trkpt lat="43.42603" lon="6.60862">
        <ele>193.5</ele>
        <time>2013-10-10T12:25:50.510Z</time>
      </trkpt>
      <trkpt lat="43.42605" lon="6.6087">
        <ele>193.3</ele>
        <time>2013-10-10T12:25:51.521Z</time>
      </trkpt>
      <trkpt lat="43.42607" lon="6.60874">
        <ele>193.2</ele>
        <time>2013-10-10T12:25:52.529Z</time>
      </trkpt>
      <trkpt lat="43.42609" lon="6.60863">
        <ele>188.9</ele>
        <time>2013-10-10T12:25:54.518Z</time>
      </trkpt>
      <trkpt lat="43.42608" lon="6.60853">
        <ele>187</ele>
        <time>2013-10-10T12:25:55.518Z</time>
      </trkpt>
      <trkpt lat="43.42607" lon="6.60841">
        <ele>185.1</ele>
        <time>2013-10-10T12:25:56.513Z</time>
      </trkpt>
      <trkpt lat="43.42605" lon="6.60829">
        <ele>183.4</ele>
        <time>2013-10-10T12:25:57.515Z</time>
      </trkpt>
      <trkpt lat="43.42604" lon="6.60818">
        <ele>182.3</ele>
        <time>2013-10-10T12:25:58.511Z</time>
      </trkpt>
      <trkpt lat="43.42603" lon="6.60808">
        <ele>181.3</ele>
        <time>2013-10-10T12:25:59.488Z</time>
      </trkpt>
      <trkpt lat="43.42602" lon="6.60799">
        <ele>180.4</ele>
        <time>2013-10-10T12:26:00.486Z</time>
      </trkpt>
      <trkpt lat="43.42602" lon="6.6079">
        <ele>179.8</ele>
        <time>2013-10-10T12:26:01.518Z</time>
      </trkpt>
      <trkpt lat="43.42602" lon="6.60781">
        <ele>179.7</ele>
        <time>2013-10-10T12:26:02.510Z</time>
      </trkpt>
      <trkpt lat="43.42602" lon="6.6077">
        <ele>180.1</ele>
        <time>2013-10-10T12:26:03.514Z</time>
      </trkpt>
      <trkpt lat="43.42604" lon="6.60758">
        <ele>179.8</ele>
        <time>2013-10-10T12:26:04.513Z</time>
      </trkpt>
      <trkpt lat="43.42607" lon="6.60746">
        <ele>180</ele>
        <time>2013-10-10T12:26:05.496Z</time>
      </trkpt>
      <trkpt lat="43.42611" lon="6.60734">
        <ele>179.6</ele>
        <time>2013-10-10T12:26:06.496Z</time>
      </trkpt>
      <trkpt lat="43.42618" lon="6.60722">
        <ele>178.8</ele>
        <time>2013-10-10T12:26:07.495Z</time>
      </trkpt>
      <trkpt lat="43.42626" lon="6.60713">
        <ele>177.5</ele>
        <time>2013-10-10T12:26:08.496Z</time>
      </trkpt>
      <trkpt lat="43.42635" lon="6.60706">
        <ele>176.3</ele>
        <time>2013-10-10T12:26:09.510Z</time>
      </trkpt>
      <trkpt lat="43.42643" lon="6.60702">
        <ele>175.6</ele>
        <time>2013-10-10T12:26:10.496Z</time>
      </trkpt>
      <trkpt lat="43.4265" lon="6.60698">
        <ele>174.1</ele>
        <time>2013-10-10T12:26:11.509Z</time>
      </trkpt>
      <trkpt lat="43.42658" lon="6.60694">
        <ele>173</ele>
        <time>2013-10-10T12:26:12.519Z</time>
      </trkpt>
      <trkpt lat="43.42664" lon="6.60691">
        <ele>171.8</ele>
        <time>2013-10-10T12:26:13.509Z</time>
      </trkpt>
      <trkpt lat="43.4267" lon="6.60692">
        <ele>170.6</ele>
        <time>2013-10-10T12:26:14.468Z</time>
      </trkpt>
      <trkpt lat="43.42672" lon="6.60699">
        <ele>169.2</ele>
        <time>2013-10-10T12:26:15.504Z</time>
      </trkpt>
      <trkpt lat="43.42671" lon="6.60709">
        <ele>168</ele>
        <time>2013-10-10T12:26:17.600Z</time>
      </trkpt>
      <trkpt lat="43.42667" lon="6.60721">
        <ele>166.5</ele>
        <time>2013-10-10T12:26:18.601Z</time>
      </trkpt>
      <trkpt lat="43.42662" lon="6.60732">
        <ele>165.3</ele>
        <time>2013-10-10T12:26:19.594Z</time>
      </trkpt>
      <trkpt lat="43.42657" lon="6.60744">
        <ele>164.5</ele>
        <time>2013-10-10T12:26:20.625Z</time>
      </trkpt>
      <trkpt lat="43.42652" lon="6.60755">
        <ele>164</ele>
        <time>2013-10-10T12:26:21.709Z</time>
      </trkpt>
      <trkpt lat="43.42648" lon="6.60765">
        <ele>163.6</ele>
        <time>2013-10-10T12:26:22.648Z</time>
      </trkpt>
      <trkpt lat="43.42647" lon="6.60774">
        <ele>163.1</ele>
        <time>2013-10-10T12:26:23.630Z</time>
      </trkpt>
      <trkpt lat="43.42648" lon="6.60782">
        <ele>162.7</ele>
        <time>2013-10-10T12:26:24.611Z</time>
      </trkpt>
      <trkpt lat="43.42652" lon="6.60788">
        <ele>162.9</ele>
        <time>2013-10-10T12:26:25.619Z</time>
      </trkpt>
      <trkpt lat="43.4266" lon="6.60792">
        <ele>162.6</ele>
        <time>2013-10-10T12:26:26.610Z</time>
      </trkpt>
      <trkpt lat="43.4267" lon="6.60798">
        <ele>162.3</ele>
        <time>2013-10-10T12:26:27.908Z</time>
      </trkpt>
      <trkpt lat="43.42677" lon="6.60802">
        <ele>161.9</ele>
        <time>2013-10-10T12:26:28.688Z</time>
      </trkpt>
      <trkpt lat="43.42685" lon="6.60811">
        <ele>161.2</ele>
        <time>2013-10-10T12:26:29.742Z</time>
      </trkpt>
      <trkpt lat="43.42691" lon="6.6082">
        <ele>160.2</ele>
        <time>2013-10-10T12:26:30.779Z</time>
      </trkpt>
      <trkpt lat="43.42693" lon="6.60831">
        <ele>159.4</ele>
        <time>2013-10-10T12:26:31.639Z</time>
      </trkpt>
      <trkpt lat="43.42694" lon="6.60843">
        <ele>158.5</ele>
        <time>2013-10-10T12:26:32.678Z</time>
      </trkpt>
      <trkpt lat="43.42696" lon="6.60853">
        <ele>158.4</ele>
        <time>2013-10-10T12:26:33.630Z</time>
      </trkpt>
      <trkpt lat="43.42703" lon="6.6086">
        <ele>154.5</ele>
        <time>2013-10-10T12:26:36.631Z</time>
      </trkpt>
      <trkpt lat="43.42708" lon="6.60851">
        <ele>153.3</ele>
        <time>2013-10-10T12:26:37.591Z</time>
      </trkpt>
      <trkpt lat="43.42713" lon="6.60842">
        <ele>152.1</ele>
        <time>2013-10-10T12:26:38.608Z</time>
      </trkpt>
      <trkpt lat="43.42719" lon="6.60833">
        <ele>151.1</ele>
        <time>2013-10-10T12:26:39.594Z</time>
      </trkpt>
      <trkpt lat="43.42726" lon="6.60824">
        <ele>149.7</ele>
        <time>2013-10-10T12:26:40.602Z</time>
      </trkpt>
      <trkpt lat="43.42733" lon="6.60815">
        <ele>148.5</ele>
        <time>2013-10-10T12:26:41.597Z</time>
      </trkpt>
      <trkpt lat="43.42738" lon="6.60806">
        <ele>147.8</ele>
        <time>2013-10-10T12:26:42.605Z</time>
      </trkpt>
      <trkpt lat="43.42741" lon="6.60797">
        <ele>147.1</ele>
        <time>2013-10-10T12:26:43.594Z</time>
      </trkpt>
      <trkpt lat="43.42739" lon="6.60788">
        <ele>146.2</ele>
        <time>2013-10-10T12:26:44.638Z</time>
      </trkpt>
      <trkpt lat="43.42735" lon="6.6078">
        <ele>145.2</ele>
        <time>2013-10-10T12:26:45.635Z</time>
      </trkpt>
      <trkpt lat="43.42731" lon="6.60773">
        <ele>145.1</ele>
        <time>2013-10-10T12:26:46.642Z</time>
      </trkpt>
      <trkpt lat="43.42728" lon="6.60766">
        <ele>144.3</ele>
        <time>2013-10-10T12:26:47.656Z</time>
      </trkpt>
      <trkpt lat="43.42729" lon="6.60762">
        <ele>143.9</ele>
        <time>2013-10-10T12:26:48.632Z</time>
      </trkpt>
      <trkpt lat="43.42734" lon="6.60758">
        <ele>143.8</ele>
        <time>2013-10-10T12:26:49.627Z</time>
      </trkpt>
      <trkpt lat="43.4274" lon="6.60753">
        <ele>143.2</ele>
        <time>2013-10-10T12:26:50.652Z</time>
      </trkpt>
      <trkpt lat="43.42745" lon="6.60748">
        <ele>143.1</ele>
        <time>2013-10-10T12:26:51.636Z</time>
      </trkpt>
      <trkpt lat="43.4275" lon="6.60744">
        <ele>143.1</ele>
        <time>2013-10-10T12:26:52.634Z</time>
      </trkpt>
      <trkpt lat="43.42754" lon="6.60741">
        <ele>143.1</ele>
        <time>2013-10-10T12:26:53.603Z</time>
      </trkpt>
      <trkpt lat="43.42759" lon="6.6074">
        <ele>142.5</ele>
        <time>2013-10-10T12:26:54.638Z</time>
      </trkpt>
      <trkpt lat="43.42763" lon="6.60737">
        <ele>141.2</ele>
        <time>2013-10-10T12:26:55.638Z</time>
      </trkpt>
      <trkpt lat="43.42767" lon="6.60734">
        <ele>141.1</ele>
        <time>2013-10-10T12:26:56.642Z</time>
      </trkpt>
      <trkpt lat="43.42771" lon="6.60731">
        <ele>141.5</ele>
        <time>2013-10-10T12:26:57.642Z</time>
      </trkpt>
      <trkpt lat="43.42775" lon="6.60727">
        <ele>141.8</ele>
        <time>2013-10-10T12:26:58.653Z</time>
      </trkpt>
      <trkpt lat="43.42778" lon="6.60722">
        <ele>141.4</ele>
        <time>2013-10-10T12:26:59.653Z</time>
      </trkpt>
      <trkpt lat="43.42782" lon="6.60717">
        <ele>141.4</ele>
        <time>2013-10-10T12:27:00.676Z</time>
      </trkpt>
      <trkpt lat="43.42787" lon="6.60712">
        <ele>140.9</ele>
        <time>2013-10-10T12:27:01.649Z</time>
      </trkpt>
      <trkpt lat="43.42791" lon="6.60707">
        <ele>140.4</ele>
        <time>2013-10-10T12:27:02.683Z</time>
      </trkpt>
      <trkpt lat="43.42796" lon="6.60702">
        <ele>139.4</ele>
        <time>2013-10-10T12:27:03.646Z</time>
      </trkpt>
      <trkpt lat="43.42802" lon="6.60697">
        <ele>138.2</ele>
        <time>2013-10-10T12:27:04.683Z</time>
      </trkpt>
      <trkpt lat="43.42808" lon="6.60693">
        <ele>136.8</ele>
        <time>2013-10-10T12:27:05.654Z</time>
      </trkpt>
      <trkpt lat="43.42815" lon="6.6069">
        <ele>134.7</ele>
        <time>2013-10-10T12:27:06.639Z</time>
      </trkpt>
      <trkpt lat="43.42822" lon="6.60687">
        <ele>133.4</ele>
        <time>2013-10-10T12:27:07.641Z</time>
      </trkpt>
      <trkpt lat="43.42829" lon="6.60685">
        <ele>131.9</ele>
        <time>2013-10-10T12:27:08.632Z</time>
      </trkpt>
      <trkpt lat="43.42835" lon="6.60682">
        <ele>130.5</ele>
        <time>2013-10-10T12:27:09.638Z</time>
      </trkpt>
      <trkpt lat="43.42842" lon="6.6068">
        <ele>129</ele>
        <time>2013-10-10T12:27:10.656Z</time>
      </trkpt>
      <trkpt lat="43.42848" lon="6.60677">
        <ele>127.6</ele>
        <time>2013-10-10T12:27:11.637Z</time>
      </trkpt>
      <trkpt lat="43.42855" lon="6.60673">
        <ele>126.9</ele>
        <time>2013-10-10T12:27:12.644Z</time>
      </trkpt>
      <trkpt lat="43.42862" lon="6.60668">
        <ele>126.5</ele>
        <time>2013-10-10T12:27:13.637Z</time>
      </trkpt>
      <trkpt lat="43.42868" lon="6.60666">
        <ele>126.5</ele>
        <time>2013-10-10T12:27:14.637Z</time>
      </trkpt>
      <trkpt lat="43.42875" lon="6.60665">
        <ele>126</ele>
        <time>2013-10-10T12:27:15.634Z</time>
      </trkpt>
      <trkpt lat="43.42881" lon="6.60666">
        <ele>125.2</ele>
        <time>2013-10-10T12:27:16.707Z</time>
      </trkpt>
      <trkpt lat="43.42887" lon="6.60668">
        <ele>124.6</ele>
        <time>2013-10-10T12:27:17.633Z</time>
      </trkpt>
      <trkpt lat="43.42894" lon="6.60669">
        <ele>124.4</ele>
        <time>2013-10-10T12:27:18.638Z</time>
      </trkpt>
      <trkpt lat="43.42901" lon="6.60672">
        <ele>124.3</ele>
        <time>2013-10-10T12:27:19.647Z</time>
      </trkpt>
      <trkpt lat="43.42908" lon="6.60675">
        <ele>124.2</ele>
        <time>2013-10-10T12:27:20.665Z</time>
      </trkpt>
      <trkpt lat="43.42915" lon="6.60677">
        <ele>124</ele>
        <time>2013-10-10T12:27:21.638Z</time>
      </trkpt>
      <trkpt lat="43.42921" lon="6.60679">
        <ele>123.3</ele>
        <time>2013-10-10T12:27:22.639Z</time>
      </trkpt>
      <trkpt lat="43.42928" lon="6.60679">
        <ele>122.8</ele>
        <time>2013-10-10T12:27:23.641Z</time>
      </trkpt>
      <trkpt lat="43.42935" lon="6.60679">
        <ele>122.1</ele>
        <time>2013-10-10T12:27:24.638Z</time>
      </trkpt>
      <trkpt lat="43.42942" lon="6.60679">
        <ele>121.4</ele>
        <time>2013-10-10T12:27:25.646Z</time>
      </trkpt>
      <trkpt lat="43.42949" lon="6.60679">
        <ele>121</ele>
        <time>2013-10-10T12:27:26.641Z</time>
      </trkpt>
      <trkpt lat="43.42956" lon="6.60682">
        <ele>120.5</ele>
        <time>2013-10-10T12:27:27.639Z</time>
      </trkpt>
      <trkpt lat="43.42962" lon="6.60687">
        <ele>120</ele>
        <time>2013-10-10T12:27:28.645Z</time>
      </trkpt>
      <trkpt lat="43.42968" lon="6.60695">
        <ele>119.3</ele>
        <time>2013-10-10T12:27:29.641Z</time>
      </trkpt>
      <trkpt lat="43.42974" lon="6.60703">
        <ele>119.2</ele>
        <time>2013-10-10T12:27:30.659Z</time>
      </trkpt>
      <trkpt lat="43.42979" lon="6.60712">
        <ele>119.3</ele>
        <time>2013-10-10T12:27:31.647Z</time>
      </trkpt>
      <trkpt lat="43.42985" lon="6.60719">
        <ele>119.4</ele>
        <time>2013-10-10T12:27:32.637Z</time>
      </trkpt>
      <trkpt lat="43.42989" lon="6.60727">
        <ele>119.5</ele>
        <time>2013-10-10T12:27:33.641Z</time>
      </trkpt>
      <trkpt lat="43.42992" lon="6.60734">
        <ele>119.5</ele>
        <time>2013-10-10T12:27:34.642Z</time>
      </trkpt>
      <trkpt lat="43.42994" lon="6.60741">
        <ele>118.8</ele>
        <time>2013-10-10T12:27:35.627Z</time>
      </trkpt>
      <trkpt lat="43.42995" lon="6.60749">
        <ele>117.6</ele>
        <time>2013-10-10T12:27:36.645Z</time>
      </trkpt>
      <trkpt lat="43.42994" lon="6.60757">
        <ele>116.8</ele>
        <time>2013-10-10T12:27:37.639Z</time>
      </trkpt>
      <trkpt lat="43.42993" lon="6.60764">
        <ele>116.2</ele>
        <time>2013-10-10T12:27:38.655Z</time>
      </trkpt>
      <trkpt lat="43.42991" lon="6.6077">
        <ele>115.7</ele>
        <time>2013-10-10T12:27:39.645Z</time>
      </trkpt>
      <trkpt lat="43.42986" lon="6.6078">
        <ele>115.6</ele>
        <time>2013-10-10T12:27:42.647Z</time>
      </trkpt>
      <trkpt lat="43.42985" lon="6.60781">
        <ele>115.6</ele>
        <time>2013-10-10T12:27:43.655Z</time>
      </trkpt>
      <trkpt lat="43.42985" lon="6.6078">
        <ele>115.6</ele>
        <time>2013-10-10T12:27:45.639Z</time>
      </trkpt>
      <trkpt lat="43.42985" lon="6.60779">
        <ele>115.6</ele>
        <time>2013-10-10T12:27:46.645Z</time>
      </trkpt>
      <trkpt lat="43.42986" lon="6.60778">
        <ele>113.6</ele>
        <time>2013-10-10T12:32:34.631Z</time>
      </trkpt>
      <trkpt lat="43.42985" lon="6.6078">
        <ele>113.6</ele>
        <time>2013-10-10T12:32:35.625Z</time>
      </trkpt>
      <trkpt lat="43.42983" lon="6.60782">
        <ele>113.5</ele>
        <time>2013-10-10T12:33:00.563Z</time>
      </trkpt>
      <trkpt lat="43.42983" lon="6.60781">
        <ele>113.5</ele>
        <time>2013-10-10T12:33:01.596Z</time>
      </trkpt>
      <trkpt lat="43.42982" lon="6.6078">
        <ele>113.6</ele>
        <time>2013-10-10T12:33:03.596Z</time>
      </trkpt>
      <trkpt lat="43.42982" lon="6.6078">
        <ele>113.6</ele>
        <time>2013-10-10T12:33:04.596Z</time>
      </trkpt>
      <trkpt lat="43.42981" lon="6.60779">
        <ele>113.6</ele>
        <time>2013-10-10T12:33:08.596Z</time>
      </trkpt>
      <trkpt lat="43.42981" lon="6.60779">
        <ele>113.6</ele>
        <time>2013-10-10T12:33:09.596Z</time>
      </trkpt>
      <trkpt lat="43.42981" lon="6.60779">
        <ele>113.6</ele>
        <time>2013-10-10T12:33:11.597Z</time>
      </trkpt>
      <trkpt lat="43.42982" lon="6.60778">
        <ele>113.7</ele>
        <time>2013-10-10T12:33:12.596Z</time>
      </trkpt>
      <trkpt lat="43.42983" lon="6.60776">
        <ele>113.7</ele>
        <time>2013-10-10T12:33:18.599Z</time>
      </trkpt>
      <trkpt lat="43.42983" lon="6.60776">
        <ele>113.7</ele>
        <time>2013-10-10T12:33:19.578Z</time>
      </trkpt>
      <trkpt lat="43.42983" lon="6.60777">
        <ele>113.7</ele>
        <time>2013-10-10T12:33:21.597Z</time>
      </trkpt>
      <trkpt lat="43.42982" lon="6.60777">
        <ele>113.7</ele>
        <time>2013-10-10T12:33:22.598Z</time>
      </trkpt>
      <trkpt lat="43.42982" lon="6.60779">
        <ele>113.7</ele>
        <time>2013-10-10T12:33:27.598Z</time>
      </trkpt>
      <trkpt lat="43.42982" lon="6.60779">
        <ele>113.7</ele>
        <time>2013-10-10T12:33:28.598Z</time>
      </trkpt>
      <trkpt lat="43.42982" lon="6.6078">
        <ele>113.3</ele>
        <time>2013-10-10T12:33:48.645Z</time>
      </trkpt>
      <trkpt lat="43.42982" lon="6.60779">
        <ele>113.3</ele>
        <time>2013-10-10T12:33:49.632Z</time>
      </trkpt>
      <trkpt lat="43.4298" lon="6.60773">
        <ele>113.4</ele>
        <time>2013-10-10T12:34:03.631Z</time>
      </trkpt>
      <trkpt lat="43.4298" lon="6.60774">
        <ele>113.4</ele>
        <time>2013-10-10T12:34:04.631Z</time>
      </trkpt>
      <trkpt lat="43.4298" lon="6.60774">
        <ele>113.4</ele>
        <time>2013-10-10T12:34:05.632Z</time>
      </trkpt>
      <trkpt lat="43.42979" lon="6.60774">
        <ele>113.4</ele>
        <time>2013-10-10T12:34:06.631Z</time>
      </trkpt>
      <trkpt lat="43.42978" lon="6.60773">
        <ele>113.5</ele>
        <time>2013-10-10T12:34:11.628Z</time>
      </trkpt>
      <trkpt lat="43.42978" lon="6.60773">
        <ele>113.5</ele>
        <time>2013-10-10T12:34:12.634Z</time>
      </trkpt>
      <trkpt lat="43.42979" lon="6.60774">
        <ele>113.4</ele>
        <time>2013-10-10T12:34:24.632Z</time>
      </trkpt>
      <trkpt lat="43.4298" lon="6.60774">
        <ele>113.4</ele>
        <time>2013-10-10T12:34:25.641Z</time>
      </trkpt>
      <trkpt lat="43.42981" lon="6.60773">
        <ele>113.5</ele>
        <time>2013-10-10T12:34:30.628Z</time>
      </trkpt>
      <trkpt lat="43.42981" lon="6.60773">
        <ele>113.5</ele>
        <time>2013-10-10T12:34:31.621Z</time>
      </trkpt>
      <trkpt lat="43.42981" lon="6.60775">
        <ele>113.5</ele>
        <time>2013-10-10T12:34:36.616Z</time>
      </trkpt>
      <trkpt lat="43.4298" lon="6.60775">
        <ele>113.5</ele>
        <time>2013-10-10T12:34:37.621Z</time>
      </trkpt>
      <trkpt lat="43.4298" lon="6.60775">
        <ele>113.6</ele>
        <time>2013-10-10T12:34:38.618Z</time>
      </trkpt>
      <trkpt lat="43.4298" lon="6.60776">
        <ele>113.6</ele>
        <time>2013-10-10T12:34:39.618Z</time>
      </trkpt>
      <trkpt lat="43.42981" lon="6.60788">
        <ele>113.6</ele>
        <time>2013-10-10T12:34:51.616Z</time>
      </trkpt>
      <trkpt lat="43.42981" lon="6.6079">
        <ele>113.6</ele>
        <time>2013-10-10T12:34:52.616Z</time>
      </trkpt>
      <trkpt lat="43.42982" lon="6.60801">
        <ele>113.6</ele>
        <time>2013-10-10T12:34:58.608Z</time>
      </trkpt>
      <trkpt lat="43.42982" lon="6.60803">
        <ele>113.6</ele>
        <time>2013-10-10T12:34:59.623Z</time>
      </trkpt>
      <trkpt lat="43.42983" lon="6.60814">
        <ele>113.7</ele>
        <time>2013-10-10T12:35:05.626Z</time>
      </trkpt>
      <trkpt lat="43.42984" lon="6.60816">
        <ele>113.7</ele>
        <time>2013-10-10T12:35:06.606Z</time>
      </trkpt>
      <trkpt lat="43.42987" lon="6.60826">
        <ele>113.7</ele>
        <time>2013-10-10T12:35:12.651Z</time>
      </trkpt>
      <trkpt lat="43.42987" lon="6.60828">
        <ele>113.7</ele>
        <time>2013-10-10T12:35:13.607Z</time>
      </trkpt>
      <trkpt lat="43.4299" lon="6.60839">
        <ele>113.8</ele>
        <time>2013-10-10T12:35:19.613Z</time>
      </trkpt>
      <trkpt lat="43.4299" lon="6.6084">
        <ele>113.8</ele>
        <time>2013-10-10T12:35:20.619Z</time>
      </trkpt>
      <trkpt lat="43.42993" lon="6.60851">
        <ele>113.9</ele>
        <time>2013-10-10T12:35:26.612Z</time>
      </trkpt>
      <trkpt lat="43.42994" lon="6.60853">
        <ele>113.9</ele>
        <time>2013-10-10T12:35:27.607Z</time>
      </trkpt>
      <trkpt lat="43.42998" lon="6.60863">
        <ele>114</ele>
        <time>2013-10-10T12:35:34.584Z</time>
      </trkpt>
      <trkpt lat="43.42998" lon="6.60865">
        <ele>114</ele>
        <time>2013-10-10T12:35:35.611Z</time>
      </trkpt>
      <trkpt lat="43.43" lon="6.60877">
        <ele>114.2</ele>
        <time>2013-10-10T12:35:42.609Z</time>
      </trkpt>
      <trkpt lat="43.43001" lon="6.60879">
        <ele>114.2</ele>
        <time>2013-10-10T12:35:43.610Z</time>
      </trkpt>
      <trkpt lat="43.43003" lon="6.6089">
        <ele>114.3</ele>
        <time>2013-10-10T12:35:49.616Z</time>
      </trkpt>
      <trkpt lat="43.43004" lon="6.60891">
        <ele>114.3</ele>
        <time>2013-10-10T12:35:50.622Z</time>
      </trkpt>
      <trkpt lat="43.43006" lon="6.60903">
        <ele>114.5</ele>
        <time>2013-10-10T12:35:57.618Z</time>
      </trkpt>
      <trkpt lat="43.43007" lon="6.60905">
        <ele>114.6</ele>
        <time>2013-10-10T12:35:58.609Z</time>
      </trkpt>
      <trkpt lat="43.43009" lon="6.60916">
        <ele>114.7</ele>
        <time>2013-10-10T12:36:03.611Z</time>
      </trkpt>
      <trkpt lat="43.43009" lon="6.60918">
        <ele>114.7</ele>
        <time>2013-10-10T12:36:04.620Z</time>
      </trkpt>
      <trkpt lat="43.43011" lon="6.60925">
        <ele>114.8</ele>
        <time>2013-10-10T12:36:07.611Z</time>
      </trkpt>
      <trkpt lat="43.43015" lon="6.6093">
        <ele>115.1</ele>
        <time>2013-10-10T12:36:08.611Z</time>
      </trkpt>
      <trkpt lat="43.4302" lon="6.60937">
        <ele>115.4</ele>
        <time>2013-10-10T12:36:09.667Z</time>
      </trkpt>
      <trkpt lat="43.43022" lon="6.60941">
        <ele>115.4</ele>
        <time>2013-10-10T12:36:10.647Z</time>
      </trkpt>
      <trkpt lat="43.43026" lon="6.60949">
        <ele>115.9</ele>
        <time>2013-10-10T12:36:12.656Z</time>
      </trkpt>
      <trkpt lat="43.43028" lon="6.60952">
        <ele>116.2</ele>
        <time>2013-10-10T12:36:13.713Z</time>
      </trkpt>
      <trkpt lat="43.43034" lon="6.60961">
        <ele>117.1</ele>
        <time>2013-10-10T12:36:17.643Z</time>
      </trkpt>
      <trkpt lat="43.43035" lon="6.60964">
        <ele>117.3</ele>
        <time>2013-10-10T12:36:18.648Z</time>
      </trkpt>
      <trkpt lat="43.43039" lon="6.60973">
        <ele>118</ele>
        <time>2013-10-10T12:36:21.650Z</time>
      </trkpt>
      <trkpt lat="43.4304" lon="6.60976">
        <ele>118.2</ele>
        <time>2013-10-10T12:36:22.645Z</time>
      </trkpt>
      <trkpt lat="43.43044" lon="6.60985">
        <ele>119</ele>
        <time>2013-10-10T12:36:26.647Z</time>
      </trkpt>
      <trkpt lat="43.43046" lon="6.60987">
        <ele>119.2</ele>
        <time>2013-10-10T12:36:27.646Z</time>
      </trkpt>
      <trkpt lat="43.43049" lon="6.60996">
        <ele>120</ele>
        <time>2013-10-10T12:36:31.644Z</time>
      </trkpt>
      <trkpt lat="43.4305" lon="6.60999">
        <ele>120.2</ele>
        <time>2013-10-10T12:36:32.608Z</time>
      </trkpt>
      <trkpt lat="43.43052" lon="6.61009">
        <ele>121</ele>
        <time>2013-10-10T12:36:36.650Z</time>
      </trkpt>
      <trkpt lat="43.43053" lon="6.61011">
        <ele>121.3</ele>
        <time>2013-10-10T12:36:37.641Z</time>
      </trkpt>
      <trkpt lat="43.43058" lon="6.6102">
        <ele>122.8</ele>
        <time>2013-10-10T12:36:42.651Z</time>
      </trkpt>
      <trkpt lat="43.4306" lon="6.61022">
        <ele>123.1</ele>
        <time>2013-10-10T12:36:43.641Z</time>
      </trkpt>
      <trkpt lat="43.43065" lon="6.6103">
        <ele>123.9</ele>
        <time>2013-10-10T12:36:46.641Z</time>
      </trkpt>
      <trkpt lat="43.43067" lon="6.61032">
        <ele>124.2</ele>
        <time>2013-10-10T12:36:47.644Z</time>
      </trkpt>
      <trkpt lat="43.43072" lon="6.6104">
        <ele>125</ele>
        <time>2013-10-10T12:36:51.649Z</time>
      </trkpt>
      <trkpt lat="43.43073" lon="6.61042">
        <ele>125.3</ele>
        <time>2013-10-10T12:36:52.649Z</time>
      </trkpt>
      <trkpt lat="43.43075" lon="6.61053">
        <ele>126.5</ele>
        <time>2013-10-10T12:36:57.650Z</time>
      </trkpt>
      <trkpt lat="43.43075" lon="6.61056">
        <ele>126.6</ele>
        <time>2013-10-10T12:36:58.648Z</time>
      </trkpt>
      <trkpt lat="43.43074" lon="6.61066">
        <ele>127</ele>
        <time>2013-10-10T12:37:01.776Z</time>
      </trkpt>
      <trkpt lat="43.43073" lon="6.61069">
        <ele>127.1</ele>
        <time>2013-10-10T12:37:02.648Z</time>
      </trkpt>
      <trkpt lat="43.4307" lon="6.61079">
        <ele>127.5</ele>
        <time>2013-10-10T12:37:05.647Z</time>
      </trkpt>
      <trkpt lat="43.43068" lon="6.61083">
        <ele>127.7</ele>
        <time>2013-10-10T12:37:06.648Z</time>
      </trkpt>
      <trkpt lat="43.43064" lon="6.6109">
        <ele>128</ele>
        <time>2013-10-10T12:37:08.647Z</time>
      </trkpt>
      <trkpt lat="43.43061" lon="6.61094">
        <ele>128.1</ele>
        <time>2013-10-10T12:37:09.649Z</time>
      </trkpt>
      <trkpt lat="43.43055" lon="6.61102">
        <ele>128.4</ele>
        <time>2013-10-10T12:37:11.651Z</time>
      </trkpt>
      <trkpt lat="43.43053" lon="6.61106">
        <ele>128.6</ele>
        <time>2013-10-10T12:37:12.648Z</time>
      </trkpt>
      <trkpt lat="43.43054" lon="6.61114">
        <ele>128.8</ele>
        <time>2013-10-10T12:37:14.660Z</time>
      </trkpt>
      <trkpt lat="43.43057" lon="6.61118">
        <ele>129</ele>
        <time>2013-10-10T12:37:15.654Z</time>
      </trkpt>
      <trkpt lat="43.43063" lon="6.61124">
        <ele>129.3</ele>
        <time>2013-10-10T12:37:17.654Z</time>
      </trkpt>
      <trkpt lat="43.43066" lon="6.61125">
        <ele>129.4</ele>
        <time>2013-10-10T12:37:18.653Z</time>
      </trkpt>
      <trkpt lat="43.43075" lon="6.61128">
        <ele>130.2</ele>
        <time>2013-10-10T12:37:22.615Z</time>
      </trkpt>
      <trkpt lat="43.43076" lon="6.61129">
        <ele>130.3</ele>
        <time>2013-10-10T12:37:23.596Z</time>
      </trkpt>
      <trkpt lat="43.43085" lon="6.61131">
        <ele>130.7</ele>
        <time>2013-10-10T12:37:28.648Z</time>
      </trkpt>
      <trkpt lat="43.43087" lon="6.61132">
        <ele>130.8</ele>
        <time>2013-10-10T12:37:29.643Z</time>
      </trkpt>
      <trkpt lat="43.43094" lon="6.61138">
        <ele>131</ele>
        <time>2013-10-10T12:37:34.633Z</time>
      </trkpt>
      <trkpt lat="43.43096" lon="6.61139">
        <ele>131.1</ele>
        <time>2013-10-10T12:37:35.642Z</time>
      </trkpt>
      <trkpt lat="43.43102" lon="6.61147">
        <ele>131.4</ele>
        <time>2013-10-10T12:37:39.632Z</time>
      </trkpt>
      <trkpt lat="43.43104" lon="6.61149">
        <ele>131.5</ele>
        <time>2013-10-10T12:37:40.650Z</time>
      </trkpt>
      <trkpt lat="43.43109" lon="6.61157">
        <ele>131.9</ele>
        <time>2013-10-10T12:37:43.632Z</time>
      </trkpt>
      <trkpt lat="43.43111" lon="6.61159">
        <ele>132</ele>
        <time>2013-10-10T12:37:44.602Z</time>
      </trkpt>
      <trkpt lat="43.43117" lon="6.61166">
        <ele>132.4</ele>
        <time>2013-10-10T12:37:48.633Z</time>
      </trkpt>
      <trkpt lat="43.43118" lon="6.61168">
        <ele>132.4</ele>
        <time>2013-10-10T12:37:49.633Z</time>
      </trkpt>
      <trkpt lat="43.43124" lon="6.61176">
        <ele>132.6</ele>
        <time>2013-10-10T12:37:53.643Z</time>
      </trkpt>
      <trkpt lat="43.43125" lon="6.61179">
        <ele>132.6</ele>
        <time>2013-10-10T12:37:54.631Z</time>
      </trkpt>
      <trkpt lat="43.43129" lon="6.61188">
        <ele>132.8</ele>
        <time>2013-10-10T12:37:57.643Z</time>
      </trkpt>
      <trkpt lat="43.43129" lon="6.61191">
        <ele>132.8</ele>
        <time>2013-10-10T12:37:58.648Z</time>
      </trkpt>
      <trkpt lat="43.43131" lon="6.612">
        <ele>132.8</ele>
        <time>2013-10-10T12:38:01.703Z</time>
      </trkpt>
      <trkpt lat="43.43132" lon="6.61204">
        <ele>132.8</ele>
        <time>2013-10-10T12:38:02.649Z</time>
      </trkpt>
      <trkpt lat="43.43132" lon="6.61214">
        <ele>132.8</ele>
        <time>2013-10-10T12:38:05.648Z</time>
      </trkpt>
      <trkpt lat="43.43132" lon="6.61217">
        <ele>132.8</ele>
        <time>2013-10-10T12:38:06.654Z</time>
      </trkpt>
      <trkpt lat="43.43132" lon="6.61227">
        <ele>132.9</ele>
        <time>2013-10-10T12:38:09.656Z</time>
      </trkpt>
      <trkpt lat="43.43132" lon="6.6123">
        <ele>133</ele>
        <time>2013-10-10T12:38:10.670Z</time>
      </trkpt>
      <trkpt lat="43.4313" lon="6.61241">
        <ele>133.4</ele>
        <time>2013-10-10T12:38:14.653Z</time>
      </trkpt>
      <trkpt lat="43.4313" lon="6.61244">
        <ele>133.5</ele>
        <time>2013-10-10T12:38:15.653Z</time>
      </trkpt>
      <trkpt lat="43.43129" lon="6.61254">
        <ele>133.7</ele>
        <time>2013-10-10T12:38:18.654Z</time>
      </trkpt>
      <trkpt lat="43.43128" lon="6.61258">
        <ele>133.8</ele>
        <time>2013-10-10T12:38:19.660Z</time>
      </trkpt>
      <trkpt lat="43.43125" lon="6.61267">
        <ele>134</ele>
        <time>2013-10-10T12:38:22.661Z</time>
      </trkpt>
      <trkpt lat="43.43123" lon="6.6127">
        <ele>134.1</ele>
        <time>2013-10-10T12:38:23.651Z</time>
      </trkpt>
      <trkpt lat="43.43118" lon="6.6128">
        <ele>134.4</ele>
        <time>2013-10-10T12:38:26.648Z</time>
      </trkpt>
      <trkpt lat="43.43116" lon="6.61283">
        <ele>134.6</ele>
        <time>2013-10-10T12:38:27.649Z</time>
      </trkpt>
      <trkpt lat="43.43112" lon="6.61292">
        <ele>135.1</ele>
        <time>2013-10-10T12:38:30.747Z</time>
      </trkpt>
      <trkpt lat="43.4311" lon="6.61294">
        <ele>135.2</ele>
        <time>2013-10-10T12:38:31.643Z</time>
      </trkpt>
      <trkpt lat="43.43105" lon="6.61303">
        <ele>135.9</ele>
        <time>2013-10-10T12:38:35.648Z</time>
      </trkpt>
      <trkpt lat="43.43104" lon="6.61306">
        <ele>136.1</ele>
        <time>2013-10-10T12:38:36.644Z</time>
      </trkpt>
      <trkpt lat="43.43101" lon="6.61316">
        <ele>136.5</ele>
        <time>2013-10-10T12:38:40.658Z</time>
      </trkpt>
      <trkpt lat="43.431" lon="6.61319">
        <ele>136.6</ele>
        <time>2013-10-10T12:38:41.651Z</time>
      </trkpt>
      <trkpt lat="43.43095" lon="6.61327">
        <ele>136.9</ele>
        <time>2013-10-10T12:38:45.652Z</time>
      </trkpt>
      <trkpt lat="43.43094" lon="6.61329">
        <ele>137</ele>
        <time>2013-10-10T12:38:46.651Z</time>
      </trkpt>
      <trkpt lat="43.43089" lon="6.61338">
        <ele>137.5</ele>
        <time>2013-10-10T12:38:50.665Z</time>
      </trkpt>
      <trkpt lat="43.43088" lon="6.6134">
        <ele>137.6</ele>
        <time>2013-10-10T12:38:51.651Z</time>
      </trkpt>
      <trkpt lat="43.43082" lon="6.61347">
        <ele>138.2</ele>
        <time>2013-10-10T12:38:55.647Z</time>
      </trkpt>
      <trkpt lat="43.4308" lon="6.61348">
        <ele>138.4</ele>
        <time>2013-10-10T12:38:56.647Z</time>
      </trkpt>
      <trkpt lat="43.43073" lon="6.61353">
        <ele>139.1</ele>
        <time>2013-10-10T12:39:00.610Z</time>
      </trkpt>
      <trkpt lat="43.43071" lon="6.61355">
        <ele>139.3</ele>
        <time>2013-10-10T12:39:01.659Z</time>
      </trkpt>
      <trkpt lat="43.43065" lon="6.6136">
        <ele>139.8</ele>
        <time>2013-10-10T12:39:04.659Z</time>
      </trkpt>
      <trkpt lat="43.43063" lon="6.61361">
        <ele>140</ele>
        <time>2013-10-10T12:39:05.617Z</time>
      </trkpt>
      <trkpt lat="43.43057" lon="6.61366">
        <ele>140.5</ele>
        <time>2013-10-10T12:39:08.652Z</time>
      </trkpt>
      <trkpt lat="43.43055" lon="6.61367">
        <ele>140.6</ele>
        <time>2013-10-10T12:39:09.653Z</time>
      </trkpt>
      <trkpt lat="43.43049" lon="6.61374">
        <ele>141.4</ele>
        <time>2013-10-10T12:39:14.648Z</time>
      </trkpt>
      <trkpt lat="43.43047" lon="6.61375">
        <ele>141.5</ele>
        <time>2013-10-10T12:39:15.656Z</time>
      </trkpt>
      <trkpt lat="43.43042" lon="6.61384">
        <ele>142.2</ele>
        <time>2013-10-10T12:39:19.645Z</time>
      </trkpt>
      <trkpt lat="43.43042" lon="6.61387">
        <ele>142.4</ele>
        <time>2013-10-10T12:39:20.662Z</time>
      </trkpt>
      <trkpt lat="43.43041" lon="6.61396">
        <ele>142.9</ele>
        <time>2013-10-10T12:39:23.649Z</time>
      </trkpt>
      <trkpt lat="43.43041" lon="6.61399">
        <ele>143</ele>
        <time>2013-10-10T12:39:24.646Z</time>
      </trkpt>
      <trkpt lat="43.43042" lon="6.61411">
        <ele>143.9</ele>
        <time>2013-10-10T12:39:29.649Z</time>
      </trkpt>
      <trkpt lat="43.43042" lon="6.61414">
        <ele>144.2</ele>
        <time>2013-10-10T12:39:30.666Z</time>
      </trkpt>
      <trkpt lat="43.43044" lon="6.61424">
        <ele>145.1</ele>
        <time>2013-10-10T12:39:34.646Z</time>
      </trkpt>
      <trkpt lat="43.43044" lon="6.61426">
        <ele>145.2</ele>
        <time>2013-10-10T12:39:35.644Z</time>
      </trkpt>
      <trkpt lat="43.43036" lon="6.6143">
        <ele>146.9</ele>
        <time>2013-10-10T12:39:46.654Z</time>
      </trkpt>
      <trkpt lat="43.43035" lon="6.61428">
        <ele>147.1</ele>
        <time>2013-10-10T12:39:47.652Z</time>
      </trkpt>
      <trkpt lat="43.4303" lon="6.6142">
        <ele>147.6</ele>
        <time>2013-10-10T12:39:51.654Z</time>
      </trkpt>
      <trkpt lat="43.43029" lon="6.61418">
        <ele>147.7</ele>
        <time>2013-10-10T12:39:52.653Z</time>
      </trkpt>
      <trkpt lat="43.43024" lon="6.61408">
        <ele>148.9</ele>
        <time>2013-10-10T12:39:59.651Z</time>
      </trkpt>
      <trkpt lat="43.43024" lon="6.61407">
        <ele>149.2</ele>
        <time>2013-10-10T12:40:00.605Z</time>
      </trkpt>
      <trkpt lat="43.43018" lon="6.61399">
        <ele>150.2</ele>
        <time>2013-10-10T12:40:04.653Z</time>
      </trkpt>
      <trkpt lat="43.43017" lon="6.61397">
        <ele>150.3</ele>
        <time>2013-10-10T12:40:05.656Z</time>
      </trkpt>
      <trkpt lat="43.43014" lon="6.61387">
        <ele>150.6</ele>
        <time>2013-10-10T12:40:09.651Z</time>
      </trkpt>
      <trkpt lat="43.43014" lon="6.61384">
        <ele>150.7</ele>
        <time>2013-10-10T12:40:10.667Z</time>
      </trkpt>
      <trkpt lat="43.43014" lon="6.61372">
        <ele>151.4</ele>
        <time>2013-10-10T12:40:16.663Z</time>
      </trkpt>
      <trkpt lat="43.43014" lon="6.61369">
        <ele>151.5</ele>
        <time>2013-10-10T12:40:17.655Z</time>
      </trkpt>
      <trkpt lat="43.43014" lon="6.61358">
        <ele>152.2</ele>
        <time>2013-10-10T12:40:22.647Z</time>
      </trkpt>
      <trkpt lat="43.43014" lon="6.61356">
        <ele>152.4</ele>
        <time>2013-10-10T12:40:23.657Z</time>
      </trkpt>
      <trkpt lat="43.43014" lon="6.61346">
        <ele>153.1</ele>
        <time>2013-10-10T12:40:28.643Z</time>
      </trkpt>
      <trkpt lat="43.43014" lon="6.61343">
        <ele>153.2</ele>
        <time>2013-10-10T12:40:29.642Z</time>
      </trkpt>
      <trkpt lat="43.43012" lon="6.61334">
        <ele>153.7</ele>
        <time>2013-10-10T12:40:33.643Z</time>
      </trkpt>
      <trkpt lat="43.43011" lon="6.61331">
        <ele>153.8</ele>
        <time>2013-10-10T12:40:34.643Z</time>
      </trkpt>
      <trkpt lat="43.43006" lon="6.61322">
        <ele>154.3</ele>
        <time>2013-10-10T12:40:39.592Z</time>
      </trkpt>
      <trkpt lat="43.43005" lon="6.61321">
        <ele>154.4</ele>
        <time>2013-10-10T12:40:40.407Z</time>
      </trkpt>
      <trkpt lat="43.42999" lon="6.61314">
        <ele>154.9</ele>
        <time>2013-10-10T12:40:45.254Z</time>
      </trkpt>
      <trkpt lat="43.42998" lon="6.61312">
        <ele>155</ele>
        <time>2013-10-10T12:40:46.273Z</time>
      </trkpt>
      <trkpt lat="43.4299" lon="6.61308">
        <ele>155.8</ele>
        <time>2013-10-10T12:40:53.247Z</time>
      </trkpt>
      <trkpt lat="43.42988" lon="6.6131">
        <ele>156</ele>
        <time>2013-10-10T12:40:54.251Z</time>
      </trkpt>
      <trkpt lat="43.42986" lon="6.61322">
        <ele>156.7</ele>
        <time>2013-10-10T12:41:00.305Z</time>
      </trkpt>
      <trkpt lat="43.42986" lon="6.61323">
        <ele>156.8</ele>
        <time>2013-10-10T12:41:01.251Z</time>
      </trkpt>
      <trkpt lat="43.42989" lon="6.61335">
        <ele>157.6</ele>
        <time>2013-10-10T12:41:08.296Z</time>
      </trkpt>
      <trkpt lat="43.42989" lon="6.61336">
        <ele>157.7</ele>
        <time>2013-10-10T12:41:09.287Z</time>
      </trkpt>
      <trkpt lat="43.4299" lon="6.61347">
        <ele>158.4</ele>
        <time>2013-10-10T12:41:16.293Z</time>
      </trkpt>
      <trkpt lat="43.4299" lon="6.6135">
        <ele>158.4</ele>
        <time>2013-10-10T12:41:17.284Z</time>
      </trkpt>
      <trkpt lat="43.42987" lon="6.6136">
        <ele>158.9</ele>
        <time>2013-10-10T12:41:22.284Z</time>
      </trkpt>
      <trkpt lat="43.42986" lon="6.61363">
        <ele>159</ele>
        <time>2013-10-10T12:41:23.289Z</time>
      </trkpt>
      <trkpt lat="43.42983" lon="6.61373">
        <ele>159.6</ele>
        <time>2013-10-10T12:41:28.276Z</time>
      </trkpt>
      <trkpt lat="43.42982" lon="6.61375">
        <ele>159.7</ele>
        <time>2013-10-10T12:41:29.276Z</time>
      </trkpt>
      <trkpt lat="43.42978" lon="6.61385">
        <ele>160.2</ele>
        <time>2013-10-10T12:41:34.281Z</time>
      </trkpt>
      <trkpt lat="43.42978" lon="6.61388">
        <ele>160.3</ele>
        <time>2013-10-10T12:41:35.295Z</time>
      </trkpt>
      <trkpt lat="43.42977" lon="6.614">
        <ele>160.8</ele>
        <time>2013-10-10T12:41:40.297Z</time>
      </trkpt>
      <trkpt lat="43.42977" lon="6.61402">
        <ele>160.9</ele>
        <time>2013-10-10T12:41:41.291Z</time>
      </trkpt>
      <trkpt lat="43.42975" lon="6.61413">
        <ele>161.6</ele>
        <time>2013-10-10T12:41:47.304Z</time>
      </trkpt>
      <trkpt lat="43.42975" lon="6.61414">
        <ele>161.8</ele>
        <time>2013-10-10T12:41:48.288Z</time>
      </trkpt>
      <trkpt lat="43.4297" lon="6.61424">
        <ele>162.9</ele>
        <time>2013-10-10T12:41:56.290Z</time>
      </trkpt>
      <trkpt lat="43.42969" lon="6.61425">
        <ele>163.1</ele>
        <time>2013-10-10T12:41:57.290Z</time>
      </trkpt>
      <trkpt lat="43.42964" lon="6.61434">
        <ele>164.6</ele>
        <time>2013-10-10T12:42:06.293Z</time>
      </trkpt>
      <trkpt lat="43.42963" lon="6.61435">
        <ele>164.7</ele>
        <time>2013-10-10T12:42:07.289Z</time>
      </trkpt>
      <trkpt lat="43.42956" lon="6.61442">
        <ele>167.7</ele>
        <time>2013-10-10T12:42:20.295Z</time>
      </trkpt>
      <trkpt lat="43.42955" lon="6.61442">
        <ele>168.1</ele>
        <time>2013-10-10T12:42:21.281Z</time>
      </trkpt>
      <trkpt lat="43.42954" lon="6.61445">
        <ele>169.6</ele>
        <time>2013-10-10T12:42:27.286Z</time>
      </trkpt>
      <trkpt lat="43.42954" lon="6.61445">
        <ele>169.9</ele>
        <time>2013-10-10T12:42:28.282Z</time>
      </trkpt>
      <trkpt lat="43.42954" lon="6.61445">
        <ele>170.1</ele>
        <time>2013-10-10T12:42:29.277Z</time>
      </trkpt>
      <trkpt lat="43.42954" lon="6.61446">
        <ele>170.3</ele>
        <time>2013-10-10T12:42:30.293Z</time>
      </trkpt>
      <trkpt lat="43.42948" lon="6.61455">
        <ele>176.6</ele>
        <time>2013-10-10T12:42:52.301Z</time>
      </trkpt>
      <trkpt lat="43.42948" lon="6.61456">
        <ele>176.9</ele>
        <time>2013-10-10T12:42:53.294Z</time>
      </trkpt>
      <trkpt lat="43.42948" lon="6.61459">
        <ele>177.8</ele>
        <time>2013-10-10T12:43:01.368Z</time>
      </trkpt>
      <trkpt lat="43.42949" lon="6.61459">
        <ele>177.9</ele>
        <time>2013-10-10T12:43:02.290Z</time>
      </trkpt>
      <trkpt lat="43.42949" lon="6.61459">
        <ele>177.9</ele>
        <time>2013-10-10T12:43:03.304Z</time>
      </trkpt>
      <trkpt lat="43.42941" lon="6.61463">
        <ele>181.1</ele>
        <time>2013-10-10T12:43:17.303Z</time>
      </trkpt>
      <trkpt lat="43.4294" lon="6.61463">
        <ele>181.2</ele>
        <time>2013-10-10T12:43:18.355Z</time>
      </trkpt>
      <trkpt lat="43.42932" lon="6.61468">
        <ele>183.6</ele>
        <time>2013-10-10T12:43:32.308Z</time>
      </trkpt>
      <trkpt lat="43.42931" lon="6.61469">
        <ele>183.7</ele>
        <time>2013-10-10T12:43:33.300Z</time>
      </trkpt>
      <trkpt lat="43.42923" lon="6.61473">
        <ele>185.2</ele>
        <time>2013-10-10T12:43:50.301Z</time>
      </trkpt>
      <trkpt lat="43.42923" lon="6.61473">
        <ele>185.3</ele>
        <time>2013-10-10T12:43:51.285Z</time>
      </trkpt>
      <trkpt lat="43.42915" lon="6.6148">
        <ele>186.5</ele>
        <time>2013-10-10T12:44:03.288Z</time>
      </trkpt>
      <trkpt lat="43.42915" lon="6.6148">
        <ele>186.6</ele>
        <time>2013-10-10T12:44:04.286Z</time>
      </trkpt>
      <trkpt lat="43.42911" lon="6.61491">
        <ele>188.3</ele>
        <time>2013-10-10T12:44:18.293Z</time>
      </trkpt>
      <trkpt lat="43.42911" lon="6.61492">
        <ele>188.5</ele>
        <time>2013-10-10T12:44:19.292Z</time>
      </trkpt>
      <trkpt lat="43.42909" lon="6.61502">
        <ele>189.3</ele>
        <time>2013-10-10T12:44:31.272Z</time>
      </trkpt>
      <trkpt lat="43.42908" lon="6.61503">
        <ele>189.3</ele>
        <time>2013-10-10T12:44:32.292Z</time>
      </trkpt>
      <trkpt lat="43.42902" lon="6.61513">
        <ele>189.7</ele>
        <time>2013-10-10T12:44:46.503Z</time>
      </trkpt>
      <trkpt lat="43.42902" lon="6.61513">
        <ele>189.8</ele>
        <time>2013-10-10T12:44:47.294Z</time>
      </trkpt>
      <trkpt lat="43.42896" lon="6.61522">
        <ele>191.6</ele>
        <time>2013-10-10T12:44:59.295Z</time>
      </trkpt>
      <trkpt lat="43.42895" lon="6.61522">
        <ele>191.7</ele>
        <time>2013-10-10T12:45:00.314Z</time>
      </trkpt>
      <trkpt lat="43.42889" lon="6.6153">
        <ele>193.9</ele>
        <time>2013-10-10T12:45:14.294Z</time>
      </trkpt>
      <trkpt lat="43.42889" lon="6.61531">
        <ele>194</ele>
        <time>2013-10-10T12:45:15.295Z</time>
      </trkpt>
      <trkpt lat="43.42883" lon="6.61539">
        <ele>195.3</ele>
        <time>2013-10-10T12:45:29.285Z</time>
      </trkpt>
      <trkpt lat="43.42883" lon="6.6154">
        <ele>195.4</ele>
        <time>2013-10-10T12:45:30.297Z</time>
      </trkpt>
      <trkpt lat="43.4288" lon="6.61545">
        <ele>196.4</ele>
        <time>2013-10-10T12:45:39.288Z</time>
      </trkpt>
      <trkpt lat="43.4288" lon="6.61545">
        <ele>196.5</ele>
        <time>2013-10-10T12:45:40.305Z</time>
      </trkpt>
      <trkpt lat="43.4288" lon="6.61546">
        <ele>196.8</ele>
        <time>2013-10-10T12:45:43.284Z</time>
      </trkpt>
      <trkpt lat="43.4288" lon="6.61547">
        <ele>197</ele>
        <time>2013-10-10T12:45:44.285Z</time>
      </trkpt>
      <trkpt lat="43.4288" lon="6.61547">
        <ele>197.2</ele>
        <time>2013-10-10T12:45:46.301Z</time>
      </trkpt>
      <trkpt lat="43.4288" lon="6.61547">
        <ele>197.2</ele>
        <time>2013-10-10T12:45:47.289Z</time>
      </trkpt>
      <trkpt lat="43.4288" lon="6.61547">
        <ele>197.2</ele>
        <time>2013-10-10T12:45:48.290Z</time>
      </trkpt>
      <trkpt lat="43.42881" lon="6.61547">
        <ele>197.2</ele>
        <time>2013-10-10T12:45:49.291Z</time>
      </trkpt>
      <trkpt lat="43.42882" lon="6.61546">
        <ele>197.2</ele>
        <time>2013-10-10T12:45:54.324Z</time>
      </trkpt>
      <trkpt lat="43.42882" lon="6.61547">
        <ele>197.3</ele>
        <time>2013-10-10T12:45:55.345Z</time>
      </trkpt>
      <trkpt lat="43.42882" lon="6.61546">
        <ele>197.4</ele>
        <time>2013-10-10T12:46:00.282Z</time>
      </trkpt>
      <trkpt lat="43.42882" lon="6.61547">
        <ele>197.4</ele>
        <time>2013-10-10T12:46:01.264Z</time>
      </trkpt>
      <trkpt lat="43.42883" lon="6.61549">
        <ele>197.8</ele>
        <time>2013-10-10T12:46:07.298Z</time>
      </trkpt>
      <trkpt lat="43.42883" lon="6.61549">
        <ele>197.8</ele>
        <time>2013-10-10T12:46:08.294Z</time>
      </trkpt>
      <trkpt lat="43.42883" lon="6.61549">
        <ele>197.8</ele>
        <time>2013-10-10T12:46:10.299Z</time>
      </trkpt>
      <trkpt lat="43.42882" lon="6.6155">
        <ele>197.8</ele>
        <time>2013-10-10T12:46:11.300Z</time>
      </trkpt>
      <trkpt lat="43.4288" lon="6.61551">
        <ele>197.7</ele>
        <time>2013-10-10T12:46:21.264Z</time>
      </trkpt>
      <trkpt lat="43.4288" lon="6.61551">
        <ele>197.7</ele>
        <time>2013-10-10T12:46:22.292Z</time>
      </trkpt>
      <trkpt lat="43.4288" lon="6.61551">
        <ele>197.7</ele>
        <time>2013-10-10T12:46:24.285Z</time>
      </trkpt>
      <trkpt lat="43.4288" lon="6.61552">
        <ele>197.8</ele>
        <time>2013-10-10T12:46:25.304Z</time>
      </trkpt>
      <trkpt lat="43.42879" lon="6.61564">
        <ele>199.7</ele>
        <time>2013-10-10T12:46:45.294Z</time>
      </trkpt>
      <trkpt lat="43.42878" lon="6.61565">
        <ele>199.8</ele>
        <time>2013-10-10T12:46:46.297Z</time>
      </trkpt>
      <trkpt lat="43.42879" lon="6.61571">
        <ele>200</ele>
        <time>2013-10-10T12:46:54.291Z</time>
      </trkpt>
      <trkpt lat="43.42879" lon="6.61571">
        <ele>200.1</ele>
        <time>2013-10-10T12:46:55.291Z</time>
      </trkpt>
      <trkpt lat="43.42879" lon="6.6157">
        <ele>200.1</ele>
        <time>2013-10-10T12:47:01.302Z</time>
      </trkpt>
      <trkpt lat="43.42879" lon="6.61571">
        <ele>200.1</ele>
        <time>2013-10-10T12:47:02.275Z</time>
      </trkpt>
      <trkpt lat="43.42879" lon="6.61582">
        <ele>200.6</ele>
        <time>2013-10-10T12:47:17.289Z</time>
      </trkpt>
      <trkpt lat="43.42879" lon="6.61581">
        <ele>200.6</ele>
        <time>2013-10-10T12:47:18.294Z</time>
      </trkpt>
      <trkpt lat="43.4288" lon="6.61582">
        <ele>200.7</ele>
        <time>2013-10-10T12:47:20.303Z</time>
      </trkpt>
      <trkpt lat="43.4288" lon="6.61583">
        <ele>200.7</ele>
        <time>2013-10-10T12:47:21.288Z</time>
      </trkpt>
      <trkpt lat="43.42876" lon="6.61594">
        <ele>202</ele>
        <time>2013-10-10T12:47:35.292Z</time>
      </trkpt>
      <trkpt lat="43.42876" lon="6.61594">
        <ele>202.1</ele>
        <time>2013-10-10T12:47:36.286Z</time>
      </trkpt>
      <trkpt lat="43.42874" lon="6.61601">
        <ele>203</ele>
        <time>2013-10-10T12:47:49.296Z</time>
      </trkpt>
      <trkpt lat="43.42874" lon="6.61601">
        <ele>203</ele>
        <time>2013-10-10T12:47:50.310Z</time>
      </trkpt>
      <trkpt lat="43.42874" lon="6.61601">
        <ele>203.5</ele>
        <time>2013-10-10T12:47:53.428Z</time>
      </trkpt>
      <trkpt lat="43.42874" lon="6.61602">
        <ele>203.7</ele>
        <time>2013-10-10T12:47:54.296Z</time>
      </trkpt>
      <trkpt lat="43.42875" lon="6.61614">
        <ele>205.9</ele>
        <time>2013-10-10T12:48:12.298Z</time>
      </trkpt>
      <trkpt lat="43.42875" lon="6.61614">
        <ele>206</ele>
        <time>2013-10-10T12:48:13.296Z</time>
      </trkpt>
      <trkpt lat="43.42876" lon="6.61616">
        <ele>206.2</ele>
        <time>2013-10-10T12:48:18.257Z</time>
      </trkpt>
      <trkpt lat="43.42875" lon="6.61616">
        <ele>206.2</ele>
        <time>2013-10-10T12:48:19.299Z</time>
      </trkpt>
      <trkpt lat="43.42875" lon="6.61617">
        <ele>206.3</ele>
        <time>2013-10-10T12:48:20.271Z</time>
      </trkpt>
      <trkpt lat="43.42875" lon="6.61617">
        <ele>206.4</ele>
        <time>2013-10-10T12:48:21.257Z</time>
      </trkpt>
      <trkpt lat="43.42877" lon="6.61628">
        <ele>207.6</ele>
        <time>2013-10-10T12:48:38.294Z</time>
      </trkpt>
      <trkpt lat="43.42877" lon="6.61629">
        <ele>207.6</ele>
        <time>2013-10-10T12:48:39.303Z</time>
      </trkpt>
      <trkpt lat="43.4288" lon="6.6164">
        <ele>207.9</ele>
        <time>2013-10-10T12:48:47.288Z</time>
      </trkpt>
      <trkpt lat="43.4288" lon="6.61641">
        <ele>207.9</ele>
        <time>2013-10-10T12:48:48.290Z</time>
      </trkpt>
      <trkpt lat="43.42881" lon="6.61653">
        <ele>208.6</ele>
        <time>2013-10-10T12:49:07.290Z</time>
      </trkpt>
      <trkpt lat="43.42881" lon="6.61654">
        <ele>208.6</ele>
        <time>2013-10-10T12:49:08.294Z</time>
      </trkpt>
      <trkpt lat="43.42881" lon="6.61664">
        <ele>209.7</ele>
        <time>2013-10-10T12:49:23.293Z</time>
      </trkpt>
      <trkpt lat="43.4288" lon="6.61664">
        <ele>209.7</ele>
        <time>2013-10-10T12:49:24.293Z</time>
      </trkpt>
      <trkpt lat="43.4288" lon="6.61665">
        <ele>209.9</ele>
        <time>2013-10-10T12:49:26.289Z</time>
      </trkpt>
      <trkpt lat="43.42881" lon="6.61665">
        <ele>210.1</ele>
        <time>2013-10-10T12:49:27.288Z</time>
      </trkpt>
      <trkpt lat="43.42879" lon="6.61677">
        <ele>212</ele>
        <time>2013-10-10T12:49:41.300Z</time>
      </trkpt>
      <trkpt lat="43.42878" lon="6.61678">
        <ele>212.1</ele>
        <time>2013-10-10T12:49:42.298Z</time>
      </trkpt>
      <trkpt lat="43.42872" lon="6.61686">
        <ele>213.7</ele>
        <time>2013-10-10T12:49:53.303Z</time>
      </trkpt>
      <trkpt lat="43.42871" lon="6.61686">
        <ele>213.9</ele>
        <time>2013-10-10T12:49:54.296Z</time>
      </trkpt>
      <trkpt lat="43.42869" lon="6.61688">
        <ele>214.5</ele>
        <time>2013-10-10T12:49:59.294Z</time>
      </trkpt>
      <trkpt lat="43.42869" lon="6.61688">
        <ele>214.6</ele>
        <time>2013-10-10T12:50:00.301Z</time>
      </trkpt>
      <trkpt lat="43.42869" lon="6.61688">
        <ele>214.8</ele>
        <time>2013-10-10T12:50:01.247Z</time>
      </trkpt>
      <trkpt lat="43.42869" lon="6.61689">
        <ele>214.9</ele>
        <time>2013-10-10T12:50:02.303Z</time>
      </trkpt>
      <trkpt lat="43.42863" lon="6.61695">
        <ele>216.7</ele>
        <time>2013-10-10T12:50:16.312Z</time>
      </trkpt>
      <trkpt lat="43.42863" lon="6.61695">
        <ele>216.9</ele>
        <time>2013-10-10T12:50:17.514Z</time>
      </trkpt>
      <trkpt lat="43.42862" lon="6.61695">
        <ele>217</ele>
        <time>2013-10-10T12:50:18.309Z</time>
      </trkpt>
      <trkpt lat="43.42862" lon="6.61695">
        <ele>217.1</ele>
        <time>2013-10-10T12:50:19.313Z</time>
      </trkpt>
      <trkpt lat="43.42855" lon="6.61688">
        <ele>218.5</ele>
        <time>2013-10-10T12:50:36.288Z</time>
      </trkpt>
      <trkpt lat="43.42855" lon="6.61687">
        <ele>218.5</ele>
        <time>2013-10-10T12:50:37.288Z</time>
      </trkpt>
      <trkpt lat="43.42855" lon="6.61687">
        <ele>218.5</ele>
        <time>2013-10-10T12:50:39.292Z</time>
      </trkpt>
      <trkpt lat="43.42855" lon="6.61687">
        <ele>218.5</ele>
        <time>2013-10-10T12:50:40.305Z</time>
      </trkpt>
      <trkpt lat="43.42854" lon="6.61687">
        <ele>218.5</ele>
        <time>2013-10-10T12:50:41.291Z</time>
      </trkpt>
      <trkpt lat="43.42854" lon="6.61687">
        <ele>218.7</ele>
        <time>2013-10-10T12:50:42.286Z</time>
      </trkpt>
      <trkpt lat="43.42846" lon="6.6168">
        <ele>219.8</ele>
        <time>2013-10-10T12:50:52.286Z</time>
      </trkpt>
      <trkpt lat="43.42845" lon="6.6168">
        <ele>219.9</ele>
        <time>2013-10-10T12:50:53.249Z</time>
      </trkpt>
      <trkpt lat="43.4284" lon="6.61677">
        <ele>220.8</ele>
        <time>2013-10-10T12:51:02.282Z</time>
      </trkpt>
      <trkpt lat="43.4284" lon="6.61677">
        <ele>220.8</ele>
        <time>2013-10-10T12:51:03.277Z</time>
      </trkpt>
      <trkpt lat="43.4284" lon="6.61677">
        <ele>220.9</ele>
        <time>2013-10-10T12:51:06.315Z</time>
      </trkpt>
      <trkpt lat="43.4284" lon="6.61676">
        <ele>220.9</ele>
        <time>2013-10-10T12:51:07.405Z</time>
      </trkpt>
      <trkpt lat="43.42839" lon="6.61676">
        <ele>221.5</ele>
        <time>2013-10-10T12:51:11.341Z</time>
      </trkpt>
      <trkpt lat="43.42839" lon="6.61676">
        <ele>221.8</ele>
        <time>2013-10-10T12:51:12.265Z</time>
      </trkpt>
      <trkpt lat="43.42839" lon="6.61676">
        <ele>221.9</ele>
        <time>2013-10-10T12:51:13.292Z</time>
      </trkpt>
      <trkpt lat="43.42838" lon="6.61675">
        <ele>222.1</ele>
        <time>2013-10-10T12:51:14.296Z</time>
      </trkpt>
      <trkpt lat="43.42832" lon="6.61669">
        <ele>223.7</ele>
        <time>2013-10-10T12:51:29.312Z</time>
      </trkpt>
      <trkpt lat="43.42831" lon="6.61668">
        <ele>223.8</ele>
        <time>2013-10-10T12:51:30.321Z</time>
      </trkpt>
      <trkpt lat="43.42823" lon="6.61663">
        <ele>225.7</ele>
        <time>2013-10-10T12:51:44.306Z</time>
      </trkpt>
      <trkpt lat="43.42823" lon="6.61663">
        <ele>225.8</ele>
        <time>2013-10-10T12:51:45.308Z</time>
      </trkpt>
      <trkpt lat="43.42815" lon="6.61659">
        <ele>227.2</ele>
        <time>2013-10-10T12:51:57.296Z</time>
      </trkpt>
      <trkpt lat="43.42814" lon="6.61658">
        <ele>227.3</ele>
        <time>2013-10-10T12:51:58.299Z</time>
      </trkpt>
      <trkpt lat="43.42809" lon="6.6165">
        <ele>228.4</ele>
        <time>2013-10-10T12:52:12.296Z</time>
      </trkpt>
      <trkpt lat="43.42809" lon="6.6165">
        <ele>228.4</ele>
        <time>2013-10-10T12:52:13.296Z</time>
      </trkpt>
      <trkpt lat="43.4281" lon="6.6165">
        <ele>228.5</ele>
        <time>2013-10-10T12:52:15.292Z</time>
      </trkpt>
      <trkpt lat="43.4281" lon="6.61649">
        <ele>228.6</ele>
        <time>2013-10-10T12:52:16.296Z</time>
      </trkpt>
      <trkpt lat="43.42809" lon="6.61646">
        <ele>229.1</ele>
        <time>2013-10-10T12:52:22.481Z</time>
      </trkpt>
      <trkpt lat="43.42809" lon="6.61646">
        <ele>229.1</ele>
        <time>2013-10-10T12:52:23.102Z</time>
      </trkpt>
      <trkpt lat="43.4281" lon="6.61645">
        <ele>229.4</ele>
        <time>2013-10-10T12:52:30.131Z</time>
      </trkpt>
      <trkpt lat="43.42809" lon="6.61645">
        <ele>229.6</ele>
        <time>2013-10-10T12:52:31.117Z</time>
      </trkpt>
      <trkpt lat="43.42805" lon="6.61635">
        <ele>230.8</ele>
        <time>2013-10-10T12:52:44.116Z</time>
      </trkpt>
      <trkpt lat="43.42804" lon="6.61634">
        <ele>230.9</ele>
        <time>2013-10-10T12:52:45.123Z</time>
      </trkpt>
      <trkpt lat="43.42805" lon="6.61622">
        <ele>232.2</ele>
        <time>2013-10-10T12:53:01.072Z</time>
      </trkpt>
      <trkpt lat="43.42805" lon="6.61622">
        <ele>232.2</ele>
        <time>2013-10-10T12:53:02.120Z</time>
      </trkpt>
      <trkpt lat="43.42805" lon="6.61622">
        <ele>232.2</ele>
        <time>2013-10-10T12:53:03.089Z</time>
      </trkpt>
      <trkpt lat="43.42805" lon="6.61622">
        <ele>232.2</ele>
        <time>2013-10-10T12:53:04.650Z</time>
      </trkpt>
      <trkpt lat="43.42805" lon="6.61621">
        <ele>232.3</ele>
        <time>2013-10-10T12:53:05.661Z</time>
      </trkpt>
      <trkpt lat="43.42803" lon="6.61609">
        <ele>234.2</ele>
        <time>2013-10-10T12:53:18.654Z</time>
      </trkpt>
      <trkpt lat="43.42804" lon="6.61608">
        <ele>234.4</ele>
        <time>2013-10-10T12:53:19.648Z</time>
      </trkpt>
      <trkpt lat="43.42803" lon="6.61603">
        <ele>235.8</ele>
        <time>2013-10-10T12:53:27.649Z</time>
      </trkpt>
      <trkpt lat="43.42803" lon="6.61603">
        <ele>235.8</ele>
        <time>2013-10-10T12:53:28.732Z</time>
      </trkpt>
      <trkpt lat="43.42803" lon="6.61602">
        <ele>236.1</ele>
        <time>2013-10-10T12:53:30.666Z</time>
      </trkpt>
      <trkpt lat="43.42803" lon="6.61601">
        <ele>236.3</ele>
        <time>2013-10-10T12:53:31.650Z</time>
      </trkpt>
      <trkpt lat="43.428" lon="6.6159">
        <ele>238</ele>
        <time>2013-10-10T12:53:44.656Z</time>
      </trkpt>
      <trkpt lat="43.42799" lon="6.61589">
        <ele>238.1</ele>
        <time>2013-10-10T12:53:45.653Z</time>
      </trkpt>
      <trkpt lat="43.42797" lon="6.61578">
        <ele>240.1</ele>
        <time>2013-10-10T12:53:59.652Z</time>
      </trkpt>
      <trkpt lat="43.42797" lon="6.61577">
        <ele>240.2</ele>
        <time>2013-10-10T12:54:00.620Z</time>
      </trkpt>
      <trkpt lat="43.42793" lon="6.61566">
        <ele>242.5</ele>
        <time>2013-10-10T12:54:14.652Z</time>
      </trkpt>
      <trkpt lat="43.42792" lon="6.61566">
        <ele>242.6</ele>
        <time>2013-10-10T12:54:15.656Z</time>
      </trkpt>
      <trkpt lat="43.42788" lon="6.61556">
        <ele>244.5</ele>
        <time>2013-10-10T12:54:30.666Z</time>
      </trkpt>
      <trkpt lat="43.42787" lon="6.61555">
        <ele>244.6</ele>
        <time>2013-10-10T12:54:31.661Z</time>
      </trkpt>
      <trkpt lat="43.42786" lon="6.61551">
        <ele>245</ele>
        <time>2013-10-10T12:54:37.667Z</time>
      </trkpt>
      <trkpt lat="43.42786" lon="6.61551">
        <ele>245</ele>
        <time>2013-10-10T12:54:38.649Z</time>
      </trkpt>
      <trkpt lat="43.42786" lon="6.61551">
        <ele>245.1</ele>
        <time>2013-10-10T12:54:39.655Z</time>
      </trkpt>
      <trkpt lat="43.42785" lon="6.61551">
        <ele>245.3</ele>
        <time>2013-10-10T12:54:40.667Z</time>
      </trkpt>
      <trkpt lat="43.42781" lon="6.61541">
        <ele>246.7</ele>
        <time>2013-10-10T12:54:52.649Z</time>
      </trkpt>
      <trkpt lat="43.42781" lon="6.6154">
        <ele>246.8</ele>
        <time>2013-10-10T12:54:53.649Z</time>
      </trkpt>
      <trkpt lat="43.42777" lon="6.6153">
        <ele>248</ele>
        <time>2013-10-10T12:55:03.649Z</time>
      </trkpt>
      <trkpt lat="43.42777" lon="6.61529">
        <ele>248.1</ele>
        <time>2013-10-10T12:55:04.616Z</time>
      </trkpt>
      <trkpt lat="43.42776" lon="6.61526">
        <ele>248.4</ele>
        <time>2013-10-10T12:55:09.737Z</time>
      </trkpt>
      <trkpt lat="43.42776" lon="6.61526">
        <ele>248.4</ele>
        <time>2013-10-10T12:55:10.665Z</time>
      </trkpt>
      <trkpt lat="43.42776" lon="6.61526">
        <ele>248.6</ele>
        <time>2013-10-10T12:55:11.654Z</time>
      </trkpt>
      <trkpt lat="43.42776" lon="6.61514">
        <ele>250.6</ele>
        <time>2013-10-10T12:55:23.648Z</time>
      </trkpt>
      <trkpt lat="43.42776" lon="6.61513">
        <ele>250.8</ele>
        <time>2013-10-10T12:55:24.648Z</time>
      </trkpt>
      <trkpt lat="43.42776" lon="6.61502">
        <ele>253.1</ele>
        <time>2013-10-10T12:55:35.656Z</time>
      </trkpt>
      <trkpt lat="43.42776" lon="6.61501">
        <ele>253.3</ele>
        <time>2013-10-10T12:55:36.657Z</time>
      </trkpt>
      <trkpt lat="43.42775" lon="6.61488">
        <ele>254.8</ele>
        <time>2013-10-10T12:55:45.661Z</time>
      </trkpt>
      <trkpt lat="43.42775" lon="6.61487">
        <ele>255</ele>
        <time>2013-10-10T12:55:46.657Z</time>
      </trkpt>
      <trkpt lat="43.42771" lon="6.61477">
        <ele>256.3</ele>
        <time>2013-10-10T12:55:58.658Z</time>
      </trkpt>
      <trkpt lat="43.4277" lon="6.61477">
        <ele>256.4</ele>
        <time>2013-10-10T12:55:59.659Z</time>
      </trkpt>
      <trkpt lat="43.42762" lon="6.61481">
        <ele>257.1</ele>
        <time>2013-10-10T12:56:08.667Z</time>
      </trkpt>
      <trkpt lat="43.42761" lon="6.61482">
        <ele>257.2</ele>
        <time>2013-10-10T12:56:09.663Z</time>
      </trkpt>
      <trkpt lat="43.42753" lon="6.61484">
        <ele>258.3</ele>
        <time>2013-10-10T12:56:17.664Z</time>
      </trkpt>
      <trkpt lat="43.42751" lon="6.61485">
        <ele>258.5</ele>
        <time>2013-10-10T12:56:18.666Z</time>
      </trkpt>
      <trkpt lat="43.42743" lon="6.61487">
        <ele>259.2</ele>
        <time>2013-10-10T12:56:24.666Z</time>
      </trkpt>
      <trkpt lat="43.42741" lon="6.61487">
        <ele>259.3</ele>
        <time>2013-10-10T12:56:25.666Z</time>
      </trkpt>
      <trkpt lat="43.42733" lon="6.61491">
        <ele>260.1</ele>
        <time>2013-10-10T12:56:31.615Z</time>
      </trkpt>
      <trkpt lat="43.42732" lon="6.61491">
        <ele>260.1</ele>
        <time>2013-10-10T12:56:32.831Z</time>
      </trkpt>
      <trkpt lat="43.42724" lon="6.61496">
        <ele>260.5</ele>
        <time>2013-10-10T12:56:37.618Z</time>
      </trkpt>
      <trkpt lat="43.42722" lon="6.61497">
        <ele>260.6</ele>
        <time>2013-10-10T12:56:38.607Z</time>
      </trkpt>
      <trkpt lat="43.42714" lon="6.61501">
        <ele>261</ele>
        <time>2013-10-10T12:56:42.606Z</time>
      </trkpt>
      <trkpt lat="43.42712" lon="6.61502">
        <ele>261.1</ele>
        <time>2013-10-10T12:56:43.653Z</time>
      </trkpt>
      <trkpt lat="43.42704" lon="6.61507">
        <ele>261.5</ele>
        <time>2013-10-10T12:56:48.611Z</time>
      </trkpt>
      <trkpt lat="43.42702" lon="6.61508">
        <ele>261.6</ele>
        <time>2013-10-10T12:56:49.611Z</time>
      </trkpt>
      <trkpt lat="43.42694" lon="6.61513">
        <ele>262</ele>
        <time>2013-10-10T12:56:55.659Z</time>
      </trkpt>
      <trkpt lat="43.42693" lon="6.61514">
        <ele>262.1</ele>
        <time>2013-10-10T12:56:56.658Z</time>
      </trkpt>
      <trkpt lat="43.42686" lon="6.61517">
        <ele>262.6</ele>
        <time>2013-10-10T12:57:00.632Z</time>
      </trkpt>
      <trkpt lat="43.42684" lon="6.61518">
        <ele>262.7</ele>
        <time>2013-10-10T12:57:01.606Z</time>
      </trkpt>
      <trkpt lat="43.42676" lon="6.61523">
        <ele>263.5</ele>
        <time>2013-10-10T12:57:09.662Z</time>
      </trkpt>
      <trkpt lat="43.42675" lon="6.61524">
        <ele>263.6</ele>
        <time>2013-10-10T12:57:10.676Z</time>
      </trkpt>
      <trkpt lat="43.42672" lon="6.61524">
        <ele>264.3</ele>
        <time>2013-10-10T12:57:21.670Z</time>
      </trkpt>
      <trkpt lat="43.42672" lon="6.61524">
        <ele>264.4</ele>
        <time>2013-10-10T12:57:22.660Z</time>
      </trkpt>
      <trkpt lat="43.42672" lon="6.61524">
        <ele>264.5</ele>
        <time>2013-10-10T12:57:23.626Z</time>
      </trkpt>
      <trkpt lat="43.42672" lon="6.61525">
        <ele>264.5</ele>
        <time>2013-10-10T12:57:24.661Z</time>
      </trkpt>
      <trkpt lat="43.42665" lon="6.61519">
        <ele>265.4</ele>
        <time>2013-10-10T12:57:39.670Z</time>
      </trkpt>
      <trkpt lat="43.42664" lon="6.61518">
        <ele>265.4</ele>
        <time>2013-10-10T12:57:40.671Z</time>
      </trkpt>
      <trkpt lat="43.42655" lon="6.61515">
        <ele>265.9</ele>
        <time>2013-10-10T12:57:50.674Z</time>
      </trkpt>
      <trkpt lat="43.42655" lon="6.61516">
        <ele>265.9</ele>
        <time>2013-10-10T12:57:51.673Z</time>
      </trkpt>
      <trkpt lat="43.42646" lon="6.61517">
        <ele>266.8</ele>
        <time>2013-10-10T12:58:06.663Z</time>
      </trkpt>
      <trkpt lat="43.42645" lon="6.61518">
        <ele>267</ele>
        <time>2013-10-10T12:58:07.663Z</time>
      </trkpt>
      <trkpt lat="43.42636" lon="6.61519">
        <ele>268.1</ele>
        <time>2013-10-10T12:58:23.697Z</time>
      </trkpt>
      <trkpt lat="43.42636" lon="6.61519">
        <ele>268</ele>
        <time>2013-10-10T12:58:24.680Z</time>
      </trkpt>
      <trkpt lat="43.42627" lon="6.61522">
        <ele>268.5</ele>
        <time>2013-10-10T12:58:37.662Z</time>
      </trkpt>
      <trkpt lat="43.42627" lon="6.61522">
        <ele>268.5</ele>
        <time>2013-10-10T12:58:38.662Z</time>
      </trkpt>
      <trkpt lat="43.4262" lon="6.61524">
        <ele>270.4</ele>
        <time>2013-10-10T12:58:51.669Z</time>
      </trkpt>
      <trkpt lat="43.4262" lon="6.61524">
        <ele>270.6</ele>
        <time>2013-10-10T12:58:52.659Z</time>
      </trkpt>
      <trkpt lat="43.4262" lon="6.61525">
        <ele>270.8</ele>
        <time>2013-10-10T12:58:53.659Z</time>
      </trkpt>
      <trkpt lat="43.42614" lon="6.61531">
        <ele>273.1</ele>
        <time>2013-10-10T12:59:13.618Z</time>
      </trkpt>
      <trkpt lat="43.42614" lon="6.61531">
        <ele>273.2</ele>
        <time>2013-10-10T12:59:14.613Z</time>
      </trkpt>
      <trkpt lat="43.42614" lon="6.61531">
        <ele>273.4</ele>
        <time>2013-10-10T12:59:15.693Z</time>
      </trkpt>
      <trkpt lat="43.42605" lon="6.61533">
        <ele>276.4</ele>
        <time>2013-10-10T12:59:28.660Z</time>
      </trkpt>
      <trkpt lat="43.42605" lon="6.61533">
        <ele>276.6</ele>
        <time>2013-10-10T12:59:29.657Z</time>
      </trkpt>
      <trkpt lat="43.42603" lon="6.61533">
        <ele>277.3</ele>
        <time>2013-10-10T12:59:34.663Z</time>
      </trkpt>
      <trkpt lat="43.42603" lon="6.61533">
        <ele>277.3</ele>
        <time>2013-10-10T12:59:35.661Z</time>
      </trkpt>
      <trkpt lat="43.42604" lon="6.61532">
        <ele>277.4</ele>
        <time>2013-10-10T12:59:36.663Z</time>
      </trkpt>
      <trkpt lat="43.42604" lon="6.61529">
        <ele>277.5</ele>
        <time>2013-10-10T12:59:43.697Z</time>
      </trkpt>
      <trkpt lat="43.42604" lon="6.61529">
        <ele>277.5</ele>
        <time>2013-10-10T12:59:44.705Z</time>
      </trkpt>
      <trkpt lat="43.42603" lon="6.6153">
        <ele>277.7</ele>
        <time>2013-10-10T12:59:48.673Z</time>
      </trkpt>
      <trkpt lat="43.42603" lon="6.6153">
        <ele>277.8</ele>
        <time>2013-10-10T12:59:49.682Z</time>
      </trkpt>
      <trkpt lat="43.42603" lon="6.61531">
        <ele>278.2</ele>
        <time>2013-10-10T12:59:53.626Z</time>
      </trkpt>
      <trkpt lat="43.42603" lon="6.61531">
        <ele>278.3</ele>
        <time>2013-10-10T12:59:54.649Z</time>
      </trkpt>
      <trkpt lat="43.42603" lon="6.6153">
        <ele>278.3</ele>
        <time>2013-10-10T12:59:56.656Z</time>
      </trkpt>
      <trkpt lat="43.42603" lon="6.61529">
        <ele>278.3</ele>
        <time>2013-10-10T12:59:57.650Z</time>
      </trkpt>
      <trkpt lat="43.42603" lon="6.61526">
        <ele>278.5</ele>
        <time>2013-10-10T13:00:04.702Z</time>
      </trkpt>
      <trkpt lat="43.42603" lon="6.61526">
        <ele>278.5</ele>
        <time>2013-10-10T13:00:05.724Z</time>
      </trkpt>
      <trkpt lat="43.42603" lon="6.61526">
        <ele>278.5</ele>
        <time>2013-10-10T13:00:06.617Z</time>
      </trkpt>
      <trkpt lat="43.42602" lon="6.61526">
        <ele>278.5</ele>
        <time>2013-10-10T13:00:07.672Z</time>
      </trkpt>
      <trkpt lat="43.42601" lon="6.61527">
        <ele>278.4</ele>
        <time>2013-10-10T13:00:18.675Z</time>
      </trkpt>
      <trkpt lat="43.42601" lon="6.61527">
        <ele>278.4</ele>
        <time>2013-10-10T13:00:19.670Z</time>
      </trkpt>
      <trkpt lat="43.42597" lon="6.61528">
        <ele>278.4</ele>
        <time>2013-10-10T13:00:29.651Z</time>
      </trkpt>
      <trkpt lat="43.42597" lon="6.61528">
        <ele>278.4</ele>
        <time>2013-10-10T13:00:30.694Z</time>
      </trkpt>
      <trkpt lat="43.42596" lon="6.61527">
        <ele>277.9</ele>
        <time>2013-10-10T13:01:13.659Z</time>
      </trkpt>
      <trkpt lat="43.42596" lon="6.61527">
        <ele>277.9</ele>
        <time>2013-10-10T13:01:14.659Z</time>
      </trkpt>
      <trkpt lat="43.42597" lon="6.61526">
        <ele>277.9</ele>
        <time>2013-10-10T13:01:17.627Z</time>
      </trkpt>
      <trkpt lat="43.42597" lon="6.61526">
        <ele>277.9</ele>
        <time>2013-10-10T13:01:18.656Z</time>
      </trkpt>
      <trkpt lat="43.42597" lon="6.61527">
        <ele>277.9</ele>
        <time>2013-10-10T13:01:20.692Z</time>
      </trkpt>
      <trkpt lat="43.42597" lon="6.61527">
        <ele>277.9</ele>
        <time>2013-10-10T13:01:21.634Z</time>
      </trkpt>
      <trkpt lat="43.42598" lon="6.61528">
        <ele>277.5</ele>
        <time>2013-10-10T13:01:28.679Z</time>
      </trkpt>
      <trkpt lat="43.42598" lon="6.61528">
        <ele>277.5</ele>
        <time>2013-10-10T13:01:29.663Z</time>
      </trkpt>
      <trkpt lat="43.42599" lon="6.61529">
        <ele>277.6</ele>
        <time>2013-10-10T13:01:33.648Z</time>
      </trkpt>
      <trkpt lat="43.42599" lon="6.61529">
        <ele>277.6</ele>
        <time>2013-10-10T13:01:34.670Z</time>
      </trkpt>
      <trkpt lat="43.426" lon="6.61531">
        <ele>277.6</ele>
        <time>2013-10-10T13:01:38.667Z</time>
      </trkpt>
      <trkpt lat="43.426" lon="6.61531">
        <ele>277.6</ele>
        <time>2013-10-10T13:01:39.673Z</time>
      </trkpt>
      <trkpt lat="43.426" lon="6.6153">
        <ele>277.6</ele>
        <time>2013-10-10T13:01:43.707Z</time>
      </trkpt>
      <trkpt lat="43.426" lon="6.61529">
        <ele>277.6</ele>
        <time>2013-10-10T13:01:44.700Z</time>
      </trkpt>
      <trkpt lat="43.426" lon="6.61528">
        <ele>277.6</ele>
        <time>2013-10-10T13:01:46.681Z</time>
      </trkpt>
      <trkpt lat="43.426" lon="6.61528">
        <ele>277.7</ele>
        <time>2013-10-10T13:01:47.683Z</time>
      </trkpt>
      <trkpt lat="43.426" lon="6.61529">
        <ele>277.8</ele>
        <time>2013-10-10T13:01:49.601Z</time>
      </trkpt>
      <trkpt lat="43.42599" lon="6.61529">
        <ele>277.8</ele>
        <time>2013-10-10T13:01:50.678Z</time>
      </trkpt>
      <trkpt lat="43.42596" lon="6.6153">
        <ele>278.4</ele>
        <time>2013-10-10T13:01:57.666Z</time>
      </trkpt>
      <trkpt lat="43.42596" lon="6.6153">
        <ele>278.4</ele>
        <time>2013-10-10T13:01:58.672Z</time>
      </trkpt>
      <trkpt lat="43.42596" lon="6.6153">
        <ele>278.4</ele>
        <time>2013-10-10T13:01:59.668Z</time>
      </trkpt>
      <trkpt lat="43.42596" lon="6.6153">
        <ele>278.4</ele>
        <time>2013-10-10T13:02:00.628Z</time>
      </trkpt>
      <trkpt lat="43.42594" lon="6.61528">
        <ele>278.1</ele>
        <time>2013-10-10T13:02:16.680Z</time>
      </trkpt>
      <trkpt lat="43.42594" lon="6.61528">
        <ele>278.1</ele>
        <time>2013-10-10T13:02:17.667Z</time>
      </trkpt>
      <trkpt lat="43.42594" lon="6.61528">
        <ele>278.1</ele>
        <time>2013-10-10T13:02:18.664Z</time>
      </trkpt>
      <trkpt lat="43.42594" lon="6.61528">
        <ele>278.1</ele>
        <time>2013-10-10T13:02:19.666Z</time>
      </trkpt>
      <trkpt lat="43.42594" lon="6.61527">
        <ele>278.1</ele>
        <time>2013-10-10T13:02:20.682Z</time>
      </trkpt>
      <trkpt lat="43.42594" lon="6.61527">
        <ele>278.1</ele>
        <time>2013-10-10T13:02:21.667Z</time>
      </trkpt>
      <trkpt lat="43.42595" lon="6.61527">
        <ele>278</ele>
        <time>2013-10-10T13:02:27.663Z</time>
      </trkpt>
      <trkpt lat="43.42595" lon="6.61528">
        <ele>278</ele>
        <time>2013-10-10T13:02:28.658Z</time>
      </trkpt>
      <trkpt lat="43.42595" lon="6.6153">
        <ele>278.1</ele>
        <time>2013-10-10T13:02:32.705Z</time>
      </trkpt>
      <trkpt lat="43.42595" lon="6.6153">
        <ele>278.1</ele>
        <time>2013-10-10T13:02:33.708Z</time>
      </trkpt>
      <trkpt lat="43.42595" lon="6.61529">
        <ele>278.2</ele>
        <time>2013-10-10T13:02:36.693Z</time>
      </trkpt>
      <trkpt lat="43.42596" lon="6.61529">
        <ele>278.3</ele>
        <time>2013-10-10T13:02:37.711Z</time>
      </trkpt>
      <trkpt lat="43.42595" lon="6.61528">
        <ele>278.5</ele>
        <time>2013-10-10T13:02:45.671Z</time>
      </trkpt>
      <trkpt lat="43.42595" lon="6.61528">
        <ele>278.5</ele>
        <time>2013-10-10T13:02:46.669Z</time>
      </trkpt>
      <trkpt lat="43.42595" lon="6.61526">
        <ele>278.6</ele>
        <time>2013-10-10T13:02:58.683Z</time>
      </trkpt>
      <trkpt lat="43.42595" lon="6.61526">
        <ele>278.6</ele>
        <time>2013-10-10T13:02:59.658Z</time>
      </trkpt>
      <trkpt lat="43.42594" lon="6.61525">
        <ele>278.7</ele>
        <time>2013-10-10T13:03:03.675Z</time>
      </trkpt>
      <trkpt lat="43.42594" lon="6.61525">
        <ele>278.7</ele>
        <time>2013-10-10T13:03:04.684Z</time>
      </trkpt>
      <trkpt lat="43.42594" lon="6.61525">
        <ele>278.8</ele>
        <time>2013-10-10T13:03:06.663Z</time>
      </trkpt>
      <trkpt lat="43.42594" lon="6.61524">
        <ele>278.8</ele>
        <time>2013-10-10T13:03:07.663Z</time>
      </trkpt>
      <trkpt lat="43.42595" lon="6.61527">
        <ele>280.4</ele>
        <time>2013-10-10T13:03:36.689Z</time>
      </trkpt>
      <trkpt lat="43.42594" lon="6.61527">
        <ele>280.4</ele>
        <time>2013-10-10T13:03:37.645Z</time>
      </trkpt>
      <trkpt lat="43.42594" lon="6.61527">
        <ele>280.4</ele>
        <time>2013-10-10T13:03:39.642Z</time>
      </trkpt>
      <trkpt lat="43.42594" lon="6.61527">
        <ele>280.5</ele>
        <time>2013-10-10T13:03:40.732Z</time>
      </trkpt>
      <trkpt lat="43.42593" lon="6.61527">
        <ele>280.5</ele>
        <time>2013-10-10T13:03:42.679Z</time>
      </trkpt>
      <trkpt lat="43.42593" lon="6.61527">
        <ele>280.5</ele>
        <time>2013-10-10T13:03:43.679Z</time>
      </trkpt>
      <trkpt lat="43.42593" lon="6.61527">
        <ele>280.4</ele>
        <time>2013-10-10T13:03:55.702Z</time>
      </trkpt>
      <trkpt lat="43.42594" lon="6.61527">
        <ele>280.4</ele>
        <time>2013-10-10T13:03:56.711Z</time>
      </trkpt>
      <trkpt lat="43.42597" lon="6.61527">
        <ele>280.4</ele>
        <time>2013-10-10T13:04:05.656Z</time>
      </trkpt>
      <trkpt lat="43.42597" lon="6.61527">
        <ele>280.4</ele>
        <time>2013-10-10T13:04:06.675Z</time>
      </trkpt>
      <trkpt lat="43.42597" lon="6.61527">
        <ele>280.3</ele>
        <time>2013-10-10T13:04:11.667Z</time>
      </trkpt>
      <trkpt lat="43.42597" lon="6.61528">
        <ele>280.3</ele>
        <time>2013-10-10T13:04:12.674Z</time>
      </trkpt>
      <trkpt lat="43.42597" lon="6.61531">
        <ele>280.2</ele>
        <time>2013-10-10T13:04:22.647Z</time>
      </trkpt>
      <trkpt lat="43.42597" lon="6.61531">
        <ele>280.2</ele>
        <time>2013-10-10T13:04:23.632Z</time>
      </trkpt>
      <trkpt lat="43.42596" lon="6.61531">
        <ele>279.8</ele>
        <time>2013-10-10T13:04:43.662Z</time>
      </trkpt>
      <trkpt lat="43.42596" lon="6.61531">
        <ele>279.8</ele>
        <time>2013-10-10T13:04:44.648Z</time>
      </trkpt>
      <trkpt lat="43.42596" lon="6.6153">
        <ele>279.8</ele>
        <time>2013-10-10T13:04:46.666Z</time>
      </trkpt>
      <trkpt lat="43.42596" lon="6.6153">
        <ele>279.8</ele>
        <time>2013-10-10T13:04:47.667Z</time>
      </trkpt>
      <trkpt lat="43.42596" lon="6.6153">
        <ele>279.8</ele>
        <time>2013-10-10T13:04:49.666Z</time>
      </trkpt>
      <trkpt lat="43.42596" lon="6.61529">
        <ele>279.8</ele>
        <time>2013-10-10T13:04:50.754Z</time>
      </trkpt>
      <trkpt lat="43.42594" lon="6.61528">
        <ele>279.6</ele>
        <time>2013-10-10T13:04:58.690Z</time>
      </trkpt>
      <trkpt lat="43.42594" lon="6.61527">
        <ele>279.6</ele>
        <time>2013-10-10T13:04:59.659Z</time>
      </trkpt>
      <trkpt lat="43.42594" lon="6.61527">
        <ele>279.4</ele>
        <time>2013-10-10T13:05:02.672Z</time>
      </trkpt>
      <trkpt lat="43.42593" lon="6.61527">
        <ele>279.4</ele>
        <time>2013-10-10T13:05:03.673Z</time>
      </trkpt>
      <trkpt lat="43.42593" lon="6.61527">
        <ele>279.3</ele>
        <time>2013-10-10T13:05:05.692Z</time>
      </trkpt>
      <trkpt lat="43.42593" lon="6.61527">
        <ele>279.3</ele>
        <time>2013-10-10T13:05:06.683Z</time>
      </trkpt>
      <trkpt lat="43.42594" lon="6.61527">
        <ele>279.4</ele>
        <time>2013-10-10T13:05:13.688Z</time>
      </trkpt>
      <trkpt lat="43.42594" lon="6.61527">
        <ele>279.4</ele>
        <time>2013-10-10T13:05:14.602Z</time>
      </trkpt>
      <trkpt lat="43.42597" lon="6.61527">
        <ele>279.6</ele>
        <time>2013-10-10T13:05:24.647Z</time>
      </trkpt>
      <trkpt lat="43.42597" lon="6.61528">
        <ele>279.7</ele>
        <time>2013-10-10T13:05:25.658Z</time>
      </trkpt>
      <trkpt lat="43.42597" lon="6.61528">
        <ele>279.7</ele>
        <time>2013-10-10T13:05:26.619Z</time>
      </trkpt>
      <trkpt lat="43.42603" lon="6.61535">
        <ele>279.7</ele>
        <time>2013-10-10T13:05:29.676Z</time>
      </trkpt>
      <trkpt lat="43.42608" lon="6.61541">
        <ele>279.9</ele>
        <time>2013-10-10T13:05:30.694Z</time>
      </trkpt>
      <trkpt lat="43.42617" lon="6.61551">
        <ele>278.9</ele>
        <time>2013-10-10T13:05:31.656Z</time>
      </trkpt>
      <trkpt lat="43.42625" lon="6.6156">
        <ele>278.6</ele>
        <time>2013-10-10T13:05:32.666Z</time>
      </trkpt>
      <trkpt lat="43.42634" lon="6.61569">
        <ele>277.6</ele>
        <time>2013-10-10T13:05:33.666Z</time>
      </trkpt>
      <trkpt lat="43.42642" lon="6.61575">
        <ele>276.8</ele>
        <time>2013-10-10T13:05:34.644Z</time>
      </trkpt>
      <trkpt lat="43.42649" lon="6.61578">
        <ele>275.6</ele>
        <time>2013-10-10T13:05:35.646Z</time>
      </trkpt>
      <trkpt lat="43.42656" lon="6.6158">
        <ele>274.5</ele>
        <time>2013-10-10T13:05:36.660Z</time>
      </trkpt>
      <trkpt lat="43.42664" lon="6.6158">
        <ele>273.3</ele>
        <time>2013-10-10T13:05:37.659Z</time>
      </trkpt>
      <trkpt lat="43.42672" lon="6.61579">
        <ele>272.4</ele>
        <time>2013-10-10T13:05:38.663Z</time>
      </trkpt>
      <trkpt lat="43.42681" lon="6.61577">
        <ele>271.2</ele>
        <time>2013-10-10T13:05:39.658Z</time>
      </trkpt>
      <trkpt lat="43.42692" lon="6.61573">
        <ele>269.8</ele>
        <time>2013-10-10T13:05:40.863Z</time>
      </trkpt>
      <trkpt lat="43.42699" lon="6.61568">
        <ele>268.9</ele>
        <time>2013-10-10T13:05:41.660Z</time>
      </trkpt>
      <trkpt lat="43.42706" lon="6.61562">
        <ele>267.3</ele>
        <time>2013-10-10T13:05:42.660Z</time>
      </trkpt>
      <trkpt lat="43.42713" lon="6.61556">
        <ele>265.8</ele>
        <time>2013-10-10T13:05:43.661Z</time>
      </trkpt>
      <trkpt lat="43.42719" lon="6.61551">
        <ele>264.6</ele>
        <time>2013-10-10T13:05:44.658Z</time>
      </trkpt>
      <trkpt lat="43.42726" lon="6.61546">
        <ele>263.9</ele>
        <time>2013-10-10T13:05:45.658Z</time>
      </trkpt>
      <trkpt lat="43.42733" lon="6.61542">
        <ele>263.5</ele>
        <time>2013-10-10T13:05:46.659Z</time>
      </trkpt>
      <trkpt lat="43.4274" lon="6.61539">
        <ele>263</ele>
        <time>2013-10-10T13:05:47.660Z</time>
      </trkpt>
      <trkpt lat="43.42747" lon="6.61538">
        <ele>262.6</ele>
        <time>2013-10-10T13:05:48.631Z</time>
      </trkpt>
      <trkpt lat="43.42754" lon="6.61539">
        <ele>262.3</ele>
        <time>2013-10-10T13:05:49.662Z</time>
      </trkpt>
      <trkpt lat="43.42761" lon="6.61541">
        <ele>261.9</ele>
        <time>2013-10-10T13:05:50.674Z</time>
      </trkpt>
      <trkpt lat="43.42767" lon="6.61542">
        <ele>261.7</ele>
        <time>2013-10-10T13:05:51.661Z</time>
      </trkpt>
      <trkpt lat="43.42773" lon="6.61544">
        <ele>261.4</ele>
        <time>2013-10-10T13:05:52.659Z</time>
      </trkpt>
      <trkpt lat="43.42776" lon="6.61548">
        <ele>260.9</ele>
        <time>2013-10-10T13:05:53.661Z</time>
      </trkpt>
      <trkpt lat="43.42779" lon="6.61553">
        <ele>259.7</ele>
        <time>2013-10-10T13:05:54.660Z</time>
      </trkpt>
      <trkpt lat="43.42782" lon="6.61559">
        <ele>258.9</ele>
        <time>2013-10-10T13:05:55.660Z</time>
      </trkpt>
      <trkpt lat="43.42785" lon="6.61566">
        <ele>257.8</ele>
        <time>2013-10-10T13:05:56.660Z</time>
      </trkpt>
      <trkpt lat="43.42789" lon="6.61572">
        <ele>256.7</ele>
        <time>2013-10-10T13:05:57.659Z</time>
      </trkpt>
      <trkpt lat="43.42792" lon="6.61579">
        <ele>255.8</ele>
        <time>2013-10-10T13:05:58.661Z</time>
      </trkpt>
      <trkpt lat="43.42796" lon="6.61585">
        <ele>254.3</ele>
        <time>2013-10-10T13:05:59.659Z</time>
      </trkpt>
      <trkpt lat="43.42798" lon="6.61593">
        <ele>253.1</ele>
        <time>2013-10-10T13:06:00.842Z</time>
      </trkpt>
      <trkpt lat="43.428" lon="6.61599">
        <ele>251.7</ele>
        <time>2013-10-10T13:06:01.616Z</time>
      </trkpt>
      <trkpt lat="43.42801" lon="6.61608">
        <ele>250.2</ele>
        <time>2013-10-10T13:06:02.664Z</time>
      </trkpt>
      <trkpt lat="43.42801" lon="6.61617">
        <ele>248.5</ele>
        <time>2013-10-10T13:06:03.666Z</time>
      </trkpt>
      <trkpt lat="43.42801" lon="6.61624">
        <ele>246.5</ele>
        <time>2013-10-10T13:06:04.667Z</time>
      </trkpt>
      <trkpt lat="43.428" lon="6.61635">
        <ele>242.7</ele>
        <time>2013-10-10T13:06:06.776Z</time>
      </trkpt>
      <trkpt lat="43.428" lon="6.6164">
        <ele>241.3</ele>
        <time>2013-10-10T13:06:07.662Z</time>
      </trkpt>
      <trkpt lat="43.42801" lon="6.61645">
        <ele>240.1</ele>
        <time>2013-10-10T13:06:08.663Z</time>
      </trkpt>
      <trkpt lat="43.42803" lon="6.61652">
        <ele>238.7</ele>
        <time>2013-10-10T13:06:09.662Z</time>
      </trkpt>
      <trkpt lat="43.42808" lon="6.61659">
        <ele>237.4</ele>
        <time>2013-10-10T13:06:10.679Z</time>
      </trkpt>
      <trkpt lat="43.42815" lon="6.61667">
        <ele>236.1</ele>
        <time>2013-10-10T13:06:11.663Z</time>
      </trkpt>
      <trkpt lat="43.42823" lon="6.61675">
        <ele>234.8</ele>
        <time>2013-10-10T13:06:12.660Z</time>
      </trkpt>
      <trkpt lat="43.42833" lon="6.61684">
        <ele>233.2</ele>
        <time>2013-10-10T13:06:13.662Z</time>
      </trkpt>
      <trkpt lat="43.42842" lon="6.61693">
        <ele>231.7</ele>
        <time>2013-10-10T13:06:14.659Z</time>
      </trkpt>
      <trkpt lat="43.42852" lon="6.61701">
        <ele>230.7</ele>
        <time>2013-10-10T13:06:15.629Z</time>
      </trkpt>
      <trkpt lat="43.42865" lon="6.61708">
        <ele>228.8</ele>
        <time>2013-10-10T13:06:16.659Z</time>
      </trkpt>
      <trkpt lat="43.42874" lon="6.61713">
        <ele>227.3</ele>
        <time>2013-10-10T13:06:17.664Z</time>
      </trkpt>
      <trkpt lat="43.42884" lon="6.61719">
        <ele>226.1</ele>
        <time>2013-10-10T13:06:18.662Z</time>
      </trkpt>
      <trkpt lat="43.42891" lon="6.61725">
        <ele>225.2</ele>
        <time>2013-10-10T13:06:19.665Z</time>
      </trkpt>
      <trkpt lat="43.42898" lon="6.6173">
        <ele>224.6</ele>
        <time>2013-10-10T13:06:20.692Z</time>
      </trkpt>
      <trkpt lat="43.42904" lon="6.61736">
        <ele>224</ele>
        <time>2013-10-10T13:06:21.658Z</time>
      </trkpt>
      <trkpt lat="43.42909" lon="6.61742">
        <ele>223.6</ele>
        <time>2013-10-10T13:06:22.664Z</time>
      </trkpt>
      <trkpt lat="43.42913" lon="6.61747">
        <ele>223.4</ele>
        <time>2013-10-10T13:06:23.659Z</time>
      </trkpt>
      <trkpt lat="43.42918" lon="6.61752">
        <ele>223.5</ele>
        <time>2013-10-10T13:06:24.659Z</time>
      </trkpt>
      <trkpt lat="43.42924" lon="6.6176">
        <ele>224.2</ele>
        <time>2013-10-10T13:06:26.660Z</time>
      </trkpt>
      <trkpt lat="43.42926" lon="6.61763">
        <ele>224.3</ele>
        <time>2013-10-10T13:06:27.663Z</time>
      </trkpt>
      <trkpt lat="43.42929" lon="6.61771">
        <ele>225</ele>
        <time>2013-10-10T13:06:29.622Z</time>
      </trkpt>
      <trkpt lat="43.42931" lon="6.61775">
        <ele>225.9</ele>
        <time>2013-10-10T13:06:30.673Z</time>
      </trkpt>
      <trkpt lat="43.42934" lon="6.6178">
        <ele>226.6</ele>
        <time>2013-10-10T13:06:31.658Z</time>
      </trkpt>
      <trkpt lat="43.42937" lon="6.61785">
        <ele>226.9</ele>
        <time>2013-10-10T13:06:32.621Z</time>
      </trkpt>
      <trkpt lat="43.4294" lon="6.61791">
        <ele>227.3</ele>
        <time>2013-10-10T13:06:33.659Z</time>
      </trkpt>
      <trkpt lat="43.42944" lon="6.61796">
        <ele>227.7</ele>
        <time>2013-10-10T13:06:34.668Z</time>
      </trkpt>
      <trkpt lat="43.42947" lon="6.61802">
        <ele>227.9</ele>
        <time>2013-10-10T13:06:35.663Z</time>
      </trkpt>
      <trkpt lat="43.42951" lon="6.61805">
        <ele>228.2</ele>
        <time>2013-10-10T13:06:36.663Z</time>
      </trkpt>
      <trkpt lat="43.42957" lon="6.61806">
        <ele>228.4</ele>
        <time>2013-10-10T13:06:37.633Z</time>
      </trkpt>
      <trkpt lat="43.42964" lon="6.61804">
        <ele>228.6</ele>
        <time>2013-10-10T13:06:38.639Z</time>
      </trkpt>
      <trkpt lat="43.42971" lon="6.61802">
        <ele>228.5</ele>
        <time>2013-10-10T13:06:39.662Z</time>
      </trkpt>
      <trkpt lat="43.42977" lon="6.61799">
        <ele>227.9</ele>
        <time>2013-10-10T13:06:40.676Z</time>
      </trkpt>
      <trkpt lat="43.42983" lon="6.61796">
        <ele>227.8</ele>
        <time>2013-10-10T13:06:41.658Z</time>
      </trkpt>
      <trkpt lat="43.42989" lon="6.61793">
        <ele>227.4</ele>
        <time>2013-10-10T13:06:42.658Z</time>
      </trkpt>
      <trkpt lat="43.42995" lon="6.61791">
        <ele>226.6</ele>
        <time>2013-10-10T13:06:43.657Z</time>
      </trkpt>
      <trkpt lat="43.43003" lon="6.6179">
        <ele>225.8</ele>
        <time>2013-10-10T13:06:44.658Z</time>
      </trkpt>
      <trkpt lat="43.4301" lon="6.61788">
        <ele>225.2</ele>
        <time>2013-10-10T13:06:45.660Z</time>
      </trkpt>
      <trkpt lat="43.43017" lon="6.61787">
        <ele>224.6</ele>
        <time>2013-10-10T13:06:46.621Z</time>
      </trkpt>
      <trkpt lat="43.43025" lon="6.61784">
        <ele>224</ele>
        <time>2013-10-10T13:06:47.657Z</time>
      </trkpt>
      <trkpt lat="43.4303" lon="6.61783">
        <ele>223.7</ele>
        <time>2013-10-10T13:06:48.660Z</time>
      </trkpt>
      <trkpt lat="43.43038" lon="6.6178">
        <ele>221.9</ele>
        <time>2013-10-10T13:06:50.673Z</time>
      </trkpt>
      <trkpt lat="43.43042" lon="6.61778">
        <ele>220.4</ele>
        <time>2013-10-10T13:06:51.656Z</time>
      </trkpt>
      <trkpt lat="43.4305" lon="6.61774">
        <ele>217.8</ele>
        <time>2013-10-10T13:06:53.658Z</time>
      </trkpt>
      <trkpt lat="43.43054" lon="6.61773">
        <ele>216.7</ele>
        <time>2013-10-10T13:06:54.657Z</time>
      </trkpt>
      <trkpt lat="43.43061" lon="6.61772">
        <ele>214.9</ele>
        <time>2013-10-10T13:06:56.721Z</time>
      </trkpt>
      <trkpt lat="43.43064" lon="6.6177">
        <ele>214</ele>
        <time>2013-10-10T13:06:57.656Z</time>
      </trkpt>
      <trkpt lat="43.43069" lon="6.61761">
        <ele>212.8</ele>
        <time>2013-10-10T13:06:59.660Z</time>
      </trkpt>
      <trkpt lat="43.43071" lon="6.61758">
        <ele>212.7</ele>
        <time>2013-10-10T13:07:00.618Z</time>
      </trkpt>
      <trkpt lat="43.43077" lon="6.61762">
        <ele>212.3</ele>
        <time>2013-10-10T13:07:03.671Z</time>
      </trkpt>
      <trkpt lat="43.4308" lon="6.61767">
        <ele>210.5</ele>
        <time>2013-10-10T13:07:04.664Z</time>
      </trkpt>
      <trkpt lat="43.43087" lon="6.61772">
        <ele>207.7</ele>
        <time>2013-10-10T13:07:06.656Z</time>
      </trkpt>
      <trkpt lat="43.43092" lon="6.61773">
        <ele>206.5</ele>
        <time>2013-10-10T13:07:07.657Z</time>
      </trkpt>
      <trkpt lat="43.431" lon="6.61773">
        <ele>206.1</ele>
        <time>2013-10-10T13:07:10.677Z</time>
      </trkpt>
      <trkpt lat="43.43102" lon="6.61776">
        <ele>205.9</ele>
        <time>2013-10-10T13:07:11.657Z</time>
      </trkpt>
      <trkpt lat="43.43108" lon="6.61779">
        <ele>205.3</ele>
        <time>2013-10-10T13:07:14.660Z</time>
      </trkpt>
      <trkpt lat="43.43112" lon="6.61773">
        <ele>202.3</ele>
        <time>2013-10-10T13:07:15.663Z</time>
      </trkpt>
      <trkpt lat="43.43115" lon="6.61768">
        <ele>200.1</ele>
        <time>2013-10-10T13:07:16.652Z</time>
      </trkpt>
      <trkpt lat="43.43118" lon="6.61761">
        <ele>198.2</ele>
        <time>2013-10-10T13:07:17.660Z</time>
      </trkpt>
      <trkpt lat="43.43123" lon="6.61754">
        <ele>196.5</ele>
        <time>2013-10-10T13:07:18.659Z</time>
      </trkpt>
      <trkpt lat="43.43127" lon="6.61747">
        <ele>196.3</ele>
        <time>2013-10-10T13:07:19.659Z</time>
      </trkpt>
      <trkpt lat="43.43131" lon="6.61741">
        <ele>196.1</ele>
        <time>2013-10-10T13:07:20.671Z</time>
      </trkpt>
      <trkpt lat="43.43134" lon="6.61738">
        <ele>195.8</ele>
        <time>2013-10-10T13:07:21.658Z</time>
      </trkpt>
      <trkpt lat="43.43138" lon="6.61744">
        <ele>191.8</ele>
        <time>2013-10-10T13:07:24.669Z</time>
      </trkpt>
      <trkpt lat="43.4314" lon="6.61751">
        <ele>188.8</ele>
        <time>2013-10-10T13:07:25.609Z</time>
      </trkpt>
      <trkpt lat="43.43141" lon="6.61757">
        <ele>186.3</ele>
        <time>2013-10-10T13:07:26.670Z</time>
      </trkpt>
      <trkpt lat="43.43142" lon="6.61766">
        <ele>184.6</ele>
        <time>2013-10-10T13:07:27.630Z</time>
      </trkpt>
      <trkpt lat="43.43142" lon="6.61776">
        <ele>183.1</ele>
        <time>2013-10-10T13:07:28.665Z</time>
      </trkpt>
      <trkpt lat="43.43139" lon="6.61789">
        <ele>181.3</ele>
        <time>2013-10-10T13:07:29.758Z</time>
      </trkpt>
      <trkpt lat="43.43148" lon="6.61793">
        <ele>180.2</ele>
        <time>2013-10-10T13:07:34.657Z</time>
      </trkpt>
      <trkpt lat="43.43151" lon="6.61792">
        <ele>179.9</ele>
        <time>2013-10-10T13:07:35.656Z</time>
      </trkpt>
      <trkpt lat="43.43155" lon="6.61797">
        <ele>179.3</ele>
        <time>2013-10-10T13:07:37.658Z</time>
      </trkpt>
      <trkpt lat="43.43155" lon="6.61803">
        <ele>176.7</ele>
        <time>2013-10-10T13:07:38.656Z</time>
      </trkpt>
      <trkpt lat="43.43155" lon="6.6181">
        <ele>176.5</ele>
        <time>2013-10-10T13:07:39.659Z</time>
      </trkpt>
      <trkpt lat="43.43154" lon="6.61818">
        <ele>176.2</ele>
        <time>2013-10-10T13:07:40.676Z</time>
      </trkpt>
      <trkpt lat="43.43154" lon="6.61824">
        <ele>173.6</ele>
        <time>2013-10-10T13:07:41.629Z</time>
      </trkpt>
      <trkpt lat="43.43154" lon="6.6183">
        <ele>171.3</ele>
        <time>2013-10-10T13:07:42.662Z</time>
      </trkpt>
      <trkpt lat="43.43162" lon="6.61835">
        <ele>170.2</ele>
        <time>2013-10-10T13:07:46.654Z</time>
      </trkpt>
      <trkpt lat="43.43166" lon="6.61831">
        <ele>166.5</ele>
        <time>2013-10-10T13:07:47.652Z</time>
      </trkpt>
      <trkpt lat="43.43171" lon="6.61827">
        <ele>163.7</ele>
        <time>2013-10-10T13:07:48.653Z</time>
      </trkpt>
      <trkpt lat="43.43177" lon="6.61822">
        <ele>163.4</ele>
        <time>2013-10-10T13:07:49.653Z</time>
      </trkpt>
      <trkpt lat="43.43185" lon="6.61819">
        <ele>162.8</ele>
        <time>2013-10-10T13:07:51.659Z</time>
      </trkpt>
      <trkpt lat="43.43188" lon="6.61823">
        <ele>159.2</ele>
        <time>2013-10-10T13:07:52.657Z</time>
      </trkpt>
      <trkpt lat="43.43193" lon="6.61832">
        <ele>153</ele>
        <time>2013-10-10T13:07:54.662Z</time>
      </trkpt>
      <trkpt lat="43.43195" lon="6.61836">
        <ele>150.7</ele>
        <time>2013-10-10T13:07:55.666Z</time>
      </trkpt>
      <trkpt lat="43.43199" lon="6.61843">
        <ele>145.9</ele>
        <time>2013-10-10T13:07:57.655Z</time>
      </trkpt>
      <trkpt lat="43.43202" lon="6.61847">
        <ele>143.3</ele>
        <time>2013-10-10T13:07:58.657Z</time>
      </trkpt>
      <trkpt lat="43.43205" lon="6.61851">
        <ele>140.8</ele>
        <time>2013-10-10T13:07:59.664Z</time>
      </trkpt>
      <trkpt lat="43.43209" lon="6.61855">
        <ele>138.5</ele>
        <time>2013-10-10T13:08:00.631Z</time>
      </trkpt>
      <trkpt lat="43.43214" lon="6.6186">
        <ele>136.6</ele>
        <time>2013-10-10T13:08:01.595Z</time>
      </trkpt>
      <trkpt lat="43.43219" lon="6.61864">
        <ele>136.4</ele>
        <time>2013-10-10T13:08:02.646Z</time>
      </trkpt>
      <trkpt lat="43.43224" lon="6.61865">
        <ele>133.9</ele>
        <time>2013-10-10T13:08:03.679Z</time>
      </trkpt>
      <trkpt lat="43.43229" lon="6.61863">
        <ele>133.7</ele>
        <time>2013-10-10T13:08:04.647Z</time>
      </trkpt>
      <trkpt lat="43.43237" lon="6.61862">
        <ele>129.9</ele>
        <time>2013-10-10T13:08:06.613Z</time>
      </trkpt>
      <trkpt lat="43.4324" lon="6.61864">
        <ele>129.8</ele>
        <time>2013-10-10T13:08:07.652Z</time>
      </trkpt>
      <trkpt lat="43.43243" lon="6.61872">
        <ele>126.2</ele>
        <time>2013-10-10T13:08:09.654Z</time>
      </trkpt>
      <trkpt lat="43.43243" lon="6.6188">
        <ele>124.9</ele>
        <time>2013-10-10T13:08:10.632Z</time>
      </trkpt>
      <trkpt lat="43.43244" lon="6.61888">
        <ele>123.3</ele>
        <time>2013-10-10T13:08:11.629Z</time>
      </trkpt>
      <trkpt lat="43.43247" lon="6.61897">
        <ele>121.8</ele>
        <time>2013-10-10T13:08:12.726Z</time>
      </trkpt>
      <trkpt lat="43.43253" lon="6.61907">
        <ele>120.3</ele>
        <time>2013-10-10T13:08:13.642Z</time>
      </trkpt>
      <trkpt lat="43.4326" lon="6.61915">
        <ele>119.1</ele>
        <time>2013-10-10T13:08:14.561Z</time>
      </trkpt>
      <trkpt lat="43.43266" lon="6.61924">
        <ele>118.2</ele>
        <time>2013-10-10T13:08:15.553Z</time>
      </trkpt>
      <trkpt lat="43.43274" lon="6.61932">
        <ele>117.4</ele>
        <time>2013-10-10T13:08:16.542Z</time>
      </trkpt>
      <trkpt lat="43.43282" lon="6.6194">
        <ele>116.5</ele>
        <time>2013-10-10T13:08:17.553Z</time>
      </trkpt>
      <trkpt lat="43.43291" lon="6.61948">
        <ele>115.5</ele>
        <time>2013-10-10T13:08:18.633Z</time>
      </trkpt>
      <trkpt lat="43.433" lon="6.61954">
        <ele>114.7</ele>
        <time>2013-10-10T13:08:19.550Z</time>
      </trkpt>
      <trkpt lat="43.43308" lon="6.6196">
        <ele>114.1</ele>
        <time>2013-10-10T13:08:20.565Z</time>
      </trkpt>
      <trkpt lat="43.43315" lon="6.61966">
        <ele>113.2</ele>
        <time>2013-10-10T13:08:21.554Z</time>
      </trkpt>
      <trkpt lat="43.4332" lon="6.6197">
        <ele>113.2</ele>
        <time>2013-10-10T13:08:22.599Z</time>
      </trkpt>
      <trkpt lat="43.43322" lon="6.6198">
        <ele>111</ele>
        <time>2013-10-10T13:08:24.590Z</time>
      </trkpt>
      <trkpt lat="43.43323" lon="6.61985">
        <ele>109.6</ele>
        <time>2013-10-10T13:08:25.548Z</time>
      </trkpt>
      <trkpt lat="43.43324" lon="6.61991">
        <ele>108</ele>
        <time>2013-10-10T13:08:26.594Z</time>
      </trkpt>
      <trkpt lat="43.43326" lon="6.61997">
        <ele>106.3</ele>
        <time>2013-10-10T13:08:27.593Z</time>
      </trkpt>
      <trkpt lat="43.43328" lon="6.62002">
        <ele>105.3</ele>
        <time>2013-10-10T13:08:28.588Z</time>
      </trkpt>
      <trkpt lat="43.43329" lon="6.62009">
        <ele>103.5</ele>
        <time>2013-10-10T13:08:29.585Z</time>
      </trkpt>
      <trkpt lat="43.43329" lon="6.62017">
        <ele>102</ele>
        <time>2013-10-10T13:08:30.621Z</time>
      </trkpt>
      <trkpt lat="43.43329" lon="6.62023">
        <ele>101.9</ele>
        <time>2013-10-10T13:08:31.587Z</time>
      </trkpt>
      <trkpt lat="43.43331" lon="6.62029">
        <ele>100.1</ele>
        <time>2013-10-10T13:08:32.584Z</time>
      </trkpt>
      <trkpt lat="43.43333" lon="6.62034">
        <ele>98.6</ele>
        <time>2013-10-10T13:08:33.567Z</time>
      </trkpt>
      <trkpt lat="43.43337" lon="6.6204">
        <ele>97.4</ele>
        <time>2013-10-10T13:08:34.584Z</time>
      </trkpt>
      <trkpt lat="43.43339" lon="6.62044">
        <ele>97.3</ele>
        <time>2013-10-10T13:08:35.588Z</time>
      </trkpt>
      <trkpt lat="43.43337" lon="6.62055">
        <ele>94.2</ele>
        <time>2013-10-10T13:08:37.598Z</time>
      </trkpt>
      <trkpt lat="43.43332" lon="6.62061">
        <ele>92.8</ele>
        <time>2013-10-10T13:08:38.595Z</time>
      </trkpt>
      <trkpt lat="43.43324" lon="6.62065">
        <ele>91.7</ele>
        <time>2013-10-10T13:08:39.590Z</time>
      </trkpt>
      <trkpt lat="43.43317" lon="6.62068">
        <ele>91.1</ele>
        <time>2013-10-10T13:08:40.659Z</time>
      </trkpt>
      <trkpt lat="43.43311" lon="6.62072">
        <ele>90.3</ele>
        <time>2013-10-10T13:08:41.576Z</time>
      </trkpt>
      <trkpt lat="43.43305" lon="6.62077">
        <ele>89.5</ele>
        <time>2013-10-10T13:08:42.572Z</time>
      </trkpt>
      <trkpt lat="43.43298" lon="6.62082">
        <ele>89</ele>
        <time>2013-10-10T13:08:43.580Z</time>
      </trkpt>
      <trkpt lat="43.43292" lon="6.62088">
        <ele>87.8</ele>
        <time>2013-10-10T13:08:44.571Z</time>
      </trkpt>
      <trkpt lat="43.43287" lon="6.62095">
        <ele>86.9</ele>
        <time>2013-10-10T13:08:45.554Z</time>
      </trkpt>
      <trkpt lat="43.43282" lon="6.62103">
        <ele>86</ele>
        <time>2013-10-10T13:08:46.570Z</time>
      </trkpt>
      <trkpt lat="43.43278" lon="6.62111">
        <ele>85.4</ele>
        <time>2013-10-10T13:08:47.584Z</time>
      </trkpt>
      <trkpt lat="43.43274" lon="6.62119">
        <ele>84.9</ele>
        <time>2013-10-10T13:08:48.593Z</time>
      </trkpt>
      <trkpt lat="43.43271" lon="6.62128">
        <ele>84.2</ele>
        <time>2013-10-10T13:08:49.590Z</time>
      </trkpt>
      <trkpt lat="43.43269" lon="6.62138">
        <ele>83.5</ele>
        <time>2013-10-10T13:08:50.604Z</time>
      </trkpt>
      <trkpt lat="43.43268" lon="6.62149">
        <ele>82.6</ele>
        <time>2013-10-10T13:08:51.594Z</time>
      </trkpt>
      <trkpt lat="43.4327" lon="6.62163">
        <ele>82.5</ele>
        <time>2013-10-10T13:08:52.601Z</time>
      </trkpt>
      <trkpt lat="43.4327" lon="6.62176">
        <ele>82.8</ele>
        <time>2013-10-10T13:08:53.564Z</time>
      </trkpt>
      <trkpt lat="43.43271" lon="6.62188">
        <ele>82.7</ele>
        <time>2013-10-10T13:08:54.588Z</time>
      </trkpt>
      <trkpt lat="43.4327" lon="6.62199">
        <ele>82.6</ele>
        <time>2013-10-10T13:08:55.586Z</time>
      </trkpt>
      <trkpt lat="43.43268" lon="6.62209">
        <ele>82.4</ele>
        <time>2013-10-10T13:08:56.586Z</time>
      </trkpt>
      <trkpt lat="43.43265" lon="6.62218">
        <ele>81.8</ele>
        <time>2013-10-10T13:08:57.592Z</time>
      </trkpt>
      <trkpt lat="43.43262" lon="6.62226">
        <ele>81.3</ele>
        <time>2013-10-10T13:08:58.582Z</time>
      </trkpt>
      <trkpt lat="43.43259" lon="6.62235">
        <ele>80.4</ele>
        <time>2013-10-10T13:08:59.594Z</time>
      </trkpt>
      <trkpt lat="43.4326" lon="6.62243">
        <ele>79.4</ele>
        <time>2013-10-10T13:09:00.581Z</time>
      </trkpt>
      <trkpt lat="43.43262" lon="6.62249">
        <ele>78.9</ele>
        <time>2013-10-10T13:09:01.533Z</time>
      </trkpt>
      <trkpt lat="43.43266" lon="6.62252">
        <ele>78.6</ele>
        <time>2013-10-10T13:09:02.583Z</time>
      </trkpt>
      <trkpt lat="43.43271" lon="6.62253">
        <ele>78.6</ele>
        <time>2013-10-10T13:09:03.584Z</time>
      </trkpt>
      <trkpt lat="43.43276" lon="6.62252">
        <ele>78.7</ele>
        <time>2013-10-10T13:09:04.597Z</time>
      </trkpt>
      <trkpt lat="43.43284" lon="6.6225">
        <ele>78.9</ele>
        <time>2013-10-10T13:09:06.559Z</time>
      </trkpt>
      <trkpt lat="43.43288" lon="6.62249">
        <ele>79</ele>
        <time>2013-10-10T13:09:07.746Z</time>
      </trkpt>
      <trkpt lat="43.43296" lon="6.62248">
        <ele>79.5</ele>
        <time>2013-10-10T13:09:12.577Z</time>
      </trkpt>
      <trkpt lat="43.43297" lon="6.62249">
        <ele>79.6</ele>
        <time>2013-10-10T13:09:13.554Z</time>
      </trkpt>
      <trkpt lat="43.43298" lon="6.62249">
        <ele>79.7</ele>
        <time>2013-10-10T13:09:16.604Z</time>
      </trkpt>
      <trkpt lat="43.43297" lon="6.62249">
        <ele>79.7</ele>
        <time>2013-10-10T13:09:17.605Z</time>
      </trkpt>
      <trkpt lat="43.43297" lon="6.62249">
        <ele>79.7</ele>
        <time>2013-10-10T13:09:29.580Z</time>
      </trkpt>
      <trkpt lat="43.43299" lon="6.62255">
        <ele>79.7</ele>
        <time>2013-10-10T13:09:30.600Z</time>
      </trkpt>
      <trkpt lat="43.433" lon="6.62258">
        <ele>79.8</ele>
        <time>2013-10-10T13:09:34.582Z</time>
      </trkpt>
      <trkpt lat="43.433" lon="6.62258">
        <ele>79.8</ele>
        <time>2013-10-10T13:09:35.586Z</time>
      </trkpt>
      <trkpt lat="43.43299" lon="6.62258">
        <ele>78.7</ele>
        <time>2013-10-10T13:13:59.045Z</time>
      </trkpt>
      <trkpt lat="43.43299" lon="6.62258">
        <ele>78.7</ele>
        <time>2013-10-10T13:14:00.159Z</time>
      </trkpt>
      <trkpt lat="43.43299" lon="6.62259">
        <ele>78.7</ele>
        <time>2013-10-10T13:14:01.065Z</time>
      </trkpt>
      <trkpt lat="43.43299" lon="6.62259">
        <ele>78.6</ele>
        <time>2013-10-10T13:14:02.046Z</time>
      </trkpt>
      <trkpt lat="43.43299" lon="6.62258">
        <ele>78.6</ele>
        <time>2013-10-10T13:14:03.046Z</time>
      </trkpt>
      <trkpt lat="43.43298" lon="6.62258">
        <ele>78.5</ele>
        <time>2013-10-10T13:14:04.007Z</time>
      </trkpt>
      <trkpt lat="43.43298" lon="6.62258">
        <ele>78.5</ele>
        <time>2013-10-10T13:14:05.013Z</time>
      </trkpt>
      <trkpt lat="43.43298" lon="6.62259">
        <ele>78.5</ele>
        <time>2013-10-10T13:14:07.045Z</time>
      </trkpt>
      <trkpt lat="43.43298" lon="6.62259">
        <ele>78.5</ele>
        <time>2013-10-10T13:14:08.084Z</time>
      </trkpt>
      <trkpt lat="43.43299" lon="6.62263">
        <ele>78.5</ele>
        <time>2013-10-10T13:14:17.920Z</time>
      </trkpt>
      <trkpt lat="43.43299" lon="6.62263">
        <ele>78.5</ele>
        <time>2013-10-10T13:14:18.945Z</time>
      </trkpt>
      <trkpt lat="43.43298" lon="6.62263">
        <ele>78.5</ele>
        <time>2013-10-10T13:14:19.972Z</time>
      </trkpt>
      <trkpt lat="43.43298" lon="6.62263">
        <ele>78.5</ele>
        <time>2013-10-10T13:14:20.924Z</time>
      </trkpt>
      <trkpt lat="43.43306" lon="6.62263">
        <ele>78.7</ele>
        <time>2013-10-10T13:14:47.869Z</time>
      </trkpt>
      <trkpt lat="43.43306" lon="6.62263">
        <ele>78.7</ele>
        <time>2013-10-10T13:14:48.916Z</time>
      </trkpt>
      <trkpt lat="43.43306" lon="6.62263">
        <ele>78.7</ele>
        <time>2013-10-10T13:14:49.890Z</time>
      </trkpt>
      <trkpt lat="43.43305" lon="6.62262">
        <ele>78.7</ele>
        <time>2013-10-10T13:14:50.923Z</time>
      </trkpt>
      <trkpt lat="43.43303" lon="6.62257">
        <ele>78.9</ele>
        <time>2013-10-10T13:14:58.962Z</time>
      </trkpt>
      <trkpt lat="43.43303" lon="6.62257">
        <ele>78.9</ele>
        <time>2013-10-10T13:15:00.120Z</time>
      </trkpt>
      <trkpt lat="43.43304" lon="6.62256">
        <ele>79</ele>
        <time>2013-10-10T13:15:03.904Z</time>
      </trkpt>
      <trkpt lat="43.43304" lon="6.62256">
        <ele>79</ele>
        <time>2013-10-10T13:15:04.905Z</time>
      </trkpt>
      <trkpt lat="43.43304" lon="6.62254">
        <ele>79.1</ele>
        <time>2013-10-10T13:15:07.904Z</time>
      </trkpt>
      <trkpt lat="43.43304" lon="6.62254">
        <ele>79.1</ele>
        <time>2013-10-10T13:15:08.905Z</time>
      </trkpt>
      <trkpt lat="43.43303" lon="6.62255">
        <ele>79.1</ele>
        <time>2013-10-10T13:15:11.905Z</time>
      </trkpt>
      <trkpt lat="43.43303" lon="6.62256">
        <ele>79.1</ele>
        <time>2013-10-10T13:15:12.906Z</time>
      </trkpt>
      <trkpt lat="43.43301" lon="6.62263">
        <ele>79.3</ele>
        <time>2013-10-10T13:15:50.917Z</time>
      </trkpt>
      <trkpt lat="43.43301" lon="6.62263">
        <ele>79.3</ele>
        <time>2013-10-10T13:15:51.862Z</time>
      </trkpt>
      <trkpt lat="43.433" lon="6.62263">
        <ele>79.2</ele>
        <time>2013-10-10T13:15:52.904Z</time>
      </trkpt>
      <trkpt lat="43.433" lon="6.62262">
        <ele>79.2</ele>
        <time>2013-10-10T13:15:53.905Z</time>
      </trkpt>
      <trkpt lat="43.43299" lon="6.62257">
        <ele>79.1</ele>
        <time>2013-10-10T13:16:07.930Z</time>
      </trkpt>
      <trkpt lat="43.43299" lon="6.62257">
        <ele>79.1</ele>
        <time>2013-10-10T13:16:08.894Z</time>
      </trkpt>
      <trkpt lat="43.43299" lon="6.62257">
        <ele>79</ele>
        <time>2013-10-10T13:16:09.893Z</time>
      </trkpt>
      <trkpt lat="43.43299" lon="6.62258">
        <ele>79</ele>
        <time>2013-10-10T13:16:11.083Z</time>
      </trkpt>
      <trkpt lat="43.43299" lon="6.62258">
        <ele>79</ele>
        <time>2013-10-10T13:16:12.185Z</time>
      </trkpt>
      <trkpt lat="43.433" lon="6.62259">
        <ele>79.1</ele>
        <time>2013-10-10T13:16:14.402Z</time>
      </trkpt>
      <trkpt lat="43.433" lon="6.62258">
        <ele>79.1</ele>
        <time>2013-10-10T13:16:15.895Z</time>
      </trkpt>
      <trkpt lat="43.43301" lon="6.62258">
        <ele>79.1</ele>
        <time>2013-10-10T13:16:16.893Z</time>
      </trkpt>
      <trkpt lat="43.43303" lon="6.62259">
        <ele>79</ele>
        <time>2013-10-10T13:16:23.893Z</time>
      </trkpt>
      <trkpt lat="43.43303" lon="6.62258">
        <ele>79</ele>
        <time>2013-10-10T13:16:24.911Z</time>
      </trkpt>
      <trkpt lat="43.43303" lon="6.62257">
        <ele>79</ele>
        <time>2013-10-10T13:16:25.895Z</time>
      </trkpt>
      <trkpt lat="43.43303" lon="6.62255">
        <ele>78.9</ele>
        <time>2013-10-10T13:16:30.922Z</time>
      </trkpt>
      <trkpt lat="43.43303" lon="6.62255">
        <ele>78.9</ele>
        <time>2013-10-10T13:16:31.898Z</time>
      </trkpt>
      <trkpt lat="43.43303" lon="6.62255">
        <ele>78.9</ele>
        <time>2013-10-10T13:16:32.893Z</time>
      </trkpt>
      <trkpt lat="43.43302" lon="6.62255">
        <ele>79</ele>
        <time>2013-10-10T13:16:33.863Z</time>
      </trkpt>
      <trkpt lat="43.43298" lon="6.62258">
        <ele>78.9</ele>
        <time>2013-10-10T13:16:44.916Z</time>
      </trkpt>
      <trkpt lat="43.43298" lon="6.62258">
        <ele>78.8</ele>
        <time>2013-10-10T13:16:45.913Z</time>
      </trkpt>
      <trkpt lat="43.43298" lon="6.62258">
        <ele>78.8</ele>
        <time>2013-10-10T13:16:54.896Z</time>
      </trkpt>
      <trkpt lat="43.43298" lon="6.62257">
        <ele>78.8</ele>
        <time>2013-10-10T13:16:55.896Z</time>
      </trkpt>
      <trkpt lat="43.43301" lon="6.62256">
        <ele>78.6</ele>
        <time>2013-10-10T13:17:03.918Z</time>
      </trkpt>
      <trkpt lat="43.43301" lon="6.62256">
        <ele>78.6</ele>
        <time>2013-10-10T13:17:04.915Z</time>
      </trkpt>
      <trkpt lat="43.43301" lon="6.62257">
        <ele>78.7</ele>
        <time>2013-10-10T13:17:08.936Z</time>
      </trkpt>
      <trkpt lat="43.43301" lon="6.62257">
        <ele>78.8</ele>
        <time>2013-10-10T13:17:09.910Z</time>
      </trkpt>
      <trkpt lat="43.433" lon="6.62261">
        <ele>78.9</ele>
        <time>2013-10-10T13:17:15.914Z</time>
      </trkpt>
      <trkpt lat="43.433" lon="6.62262">
        <ele>78.7</ele>
        <time>2013-10-10T13:17:16.912Z</time>
      </trkpt>
      <trkpt lat="43.43299" lon="6.62261">
        <ele>78.6</ele>
        <time>2013-10-10T13:17:17.909Z</time>
      </trkpt>
      <trkpt lat="43.43303" lon="6.62269">
        <ele>78.4</ele>
        <time>2013-10-10T13:17:23.908Z</time>
      </trkpt>
      <trkpt lat="43.43303" lon="6.62273">
        <ele>78.4</ele>
        <time>2013-10-10T13:17:24.899Z</time>
      </trkpt>
      <trkpt lat="43.43304" lon="6.62282">
        <ele>78.4</ele>
        <time>2013-10-10T13:17:26.900Z</time>
      </trkpt>
      <trkpt lat="43.43304" lon="6.62285">
        <ele>78.4</ele>
        <time>2013-10-10T13:17:27.899Z</time>
      </trkpt>
      <trkpt lat="43.43308" lon="6.62295">
        <ele>78.4</ele>
        <time>2013-10-10T13:17:31.898Z</time>
      </trkpt>
      <trkpt lat="43.4331" lon="6.62295">
        <ele>78.4</ele>
        <time>2013-10-10T13:17:32.898Z</time>
      </trkpt>
      <trkpt lat="43.43316" lon="6.6229">
        <ele>78.3</ele>
        <time>2013-10-10T13:17:35.908Z</time>
      </trkpt>
      <trkpt lat="43.43319" lon="6.62286">
        <ele>78.3</ele>
        <time>2013-10-10T13:17:36.907Z</time>
      </trkpt>
      <trkpt lat="43.43323" lon="6.6228">
        <ele>78.4</ele>
        <time>2013-10-10T13:17:38.910Z</time>
      </trkpt>
      <trkpt lat="43.43326" lon="6.62278">
        <ele>78.4</ele>
        <time>2013-10-10T13:17:39.908Z</time>
      </trkpt>
      <trkpt lat="43.43333" lon="6.62278">
        <ele>78.3</ele>
        <time>2013-10-10T13:17:42.907Z</time>
      </trkpt>
      <trkpt lat="43.43336" lon="6.6228">
        <ele>78.3</ele>
        <time>2013-10-10T13:17:43.907Z</time>
      </trkpt>
      <trkpt lat="43.43344" lon="6.62284">
        <ele>78.3</ele>
        <time>2013-10-10T13:17:46.908Z</time>
      </trkpt>
      <trkpt lat="43.43347" lon="6.62286">
        <ele>78.3</ele>
        <time>2013-10-10T13:17:47.912Z</time>
      </trkpt>
      <trkpt lat="43.43355" lon="6.6229">
        <ele>78.6</ele>
        <time>2013-10-10T13:17:51.900Z</time>
      </trkpt>
      <trkpt lat="43.43357" lon="6.62291">
        <ele>78.7</ele>
        <time>2013-10-10T13:17:52.899Z</time>
      </trkpt>
      <trkpt lat="43.43362" lon="6.62294">
        <ele>78.7</ele>
        <time>2013-10-10T13:17:54.898Z</time>
      </trkpt>
      <trkpt lat="43.43365" lon="6.62295">
        <ele>78.8</ele>
        <time>2013-10-10T13:17:55.908Z</time>
      </trkpt>
      <trkpt lat="43.43374" lon="6.62298">
        <ele>78.8</ele>
        <time>2013-10-10T13:17:58.910Z</time>
      </trkpt>
      <trkpt lat="43.43376" lon="6.62299">
        <ele>78.8</ele>
        <time>2013-10-10T13:17:59.911Z</time>
      </trkpt>
      <trkpt lat="43.43383" lon="6.62302">
        <ele>78.7</ele>
        <time>2013-10-10T13:18:02.865Z</time>
      </trkpt>
      <trkpt lat="43.43386" lon="6.62304">
        <ele>78.7</ele>
        <time>2013-10-10T13:18:03.915Z</time>
      </trkpt>
      <trkpt lat="43.43393" lon="6.62307">
        <ele>78.6</ele>
        <time>2013-10-10T13:18:06.911Z</time>
      </trkpt>
      <trkpt lat="43.43396" lon="6.62309">
        <ele>78.5</ele>
        <time>2013-10-10T13:18:07.910Z</time>
      </trkpt>
      <trkpt lat="43.43403" lon="6.62315">
        <ele>78.6</ele>
        <time>2013-10-10T13:18:10.917Z</time>
      </trkpt>
      <trkpt lat="43.43405" lon="6.62317">
        <ele>78.6</ele>
        <time>2013-10-10T13:18:11.903Z</time>
      </trkpt>
      <trkpt lat="43.43408" lon="6.62327">
        <ele>78.7</ele>
        <time>2013-10-10T13:18:14.980Z</time>
      </trkpt>
      <trkpt lat="43.43409" lon="6.62331">
        <ele>78.7</ele>
        <time>2013-10-10T13:18:15.908Z</time>
      </trkpt>
      <trkpt lat="43.43409" lon="6.6234">
        <ele>78.7</ele>
        <time>2013-10-10T13:18:17.906Z</time>
      </trkpt>
      <trkpt lat="43.43409" lon="6.62344">
        <ele>78.7</ele>
        <time>2013-10-10T13:18:18.903Z</time>
      </trkpt>
      <trkpt lat="43.43409" lon="6.62355">
        <ele>78.7</ele>
        <time>2013-10-10T13:18:21.904Z</time>
      </trkpt>
      <trkpt lat="43.43408" lon="6.62359">
        <ele>78.7</ele>
        <time>2013-10-10T13:18:22.901Z</time>
      </trkpt>
      <trkpt lat="43.43409" lon="6.62369">
        <ele>78.7</ele>
        <time>2013-10-10T13:18:25.907Z</time>
      </trkpt>
      <trkpt lat="43.43411" lon="6.62372">
        <ele>78.7</ele>
        <time>2013-10-10T13:18:26.906Z</time>
      </trkpt>
      <trkpt lat="43.43416" lon="6.62371">
        <ele>78.8</ele>
        <time>2013-10-10T13:18:28.902Z</time>
      </trkpt>
      <trkpt lat="43.43419" lon="6.62365">
        <ele>78.9</ele>
        <time>2013-10-10T13:18:29.901Z</time>
      </trkpt>
      <trkpt lat="43.43422" lon="6.62356">
        <ele>79.1</ele>
        <time>2013-10-10T13:18:31.874Z</time>
      </trkpt>
      <trkpt lat="43.43424" lon="6.62351">
        <ele>79.1</ele>
        <time>2013-10-10T13:18:32.901Z</time>
      </trkpt>
      <trkpt lat="43.43428" lon="6.62342">
        <ele>79.3</ele>
        <time>2013-10-10T13:18:34.902Z</time>
      </trkpt>
      <trkpt lat="43.4343" lon="6.62338">
        <ele>79.3</ele>
        <time>2013-10-10T13:18:35.903Z</time>
      </trkpt>
      <trkpt lat="43.43435" lon="6.6233">
        <ele>79.4</ele>
        <time>2013-10-10T13:18:38.905Z</time>
      </trkpt>
      <trkpt lat="43.43437" lon="6.62329">
        <ele>79.5</ele>
        <time>2013-10-10T13:18:39.907Z</time>
      </trkpt>
      <trkpt lat="43.43444" lon="6.62324">
        <ele>79.6</ele>
        <time>2013-10-10T13:18:42.903Z</time>
      </trkpt>
      <trkpt lat="43.43446" lon="6.62322">
        <ele>79.6</ele>
        <time>2013-10-10T13:18:43.889Z</time>
      </trkpt>
      <trkpt lat="43.43454" lon="6.62318">
        <ele>79.7</ele>
        <time>2013-10-10T13:18:46.911Z</time>
      </trkpt>
      <trkpt lat="43.43457" lon="6.62316">
        <ele>79.7</ele>
        <time>2013-10-10T13:18:47.906Z</time>
      </trkpt>
      <trkpt lat="43.43461" lon="6.62314">
        <ele>79.7</ele>
        <time>2013-10-10T13:18:48.906Z</time>
      </trkpt>
      <trkpt lat="43.43466" lon="6.62312">
        <ele>79.7</ele>
        <time>2013-10-10T13:18:49.907Z</time>
      </trkpt>
      <trkpt lat="43.43474" lon="6.62308">
        <ele>79.8</ele>
        <time>2013-10-10T13:18:51.861Z</time>
      </trkpt>
      <trkpt lat="43.43478" lon="6.62306">
        <ele>79.8</ele>
        <time>2013-10-10T13:18:52.880Z</time>
      </trkpt>
      <trkpt lat="43.43484" lon="6.62304">
        <ele>79.8</ele>
        <time>2013-10-10T13:18:54.885Z</time>
      </trkpt>
      <trkpt lat="43.43488" lon="6.62303">
        <ele>79.8</ele>
        <time>2013-10-10T13:18:55.883Z</time>
      </trkpt>
      <trkpt lat="43.43495" lon="6.62301">
        <ele>79.7</ele>
        <time>2013-10-10T13:18:57.865Z</time>
      </trkpt>
      <trkpt lat="43.43499" lon="6.623">
        <ele>79.7</ele>
        <time>2013-10-10T13:18:58.892Z</time>
      </trkpt>
      <trkpt lat="43.43506" lon="6.62298">
        <ele>79.4</ele>
        <time>2013-10-10T13:19:00.869Z</time>
      </trkpt>
      <trkpt lat="43.4351" lon="6.62296">
        <ele>79.3</ele>
        <time>2013-10-10T13:19:01.908Z</time>
      </trkpt>
      <trkpt lat="43.43518" lon="6.62293">
        <ele>79.3</ele>
        <time>2013-10-10T13:19:03.911Z</time>
      </trkpt>
      <trkpt lat="43.43522" lon="6.62291">
        <ele>79.7</ele>
        <time>2013-10-10T13:19:04.912Z</time>
      </trkpt>
      <trkpt lat="43.43528" lon="6.62286">
        <ele>80.3</ele>
        <time>2013-10-10T13:19:06.911Z</time>
      </trkpt>
      <trkpt lat="43.43532" lon="6.62283">
        <ele>80.2</ele>
        <time>2013-10-10T13:19:07.936Z</time>
      </trkpt>
      <trkpt lat="43.43538" lon="6.62276">
        <ele>80.1</ele>
        <time>2013-10-10T13:19:09.911Z</time>
      </trkpt>
      <trkpt lat="43.43542" lon="6.62272">
        <ele>80.1</ele>
        <time>2013-10-10T13:19:10.921Z</time>
      </trkpt>
      <trkpt lat="43.43549" lon="6.62266">
        <ele>80.4</ele>
        <time>2013-10-10T13:19:12.927Z</time>
      </trkpt>
      <trkpt lat="43.43552" lon="6.62262">
        <ele>80.8</ele>
        <time>2013-10-10T13:19:13.908Z</time>
      </trkpt>
      <trkpt lat="43.4356" lon="6.62256">
        <ele>80.5</ele>
        <time>2013-10-10T13:19:15.911Z</time>
      </trkpt>
      <trkpt lat="43.43564" lon="6.62254">
        <ele>80.1</ele>
        <time>2013-10-10T13:19:16.911Z</time>
      </trkpt>
      <trkpt lat="43.43568" lon="6.62251">
        <ele>79.8</ele>
        <time>2013-10-10T13:19:17.912Z</time>
      </trkpt>
      <trkpt lat="43.43573" lon="6.62249">
        <ele>79.6</ele>
        <time>2013-10-10T13:19:18.913Z</time>
      </trkpt>
      <trkpt lat="43.43577" lon="6.62248">
        <ele>79.1</ele>
        <time>2013-10-10T13:19:19.913Z</time>
      </trkpt>
      <trkpt lat="43.43581" lon="6.62246">
        <ele>78.5</ele>
        <time>2013-10-10T13:19:20.916Z</time>
      </trkpt>
      <trkpt lat="43.43586" lon="6.62244">
        <ele>77.9</ele>
        <time>2013-10-10T13:19:21.913Z</time>
      </trkpt>
      <trkpt lat="43.4359" lon="6.62242">
        <ele>77.5</ele>
        <time>2013-10-10T13:19:22.910Z</time>
      </trkpt>
      <trkpt lat="43.43598" lon="6.62238">
        <ele>76.8</ele>
        <time>2013-10-10T13:19:24.910Z</time>
      </trkpt>
      <trkpt lat="43.43602" lon="6.62236">
        <ele>76.8</ele>
        <time>2013-10-10T13:19:25.912Z</time>
      </trkpt>
      <trkpt lat="43.4361" lon="6.62232">
        <ele>77.2</ele>
        <time>2013-10-10T13:19:27.913Z</time>
      </trkpt>
      <trkpt lat="43.43614" lon="6.6223">
        <ele>77.4</ele>
        <time>2013-10-10T13:19:28.911Z</time>
      </trkpt>
      <trkpt lat="43.43623" lon="6.62228">
        <ele>77.1</ele>
        <time>2013-10-10T13:19:30.918Z</time>
      </trkpt>
      <trkpt lat="43.43627" lon="6.62227">
        <ele>76.2</ele>
        <time>2013-10-10T13:19:31.908Z</time>
      </trkpt>
      <trkpt lat="43.43632" lon="6.62225">
        <ele>75.4</ele>
        <time>2013-10-10T13:19:32.908Z</time>
      </trkpt>
      <trkpt lat="43.43637" lon="6.62224">
        <ele>74.7</ele>
        <time>2013-10-10T13:19:33.909Z</time>
      </trkpt>
      <trkpt lat="43.43642" lon="6.62222">
        <ele>74.4</ele>
        <time>2013-10-10T13:19:34.910Z</time>
      </trkpt>
      <trkpt lat="43.43647" lon="6.62221">
        <ele>74.4</ele>
        <time>2013-10-10T13:19:35.910Z</time>
      </trkpt>
      <trkpt lat="43.43652" lon="6.62221">
        <ele>74.4</ele>
        <time>2013-10-10T13:19:36.914Z</time>
      </trkpt>
      <trkpt lat="43.43658" lon="6.62222">
        <ele>74.1</ele>
        <time>2013-10-10T13:19:37.913Z</time>
      </trkpt>
      <trkpt lat="43.43663" lon="6.62224">
        <ele>74</ele>
        <time>2013-10-10T13:19:38.911Z</time>
      </trkpt>
      <trkpt lat="43.43668" lon="6.62226">
        <ele>73.8</ele>
        <time>2013-10-10T13:19:39.911Z</time>
      </trkpt>
      <trkpt lat="43.43673" lon="6.62229">
        <ele>73.6</ele>
        <time>2013-10-10T13:19:40.917Z</time>
      </trkpt>
      <trkpt lat="43.43678" lon="6.62232">
        <ele>73.7</ele>
        <time>2013-10-10T13:19:42.018Z</time>
      </trkpt>
      <trkpt lat="43.43683" lon="6.62235">
        <ele>73.7</ele>
        <time>2013-10-10T13:19:42.925Z</time>
      </trkpt>
      <trkpt lat="43.43688" lon="6.62239">
        <ele>73.7</ele>
        <time>2013-10-10T13:19:43.913Z</time>
      </trkpt>
      <trkpt lat="43.43693" lon="6.62242">
        <ele>74</ele>
        <time>2013-10-10T13:19:44.912Z</time>
      </trkpt>
      <trkpt lat="43.43698" lon="6.62245">
        <ele>74.4</ele>
        <time>2013-10-10T13:19:45.912Z</time>
      </trkpt>
      <trkpt lat="43.43703" lon="6.62247">
        <ele>74.5</ele>
        <time>2013-10-10T13:19:46.912Z</time>
      </trkpt>
      <trkpt lat="43.43709" lon="6.6225">
        <ele>74.3</ele>
        <time>2013-10-10T13:19:47.915Z</time>
      </trkpt>
      <trkpt lat="43.43714" lon="6.62252">
        <ele>74.4</ele>
        <time>2013-10-10T13:19:48.912Z</time>
      </trkpt>
      <trkpt lat="43.43719" lon="6.62254">
        <ele>74.8</ele>
        <time>2013-10-10T13:19:49.915Z</time>
      </trkpt>
      <trkpt lat="43.43724" lon="6.62255">
        <ele>75.1</ele>
        <time>2013-10-10T13:19:50.922Z</time>
      </trkpt>
      <trkpt lat="43.43728" lon="6.62255">
        <ele>75.3</ele>
        <time>2013-10-10T13:19:51.914Z</time>
      </trkpt>
      <trkpt lat="43.43733" lon="6.62257">
        <ele>75.4</ele>
        <time>2013-10-10T13:19:52.922Z</time>
      </trkpt>
      <trkpt lat="43.43738" lon="6.62259">
        <ele>75.4</ele>
        <time>2013-10-10T13:19:53.915Z</time>
      </trkpt>
      <trkpt lat="43.43743" lon="6.62261">
        <ele>75.2</ele>
        <time>2013-10-10T13:19:54.919Z</time>
      </trkpt>
      <trkpt lat="43.43748" lon="6.62263">
        <ele>75</ele>
        <time>2013-10-10T13:19:55.914Z</time>
      </trkpt>
      <trkpt lat="43.43754" lon="6.62265">
        <ele>74.2</ele>
        <time>2013-10-10T13:19:56.912Z</time>
      </trkpt>
      <trkpt lat="43.4376" lon="6.62267">
        <ele>73.3</ele>
        <time>2013-10-10T13:19:57.908Z</time>
      </trkpt>
      <trkpt lat="43.43766" lon="6.62269">
        <ele>72</ele>
        <time>2013-10-10T13:19:58.900Z</time>
      </trkpt>
      <trkpt lat="43.43773" lon="6.62272">
        <ele>70.7</ele>
        <time>2013-10-10T13:19:59.905Z</time>
      </trkpt>
      <trkpt lat="43.4378" lon="6.62274">
        <ele>69.5</ele>
        <time>2013-10-10T13:20:00.850Z</time>
      </trkpt>
      <trkpt lat="43.43786" lon="6.62276">
        <ele>68.7</ele>
        <time>2013-10-10T13:20:01.907Z</time>
      </trkpt>
      <trkpt lat="43.43792" lon="6.62278">
        <ele>67.6</ele>
        <time>2013-10-10T13:20:02.917Z</time>
      </trkpt>
      <trkpt lat="43.43797" lon="6.62279">
        <ele>67</ele>
        <time>2013-10-10T13:20:03.906Z</time>
      </trkpt>
      <trkpt lat="43.43802" lon="6.6228">
        <ele>66.7</ele>
        <time>2013-10-10T13:20:04.913Z</time>
      </trkpt>
      <trkpt lat="43.43807" lon="6.6228">
        <ele>66.7</ele>
        <time>2013-10-10T13:20:05.919Z</time>
      </trkpt>
      <trkpt lat="43.43815" lon="6.6228">
        <ele>67.2</ele>
        <time>2013-10-10T13:20:07.917Z</time>
      </trkpt>
      <trkpt lat="43.43819" lon="6.62281">
        <ele>67.2</ele>
        <time>2013-10-10T13:20:08.914Z</time>
      </trkpt>
      <trkpt lat="43.43826" lon="6.62283">
        <ele>67.1</ele>
        <time>2013-10-10T13:20:10.921Z</time>
      </trkpt>
      <trkpt lat="43.4383" lon="6.62285">
        <ele>67</ele>
        <time>2013-10-10T13:20:11.920Z</time>
      </trkpt>
      <trkpt lat="43.43836" lon="6.62288">
        <ele>66.9</ele>
        <time>2013-10-10T13:20:13.914Z</time>
      </trkpt>
      <trkpt lat="43.43839" lon="6.62288">
        <ele>66.8</ele>
        <time>2013-10-10T13:20:14.913Z</time>
      </trkpt>
      <trkpt lat="43.43848" lon="6.6229">
        <ele>66.5</ele>
        <time>2013-10-10T13:20:18.912Z</time>
      </trkpt>
      <trkpt lat="43.43849" lon="6.6229">
        <ele>66.5</ele>
        <time>2013-10-10T13:20:19.919Z</time>
      </trkpt>
      <trkpt lat="43.43856" lon="6.62292">
        <ele>66.5</ele>
        <time>2013-10-10T13:20:24.920Z</time>
      </trkpt>
      <trkpt lat="43.43858" lon="6.62293">
        <ele>66.5</ele>
        <time>2013-10-10T13:20:25.924Z</time>
      </trkpt>
      <trkpt lat="43.43866" lon="6.62294">
        <ele>66.8</ele>
        <time>2013-10-10T13:20:30.907Z</time>
      </trkpt>
      <trkpt lat="43.43867" lon="6.62295">
        <ele>67</ele>
        <time>2013-10-10T13:20:31.895Z</time>
      </trkpt>
      <trkpt lat="43.43875" lon="6.62297">
        <ele>67.5</ele>
        <time>2013-10-10T13:20:35.908Z</time>
      </trkpt>
      <trkpt lat="43.43877" lon="6.62298">
        <ele>67.6</ele>
        <time>2013-10-10T13:20:36.917Z</time>
      </trkpt>
      <trkpt lat="43.43885" lon="6.62301">
        <ele>68.1</ele>
        <time>2013-10-10T13:20:40.920Z</time>
      </trkpt>
      <trkpt lat="43.43887" lon="6.62301">
        <ele>68.2</ele>
        <time>2013-10-10T13:20:41.917Z</time>
      </trkpt>
      <trkpt lat="43.43894" lon="6.62305">
        <ele>68.4</ele>
        <time>2013-10-10T13:20:45.907Z</time>
      </trkpt>
      <trkpt lat="43.43896" lon="6.62307">
        <ele>68.5</ele>
        <time>2013-10-10T13:20:46.902Z</time>
      </trkpt>
      <trkpt lat="43.43902" lon="6.62312">
        <ele>68.6</ele>
        <time>2013-10-10T13:20:49.907Z</time>
      </trkpt>
      <trkpt lat="43.43904" lon="6.62314">
        <ele>68.7</ele>
        <time>2013-10-10T13:20:50.921Z</time>
      </trkpt>
      <trkpt lat="43.43911" lon="6.62317">
        <ele>69</ele>
        <time>2013-10-10T13:20:54.915Z</time>
      </trkpt>
      <trkpt lat="43.43913" lon="6.62316">
        <ele>69</ele>
        <time>2013-10-10T13:20:55.912Z</time>
      </trkpt>
      <trkpt lat="43.43922" lon="6.62313">
        <ele>69.2</ele>
        <time>2013-10-10T13:21:00.873Z</time>
      </trkpt>
      <trkpt lat="43.43923" lon="6.62312">
        <ele>69.3</ele>
        <time>2013-10-10T13:21:01.917Z</time>
      </trkpt>
      <trkpt lat="43.43931" lon="6.62311">
        <ele>69.8</ele>
        <time>2013-10-10T13:21:06.929Z</time>
      </trkpt>
      <trkpt lat="43.43933" lon="6.62311">
        <ele>70</ele>
        <time>2013-10-10T13:21:07.961Z</time>
      </trkpt>
      <trkpt lat="43.4394" lon="6.62314">
        <ele>70.9</ele>
        <time>2013-10-10T13:21:12.911Z</time>
      </trkpt>
      <trkpt lat="43.43942" lon="6.62315">
        <ele>71.1</ele>
        <time>2013-10-10T13:21:13.913Z</time>
      </trkpt>
      <trkpt lat="43.43949" lon="6.6232">
        <ele>71.9</ele>
        <time>2013-10-10T13:21:17.916Z</time>
      </trkpt>
      <trkpt lat="43.4395" lon="6.62322">
        <ele>72.1</ele>
        <time>2013-10-10T13:21:18.918Z</time>
      </trkpt>
      <trkpt lat="43.43956" lon="6.62326">
        <ele>72.8</ele>
        <time>2013-10-10T13:21:22.918Z</time>
      </trkpt>
      <trkpt lat="43.43958" lon="6.62327">
        <ele>72.9</ele>
        <time>2013-10-10T13:21:23.916Z</time>
      </trkpt>
      <trkpt lat="43.43967" lon="6.62328">
        <ele>73.3</ele>
        <time>2013-10-10T13:21:27.914Z</time>
      </trkpt>
      <trkpt lat="43.43969" lon="6.62327">
        <ele>73.4</ele>
        <time>2013-10-10T13:21:28.915Z</time>
      </trkpt>
      <trkpt lat="43.43975" lon="6.62323">
        <ele>73.7</ele>
        <time>2013-10-10T13:21:32.919Z</time>
      </trkpt>
      <trkpt lat="43.43977" lon="6.62322">
        <ele>73.8</ele>
        <time>2013-10-10T13:21:33.912Z</time>
      </trkpt>
      <trkpt lat="43.43984" lon="6.62318">
        <ele>74.1</ele>
        <time>2013-10-10T13:21:38.913Z</time>
      </trkpt>
      <trkpt lat="43.43986" lon="6.62317">
        <ele>74.2</ele>
        <time>2013-10-10T13:21:39.911Z</time>
      </trkpt>
      <trkpt lat="43.43994" lon="6.62318">
        <ele>74.6</ele>
        <time>2013-10-10T13:21:43.914Z</time>
      </trkpt>
      <trkpt lat="43.43996" lon="6.62319">
        <ele>74.8</ele>
        <time>2013-10-10T13:21:44.916Z</time>
      </trkpt>
      <trkpt lat="43.44004" lon="6.62322">
        <ele>75.2</ele>
        <time>2013-10-10T13:21:48.912Z</time>
      </trkpt>
      <trkpt lat="43.44006" lon="6.62323">
        <ele>75.3</ele>
        <time>2013-10-10T13:21:49.915Z</time>
      </trkpt>
      <trkpt lat="43.44012" lon="6.62327">
        <ele>75.7</ele>
        <time>2013-10-10T13:21:53.918Z</time>
      </trkpt>
      <trkpt lat="43.44014" lon="6.62328">
        <ele>75.8</ele>
        <time>2013-10-10T13:21:54.916Z</time>
      </trkpt>
      <trkpt lat="43.44021" lon="6.6233">
        <ele>76.1</ele>
        <time>2013-10-10T13:21:57.915Z</time>
      </trkpt>
      <trkpt lat="43.44023" lon="6.62331">
        <ele>76.2</ele>
        <time>2013-10-10T13:21:58.912Z</time>
      </trkpt>
      <trkpt lat="43.44031" lon="6.62336">
        <ele>76.5</ele>
        <time>2013-10-10T13:22:02.911Z</time>
      </trkpt>
      <trkpt lat="43.44033" lon="6.62337">
        <ele>76.6</ele>
        <time>2013-10-10T13:22:03.911Z</time>
      </trkpt>
      <trkpt lat="43.4404" lon="6.62341">
        <ele>77.2</ele>
        <time>2013-10-10T13:22:07.917Z</time>
      </trkpt>
      <trkpt lat="43.44043" lon="6.62342">
        <ele>77.3</ele>
        <time>2013-10-10T13:22:09.029Z</time>
      </trkpt>
      <trkpt lat="43.44049" lon="6.62346">
        <ele>77.7</ele>
        <time>2013-10-10T13:22:11.914Z</time>
      </trkpt>
      <trkpt lat="43.44051" lon="6.62347">
        <ele>77.8</ele>
        <time>2013-10-10T13:22:12.912Z</time>
      </trkpt>
      <trkpt lat="43.44057" lon="6.62352">
        <ele>78.1</ele>
        <time>2013-10-10T13:22:15.914Z</time>
      </trkpt>
      <trkpt lat="43.44059" lon="6.62353">
        <ele>78.2</ele>
        <time>2013-10-10T13:22:16.915Z</time>
      </trkpt>
      <trkpt lat="43.44066" lon="6.62359">
        <ele>78.7</ele>
        <time>2013-10-10T13:22:20.928Z</time>
      </trkpt>
      <trkpt lat="43.44068" lon="6.6236">
        <ele>78.8</ele>
        <time>2013-10-10T13:22:21.923Z</time>
      </trkpt>
      <trkpt lat="43.44075" lon="6.62366">
        <ele>79.3</ele>
        <time>2013-10-10T13:22:25.924Z</time>
      </trkpt>
      <trkpt lat="43.44077" lon="6.62369">
        <ele>79.4</ele>
        <time>2013-10-10T13:22:26.919Z</time>
      </trkpt>
      <trkpt lat="43.44081" lon="6.62377">
        <ele>79.7</ele>
        <time>2013-10-10T13:22:29.910Z</time>
      </trkpt>
      <trkpt lat="43.44082" lon="6.6238">
        <ele>79.8</ele>
        <time>2013-10-10T13:22:30.917Z</time>
      </trkpt>
      <trkpt lat="43.44081" lon="6.62392">
        <ele>80.3</ele>
        <time>2013-10-10T13:22:35.224Z</time>
      </trkpt>
      <trkpt lat="43.44081" lon="6.62395">
        <ele>80.4</ele>
        <time>2013-10-10T13:22:36.149Z</time>
      </trkpt>
      <trkpt lat="43.44078" lon="6.62405">
        <ele>81</ele>
        <time>2013-10-10T13:22:39.938Z</time>
      </trkpt>
      <trkpt lat="43.44077" lon="6.62408">
        <ele>81.1</ele>
        <time>2013-10-10T13:22:40.921Z</time>
      </trkpt>
      <trkpt lat="43.44073" lon="6.62418">
        <ele>81.6</ele>
        <time>2013-10-10T13:22:44.920Z</time>
      </trkpt>
      <trkpt lat="43.44072" lon="6.6242">
        <ele>81.8</ele>
        <time>2013-10-10T13:22:45.937Z</time>
      </trkpt>
      <trkpt lat="43.4407" lon="6.62432">
        <ele>82.2</ele>
        <time>2013-10-10T13:22:49.871Z</time>
      </trkpt>
      <trkpt lat="43.4407" lon="6.62435">
        <ele>82.4</ele>
        <time>2013-10-10T13:22:50.928Z</time>
      </trkpt>
      <trkpt lat="43.44067" lon="6.62446">
        <ele>82.9</ele>
        <time>2013-10-10T13:22:54.902Z</time>
      </trkpt>
      <trkpt lat="43.44066" lon="6.62448">
        <ele>83</ele>
        <time>2013-10-10T13:22:55.920Z</time>
      </trkpt>
      <trkpt lat="43.44064" lon="6.62458">
        <ele>83.7</ele>
        <time>2013-10-10T13:23:00.887Z</time>
      </trkpt>
      <trkpt lat="43.44063" lon="6.62461">
        <ele>83.9</ele>
        <time>2013-10-10T13:23:01.882Z</time>
      </trkpt>
      <trkpt lat="43.4406" lon="6.62471">
        <ele>84.8</ele>
        <time>2013-10-10T13:23:06.922Z</time>
      </trkpt>
      <trkpt lat="43.4406" lon="6.62473">
        <ele>85</ele>
        <time>2013-10-10T13:23:07.921Z</time>
      </trkpt>
      <trkpt lat="43.44057" lon="6.62484">
        <ele>85.8</ele>
        <time>2013-10-10T13:23:12.924Z</time>
      </trkpt>
      <trkpt lat="43.44057" lon="6.62486">
        <ele>86</ele>
        <time>2013-10-10T13:23:13.927Z</time>
      </trkpt>
      <trkpt lat="43.44055" lon="6.62497">
        <ele>87</ele>
        <time>2013-10-10T13:23:19.923Z</time>
      </trkpt>
      <trkpt lat="43.44054" lon="6.625">
        <ele>87.1</ele>
        <time>2013-10-10T13:23:20.930Z</time>
      </trkpt>
      <trkpt lat="43.44052" lon="6.6251">
        <ele>88</ele>
        <time>2013-10-10T13:23:25.924Z</time>
      </trkpt>
      <trkpt lat="43.44051" lon="6.62512">
        <ele>88.2</ele>
        <time>2013-10-10T13:23:26.919Z</time>
      </trkpt>
      <trkpt lat="43.44049" lon="6.62522">
        <ele>89</ele>
        <time>2013-10-10T13:23:32.130Z</time>
      </trkpt>
      <trkpt lat="43.44049" lon="6.62524">
        <ele>89.2</ele>
        <time>2013-10-10T13:23:32.948Z</time>
      </trkpt>
      <trkpt lat="43.44046" lon="6.62535">
        <ele>90.1</ele>
        <time>2013-10-10T13:23:38.889Z</time>
      </trkpt>
      <trkpt lat="43.44045" lon="6.62537">
        <ele>90.2</ele>
        <time>2013-10-10T13:23:39.916Z</time>
      </trkpt>
      <trkpt lat="43.44043" lon="6.62549">
        <ele>91.2</ele>
        <time>2013-10-10T13:23:45.923Z</time>
      </trkpt>
      <trkpt lat="43.44042" lon="6.62551">
        <ele>91.3</ele>
        <time>2013-10-10T13:23:46.921Z</time>
      </trkpt>
      <trkpt lat="43.4404" lon="6.62561">
        <ele>92.2</ele>
        <time>2013-10-10T13:23:52.924Z</time>
      </trkpt>
      <trkpt lat="43.44039" lon="6.62563">
        <ele>92.3</ele>
        <time>2013-10-10T13:23:53.925Z</time>
      </trkpt>
      <trkpt lat="43.44036" lon="6.62574">
        <ele>93.5</ele>
        <time>2013-10-10T13:23:59.917Z</time>
      </trkpt>
      <trkpt lat="43.44036" lon="6.62575">
        <ele>93.6</ele>
        <time>2013-10-10T13:24:00.951Z</time>
      </trkpt>
      <trkpt lat="43.44032" lon="6.62585">
        <ele>94.6</ele>
        <time>2013-10-10T13:24:06.914Z</time>
      </trkpt>
      <trkpt lat="43.44032" lon="6.62587">
        <ele>94.8</ele>
        <time>2013-10-10T13:24:07.913Z</time>
      </trkpt>
      <trkpt lat="43.4403" lon="6.62597">
        <ele>95.5</ele>
        <time>2013-10-10T13:24:11.911Z</time>
      </trkpt>
      <trkpt lat="43.44029" lon="6.62599">
        <ele>95.7</ele>
        <time>2013-10-10T13:24:12.914Z</time>
      </trkpt>
      <trkpt lat="43.44028" lon="6.62611">
        <ele>96.6</ele>
        <time>2013-10-10T13:24:17.908Z</time>
      </trkpt>
      <trkpt lat="43.44027" lon="6.62613">
        <ele>96.8</ele>
        <time>2013-10-10T13:24:18.914Z</time>
      </trkpt>
      <trkpt lat="43.44027" lon="6.62625">
        <ele>97.7</ele>
        <time>2013-10-10T13:24:23.913Z</time>
      </trkpt>
      <trkpt lat="43.44027" lon="6.62628">
        <ele>97.9</ele>
        <time>2013-10-10T13:24:24.916Z</time>
      </trkpt>
      <trkpt lat="43.44027" lon="6.62639">
        <ele>98.7</ele>
        <time>2013-10-10T13:24:29.913Z</time>
      </trkpt>
      <trkpt lat="43.44026" lon="6.62641">
        <ele>98.9</ele>
        <time>2013-10-10T13:24:30.925Z</time>
      </trkpt>
      <trkpt lat="43.44024" lon="6.62652">
        <ele>99.7</ele>
        <time>2013-10-10T13:24:35.917Z</time>
      </trkpt>
      <trkpt lat="43.44023" lon="6.62654">
        <ele>99.8</ele>
        <time>2013-10-10T13:24:36.920Z</time>
      </trkpt>
      <trkpt lat="43.44022" lon="6.62666">
        <ele>100.9</ele>
        <time>2013-10-10T13:24:41.913Z</time>
      </trkpt>
      <trkpt lat="43.44022" lon="6.62668">
        <ele>101.1</ele>
        <time>2013-10-10T13:24:42.915Z</time>
      </trkpt>
      <trkpt lat="43.44025" lon="6.62678">
        <ele>101.8</ele>
        <time>2013-10-10T13:24:46.915Z</time>
      </trkpt>
      <trkpt lat="43.44026" lon="6.6268">
        <ele>102</ele>
        <time>2013-10-10T13:24:47.915Z</time>
      </trkpt>
      <trkpt lat="43.4403" lon="6.62688">
        <ele>102.8</ele>
        <time>2013-10-10T13:24:51.914Z</time>
      </trkpt>
      <trkpt lat="43.44032" lon="6.6269">
        <ele>103</ele>
        <time>2013-10-10T13:24:52.915Z</time>
      </trkpt>
      <trkpt lat="43.44035" lon="6.62697">
        <ele>103.7</ele>
        <time>2013-10-10T13:24:55.887Z</time>
      </trkpt>
      <trkpt lat="43.44037" lon="6.627">
        <ele>104</ele>
        <time>2013-10-10T13:24:56.942Z</time>
      </trkpt>
      <trkpt lat="43.4404" lon="6.62708">
        <ele>104.6</ele>
        <time>2013-10-10T13:24:59.914Z</time>
      </trkpt>
      <trkpt lat="43.44041" lon="6.62711">
        <ele>104.8</ele>
        <time>2013-10-10T13:25:00.879Z</time>
      </trkpt>
      <trkpt lat="43.44043" lon="6.62722">
        <ele>105.5</ele>
        <time>2013-10-10T13:25:04.915Z</time>
      </trkpt>
      <trkpt lat="43.44043" lon="6.62725">
        <ele>105.6</ele>
        <time>2013-10-10T13:25:05.979Z</time>
      </trkpt>
      <trkpt lat="43.44046" lon="6.62735">
        <ele>106.1</ele>
        <time>2013-10-10T13:25:09.916Z</time>
      </trkpt>
      <trkpt lat="43.44046" lon="6.62737">
        <ele>106.2</ele>
        <time>2013-10-10T13:25:10.919Z</time>
      </trkpt>
      <trkpt lat="43.44051" lon="6.62747">
        <ele>106.8</ele>
        <time>2013-10-10T13:25:14.922Z</time>
      </trkpt>
      <trkpt lat="43.44052" lon="6.62749">
        <ele>107</ele>
        <time>2013-10-10T13:25:15.946Z</time>
      </trkpt>
      <trkpt lat="43.44058" lon="6.62755">
        <ele>107.5</ele>
        <time>2013-10-10T13:25:19.924Z</time>
      </trkpt>
      <trkpt lat="43.4406" lon="6.62756">
        <ele>107.7</ele>
        <time>2013-10-10T13:25:20.933Z</time>
      </trkpt>
      <trkpt lat="43.44065" lon="6.62763">
        <ele>108.3</ele>
        <time>2013-10-10T13:25:24.925Z</time>
      </trkpt>
      <trkpt lat="43.44067" lon="6.62765">
        <ele>108.4</ele>
        <time>2013-10-10T13:25:25.924Z</time>
      </trkpt>
      <trkpt lat="43.44073" lon="6.62774">
        <ele>109.2</ele>
        <time>2013-10-10T13:25:31.921Z</time>
      </trkpt>
      <trkpt lat="43.44074" lon="6.62776">
        <ele>109.3</ele>
        <time>2013-10-10T13:25:32.924Z</time>
      </trkpt>
      <trkpt lat="43.44079" lon="6.62785">
        <ele>110.4</ele>
        <time>2013-10-10T13:25:39.926Z</time>
      </trkpt>
      <trkpt lat="43.44079" lon="6.62788">
        <ele>110.6</ele>
        <time>2013-10-10T13:25:40.939Z</time>
      </trkpt>
      <trkpt lat="43.44073" lon="6.62794">
        <ele>111.2</ele>
        <time>2013-10-10T13:25:44.921Z</time>
      </trkpt>
      <trkpt lat="43.44071" lon="6.62795">
        <ele>111.4</ele>
        <time>2013-10-10T13:25:45.916Z</time>
      </trkpt>
      <trkpt lat="43.44063" lon="6.62796">
        <ele>111.9</ele>
        <time>2013-10-10T13:25:48.916Z</time>
      </trkpt>
      <trkpt lat="43.4406" lon="6.62795">
        <ele>112.1</ele>
        <time>2013-10-10T13:25:49.913Z</time>
      </trkpt>
      <trkpt lat="43.44054" lon="6.62792">
        <ele>112.7</ele>
        <time>2013-10-10T13:25:52.886Z</time>
      </trkpt>
      <trkpt lat="43.44052" lon="6.62791">
        <ele>112.8</ele>
        <time>2013-10-10T13:25:53.914Z</time>
      </trkpt>
      <trkpt lat="43.44045" lon="6.62785">
        <ele>113.5</ele>
        <time>2013-10-10T13:25:57.920Z</time>
      </trkpt>
      <trkpt lat="43.44043" lon="6.62784">
        <ele>113.7</ele>
        <time>2013-10-10T13:25:58.921Z</time>
      </trkpt>
      <trkpt lat="43.44036" lon="6.62782">
        <ele>114.6</ele>
        <time>2013-10-10T13:26:03.917Z</time>
      </trkpt>
      <trkpt lat="43.44034" lon="6.62782">
        <ele>114.8</ele>
        <time>2013-10-10T13:26:04.917Z</time>
      </trkpt>
      <trkpt lat="43.44027" lon="6.62779">
        <ele>115.9</ele>
        <time>2013-10-10T13:26:11.915Z</time>
      </trkpt>
      <trkpt lat="43.44026" lon="6.62778">
        <ele>116.1</ele>
        <time>2013-10-10T13:26:12.914Z</time>
      </trkpt>
      <trkpt lat="43.44019" lon="6.62772">
        <ele>116.7</ele>
        <time>2013-10-10T13:26:17.388Z</time>
      </trkpt>
      <trkpt lat="43.44018" lon="6.62771">
        <ele>116.8</ele>
        <time>2013-10-10T13:26:18.435Z</time>
      </trkpt>
      <trkpt lat="43.4401" lon="6.62766">
        <ele>117.7</ele>
        <time>2013-10-10T13:26:25.444Z</time>
      </trkpt>
      <trkpt lat="43.44008" lon="6.62766">
        <ele>117.8</ele>
        <time>2013-10-10T13:26:26.436Z</time>
      </trkpt>
      <trkpt lat="43.44" lon="6.62762">
        <ele>119.1</ele>
        <time>2013-10-10T13:26:34.432Z</time>
      </trkpt>
      <trkpt lat="43.43999" lon="6.62761">
        <ele>119.2</ele>
        <time>2013-10-10T13:26:35.405Z</time>
      </trkpt>
      <trkpt lat="43.43995" lon="6.6275">
        <ele>120.4</ele>
        <time>2013-10-10T13:26:42.432Z</time>
      </trkpt>
      <trkpt lat="43.43994" lon="6.62749">
        <ele>120.6</ele>
        <time>2013-10-10T13:26:43.432Z</time>
      </trkpt>
      <trkpt lat="43.4399" lon="6.62738">
        <ele>121.4</ele>
        <time>2013-10-10T13:26:49.441Z</time>
      </trkpt>
      <trkpt lat="43.4399" lon="6.62736">
        <ele>121.5</ele>
        <time>2013-10-10T13:26:50.442Z</time>
      </trkpt>
      <trkpt lat="43.43988" lon="6.62725">
        <ele>122.5</ele>
        <time>2013-10-10T13:26:57.437Z</time>
      </trkpt>
      <trkpt lat="43.43987" lon="6.62724">
        <ele>122.7</ele>
        <time>2013-10-10T13:26:58.433Z</time>
      </trkpt>
      <trkpt lat="43.43981" lon="6.62717">
        <ele>123.7</ele>
        <time>2013-10-10T13:27:06.436Z</time>
      </trkpt>
      <trkpt lat="43.4398" lon="6.62716">
        <ele>123.7</ele>
        <time>2013-10-10T13:27:07.441Z</time>
      </trkpt>
      <trkpt lat="43.43972" lon="6.62709">
        <ele>124.2</ele>
        <time>2013-10-10T13:27:12.437Z</time>
      </trkpt>
      <trkpt lat="43.43971" lon="6.62707">
        <ele>124.3</ele>
        <time>2013-10-10T13:27:13.444Z</time>
      </trkpt>
      <trkpt lat="43.43964" lon="6.62701">
        <ele>125</ele>
        <time>2013-10-10T13:27:18.440Z</time>
      </trkpt>
      <trkpt lat="43.43963" lon="6.62699">
        <ele>125.2</ele>
        <time>2013-10-10T13:27:19.439Z</time>
      </trkpt>
      <trkpt lat="43.43961" lon="6.62689">
        <ele>125.7</ele>
        <time>2013-10-10T13:27:23.433Z</time>
      </trkpt>
      <trkpt lat="43.4396" lon="6.62687">
        <ele>125.8</ele>
        <time>2013-10-10T13:27:24.432Z</time>
      </trkpt>
      <trkpt lat="43.43956" lon="6.62677">
        <ele>126.6</ele>
        <time>2013-10-10T13:27:30.440Z</time>
      </trkpt>
      <trkpt lat="43.43956" lon="6.62674">
        <ele>126.8</ele>
        <time>2013-10-10T13:27:31.434Z</time>
      </trkpt>
      <trkpt lat="43.43954" lon="6.62665">
        <ele>127.2</ele>
        <time>2013-10-10T13:27:34.439Z</time>
      </trkpt>
      <trkpt lat="43.43953" lon="6.62662">
        <ele>127.3</ele>
        <time>2013-10-10T13:27:35.439Z</time>
      </trkpt>
      <trkpt lat="43.43952" lon="6.62652">
        <ele>127.6</ele>
        <time>2013-10-10T13:27:38.438Z</time>
      </trkpt>
      <trkpt lat="43.43953" lon="6.62649">
        <ele>127.8</ele>
        <time>2013-10-10T13:27:39.439Z</time>
      </trkpt>
      <trkpt lat="43.43955" lon="6.62637">
        <ele>128.5</ele>
        <time>2013-10-10T13:27:43.453Z</time>
      </trkpt>
      <trkpt lat="43.43956" lon="6.62635">
        <ele>128.7</ele>
        <time>2013-10-10T13:27:44.444Z</time>
      </trkpt>
      <trkpt lat="43.43955" lon="6.62626">
        <ele>129.2</ele>
        <time>2013-10-10T13:27:47.445Z</time>
      </trkpt>
      <trkpt lat="43.43955" lon="6.62622">
        <ele>129.4</ele>
        <time>2013-10-10T13:27:48.441Z</time>
      </trkpt>
      <trkpt lat="43.43956" lon="6.62614">
        <ele>129.7</ele>
        <time>2013-10-10T13:27:50.453Z</time>
      </trkpt>
      <trkpt lat="43.43957" lon="6.62609">
        <ele>129.8</ele>
        <time>2013-10-10T13:27:51.442Z</time>
      </trkpt>
      <trkpt lat="43.43959" lon="6.62599">
        <ele>130.3</ele>
        <time>2013-10-10T13:27:54.442Z</time>
      </trkpt>
      <trkpt lat="43.4396" lon="6.62596">
        <ele>130.5</ele>
        <time>2013-10-10T13:27:55.452Z</time>
      </trkpt>
      <trkpt lat="43.43964" lon="6.62585">
        <ele>131.1</ele>
        <time>2013-10-10T13:27:59.457Z</time>
      </trkpt>
      <trkpt lat="43.43964" lon="6.62583">
        <ele>131.2</ele>
        <time>2013-10-10T13:28:00.547Z</time>
      </trkpt>
      <trkpt lat="43.43963" lon="6.62571">
        <ele>132</ele>
        <time>2013-10-10T13:28:08.449Z</time>
      </trkpt>
      <trkpt lat="43.43963" lon="6.62569">
        <ele>132</ele>
        <time>2013-10-10T13:28:09.450Z</time>
      </trkpt>
      <trkpt lat="43.43962" lon="6.62558">
        <ele>132.7</ele>
        <time>2013-10-10T13:28:15.454Z</time>
      </trkpt>
      <trkpt lat="43.43961" lon="6.62556">
        <ele>132.7</ele>
        <time>2013-10-10T13:28:16.451Z</time>
      </trkpt>
      <trkpt lat="43.43957" lon="6.62546">
        <ele>132.9</ele>
        <time>2013-10-10T13:28:20.432Z</time>
      </trkpt>
      <trkpt lat="43.43956" lon="6.62543">
        <ele>132.9</ele>
        <time>2013-10-10T13:28:21.451Z</time>
      </trkpt>
      <trkpt lat="43.43952" lon="6.62534">
        <ele>133.1</ele>
        <time>2013-10-10T13:28:24.444Z</time>
      </trkpt>
      <trkpt lat="43.4395" lon="6.62532">
        <ele>133.1</ele>
        <time>2013-10-10T13:28:25.451Z</time>
      </trkpt>
      <trkpt lat="43.43942" lon="6.62529">
        <ele>133.6</ele>
        <time>2013-10-10T13:28:30.458Z</time>
      </trkpt>
      <trkpt lat="43.4394" lon="6.6253">
        <ele>133.7</ele>
        <time>2013-10-10T13:28:31.455Z</time>
      </trkpt>
      <trkpt lat="43.43935" lon="6.62539">
        <ele>134.3</ele>
        <time>2013-10-10T13:28:37.458Z</time>
      </trkpt>
      <trkpt lat="43.43934" lon="6.62541">
        <ele>134.4</ele>
        <time>2013-10-10T13:28:38.433Z</time>
      </trkpt>
      <trkpt lat="43.43929" lon="6.62551">
        <ele>134.9</ele>
        <time>2013-10-10T13:28:43.471Z</time>
      </trkpt>
      <trkpt lat="43.43928" lon="6.62552">
        <ele>135</ele>
        <time>2013-10-10T13:28:44.458Z</time>
      </trkpt>
      <trkpt lat="43.43921" lon="6.62561">
        <ele>135.7</ele>
        <time>2013-10-10T13:28:51.455Z</time>
      </trkpt>
      <trkpt lat="43.43921" lon="6.62562">
        <ele>135.7</ele>
        <time>2013-10-10T13:28:52.455Z</time>
      </trkpt>
      <trkpt lat="43.43914" lon="6.6257">
        <ele>136.5</ele>
        <time>2013-10-10T13:28:59.455Z</time>
      </trkpt>
      <trkpt lat="43.43914" lon="6.62572">
        <ele>136.7</ele>
        <time>2013-10-10T13:29:00.424Z</time>
      </trkpt>
      <trkpt lat="43.43908" lon="6.62581">
        <ele>137.4</ele>
        <time>2013-10-10T13:29:07.449Z</time>
      </trkpt>
      <trkpt lat="43.43906" lon="6.62582">
        <ele>137.5</ele>
        <time>2013-10-10T13:29:08.445Z</time>
      </trkpt>
      <trkpt lat="43.43901" lon="6.62591">
        <ele>138.7</ele>
        <time>2013-10-10T13:29:16.497Z</time>
      </trkpt>
      <trkpt lat="43.43901" lon="6.62592">
        <ele>138.8</ele>
        <time>2013-10-10T13:29:17.438Z</time>
      </trkpt>
      <trkpt lat="43.43898" lon="6.62603">
        <ele>139.8</ele>
        <time>2013-10-10T13:29:25.443Z</time>
      </trkpt>
      <trkpt lat="43.43898" lon="6.62605">
        <ele>140</ele>
        <time>2013-10-10T13:29:26.440Z</time>
      </trkpt>
      <trkpt lat="43.43896" lon="6.62615">
        <ele>140.5</ele>
        <time>2013-10-10T13:29:30.452Z</time>
      </trkpt>
      <trkpt lat="43.43895" lon="6.62617">
        <ele>140.6</ele>
        <time>2013-10-10T13:29:31.438Z</time>
      </trkpt>
      <trkpt lat="43.43892" lon="6.62628">
        <ele>142.5</ele>
        <time>2013-10-10T13:29:41.453Z</time>
      </trkpt>
      <trkpt lat="43.43891" lon="6.62629">
        <ele>142.7</ele>
        <time>2013-10-10T13:29:42.421Z</time>
      </trkpt>
      <trkpt lat="43.43885" lon="6.62638">
        <ele>144.7</ele>
        <time>2013-10-10T13:29:51.439Z</time>
      </trkpt>
      <trkpt lat="43.43885" lon="6.6264">
        <ele>144.9</ele>
        <time>2013-10-10T13:29:52.445Z</time>
      </trkpt>
      <trkpt lat="43.43884" lon="6.62652">
        <ele>146.3</ele>
        <time>2013-10-10T13:29:59.437Z</time>
      </trkpt>
      <trkpt lat="43.43883" lon="6.62653">
        <ele>146.5</ele>
        <time>2013-10-10T13:30:00.455Z</time>
      </trkpt>
      <trkpt lat="43.4388" lon="6.62663">
        <ele>148.4</ele>
        <time>2013-10-10T13:30:09.440Z</time>
      </trkpt>
      <trkpt lat="43.4388" lon="6.62664">
        <ele>148.6</ele>
        <time>2013-10-10T13:30:10.452Z</time>
      </trkpt>
      <trkpt lat="43.43879" lon="6.62675">
        <ele>150.2</ele>
        <time>2013-10-10T13:30:17.440Z</time>
      </trkpt>
      <trkpt lat="43.43878" lon="6.62676">
        <ele>150.4</ele>
        <time>2013-10-10T13:30:18.444Z</time>
      </trkpt>
      <trkpt lat="43.43872" lon="6.62686">
        <ele>152.7</ele>
        <time>2013-10-10T13:30:27.450Z</time>
      </trkpt>
      <trkpt lat="43.43872" lon="6.62687">
        <ele>152.8</ele>
        <time>2013-10-10T13:30:28.450Z</time>
      </trkpt>
      <trkpt lat="43.43869" lon="6.62697">
        <ele>154.1</ele>
        <time>2013-10-10T13:30:36.445Z</time>
      </trkpt>
      <trkpt lat="43.43869" lon="6.62699">
        <ele>154.3</ele>
        <time>2013-10-10T13:30:37.455Z</time>
      </trkpt>
      <trkpt lat="43.43866" lon="6.6271">
        <ele>156.2</ele>
        <time>2013-10-10T13:30:53.409Z</time>
      </trkpt>
      <trkpt lat="43.43866" lon="6.62711">
        <ele>156.3</ele>
        <time>2013-10-10T13:30:54.449Z</time>
      </trkpt>
      <trkpt lat="43.43865" lon="6.62722">
        <ele>158.4</ele>
        <time>2013-10-10T13:31:10.627Z</time>
      </trkpt>
      <trkpt lat="43.43864" lon="6.62723">
        <ele>158.5</ele>
        <time>2013-10-10T13:31:11.413Z</time>
      </trkpt>
      <trkpt lat="43.43861" lon="6.62733">
        <ele>160.1</ele>
        <time>2013-10-10T13:31:24.450Z</time>
      </trkpt>
      <trkpt lat="43.4386" lon="6.62734">
        <ele>160.3</ele>
        <time>2013-10-10T13:31:25.448Z</time>
      </trkpt>
      <trkpt lat="43.43856" lon="6.62744">
        <ele>162</ele>
        <time>2013-10-10T13:31:39.446Z</time>
      </trkpt>
      <trkpt lat="43.43856" lon="6.62745">
        <ele>162.1</ele>
        <time>2013-10-10T13:31:40.456Z</time>
      </trkpt>
      <trkpt lat="43.43852" lon="6.62755">
        <ele>163.6</ele>
        <time>2013-10-10T13:31:51.458Z</time>
      </trkpt>
      <trkpt lat="43.43852" lon="6.62757">
        <ele>163.8</ele>
        <time>2013-10-10T13:31:52.456Z</time>
      </trkpt>
      <trkpt lat="43.43849" lon="6.62768">
        <ele>164.5</ele>
        <time>2013-10-10T13:31:58.460Z</time>
      </trkpt>
      <trkpt lat="43.43848" lon="6.6277">
        <ele>164.6</ele>
        <time>2013-10-10T13:31:59.454Z</time>
      </trkpt>
      <trkpt lat="43.43845" lon="6.62781">
        <ele>165.5</ele>
        <time>2013-10-10T13:32:07.455Z</time>
      </trkpt>
      <trkpt lat="43.43844" lon="6.62782">
        <ele>165.6</ele>
        <time>2013-10-10T13:32:08.455Z</time>
      </trkpt>
      <trkpt lat="43.43839" lon="6.62791">
        <ele>166.3</ele>
        <time>2013-10-10T13:32:13.454Z</time>
      </trkpt>
      <trkpt lat="43.43838" lon="6.62794">
        <ele>166.5</ele>
        <time>2013-10-10T13:32:14.459Z</time>
      </trkpt>
      <trkpt lat="43.43836" lon="6.62804">
        <ele>167.2</ele>
        <time>2013-10-10T13:32:18.454Z</time>
      </trkpt>
      <trkpt lat="43.43836" lon="6.62807">
        <ele>167.4</ele>
        <time>2013-10-10T13:32:19.453Z</time>
      </trkpt>
      <trkpt lat="43.43835" lon="6.62818">
        <ele>167.9</ele>
        <time>2013-10-10T13:32:23.455Z</time>
      </trkpt>
      <trkpt lat="43.43835" lon="6.62824">
        <ele>168</ele>
        <time>2013-10-10T13:32:24.456Z</time>
      </trkpt>
      <trkpt lat="43.43834" lon="6.62834">
        <ele>168.2</ele>
        <time>2013-10-10T13:32:26.455Z</time>
      </trkpt>
      <trkpt lat="43.43833" lon="6.6284">
        <ele>168.3</ele>
        <time>2013-10-10T13:32:27.456Z</time>
      </trkpt>
      <trkpt lat="43.4383" lon="6.62851">
        <ele>168.3</ele>
        <time>2013-10-10T13:32:29.456Z</time>
      </trkpt>
      <trkpt lat="43.43829" lon="6.62855">
        <ele>168.4</ele>
        <time>2013-10-10T13:32:30.460Z</time>
      </trkpt>
      <trkpt lat="43.43827" lon="6.62863">
        <ele>168.6</ele>
        <time>2013-10-10T13:32:32.456Z</time>
      </trkpt>
      <trkpt lat="43.43826" lon="6.62867">
        <ele>168.7</ele>
        <time>2013-10-10T13:32:33.452Z</time>
      </trkpt>
      <trkpt lat="43.43824" lon="6.62877">
        <ele>168.7</ele>
        <time>2013-10-10T13:32:35.452Z</time>
      </trkpt>
      <trkpt lat="43.43822" lon="6.62883">
        <ele>168.5</ele>
        <time>2013-10-10T13:32:36.453Z</time>
      </trkpt>
      <trkpt lat="43.43821" lon="6.6289">
        <ele>168.3</ele>
        <time>2013-10-10T13:32:37.452Z</time>
      </trkpt>
      <trkpt lat="43.43819" lon="6.62897">
        <ele>167.8</ele>
        <time>2013-10-10T13:32:38.453Z</time>
      </trkpt>
      <trkpt lat="43.43818" lon="6.62905">
        <ele>167.5</ele>
        <time>2013-10-10T13:32:39.451Z</time>
      </trkpt>
      <trkpt lat="43.43816" lon="6.62913">
        <ele>166.9</ele>
        <time>2013-10-10T13:32:40.459Z</time>
      </trkpt>
      <trkpt lat="43.43816" lon="6.62921">
        <ele>166.7</ele>
        <time>2013-10-10T13:32:41.450Z</time>
      </trkpt>
      <trkpt lat="43.43815" lon="6.62928">
        <ele>166.4</ele>
        <time>2013-10-10T13:32:42.451Z</time>
      </trkpt>
      <trkpt lat="43.43812" lon="6.62939">
        <ele>165.5</ele>
        <time>2013-10-10T13:32:44.449Z</time>
      </trkpt>
      <trkpt lat="43.43811" lon="6.62943">
        <ele>165.4</ele>
        <time>2013-10-10T13:32:45.450Z</time>
      </trkpt>
      <trkpt lat="43.43806" lon="6.62951">
        <ele>165.3</ele>
        <time>2013-10-10T13:32:47.451Z</time>
      </trkpt>
      <trkpt lat="43.43803" lon="6.62955">
        <ele>164.4</ele>
        <time>2013-10-10T13:32:48.453Z</time>
      </trkpt>
      <trkpt lat="43.43799" lon="6.62958">
        <ele>164.3</ele>
        <time>2013-10-10T13:32:49.451Z</time>
      </trkpt>
      <trkpt lat="43.43795" lon="6.62961">
        <ele>164.3</ele>
        <time>2013-10-10T13:32:50.458Z</time>
      </trkpt>
      <trkpt lat="43.43787" lon="6.62966">
        <ele>163.9</ele>
        <time>2013-10-10T13:32:52.450Z</time>
      </trkpt>
      <trkpt lat="43.43782" lon="6.62968">
        <ele>163.4</ele>
        <time>2013-10-10T13:32:53.452Z</time>
      </trkpt>
      <trkpt lat="43.43777" lon="6.62969">
        <ele>163.1</ele>
        <time>2013-10-10T13:32:54.455Z</time>
      </trkpt>
      <trkpt lat="43.43772" lon="6.62972">
        <ele>162.4</ele>
        <time>2013-10-10T13:32:55.450Z</time>
      </trkpt>
      <trkpt lat="43.43768" lon="6.62976">
        <ele>161.8</ele>
        <time>2013-10-10T13:32:56.454Z</time>
      </trkpt>
      <trkpt lat="43.43764" lon="6.62981">
        <ele>161.1</ele>
        <time>2013-10-10T13:32:57.452Z</time>
      </trkpt>
      <trkpt lat="43.43761" lon="6.62985">
        <ele>160.8</ele>
        <time>2013-10-10T13:32:58.452Z</time>
      </trkpt>
      <trkpt lat="43.43757" lon="6.62989">
        <ele>160.8</ele>
        <time>2013-10-10T13:32:59.451Z</time>
      </trkpt>
      <trkpt lat="43.43752" lon="6.62995">
        <ele>160.5</ele>
        <time>2013-10-10T13:33:01.456Z</time>
      </trkpt>
      <trkpt lat="43.43749" lon="6.62999">
        <ele>160.2</ele>
        <time>2013-10-10T13:33:02.450Z</time>
      </trkpt>
      <trkpt lat="43.43746" lon="6.63003">
        <ele>160</ele>
        <time>2013-10-10T13:33:03.463Z</time>
      </trkpt>
      <trkpt lat="43.43743" lon="6.63008">
        <ele>159.7</ele>
        <time>2013-10-10T13:33:04.451Z</time>
      </trkpt>
      <trkpt lat="43.43738" lon="6.63017">
        <ele>159.7</ele>
        <time>2013-10-10T13:33:06.452Z</time>
      </trkpt>
      <trkpt lat="43.43737" lon="6.6302">
        <ele>159.7</ele>
        <time>2013-10-10T13:33:07.455Z</time>
      </trkpt>
      <trkpt lat="43.43732" lon="6.63027">
        <ele>159.7</ele>
        <time>2013-10-10T13:33:10.460Z</time>
      </trkpt>
      <trkpt lat="43.4373" lon="6.6303">
        <ele>159.7</ele>
        <time>2013-10-10T13:33:11.449Z</time>
      </trkpt>
      <trkpt lat="43.43724" lon="6.63037">
        <ele>159.7</ele>
        <time>2013-10-10T13:33:16.453Z</time>
      </trkpt>
      <trkpt lat="43.43722" lon="6.63038">
        <ele>159.7</ele>
        <time>2013-10-10T13:33:17.489Z</time>
      </trkpt>
      <trkpt lat="43.43715" lon="6.63043">
        <ele>159.7</ele>
        <time>2013-10-10T13:33:21.444Z</time>
      </trkpt>
      <trkpt lat="43.43714" lon="6.63045">
        <ele>159.7</ele>
        <time>2013-10-10T13:33:22.450Z</time>
      </trkpt>
      <trkpt lat="43.43707" lon="6.63051">
        <ele>159.9</ele>
        <time>2013-10-10T13:33:26.444Z</time>
      </trkpt>
      <trkpt lat="43.43706" lon="6.63052">
        <ele>160</ele>
        <time>2013-10-10T13:33:27.431Z</time>
      </trkpt>
      <trkpt lat="43.43699" lon="6.63057">
        <ele>160.2</ele>
        <time>2013-10-10T13:33:32.432Z</time>
      </trkpt>
      <trkpt lat="43.43698" lon="6.63057">
        <ele>160.2</ele>
        <time>2013-10-10T13:33:33.435Z</time>
      </trkpt>
      <trkpt lat="43.43689" lon="6.6306">
        <ele>160.7</ele>
        <time>2013-10-10T13:33:39.440Z</time>
      </trkpt>
      <trkpt lat="43.43688" lon="6.63059">
        <ele>160.8</ele>
        <time>2013-10-10T13:33:40.445Z</time>
      </trkpt>
      <trkpt lat="43.4368" lon="6.63054">
        <ele>161.5</ele>
        <time>2013-10-10T13:33:45.426Z</time>
      </trkpt>
      <trkpt lat="43.43679" lon="6.63053">
        <ele>161.7</ele>
        <time>2013-10-10T13:33:46.426Z</time>
      </trkpt>
      <trkpt lat="43.43671" lon="6.63046">
        <ele>162.4</ele>
        <time>2013-10-10T13:33:50.452Z</time>
      </trkpt>
      <trkpt lat="43.4367" lon="6.63045">
        <ele>162.5</ele>
        <time>2013-10-10T13:33:51.438Z</time>
      </trkpt>
      <trkpt lat="43.43661" lon="6.63043">
        <ele>162.8</ele>
        <time>2013-10-10T13:33:57.428Z</time>
      </trkpt>
      <trkpt lat="43.4366" lon="6.63043">
        <ele>162.9</ele>
        <time>2013-10-10T13:33:58.442Z</time>
      </trkpt>
      <trkpt lat="43.43652" lon="6.63045">
        <ele>163.1</ele>
        <time>2013-10-10T13:34:02.436Z</time>
      </trkpt>
      <trkpt lat="43.4365" lon="6.63046">
        <ele>163.1</ele>
        <time>2013-10-10T13:34:03.470Z</time>
      </trkpt>
      <trkpt lat="43.43642" lon="6.63049">
        <ele>163.3</ele>
        <time>2013-10-10T13:34:08.453Z</time>
      </trkpt>
      <trkpt lat="43.43641" lon="6.63049">
        <ele>163.3</ele>
        <time>2013-10-10T13:34:09.505Z</time>
      </trkpt>
      <trkpt lat="43.43632" lon="6.63052">
        <ele>164</ele>
        <time>2013-10-10T13:34:16.453Z</time>
      </trkpt>
      <trkpt lat="43.43631" lon="6.63053">
        <ele>164.1</ele>
        <time>2013-10-10T13:34:17.454Z</time>
      </trkpt>
      <trkpt lat="43.43624" lon="6.63058">
        <ele>165</ele>
        <time>2013-10-10T13:34:25.453Z</time>
      </trkpt>
      <trkpt lat="43.43623" lon="6.63059">
        <ele>165.1</ele>
        <time>2013-10-10T13:34:26.422Z</time>
      </trkpt>
      <trkpt lat="43.43616" lon="6.63066">
        <ele>166</ele>
        <time>2013-10-10T13:34:32.475Z</time>
      </trkpt>
      <trkpt lat="43.43615" lon="6.63068">
        <ele>166.2</ele>
        <time>2013-10-10T13:34:33.457Z</time>
      </trkpt>
      <trkpt lat="43.43608" lon="6.63074">
        <ele>167.1</ele>
        <time>2013-10-10T13:34:39.463Z</time>
      </trkpt>
      <trkpt lat="43.43607" lon="6.63075">
        <ele>167.3</ele>
        <time>2013-10-10T13:34:40.458Z</time>
      </trkpt>
      <trkpt lat="43.436" lon="6.63082">
        <ele>168.1</ele>
        <time>2013-10-10T13:34:45.450Z</time>
      </trkpt>
      <trkpt lat="43.43598" lon="6.63083">
        <ele>168.3</ele>
        <time>2013-10-10T13:34:46.453Z</time>
      </trkpt>
      <trkpt lat="43.43591" lon="6.63088">
        <ele>169.1</ele>
        <time>2013-10-10T13:34:51.458Z</time>
      </trkpt>
      <trkpt lat="43.43589" lon="6.6309">
        <ele>169.3</ele>
        <time>2013-10-10T13:34:52.451Z</time>
      </trkpt>
      <trkpt lat="43.43582" lon="6.63096">
        <ele>170</ele>
        <time>2013-10-10T13:34:58.456Z</time>
      </trkpt>
      <trkpt lat="43.43581" lon="6.63096">
        <ele>170.1</ele>
        <time>2013-10-10T13:34:59.452Z</time>
      </trkpt>
      <trkpt lat="43.43577" lon="6.63107">
        <ele>173</ele>
        <time>2013-10-10T13:35:24.454Z</time>
      </trkpt>
      <trkpt lat="43.43576" lon="6.63107">
        <ele>173</ele>
        <time>2013-10-10T13:35:25.454Z</time>
      </trkpt>
      <trkpt lat="43.43573" lon="6.6311">
        <ele>173.3</ele>
        <time>2013-10-10T13:35:35.503Z</time>
      </trkpt>
      <trkpt lat="43.43573" lon="6.6311">
        <ele>173.3</ele>
        <time>2013-10-10T13:35:36.503Z</time>
      </trkpt>
      <trkpt lat="43.43573" lon="6.6311">
        <ele>173.6</ele>
        <time>2013-10-10T13:35:39.461Z</time>
      </trkpt>
      <trkpt lat="43.43573" lon="6.63109">
        <ele>173.7</ele>
        <time>2013-10-10T13:35:40.470Z</time>
      </trkpt>
      <trkpt lat="43.43576" lon="6.63104">
        <ele>174.6</ele>
        <time>2013-10-10T13:35:53.457Z</time>
      </trkpt>
      <trkpt lat="43.43576" lon="6.63104">
        <ele>174.6</ele>
        <time>2013-10-10T13:35:54.423Z</time>
      </trkpt>
      <trkpt lat="43.43576" lon="6.63103">
        <ele>174.6</ele>
        <time>2013-10-10T13:35:55.459Z</time>
      </trkpt>
      <trkpt lat="43.43576" lon="6.63103">
        <ele>174.6</ele>
        <time>2013-10-10T13:35:56.455Z</time>
      </trkpt>
      <trkpt lat="43.43581" lon="6.631">
        <ele>174.2</ele>
        <time>2013-10-10T13:36:15.473Z</time>
      </trkpt>
      <trkpt lat="43.43581" lon="6.63099">
        <ele>174.2</ele>
        <time>2013-10-10T13:36:16.481Z</time>
      </trkpt>
      <trkpt lat="43.4358" lon="6.631">
        <ele>174.3</ele>
        <time>2013-10-10T13:36:23.512Z</time>
      </trkpt>
      <trkpt lat="43.4358" lon="6.631">
        <ele>174.3</ele>
        <time>2013-10-10T13:36:24.409Z</time>
      </trkpt>
      <trkpt lat="43.4358" lon="6.631">
        <ele>174.3</ele>
        <time>2013-10-10T13:36:25.464Z</time>
      </trkpt>
      <trkpt lat="43.4358" lon="6.63099">
        <ele>174.3</ele>
        <time>2013-10-10T13:36:26.486Z</time>
      </trkpt>
      <trkpt lat="43.4358" lon="6.63098">
        <ele>174.3</ele>
        <time>2013-10-10T13:36:28.463Z</time>
      </trkpt>
      <trkpt lat="43.4358" lon="6.63099">
        <ele>174.3</ele>
        <time>2013-10-10T13:36:29.470Z</time>
      </trkpt>
      <trkpt lat="43.4358" lon="6.631">
        <ele>174.3</ele>
        <time>2013-10-10T13:36:36.544Z</time>
      </trkpt>
      <trkpt lat="43.4358" lon="6.63101">
        <ele>174.3</ele>
        <time>2013-10-10T13:36:37.469Z</time>
      </trkpt>
      <trkpt lat="43.43577" lon="6.63105">
        <ele>174.3</ele>
        <time>2013-10-10T13:36:53.503Z</time>
      </trkpt>
      <trkpt lat="43.43577" lon="6.63105">
        <ele>174.3</ele>
        <time>2013-10-10T13:36:54.505Z</time>
      </trkpt>
      <trkpt lat="43.43576" lon="6.63104">
        <ele>174.2</ele>
        <time>2013-10-10T13:37:00.440Z</time>
      </trkpt>
      <trkpt lat="43.43576" lon="6.63104">
        <ele>174.2</ele>
        <time>2013-10-10T13:37:01.437Z</time>
      </trkpt>
      <trkpt lat="43.43579" lon="6.63103">
        <ele>174.1</ele>
        <time>2013-10-10T13:37:10.471Z</time>
      </trkpt>
      <trkpt lat="43.43579" lon="6.63103">
        <ele>174.1</ele>
        <time>2013-10-10T13:37:11.454Z</time>
      </trkpt>
      <trkpt lat="43.43578" lon="6.63102">
        <ele>174.1</ele>
        <time>2013-10-10T13:37:13.446Z</time>
      </trkpt>
      <trkpt lat="43.43578" lon="6.63102">
        <ele>174</ele>
        <time>2013-10-10T13:37:14.502Z</time>
      </trkpt>
      <trkpt lat="43.43577" lon="6.631">
        <ele>174.1</ele>
        <time>2013-10-10T13:37:20.503Z</time>
      </trkpt>
      <trkpt lat="43.43577" lon="6.631">
        <ele>174.1</ele>
        <time>2013-10-10T13:37:21.479Z</time>
      </trkpt>
      <trkpt lat="43.43576" lon="6.631">
        <ele>174.1</ele>
        <time>2013-10-10T13:37:24.454Z</time>
      </trkpt>
      <trkpt lat="43.43576" lon="6.63099">
        <ele>174.2</ele>
        <time>2013-10-10T13:37:25.468Z</time>
      </trkpt>
      <trkpt lat="43.43577" lon="6.63098">
        <ele>174.3</ele>
        <time>2013-10-10T13:37:27.453Z</time>
      </trkpt>
      <trkpt lat="43.43577" lon="6.63099">
        <ele>174.3</ele>
        <time>2013-10-10T13:37:28.469Z</time>
      </trkpt>
      <trkpt lat="43.43577" lon="6.631">
        <ele>174.3</ele>
        <time>2013-10-10T13:37:29.439Z</time>
      </trkpt>
      <trkpt lat="43.43576" lon="6.63103">
        <ele>174.3</ele>
        <time>2013-10-10T13:37:35.468Z</time>
      </trkpt>
      <trkpt lat="43.43576" lon="6.63103">
        <ele>174.3</ele>
        <time>2013-10-10T13:37:36.428Z</time>
      </trkpt>
      <trkpt lat="43.43577" lon="6.63102">
        <ele>174.2</ele>
        <time>2013-10-10T13:37:46.458Z</time>
      </trkpt>
      <trkpt lat="43.43578" lon="6.63102">
        <ele>174.2</ele>
        <time>2013-10-10T13:37:47.468Z</time>
      </trkpt>
      <trkpt lat="43.43579" lon="6.63102">
        <ele>174.3</ele>
        <time>2013-10-10T13:37:53.510Z</time>
      </trkpt>
      <trkpt lat="43.43579" lon="6.63102">
        <ele>174.3</ele>
        <time>2013-10-10T13:37:54.480Z</time>
      </trkpt>
      <trkpt lat="43.43578" lon="6.63103">
        <ele>174.3</ele>
        <time>2013-10-10T13:37:59.416Z</time>
      </trkpt>
      <trkpt lat="43.43578" lon="6.63103">
        <ele>174.3</ele>
        <time>2013-10-10T13:38:00.482Z</time>
      </trkpt>
      <trkpt lat="43.43577" lon="6.63104">
        <ele>174.4</ele>
        <time>2013-10-10T13:38:03.420Z</time>
      </trkpt>
      <trkpt lat="43.43577" lon="6.63103">
        <ele>174.4</ele>
        <time>2013-10-10T13:38:04.425Z</time>
      </trkpt>
      <trkpt lat="43.43577" lon="6.63102">
        <ele>174.5</ele>
        <time>2013-10-10T13:38:05.423Z</time>
      </trkpt>
      <trkpt lat="43.43578" lon="6.63102">
        <ele>174.5</ele>
        <time>2013-10-10T13:38:07.429Z</time>
      </trkpt>
      <trkpt lat="43.43578" lon="6.63102">
        <ele>174.5</ele>
        <time>2013-10-10T13:38:08.443Z</time>
      </trkpt>
      <trkpt lat="43.43578" lon="6.63102">
        <ele>174.5</ele>
        <time>2013-10-10T13:38:12.463Z</time>
      </trkpt>
      <trkpt lat="43.43578" lon="6.63102">
        <ele>174.5</ele>
        <time>2013-10-10T13:38:13.466Z</time>
      </trkpt>
      <trkpt lat="43.43582" lon="6.63101">
        <ele>174.5</ele>
        <time>2013-10-10T13:38:21.469Z</time>
      </trkpt>
      <trkpt lat="43.43581" lon="6.63101">
        <ele>174.5</ele>
        <time>2013-10-10T13:38:22.473Z</time>
      </trkpt>
      <trkpt lat="43.4358" lon="6.63101">
        <ele>174.5</ele>
        <time>2013-10-10T13:38:23.452Z</time>
      </trkpt>
      <trkpt lat="43.43578" lon="6.63099">
        <ele>174.5</ele>
        <time>2013-10-10T13:38:29.434Z</time>
      </trkpt>
      <trkpt lat="43.43578" lon="6.631">
        <ele>174.5</ele>
        <time>2013-10-10T13:38:30.513Z</time>
      </trkpt>
      <trkpt lat="43.43578" lon="6.631">
        <ele>174.5</ele>
        <time>2013-10-10T13:38:31.515Z</time>
      </trkpt>
      <trkpt lat="43.43578" lon="6.63101">
        <ele>174.5</ele>
        <time>2013-10-10T13:38:33.462Z</time>
      </trkpt>
      <trkpt lat="43.43578" lon="6.63101">
        <ele>174.5</ele>
        <time>2013-10-10T13:38:34.469Z</time>
      </trkpt>
      <trkpt lat="43.43578" lon="6.63102">
        <ele>174.5</ele>
        <time>2013-10-10T13:38:39.462Z</time>
      </trkpt>
      <trkpt lat="43.43577" lon="6.63102">
        <ele>174.5</ele>
        <time>2013-10-10T13:38:40.473Z</time>
      </trkpt>
      <trkpt lat="43.43577" lon="6.63102">
        <ele>174.5</ele>
        <time>2013-10-10T13:38:41.483Z</time>
      </trkpt>
      <trkpt lat="43.43578" lon="6.631">
        <ele>174.5</ele>
        <time>2013-10-10T13:38:50.457Z</time>
      </trkpt>
      <trkpt lat="43.43578" lon="6.631">
        <ele>174.5</ele>
        <time>2013-10-10T13:38:51.454Z</time>
      </trkpt>
      <trkpt lat="43.43576" lon="6.6309">
        <ele>174.4</ele>
        <time>2013-10-10T13:39:05.399Z</time>
      </trkpt>
      <trkpt lat="43.4357" lon="6.63086">
        <ele>174</ele>
        <time>2013-10-10T13:39:06.474Z</time>
      </trkpt>
      <trkpt lat="43.43563" lon="6.63084">
        <ele>173.4</ele>
        <time>2013-10-10T13:39:07.478Z</time>
      </trkpt>
      <trkpt lat="43.43555" lon="6.63084">
        <ele>173.2</ele>
        <time>2013-10-10T13:39:08.482Z</time>
      </trkpt>
      <trkpt lat="43.43549" lon="6.6309">
        <ele>172.7</ele>
        <time>2013-10-10T13:39:09.439Z</time>
      </trkpt>
      <trkpt lat="43.43544" lon="6.63096">
        <ele>172.2</ele>
        <time>2013-10-10T13:39:10.434Z</time>
      </trkpt>
      <trkpt lat="43.43541" lon="6.63105">
        <ele>172.1</ele>
        <time>2013-10-10T13:39:11.470Z</time>
      </trkpt>
      <trkpt lat="43.43539" lon="6.63115">
        <ele>171.9</ele>
        <time>2013-10-10T13:39:12.462Z</time>
      </trkpt>
      <trkpt lat="43.43538" lon="6.63125">
        <ele>171.5</ele>
        <time>2013-10-10T13:39:13.465Z</time>
      </trkpt>
      <trkpt lat="43.43536" lon="6.63138">
        <ele>171.2</ele>
        <time>2013-10-10T13:39:14.465Z</time>
      </trkpt>
      <trkpt lat="43.43536" lon="6.6315">
        <ele>170.8</ele>
        <time>2013-10-10T13:39:15.466Z</time>
      </trkpt>
      <trkpt lat="43.43534" lon="6.63159">
        <ele>170.7</ele>
        <time>2013-10-10T13:39:16.463Z</time>
      </trkpt>
      <trkpt lat="43.4353" lon="6.63164">
        <ele>170.7</ele>
        <time>2013-10-10T13:39:17.421Z</time>
      </trkpt>
      <trkpt lat="43.43525" lon="6.63167">
        <ele>170.8</ele>
        <time>2013-10-10T13:39:18.461Z</time>
      </trkpt>
      <trkpt lat="43.43519" lon="6.63168">
        <ele>170.8</ele>
        <time>2013-10-10T13:39:19.427Z</time>
      </trkpt>
      <trkpt lat="43.43512" lon="6.6317">
        <ele>171</ele>
        <time>2013-10-10T13:39:20.534Z</time>
      </trkpt>
      <trkpt lat="43.43506" lon="6.63174">
        <ele>171.2</ele>
        <time>2013-10-10T13:39:21.460Z</time>
      </trkpt>
      <trkpt lat="43.435" lon="6.63179">
        <ele>170.9</ele>
        <time>2013-10-10T13:39:22.459Z</time>
      </trkpt>
      <trkpt lat="43.43495" lon="6.63186">
        <ele>170.6</ele>
        <time>2013-10-10T13:39:23.463Z</time>
      </trkpt>
      <trkpt lat="43.43491" lon="6.63191">
        <ele>169.8</ele>
        <time>2013-10-10T13:39:24.463Z</time>
      </trkpt>
      <trkpt lat="43.43487" lon="6.63196">
        <ele>168.9</ele>
        <time>2013-10-10T13:39:25.459Z</time>
      </trkpt>
      <trkpt lat="43.43482" lon="6.632">
        <ele>167.7</ele>
        <time>2013-10-10T13:39:26.470Z</time>
      </trkpt>
      <trkpt lat="43.43477" lon="6.63203">
        <ele>166.7</ele>
        <time>2013-10-10T13:39:27.428Z</time>
      </trkpt>
      <trkpt lat="43.43472" lon="6.63204">
        <ele>166</ele>
        <time>2013-10-10T13:39:28.455Z</time>
      </trkpt>
      <trkpt lat="43.43463" lon="6.63207">
        <ele>165.7</ele>
        <time>2013-10-10T13:39:30.468Z</time>
      </trkpt>
      <trkpt lat="43.4346" lon="6.63211">
        <ele>163.9</ele>
        <time>2013-10-10T13:39:31.455Z</time>
      </trkpt>
      <trkpt lat="43.43457" lon="6.63217">
        <ele>162.6</ele>
        <time>2013-10-10T13:39:32.457Z</time>
      </trkpt>
      <trkpt lat="43.43454" lon="6.63225">
        <ele>161.7</ele>
        <time>2013-10-10T13:39:33.457Z</time>
      </trkpt>
      <trkpt lat="43.43449" lon="6.63233">
        <ele>160.9</ele>
        <time>2013-10-10T13:39:34.520Z</time>
      </trkpt>
      <trkpt lat="43.43445" lon="6.6324">
        <ele>159.8</ele>
        <time>2013-10-10T13:39:35.464Z</time>
      </trkpt>
      <trkpt lat="43.4344" lon="6.63247">
        <ele>158.5</ele>
        <time>2013-10-10T13:39:36.462Z</time>
      </trkpt>
      <trkpt lat="43.43435" lon="6.63253">
        <ele>157</ele>
        <time>2013-10-10T13:39:37.466Z</time>
      </trkpt>
      <trkpt lat="43.43431" lon="6.63259">
        <ele>155.4</ele>
        <time>2013-10-10T13:39:38.462Z</time>
      </trkpt>
      <trkpt lat="43.43427" lon="6.63267">
        <ele>153.6</ele>
        <time>2013-10-10T13:39:39.461Z</time>
      </trkpt>
      <trkpt lat="43.43424" lon="6.63274">
        <ele>152.2</ele>
        <time>2013-10-10T13:39:40.473Z</time>
      </trkpt>
      <trkpt lat="43.43421" lon="6.63283">
        <ele>151.2</ele>
        <time>2013-10-10T13:39:41.467Z</time>
      </trkpt>
      <trkpt lat="43.43418" lon="6.63293">
        <ele>150.1</ele>
        <time>2013-10-10T13:39:42.464Z</time>
      </trkpt>
      <trkpt lat="43.43414" lon="6.63304">
        <ele>148.6</ele>
        <time>2013-10-10T13:39:43.452Z</time>
      </trkpt>
      <trkpt lat="43.43412" lon="6.63315">
        <ele>147.3</ele>
        <time>2013-10-10T13:39:44.455Z</time>
      </trkpt>
      <trkpt lat="43.4341" lon="6.63325">
        <ele>145.9</ele>
        <time>2013-10-10T13:39:45.454Z</time>
      </trkpt>
      <trkpt lat="43.4341" lon="6.63334">
        <ele>145</ele>
        <time>2013-10-10T13:39:46.454Z</time>
      </trkpt>
      <trkpt lat="43.43411" lon="6.6334">
        <ele>144.7</ele>
        <time>2013-10-10T13:39:47.457Z</time>
      </trkpt>
      <trkpt lat="43.43412" lon="6.63352">
        <ele>143.6</ele>
        <time>2013-10-10T13:39:50.475Z</time>
      </trkpt>
      <trkpt lat="43.43413" lon="6.63357">
        <ele>142.6</ele>
        <time>2013-10-10T13:39:51.462Z</time>
      </trkpt>
      <trkpt lat="43.43414" lon="6.63364">
        <ele>141.8</ele>
        <time>2013-10-10T13:39:52.463Z</time>
      </trkpt>
      <trkpt lat="43.43416" lon="6.63372">
        <ele>140.9</ele>
        <time>2013-10-10T13:39:53.462Z</time>
      </trkpt>
      <trkpt lat="43.43419" lon="6.63382">
        <ele>140.4</ele>
        <time>2013-10-10T13:39:54.464Z</time>
      </trkpt>
      <trkpt lat="43.43424" lon="6.63392">
        <ele>139.9</ele>
        <time>2013-10-10T13:39:55.466Z</time>
      </trkpt>
      <trkpt lat="43.43429" lon="6.63404">
        <ele>139.5</ele>
        <time>2013-10-10T13:39:56.463Z</time>
      </trkpt>
      <trkpt lat="43.43435" lon="6.63416">
        <ele>139.1</ele>
        <time>2013-10-10T13:39:57.462Z</time>
      </trkpt>
      <trkpt lat="43.43441" lon="6.63428">
        <ele>139.2</ele>
        <time>2013-10-10T13:39:58.465Z</time>
      </trkpt>
      <trkpt lat="43.43446" lon="6.63439">
        <ele>139.1</ele>
        <time>2013-10-10T13:39:59.462Z</time>
      </trkpt>
      <trkpt lat="43.4345" lon="6.63449">
        <ele>138.5</ele>
        <time>2013-10-10T13:40:00.407Z</time>
      </trkpt>
      <trkpt lat="43.43455" lon="6.63457">
        <ele>137.6</ele>
        <time>2013-10-10T13:40:01.448Z</time>
      </trkpt>
      <trkpt lat="43.43461" lon="6.63465">
        <ele>136.2</ele>
        <time>2013-10-10T13:40:03.449Z</time>
      </trkpt>
      <trkpt lat="43.43465" lon="6.63468">
        <ele>135</ele>
        <time>2013-10-10T13:40:04.454Z</time>
      </trkpt>
      <trkpt lat="43.4347" lon="6.63475">
        <ele>135.1</ele>
        <time>2013-10-10T13:40:06.467Z</time>
      </trkpt>
      <trkpt lat="43.43472" lon="6.63478">
        <ele>135</ele>
        <time>2013-10-10T13:40:07.462Z</time>
      </trkpt>
      <trkpt lat="43.43477" lon="6.63486">
        <ele>134.8</ele>
        <time>2013-10-10T13:40:09.498Z</time>
      </trkpt>
      <trkpt lat="43.43479" lon="6.6349">
        <ele>135.3</ele>
        <time>2013-10-10T13:40:10.933Z</time>
      </trkpt>
      <trkpt lat="43.43482" lon="6.63494">
        <ele>135.8</ele>
        <time>2013-10-10T13:40:11.852Z</time>
      </trkpt>
      <trkpt lat="43.43486" lon="6.63499">
        <ele>136.5</ele>
        <time>2013-10-10T13:40:12.852Z</time>
      </trkpt>
      <trkpt lat="43.43489" lon="6.63505">
        <ele>137.4</ele>
        <time>2013-10-10T13:40:13.836Z</time>
      </trkpt>
      <trkpt lat="43.43493" lon="6.63512">
        <ele>137.6</ele>
        <time>2013-10-10T13:40:15.062Z</time>
      </trkpt>
      <trkpt lat="43.43497" lon="6.63518">
        <ele>137.4</ele>
        <time>2013-10-10T13:40:15.847Z</time>
      </trkpt>
      <trkpt lat="43.43501" lon="6.63524">
        <ele>137.6</ele>
        <time>2013-10-10T13:40:16.857Z</time>
      </trkpt>
      <trkpt lat="43.43506" lon="6.63529">
        <ele>137.3</ele>
        <time>2013-10-10T13:40:17.855Z</time>
      </trkpt>
      <trkpt lat="43.43511" lon="6.63531">
        <ele>137.4</ele>
        <time>2013-10-10T13:40:18.874Z</time>
      </trkpt>
      <trkpt lat="43.43516" lon="6.63533">
        <ele>137.5</ele>
        <time>2013-10-10T13:40:19.857Z</time>
      </trkpt>
      <trkpt lat="43.43521" lon="6.63536">
        <ele>137.6</ele>
        <time>2013-10-10T13:40:20.864Z</time>
      </trkpt>
      <trkpt lat="43.43524" lon="6.63546">
        <ele>137.9</ele>
        <time>2013-10-10T13:40:22.847Z</time>
      </trkpt>
      <trkpt lat="43.43524" lon="6.63552">
        <ele>138.2</ele>
        <time>2013-10-10T13:40:23.904Z</time>
      </trkpt>
      <trkpt lat="43.43524" lon="6.63558">
        <ele>138.6</ele>
        <time>2013-10-10T13:40:24.899Z</time>
      </trkpt>
      <trkpt lat="43.43525" lon="6.63565">
        <ele>138.7</ele>
        <time>2013-10-10T13:40:25.905Z</time>
      </trkpt>
      <trkpt lat="43.43527" lon="6.63572">
        <ele>138.8</ele>
        <time>2013-10-10T13:40:26.894Z</time>
      </trkpt>
      <trkpt lat="43.43529" lon="6.63579">
        <ele>138.8</ele>
        <time>2013-10-10T13:40:27.885Z</time>
      </trkpt>
      <trkpt lat="43.43533" lon="6.63585">
        <ele>138.8</ele>
        <time>2013-10-10T13:40:28.918Z</time>
      </trkpt>
      <trkpt lat="43.43537" lon="6.63591">
        <ele>138.9</ele>
        <time>2013-10-10T13:40:29.832Z</time>
      </trkpt>
      <trkpt lat="43.43541" lon="6.63597">
        <ele>139.2</ele>
        <time>2013-10-10T13:40:30.826Z</time>
      </trkpt>
      <trkpt lat="43.43545" lon="6.63603">
        <ele>139.5</ele>
        <time>2013-10-10T13:40:31.825Z</time>
      </trkpt>
      <trkpt lat="43.43549" lon="6.63609">
        <ele>139.9</ele>
        <time>2013-10-10T13:40:32.835Z</time>
      </trkpt>
      <trkpt lat="43.43553" lon="6.63616">
        <ele>140.3</ele>
        <time>2013-10-10T13:40:33.832Z</time>
      </trkpt>
      <trkpt lat="43.43558" lon="6.63621">
        <ele>140.5</ele>
        <time>2013-10-10T13:40:34.883Z</time>
      </trkpt>
      <trkpt lat="43.43562" lon="6.63624">
        <ele>140.1</ele>
        <time>2013-10-10T13:40:35.903Z</time>
      </trkpt>
      <trkpt lat="43.43566" lon="6.63625">
        <ele>140</ele>
        <time>2013-10-10T13:40:36.858Z</time>
      </trkpt>
      <trkpt lat="43.43571" lon="6.63626">
        <ele>139.2</ele>
        <time>2013-10-10T13:40:37.860Z</time>
      </trkpt>
      <trkpt lat="43.43577" lon="6.63627">
        <ele>138.9</ele>
        <time>2013-10-10T13:40:38.838Z</time>
      </trkpt>
      <trkpt lat="43.43582" lon="6.6363">
        <ele>139.2</ele>
        <time>2013-10-10T13:40:39.850Z</time>
      </trkpt>
      <trkpt lat="43.43586" lon="6.63635">
        <ele>139.5</ele>
        <time>2013-10-10T13:40:40.868Z</time>
      </trkpt>
      <trkpt lat="43.43589" lon="6.63641">
        <ele>139.4</ele>
        <time>2013-10-10T13:40:41.857Z</time>
      </trkpt>
      <trkpt lat="43.43597" lon="6.63643">
        <ele>138.8</ele>
        <time>2013-10-10T13:40:43.897Z</time>
      </trkpt>
      <trkpt lat="43.43601" lon="6.63639">
        <ele>138.2</ele>
        <time>2013-10-10T13:40:44.905Z</time>
      </trkpt>
      <trkpt lat="43.43606" lon="6.63634">
        <ele>137.7</ele>
        <time>2013-10-10T13:40:45.899Z</time>
      </trkpt>
      <trkpt lat="43.43611" lon="6.63627">
        <ele>137.3</ele>
        <time>2013-10-10T13:40:46.901Z</time>
      </trkpt>
      <trkpt lat="43.43616" lon="6.63622">
        <ele>136.6</ele>
        <time>2013-10-10T13:40:47.937Z</time>
      </trkpt>
      <trkpt lat="43.43621" lon="6.6362">
        <ele>136</ele>
        <time>2013-10-10T13:40:48.903Z</time>
      </trkpt>
      <trkpt lat="43.43626" lon="6.6362">
        <ele>135.4</ele>
        <time>2013-10-10T13:40:49.915Z</time>
      </trkpt>
      <trkpt lat="43.43632" lon="6.63623">
        <ele>135</ele>
        <time>2013-10-10T13:40:50.915Z</time>
      </trkpt>
      <trkpt lat="43.43639" lon="6.63628">
        <ele>134.8</ele>
        <time>2013-10-10T13:40:51.899Z</time>
      </trkpt>
      <trkpt lat="43.43645" lon="6.63634">
        <ele>134.6</ele>
        <time>2013-10-10T13:40:52.886Z</time>
      </trkpt>
      <trkpt lat="43.4365" lon="6.63639">
        <ele>134.7</ele>
        <time>2013-10-10T13:40:53.846Z</time>
      </trkpt>
      <trkpt lat="43.43654" lon="6.63644">
        <ele>134.8</ele>
        <time>2013-10-10T13:40:54.840Z</time>
      </trkpt>
      <trkpt lat="43.43659" lon="6.63647">
        <ele>134.7</ele>
        <time>2013-10-10T13:40:55.917Z</time>
      </trkpt>
      <trkpt lat="43.43663" lon="6.63649">
        <ele>134.7</ele>
        <time>2013-10-10T13:40:56.637Z</time>
      </trkpt>
      <trkpt lat="43.43668" lon="6.6365">
        <ele>134.3</ele>
        <time>2013-10-10T13:40:57.629Z</time>
      </trkpt>
      <trkpt lat="43.43674" lon="6.63648">
        <ele>133.8</ele>
        <time>2013-10-10T13:40:58.680Z</time>
      </trkpt>
      <trkpt lat="43.4368" lon="6.63646">
        <ele>133.4</ele>
        <time>2013-10-10T13:40:59.654Z</time>
      </trkpt>
      <trkpt lat="43.43684" lon="6.63643">
        <ele>133.3</ele>
        <time>2013-10-10T13:41:00.632Z</time>
      </trkpt>
      <trkpt lat="43.43692" lon="6.63638">
        <ele>132.3</ele>
        <time>2013-10-10T13:41:02.705Z</time>
      </trkpt>
      <trkpt lat="43.43695" lon="6.63634">
        <ele>132</ele>
        <time>2013-10-10T13:41:03.677Z</time>
      </trkpt>
      <trkpt lat="43.43699" lon="6.63628">
        <ele>131.7</ele>
        <time>2013-10-10T13:41:04.684Z</time>
      </trkpt>
      <trkpt lat="43.43703" lon="6.63623">
        <ele>131.4</ele>
        <time>2013-10-10T13:41:05.706Z</time>
      </trkpt>
      <trkpt lat="43.43707" lon="6.63617">
        <ele>130.8</ele>
        <time>2013-10-10T13:41:06.646Z</time>
      </trkpt>
      <trkpt lat="43.43712" lon="6.6361">
        <ele>130.4</ele>
        <time>2013-10-10T13:41:07.682Z</time>
      </trkpt>
      <trkpt lat="43.43717" lon="6.63603">
        <ele>130.3</ele>
        <time>2013-10-10T13:41:08.686Z</time>
      </trkpt>
      <trkpt lat="43.43723" lon="6.63597">
        <ele>130.4</ele>
        <time>2013-10-10T13:41:09.719Z</time>
      </trkpt>
      <trkpt lat="43.43727" lon="6.6359">
        <ele>130.6</ele>
        <time>2013-10-10T13:41:10.651Z</time>
      </trkpt>
      <trkpt lat="43.4373" lon="6.63584">
        <ele>130.8</ele>
        <time>2013-10-10T13:41:11.741Z</time>
      </trkpt>
      <trkpt lat="43.43733" lon="6.63577">
        <ele>131.1</ele>
        <time>2013-10-10T13:41:12.675Z</time>
      </trkpt>
      <trkpt lat="43.43735" lon="6.63571">
        <ele>131.2</ele>
        <time>2013-10-10T13:41:13.644Z</time>
      </trkpt>
      <trkpt lat="43.43738" lon="6.63563">
        <ele>131.4</ele>
        <time>2013-10-10T13:41:14.683Z</time>
      </trkpt>
      <trkpt lat="43.4374" lon="6.63555">
        <ele>131.6</ele>
        <time>2013-10-10T13:41:15.684Z</time>
      </trkpt>
      <trkpt lat="43.43742" lon="6.63547">
        <ele>131.9</ele>
        <time>2013-10-10T13:41:16.684Z</time>
      </trkpt>
      <trkpt lat="43.43744" lon="6.63539">
        <ele>132</ele>
        <time>2013-10-10T13:41:17.685Z</time>
      </trkpt>
      <trkpt lat="43.43747" lon="6.63534">
        <ele>132.1</ele>
        <time>2013-10-10T13:41:18.685Z</time>
      </trkpt>
      <trkpt lat="43.43751" lon="6.6353">
        <ele>131.8</ele>
        <time>2013-10-10T13:41:19.683Z</time>
      </trkpt>
      <trkpt lat="43.43759" lon="6.63529">
        <ele>131.2</ele>
        <time>2013-10-10T13:41:21.686Z</time>
      </trkpt>
      <trkpt lat="43.43764" lon="6.63528">
        <ele>131.3</ele>
        <time>2013-10-10T13:41:22.684Z</time>
      </trkpt>
      <trkpt lat="43.43768" lon="6.63527">
        <ele>131.2</ele>
        <time>2013-10-10T13:41:23.684Z</time>
      </trkpt>
      <trkpt lat="43.43772" lon="6.63523">
        <ele>131</ele>
        <time>2013-10-10T13:41:24.655Z</time>
      </trkpt>
      <trkpt lat="43.43777" lon="6.63518">
        <ele>130.5</ele>
        <time>2013-10-10T13:41:25.687Z</time>
      </trkpt>
      <trkpt lat="43.43782" lon="6.63512">
        <ele>130</ele>
        <time>2013-10-10T13:41:26.686Z</time>
      </trkpt>
      <trkpt lat="43.43787" lon="6.63506">
        <ele>129.3</ele>
        <time>2013-10-10T13:41:27.687Z</time>
      </trkpt>
      <trkpt lat="43.43791" lon="6.63499">
        <ele>128.9</ele>
        <time>2013-10-10T13:41:28.690Z</time>
      </trkpt>
      <trkpt lat="43.43796" lon="6.63491">
        <ele>128.6</ele>
        <time>2013-10-10T13:41:29.685Z</time>
      </trkpt>
      <trkpt lat="43.43799" lon="6.63483">
        <ele>127.9</ele>
        <time>2013-10-10T13:41:30.697Z</time>
      </trkpt>
      <trkpt lat="43.43802" lon="6.63474">
        <ele>127.5</ele>
        <time>2013-10-10T13:41:31.684Z</time>
      </trkpt>
      <trkpt lat="43.43803" lon="6.63465">
        <ele>127</ele>
        <time>2013-10-10T13:41:32.684Z</time>
      </trkpt>
      <trkpt lat="43.43804" lon="6.63456">
        <ele>127.2</ele>
        <time>2013-10-10T13:41:33.681Z</time>
      </trkpt>
      <trkpt lat="43.43804" lon="6.63446">
        <ele>126.8</ele>
        <time>2013-10-10T13:41:34.683Z</time>
      </trkpt>
      <trkpt lat="43.43804" lon="6.63437">
        <ele>125.8</ele>
        <time>2013-10-10T13:41:35.684Z</time>
      </trkpt>
      <trkpt lat="43.43804" lon="6.63426">
        <ele>125.2</ele>
        <time>2013-10-10T13:41:36.688Z</time>
      </trkpt>
      <trkpt lat="43.43805" lon="6.63415">
        <ele>125.1</ele>
        <time>2013-10-10T13:41:37.814Z</time>
      </trkpt>
      <trkpt lat="43.43805" lon="6.63406">
        <ele>125</ele>
        <time>2013-10-10T13:41:38.677Z</time>
      </trkpt>
      <trkpt lat="43.43806" lon="6.63396">
        <ele>124.8</ele>
        <time>2013-10-10T13:41:39.681Z</time>
      </trkpt>
      <trkpt lat="43.43805" lon="6.63388">
        <ele>124.4</ele>
        <time>2013-10-10T13:41:40.694Z</time>
      </trkpt>
      <trkpt lat="43.43805" lon="6.63379">
        <ele>124.2</ele>
        <time>2013-10-10T13:41:41.748Z</time>
      </trkpt>
      <trkpt lat="43.43805" lon="6.63373">
        <ele>124.2</ele>
        <time>2013-10-10T13:41:42.681Z</time>
      </trkpt>
      <trkpt lat="43.43807" lon="6.63367">
        <ele>124.1</ele>
        <time>2013-10-10T13:41:43.678Z</time>
      </trkpt>
      <trkpt lat="43.4381" lon="6.63363">
        <ele>123.8</ele>
        <time>2013-10-10T13:41:44.688Z</time>
      </trkpt>
      <trkpt lat="43.43817" lon="6.63363">
        <ele>123.8</ele>
        <time>2013-10-10T13:41:47.688Z</time>
      </trkpt>
      <trkpt lat="43.43819" lon="6.63365">
        <ele>123.8</ele>
        <time>2013-10-10T13:41:48.684Z</time>
      </trkpt>
      <trkpt lat="43.43826" lon="6.63367">
        <ele>122.6</ele>
        <time>2013-10-10T13:41:50.703Z</time>
      </trkpt>
      <trkpt lat="43.43831" lon="6.63366">
        <ele>122.5</ele>
        <time>2013-10-10T13:41:51.684Z</time>
      </trkpt>
      <trkpt lat="43.43837" lon="6.63364">
        <ele>121.8</ele>
        <time>2013-10-10T13:41:52.682Z</time>
      </trkpt>
      <trkpt lat="43.43843" lon="6.63361">
        <ele>121.9</ele>
        <time>2013-10-10T13:41:53.673Z</time>
      </trkpt>
      <trkpt lat="43.43849" lon="6.63357">
        <ele>121.9</ele>
        <time>2013-10-10T13:41:54.672Z</time>
      </trkpt>
      <trkpt lat="43.43856" lon="6.63352">
        <ele>121.4</ele>
        <time>2013-10-10T13:41:55.672Z</time>
      </trkpt>
      <trkpt lat="43.43862" lon="6.63348">
        <ele>121.2</ele>
        <time>2013-10-10T13:41:56.641Z</time>
      </trkpt>
      <trkpt lat="43.43868" lon="6.63345">
        <ele>120.9</ele>
        <time>2013-10-10T13:41:57.675Z</time>
      </trkpt>
      <trkpt lat="43.43873" lon="6.63342">
        <ele>120.4</ele>
        <time>2013-10-10T13:41:58.686Z</time>
      </trkpt>
      <trkpt lat="43.43878" lon="6.63339">
        <ele>119.9</ele>
        <time>2013-10-10T13:41:59.687Z</time>
      </trkpt>
      <trkpt lat="43.43883" lon="6.63337">
        <ele>119.6</ele>
        <time>2013-10-10T13:42:00.640Z</time>
      </trkpt>
      <trkpt lat="43.43888" lon="6.63334">
        <ele>119</ele>
        <time>2013-10-10T13:42:01.682Z</time>
      </trkpt>
      <trkpt lat="43.43892" lon="6.63332">
        <ele>118.3</ele>
        <time>2013-10-10T13:42:02.683Z</time>
      </trkpt>
      <trkpt lat="43.43897" lon="6.63329">
        <ele>117.2</ele>
        <time>2013-10-10T13:42:03.683Z</time>
      </trkpt>
      <trkpt lat="43.43902" lon="6.63327">
        <ele>116.4</ele>
        <time>2013-10-10T13:42:04.687Z</time>
      </trkpt>
      <trkpt lat="43.43906" lon="6.63325">
        <ele>115.6</ele>
        <time>2013-10-10T13:42:05.685Z</time>
      </trkpt>
      <trkpt lat="43.43913" lon="6.6332">
        <ele>114.7</ele>
        <time>2013-10-10T13:42:07.685Z</time>
      </trkpt>
      <trkpt lat="43.43917" lon="6.63319">
        <ele>114.6</ele>
        <time>2013-10-10T13:42:08.689Z</time>
      </trkpt>
      <trkpt lat="43.43924" lon="6.63325">
        <ele>112.3</ele>
        <time>2013-10-10T13:42:10.701Z</time>
      </trkpt>
      <trkpt lat="43.43927" lon="6.63328">
        <ele>110.8</ele>
        <time>2013-10-10T13:42:11.684Z</time>
      </trkpt>
      <trkpt lat="43.43931" lon="6.63333">
        <ele>109.8</ele>
        <time>2013-10-10T13:42:12.687Z</time>
      </trkpt>
      <trkpt lat="43.43935" lon="6.6334">
        <ele>108.6</ele>
        <time>2013-10-10T13:42:13.685Z</time>
      </trkpt>
      <trkpt lat="43.43939" lon="6.63346">
        <ele>107</ele>
        <time>2013-10-10T13:42:14.687Z</time>
      </trkpt>
      <trkpt lat="43.43942" lon="6.63353">
        <ele>105.5</ele>
        <time>2013-10-10T13:42:15.639Z</time>
      </trkpt>
      <trkpt lat="43.43946" lon="6.63359">
        <ele>104.5</ele>
        <time>2013-10-10T13:42:16.685Z</time>
      </trkpt>
      <trkpt lat="43.4395" lon="6.63365">
        <ele>103.5</ele>
        <time>2013-10-10T13:42:17.687Z</time>
      </trkpt>
      <trkpt lat="43.43954" lon="6.6337">
        <ele>102.4</ele>
        <time>2013-10-10T13:42:18.691Z</time>
      </trkpt>
      <trkpt lat="43.43958" lon="6.63373">
        <ele>101.5</ele>
        <time>2013-10-10T13:42:19.691Z</time>
      </trkpt>
      <trkpt lat="43.43962" lon="6.63375">
        <ele>101.1</ele>
        <time>2013-10-10T13:42:20.702Z</time>
      </trkpt>
      <trkpt lat="43.43967" lon="6.63377">
        <ele>100.7</ele>
        <time>2013-10-10T13:42:21.686Z</time>
      </trkpt>
      <trkpt lat="43.43973" lon="6.6338">
        <ele>100</ele>
        <time>2013-10-10T13:42:22.684Z</time>
      </trkpt>
      <trkpt lat="43.43979" lon="6.63386">
        <ele>98.9</ele>
        <time>2013-10-10T13:42:23.695Z</time>
      </trkpt>
      <trkpt lat="43.43984" lon="6.63394">
        <ele>97.8</ele>
        <time>2013-10-10T13:42:24.687Z</time>
      </trkpt>
      <trkpt lat="43.4399" lon="6.63401">
        <ele>97.1</ele>
        <time>2013-10-10T13:42:25.642Z</time>
      </trkpt>
      <trkpt lat="43.43997" lon="6.63412">
        <ele>96.8</ele>
        <time>2013-10-10T13:42:26.687Z</time>
      </trkpt>
      <trkpt lat="43.44004" lon="6.63424">
        <ele>96.3</ele>
        <time>2013-10-10T13:42:27.751Z</time>
      </trkpt>
      <trkpt lat="43.44011" lon="6.63435">
        <ele>96</ele>
        <time>2013-10-10T13:42:28.683Z</time>
      </trkpt>
      <trkpt lat="43.44017" lon="6.63447">
        <ele>95.9</ele>
        <time>2013-10-10T13:42:29.682Z</time>
      </trkpt>
      <trkpt lat="43.44024" lon="6.63458">
        <ele>95.8</ele>
        <time>2013-10-10T13:42:30.692Z</time>
      </trkpt>
      <trkpt lat="43.44029" lon="6.63468">
        <ele>95.4</ele>
        <time>2013-10-10T13:42:31.681Z</time>
      </trkpt>
      <trkpt lat="43.44034" lon="6.63477">
        <ele>94.7</ele>
        <time>2013-10-10T13:42:32.693Z</time>
      </trkpt>
      <trkpt lat="43.44038" lon="6.63484">
        <ele>93.9</ele>
        <time>2013-10-10T13:42:33.684Z</time>
      </trkpt>
      <trkpt lat="43.44043" lon="6.63492">
        <ele>93.5</ele>
        <time>2013-10-10T13:42:34.756Z</time>
      </trkpt>
      <trkpt lat="43.44048" lon="6.635">
        <ele>92.9</ele>
        <time>2013-10-10T13:42:35.682Z</time>
      </trkpt>
      <trkpt lat="43.44054" lon="6.63509">
        <ele>92.2</ele>
        <time>2013-10-10T13:42:36.688Z</time>
      </trkpt>
      <trkpt lat="43.44061" lon="6.63518">
        <ele>91.4</ele>
        <time>2013-10-10T13:42:37.687Z</time>
      </trkpt>
      <trkpt lat="43.44068" lon="6.63527">
        <ele>90.7</ele>
        <time>2013-10-10T13:42:38.687Z</time>
      </trkpt>
      <trkpt lat="43.44074" lon="6.63536">
        <ele>89.7</ele>
        <time>2013-10-10T13:42:39.689Z</time>
      </trkpt>
      <trkpt lat="43.44081" lon="6.63546">
        <ele>88.5</ele>
        <time>2013-10-10T13:42:40.701Z</time>
      </trkpt>
      <trkpt lat="43.44088" lon="6.63555">
        <ele>87.7</ele>
        <time>2013-10-10T13:42:41.686Z</time>
      </trkpt>
      <trkpt lat="43.44095" lon="6.63564">
        <ele>87.2</ele>
        <time>2013-10-10T13:42:42.669Z</time>
      </trkpt>
      <trkpt lat="43.44102" lon="6.63573">
        <ele>86.8</ele>
        <time>2013-10-10T13:42:43.635Z</time>
      </trkpt>
      <trkpt lat="43.44109" lon="6.63582">
        <ele>86.5</ele>
        <time>2013-10-10T13:42:44.678Z</time>
      </trkpt>
      <trkpt lat="43.44114" lon="6.6359">
        <ele>86.5</ele>
        <time>2013-10-10T13:42:45.678Z</time>
      </trkpt>
      <trkpt lat="43.44119" lon="6.63597">
        <ele>86.6</ele>
        <time>2013-10-10T13:42:46.678Z</time>
      </trkpt>
      <trkpt lat="43.44123" lon="6.63604">
        <ele>86.6</ele>
        <time>2013-10-10T13:42:47.677Z</time>
      </trkpt>
      <trkpt lat="43.44128" lon="6.63611">
        <ele>86.3</ele>
        <time>2013-10-10T13:42:48.676Z</time>
      </trkpt>
      <trkpt lat="43.44133" lon="6.63619">
        <ele>86.1</ele>
        <time>2013-10-10T13:42:49.677Z</time>
      </trkpt>
      <trkpt lat="43.44137" lon="6.63627">
        <ele>85.9</ele>
        <time>2013-10-10T13:42:50.708Z</time>
      </trkpt>
      <trkpt lat="43.44142" lon="6.63633">
        <ele>85.9</ele>
        <time>2013-10-10T13:42:51.675Z</time>
      </trkpt>
      <trkpt lat="43.44146" lon="6.63639">
        <ele>85.8</ele>
        <time>2013-10-10T13:42:52.676Z</time>
      </trkpt>
      <trkpt lat="43.44151" lon="6.63643">
        <ele>85.9</ele>
        <time>2013-10-10T13:42:53.681Z</time>
      </trkpt>
      <trkpt lat="43.44156" lon="6.63645">
        <ele>86.1</ele>
        <time>2013-10-10T13:42:54.684Z</time>
      </trkpt>
      <trkpt lat="43.44163" lon="6.63647">
        <ele>85.8</ele>
        <time>2013-10-10T13:42:55.687Z</time>
      </trkpt>
      <trkpt lat="43.4417" lon="6.63649">
        <ele>85</ele>
        <time>2013-10-10T13:42:56.685Z</time>
      </trkpt>
      <trkpt lat="43.44178" lon="6.63653">
        <ele>84.5</ele>
        <time>2013-10-10T13:42:57.688Z</time>
      </trkpt>
      <trkpt lat="43.44185" lon="6.63659">
        <ele>84.9</ele>
        <time>2013-10-10T13:42:58.672Z</time>
      </trkpt>
      <trkpt lat="43.44192" lon="6.63666">
        <ele>85.7</ele>
        <time>2013-10-10T13:42:59.670Z</time>
      </trkpt>
      <trkpt lat="43.44198" lon="6.63675">
        <ele>86.4</ele>
        <time>2013-10-10T13:43:00.617Z</time>
      </trkpt>
      <trkpt lat="43.44204" lon="6.63684">
        <ele>87.3</ele>
        <time>2013-10-10T13:43:01.681Z</time>
      </trkpt>
      <trkpt lat="43.4421" lon="6.63691">
        <ele>87.3</ele>
        <time>2013-10-10T13:43:02.681Z</time>
      </trkpt>
      <trkpt lat="43.44217" lon="6.63697">
        <ele>87.2</ele>
        <time>2013-10-10T13:43:03.682Z</time>
      </trkpt>
      <trkpt lat="43.44224" lon="6.63701">
        <ele>87.5</ele>
        <time>2013-10-10T13:43:04.689Z</time>
      </trkpt>
      <trkpt lat="43.44232" lon="6.637">
        <ele>87.6</ele>
        <time>2013-10-10T13:43:05.688Z</time>
      </trkpt>
      <trkpt lat="43.44239" lon="6.63696">
        <ele>87.5</ele>
        <time>2013-10-10T13:43:06.683Z</time>
      </trkpt>
      <trkpt lat="43.44244" lon="6.63688">
        <ele>87.2</ele>
        <time>2013-10-10T13:43:07.687Z</time>
      </trkpt>
      <trkpt lat="43.44247" lon="6.63677">
        <ele>86.8</ele>
        <time>2013-10-10T13:43:08.686Z</time>
      </trkpt>
      <trkpt lat="43.4425" lon="6.63665">
        <ele>86.2</ele>
        <time>2013-10-10T13:43:09.684Z</time>
      </trkpt>
      <trkpt lat="43.44252" lon="6.63653">
        <ele>85.3</ele>
        <time>2013-10-10T13:43:10.690Z</time>
      </trkpt>
      <trkpt lat="43.44253" lon="6.63642">
        <ele>84.2</ele>
        <time>2013-10-10T13:43:11.689Z</time>
      </trkpt>
      <trkpt lat="43.44255" lon="6.63631">
        <ele>83.1</ele>
        <time>2013-10-10T13:43:12.680Z</time>
      </trkpt>
      <trkpt lat="43.44258" lon="6.63622">
        <ele>82</ele>
        <time>2013-10-10T13:43:13.680Z</time>
      </trkpt>
      <trkpt lat="43.44262" lon="6.63614">
        <ele>81.5</ele>
        <time>2013-10-10T13:43:14.677Z</time>
      </trkpt>
      <trkpt lat="43.44266" lon="6.63608">
        <ele>81.2</ele>
        <time>2013-10-10T13:43:15.666Z</time>
      </trkpt>
      <trkpt lat="43.44272" lon="6.63608">
        <ele>81</ele>
        <time>2013-10-10T13:43:16.681Z</time>
      </trkpt>
      <trkpt lat="43.44278" lon="6.63611">
        <ele>81</ele>
        <time>2013-10-10T13:43:17.683Z</time>
      </trkpt>
      <trkpt lat="43.44284" lon="6.63614">
        <ele>81.3</ele>
        <time>2013-10-10T13:43:18.688Z</time>
      </trkpt>
      <trkpt lat="43.4429" lon="6.63617">
        <ele>81.4</ele>
        <time>2013-10-10T13:43:19.685Z</time>
      </trkpt>
      <trkpt lat="43.44296" lon="6.63617">
        <ele>81.5</ele>
        <time>2013-10-10T13:43:20.699Z</time>
      </trkpt>
      <trkpt lat="43.44302" lon="6.63616">
        <ele>81.2</ele>
        <time>2013-10-10T13:43:21.692Z</time>
      </trkpt>
      <trkpt lat="43.44307" lon="6.63612">
        <ele>81</ele>
        <time>2013-10-10T13:43:22.681Z</time>
      </trkpt>
      <trkpt lat="43.44313" lon="6.63608">
        <ele>80.1</ele>
        <time>2013-10-10T13:43:23.677Z</time>
      </trkpt>
      <trkpt lat="43.44317" lon="6.63602">
        <ele>79.5</ele>
        <time>2013-10-10T13:43:24.675Z</time>
      </trkpt>
      <trkpt lat="43.4432" lon="6.63596">
        <ele>78.9</ele>
        <time>2013-10-10T13:43:25.677Z</time>
      </trkpt>
      <trkpt lat="43.44321" lon="6.63591">
        <ele>78.8</ele>
        <time>2013-10-10T13:43:26.676Z</time>
      </trkpt>
      <trkpt lat="43.44319" lon="6.63579">
        <ele>78.4</ele>
        <time>2013-10-10T13:43:29.681Z</time>
      </trkpt>
      <trkpt lat="43.44318" lon="6.63576">
        <ele>78.3</ele>
        <time>2013-10-10T13:43:30.695Z</time>
      </trkpt>
      <trkpt lat="43.44318" lon="6.63565">
        <ele>75.9</ele>
        <time>2013-10-10T13:43:33.686Z</time>
      </trkpt>
      <trkpt lat="43.44322" lon="6.63562">
        <ele>74.2</ele>
        <time>2013-10-10T13:43:34.676Z</time>
      </trkpt>
      <trkpt lat="43.44326" lon="6.63562">
        <ele>73.3</ele>
        <time>2013-10-10T13:43:35.661Z</time>
      </trkpt>
      <trkpt lat="43.44333" lon="6.63563">
        <ele>72.4</ele>
        <time>2013-10-10T13:43:36.651Z</time>
      </trkpt>
      <trkpt lat="43.44341" lon="6.63566">
        <ele>71.3</ele>
        <time>2013-10-10T13:43:37.655Z</time>
      </trkpt>
      <trkpt lat="43.4435" lon="6.6357">
        <ele>70</ele>
        <time>2013-10-10T13:43:38.651Z</time>
      </trkpt>
      <trkpt lat="43.44361" lon="6.63576">
        <ele>68.9</ele>
        <time>2013-10-10T13:43:39.654Z</time>
      </trkpt>
      <trkpt lat="43.44371" lon="6.63582">
        <ele>67.7</ele>
        <time>2013-10-10T13:43:40.686Z</time>
      </trkpt>
      <trkpt lat="43.44381" lon="6.63588">
        <ele>67</ele>
        <time>2013-10-10T13:43:41.679Z</time>
      </trkpt>
      <trkpt lat="43.4439" lon="6.63594">
        <ele>66.3</ele>
        <time>2013-10-10T13:43:42.685Z</time>
      </trkpt>
      <trkpt lat="43.44399" lon="6.636">
        <ele>65.8</ele>
        <time>2013-10-10T13:43:43.741Z</time>
      </trkpt>
      <trkpt lat="43.44407" lon="6.63605">
        <ele>65.5</ele>
        <time>2013-10-10T13:43:44.684Z</time>
      </trkpt>
      <trkpt lat="43.44416" lon="6.63611">
        <ele>65.3</ele>
        <time>2013-10-10T13:43:45.686Z</time>
      </trkpt>
      <trkpt lat="43.44424" lon="6.63617">
        <ele>64.9</ele>
        <time>2013-10-10T13:43:46.685Z</time>
      </trkpt>
      <trkpt lat="43.44431" lon="6.63623">
        <ele>64.6</ele>
        <time>2013-10-10T13:43:47.682Z</time>
      </trkpt>
      <trkpt lat="43.44439" lon="6.63631">
        <ele>63.8</ele>
        <time>2013-10-10T13:43:48.683Z</time>
      </trkpt>
      <trkpt lat="43.44446" lon="6.63639">
        <ele>63.3</ele>
        <time>2013-10-10T13:43:49.676Z</time>
      </trkpt>
      <trkpt lat="43.44453" lon="6.63647">
        <ele>63</ele>
        <time>2013-10-10T13:43:50.691Z</time>
      </trkpt>
      <trkpt lat="43.4446" lon="6.63655">
        <ele>62.7</ele>
        <time>2013-10-10T13:43:51.677Z</time>
      </trkpt>
      <trkpt lat="43.44468" lon="6.63658">
        <ele>62.9</ele>
        <time>2013-10-10T13:43:52.677Z</time>
      </trkpt>
      <trkpt lat="43.44476" lon="6.63656">
        <ele>63.2</ele>
        <time>2013-10-10T13:43:53.682Z</time>
      </trkpt>
      <trkpt lat="43.44485" lon="6.63651">
        <ele>63.4</ele>
        <time>2013-10-10T13:43:54.714Z</time>
      </trkpt>
      <trkpt lat="43.44493" lon="6.63643">
        <ele>63.8</ele>
        <time>2013-10-10T13:43:55.677Z</time>
      </trkpt>
      <trkpt lat="43.44501" lon="6.63639">
        <ele>64.5</ele>
        <time>2013-10-10T13:43:56.678Z</time>
      </trkpt>
      <trkpt lat="43.44507" lon="6.63636">
        <ele>65.4</ele>
        <time>2013-10-10T13:43:57.678Z</time>
      </trkpt>
      <trkpt lat="43.44515" lon="6.63635">
        <ele>65.3</ele>
        <time>2013-10-10T13:44:01.672Z</time>
      </trkpt>
      <trkpt lat="43.44516" lon="6.63636">
        <ele>65.2</ele>
        <time>2013-10-10T13:44:02.673Z</time>
      </trkpt>
      <trkpt lat="43.44515" lon="6.63637">
        <ele>65.1</ele>
        <time>2013-10-10T13:44:05.685Z</time>
      </trkpt>
      <trkpt lat="43.44515" lon="6.63637">
        <ele>65</ele>
        <time>2013-10-10T13:44:06.638Z</time>
      </trkpt>
      <trkpt lat="43.44514" lon="6.63637">
        <ele>65.1</ele>
        <time>2013-10-10T13:44:09.681Z</time>
      </trkpt>
      <trkpt lat="43.4451" lon="6.63638">
        <ele>65.1</ele>
        <time>2013-10-10T13:44:10.695Z</time>
      </trkpt>
      <trkpt lat="43.44507" lon="6.63638">
        <ele>65.4</ele>
        <time>2013-10-10T13:44:15.684Z</time>
      </trkpt>
      <trkpt lat="43.44507" lon="6.63638">
        <ele>65.4</ele>
        <time>2013-10-10T13:44:16.692Z</time>
      </trkpt>
      <trkpt lat="43.44508" lon="6.63638">
        <ele>65.9</ele>
        <time>2013-10-10T13:44:43.686Z</time>
      </trkpt>
      <trkpt lat="43.44504" lon="6.6364">
        <ele>65.9</ele>
        <time>2013-10-10T13:44:44.686Z</time>
      </trkpt>
      <trkpt lat="43.44501" lon="6.63641">
        <ele>66.1</ele>
        <time>2013-10-10T13:44:49.664Z</time>
      </trkpt>
      <trkpt lat="43.44501" lon="6.63641">
        <ele>66.1</ele>
        <time>2013-10-10T13:44:50.694Z</time>
      </trkpt>
      <trkpt lat="43.44501" lon="6.63641">
        <ele>67</ele>
        <time>2013-10-10T13:45:55.643Z</time>
      </trkpt>
    </trkseg>
  </trk>
</gpx>